<?xml version='1.0' encoding='UTF-8'?><gpx version="1.1" creator="JPX - https://github.com/jenetics/jpx" xmlns="http://www.topografix.com/GPX/1/1"><trk><trkseg><trkpt lat="40.41937169503152" lon="16.550250121842268"><ele>57.99999999999999</ele><time>2026-04-26T06:59:19.997Z</time></trkpt><trkpt lat="40.41931665687196" lon="16.550370142247864"><ele>58.0</ele><time>2026-04-26T06:59:21.997Z</time></trkpt><trkpt lat="40.419300076401825" lon="16.55045955544116"><ele>58.0</ele><time>2026-04-26T06:59:22.997Z</time></trkpt><trkpt lat="40.4192824853863" lon="16.55055207754293"><ele>58.0</ele><time>2026-04-26T06:59:23.997Z</time></trkpt><trkpt lat="40.41925059677136" lon="16.55063989989667"><ele>57.99999999999999</ele><time>2026-04-26T06:59:24.997Z</time></trkpt><trkpt lat="40.41921368727311" lon="16.550718666384633"><ele>58.0</ele><time>2026-04-26T06:59:25.997Z</time></trkpt><trkpt lat="40.41918919854789" lon="16.55081426160049"><ele>57.83333333333333</ele><time>2026-04-26T06:59:26.997Z</time></trkpt><trkpt lat="40.41916064102476" lon="16.55090881963294"><ele>57.666666666666664</ele><time>2026-04-26T06:59:27.997Z</time></trkpt><trkpt lat="40.419130468200095" lon="16.55099799383618"><ele>57.5</ele><time>2026-04-26T06:59:28.997Z</time></trkpt><trkpt lat="40.41910373889637" lon="16.55109434298299"><ele>57.33333333333333</ele><time>2026-04-26T06:59:29.997Z</time></trkpt><trkpt lat="40.41907019810847" lon="16.55119848535181"><ele>57.166666666666664</ele><time>2026-04-26T06:59:30.997Z</time></trkpt><trkpt lat="40.419032872296" lon="16.551321078234086"><ele>57.0</ele><time>2026-04-26T06:59:31.997Z</time></trkpt><trkpt lat="40.41900188566696" lon="16.55145463135448"><ele>57.0</ele><time>2026-04-26T06:59:32.997Z</time></trkpt><trkpt lat="40.41898146403183" lon="16.55158815847064"><ele>57.0</ele><time>2026-04-26T06:59:33.997Z</time></trkpt><trkpt lat="40.41895106945874" lon="16.55171791615958"><ele>57.0</ele><time>2026-04-26T06:59:34.997Z</time></trkpt><trkpt lat="40.418918183109284" lon="16.55185142198222"><ele>57.0</ele><time>2026-04-26T06:59:35.997Z</time></trkpt><trkpt lat="40.41888248858188" lon="16.55198836553918"><ele>57.0</ele><time>2026-04-26T06:59:36.997Z</time></trkpt><trkpt lat="40.418845156701835" lon="16.552124585383986"><ele>57.25</ele><time>2026-04-26T06:59:37.997Z</time></trkpt><trkpt lat="40.41880327569293" lon="16.552266193830143"><ele>57.5</ele><time>2026-04-26T06:59:38.997Z</time></trkpt><trkpt lat="40.41875621552543" lon="16.552407902259233"><ele>57.75</ele><time>2026-04-26T06:59:39.997Z</time></trkpt><trkpt lat="40.41870847126353" lon="16.552549124764997"><ele>58.0</ele><time>2026-04-26T06:59:40.997Z</time></trkpt><trkpt lat="40.418667277961006" lon="16.552694170659088"><ele>58.0</ele><time>2026-04-26T06:59:41.997Z</time></trkpt><trkpt lat="40.41863829963171" lon="16.552844897176588"><ele>58.0</ele><time>2026-04-26T06:59:42.997Z</time></trkpt><trkpt lat="40.418622111636424" lon="16.55300405228334"><ele>58.0</ele><time>2026-04-26T06:59:43.997Z</time></trkpt><trkpt lat="40.41861516556155" lon="16.553166971305107"><ele>58.0</ele><time>2026-04-26T06:59:44.997Z</time></trkpt><trkpt lat="40.418627332374264" lon="16.553331654380937"><ele>57.0</ele><time>2026-04-26T06:59:45.997Z</time></trkpt><trkpt lat="40.41865722938966" lon="16.553498846183583"><ele>56.0</ele><time>2026-04-26T06:59:46.997Z</time></trkpt><trkpt lat="40.418707884840316" lon="16.553662277411323"><ele>55.0</ele><time>2026-04-26T06:59:47.997Z</time></trkpt><trkpt lat="40.418774599833434" lon="16.55381387654333"><ele>54.0</ele><time>2026-04-26T06:59:48.997Z</time></trkpt><trkpt lat="40.418860185061774" lon="16.553958381058024"><ele>54.0</ele><time>2026-04-26T06:59:49.997Z</time></trkpt><trkpt lat="40.41896820406635" lon="16.554091166366625"><ele>54.0</ele><time>2026-04-26T06:59:50.997Z</time></trkpt><trkpt lat="40.41908058999638" lon="16.554213969730046"><ele>54.0</ele><time>2026-04-26T06:59:51.997Z</time></trkpt><trkpt lat="40.419233179617436" lon="16.554301213990296"><ele>54.0</ele><time>2026-04-26T06:59:52.997Z</time></trkpt><trkpt lat="40.41934097875678" lon="16.554394035908434"><ele>54.0</ele><time>2026-04-26T06:59:53.997Z</time></trkpt><trkpt lat="40.41944346329907" lon="16.55448988388205"><ele>54.0</ele><time>2026-04-26T06:59:54.997Z</time></trkpt><trkpt lat="40.41953990343192" lon="16.554585102011874"><ele>54.0</ele><time>2026-04-26T06:59:55.997Z</time></trkpt><trkpt lat="40.41967146278055" lon="16.554710971333492"><ele>54.0</ele><time>2026-04-26T06:59:56.997Z</time></trkpt><trkpt lat="40.419812942127614" lon="16.554846820504455"><ele>54.0</ele><time>2026-04-26T06:59:57.997Z</time></trkpt><trkpt lat="40.41995834772512" lon="16.55498566858205"><ele>54.0</ele><time>2026-04-26T06:59:58.997Z</time></trkpt><trkpt lat="40.42009740868699" lon="16.555119879428847"><ele>54.0</ele><time>2026-04-26T06:59:59.996Z</time></trkpt><trkpt lat="40.42022903493122" lon="16.555247601326084"><ele>54.0</ele><time>2026-04-26T07:00:00.996Z</time></trkpt><trkpt lat="40.420355151715775" lon="16.55536887969922"><ele>54.0</ele><time>2026-04-26T07:00:01.996Z</time></trkpt><trkpt lat="40.42048807514083" lon="16.55550135669799"><ele>52.66666666666667</ele><time>2026-04-26T07:00:02.996Z</time></trkpt><trkpt lat="40.42062473666823" lon="16.555637058278364"><ele>51.333333333333336</ele><time>2026-04-26T07:00:03.996Z</time></trkpt><trkpt lat="40.420752849915665" lon="16.555764927516055"><ele>50.0</ele><time>2026-04-26T07:00:04.996Z</time></trkpt><trkpt lat="40.42088910233759" lon="16.555895040236507"><ele>50.0</ele><time>2026-04-26T07:00:05.996Z</time></trkpt><trkpt lat="40.42103582381964" lon="16.556035637357247"><ele>50.0</ele><time>2026-04-26T07:00:06.996Z</time></trkpt><trkpt lat="40.42116755004684" lon="16.556169308728414"><ele>50.0</ele><time>2026-04-26T07:00:07.996Z</time></trkpt><trkpt lat="40.421300666364466" lon="16.556299105768165"><ele>49.66666666666667</ele><time>2026-04-26T07:00:08.996Z</time></trkpt><trkpt lat="40.42143225144278" lon="16.556433466024462"><ele>49.33333333333333</ele><time>2026-04-26T07:00:09.996Z</time></trkpt><trkpt lat="40.421562762876576" lon="16.55656253673529"><ele>49.0</ele><time>2026-04-26T07:00:10.996Z</time></trkpt><trkpt lat="40.4216951475343" lon="16.55668647433658"><ele>49.0</ele><time>2026-04-26T07:00:11.996Z</time></trkpt><trkpt lat="40.42182108995251" lon="16.556807147682377"><ele>49.0</ele><time>2026-04-26T07:00:12.996Z</time></trkpt><trkpt lat="40.421949154554575" lon="16.556933190605765"><ele>49.0</ele><time>2026-04-26T07:00:13.996Z</time></trkpt><trkpt lat="40.42207934797964" lon="16.557062866971222"><ele>48.666666666666664</ele><time>2026-04-26T07:00:14.996Z</time></trkpt><trkpt lat="40.422202026943275" lon="16.557187781972534"><ele>48.33333333333333</ele><time>2026-04-26T07:00:15.996Z</time></trkpt><trkpt lat="40.422333611816285" lon="16.557317983444772"><ele>48.0</ele><time>2026-04-26T07:00:16.996Z</time></trkpt><trkpt lat="40.42246184541657" lon="16.557444092039987"><ele>48.0</ele><time>2026-04-26T07:00:17.996Z</time></trkpt><trkpt lat="40.42258618590974" lon="16.557567430346495"><ele>48.0</ele><time>2026-04-26T07:00:18.996Z</time></trkpt><trkpt lat="40.42270680248575" lon="16.557695157248574"><ele>48.0</ele><time>2026-04-26T07:00:19.996Z</time></trkpt><trkpt lat="40.4228329355701" lon="16.557819063313413"><ele>47.666666666666664</ele><time>2026-04-26T07:00:20.996Z</time></trkpt><trkpt lat="40.422962019835985" lon="16.55794390214527"><ele>47.33333333333333</ele><time>2026-04-26T07:00:21.996Z</time></trkpt><trkpt lat="40.42308275643761" lon="16.558066554950262"><ele>47.0</ele><time>2026-04-26T07:00:22.996Z</time></trkpt><trkpt lat="40.42320638032407" lon="16.55819009105664"><ele>47.0</ele><time>2026-04-26T07:00:23.996Z</time></trkpt><trkpt lat="40.423328467576134" lon="16.558304809119644"><ele>47.0</ele><time>2026-04-26T07:00:24.996Z</time></trkpt><trkpt lat="40.42344173088504" lon="16.558424784064083"><ele>47.0</ele><time>2026-04-26T07:00:25.996Z</time></trkpt><trkpt lat="40.423552108551625" lon="16.558547881992773"><ele>47.0</ele><time>2026-04-26T07:00:26.996Z</time></trkpt><trkpt lat="40.42366799767535" lon="16.55866403908934"><ele>46.75</ele><time>2026-04-26T07:00:27.996Z</time></trkpt><trkpt lat="40.42378482533069" lon="16.558766461697395"><ele>46.5</ele><time>2026-04-26T07:00:28.996Z</time></trkpt><trkpt lat="40.423894179260095" lon="16.558866444762266"><ele>46.25</ele><time>2026-04-26T07:00:29.996Z</time></trkpt><trkpt lat="40.42400870601181" lon="16.558960331844474"><ele>46.0</ele><time>2026-04-26T07:00:30.996Z</time></trkpt><trkpt lat="40.42411535264805" lon="16.55903615187836"><ele>45.5</ele><time>2026-04-26T07:00:31.996Z</time></trkpt><trkpt lat="40.424222354229514" lon="16.559099570010506"><ele>45.0</ele><time>2026-04-26T07:00:32.996Z</time></trkpt><trkpt lat="40.424336420016175" lon="16.55916600451461"><ele>44.5</ele><time>2026-04-26T07:00:33.996Z</time></trkpt><trkpt lat="40.42445299204851" lon="16.55923626943989"><ele>44.0</ele><time>2026-04-26T07:00:34.996Z</time></trkpt><trkpt lat="40.42456505050709" lon="16.55930463765705"><ele>44.25</ele><time>2026-04-26T07:00:35.996Z</time></trkpt><trkpt lat="40.424678004358164" lon="16.55936927158656"><ele>44.5</ele><time>2026-04-26T07:00:36.996Z</time></trkpt><trkpt lat="40.42479292726299" lon="16.559438655165398"><ele>44.75</ele><time>2026-04-26T07:00:37.996Z</time></trkpt><trkpt lat="40.42491121020567" lon="16.559501053951728"><ele>45.0</ele><time>2026-04-26T07:00:38.996Z</time></trkpt><trkpt lat="40.425028352867855" lon="16.559565087391466"><ele>44.75</ele><time>2026-04-26T07:00:39.996Z</time></trkpt><trkpt lat="40.42515379438207" lon="16.559641476413116"><ele>44.5</ele><time>2026-04-26T07:00:40.996Z</time></trkpt><trkpt lat="40.42527276878456" lon="16.559709492075413"><ele>44.25</ele><time>2026-04-26T07:00:41.996Z</time></trkpt><trkpt lat="40.42539577048088" lon="16.559777502620186"><ele>44.0</ele><time>2026-04-26T07:00:42.996Z</time></trkpt><trkpt lat="40.42551301500922" lon="16.55984282683756"><ele>44.0</ele><time>2026-04-26T07:00:43.996Z</time></trkpt><trkpt lat="40.42563511722327" lon="16.559911970201668"><ele>44.0</ele><time>2026-04-26T07:00:44.996Z</time></trkpt><trkpt lat="40.425751876029224" lon="16.55998017119258"><ele>44.0</ele><time>2026-04-26T07:00:45.996Z</time></trkpt><trkpt lat="40.425874278509696" lon="16.560051549958587"><ele>44.0</ele><time>2026-04-26T07:00:46.996Z</time></trkpt><trkpt lat="40.42599728428331" lon="16.56012741483573"><ele>44.0</ele><time>2026-04-26T07:00:47.996Z</time></trkpt><trkpt lat="40.426126388636995" lon="16.560202540341578"><ele>44.0</ele><time>2026-04-26T07:00:48.996Z</time></trkpt><trkpt lat="40.426251059806894" lon="16.560278318246663"><ele>44.0</ele><time>2026-04-26T07:00:49.996Z</time></trkpt><trkpt lat="40.426381951603254" lon="16.560356739124384"><ele>44.0</ele><time>2026-04-26T07:00:50.996Z</time></trkpt><trkpt lat="40.42650251020912" lon="16.560425288404687"><ele>44.0</ele><time>2026-04-26T07:00:51.996Z</time></trkpt><trkpt lat="40.42661760705444" lon="16.560502235501623"><ele>44.0</ele><time>2026-04-26T07:00:52.997Z</time></trkpt><trkpt lat="40.42673066990701" lon="16.56058602978383"><ele>44.0</ele><time>2026-04-26T07:00:53.997Z</time></trkpt><trkpt lat="40.42683613154834" lon="16.560693241063372"><ele>44.0</ele><time>2026-04-26T07:00:54.996Z</time></trkpt><trkpt lat="40.42692618888932" lon="16.560796667576138"><ele>44.0</ele><time>2026-04-26T07:00:55.997Z</time></trkpt><trkpt lat="40.42702000707128" lon="16.560916414527906"><ele>44.0</ele><time>2026-04-26T07:00:56.997Z</time></trkpt><trkpt lat="40.42710575762183" lon="16.561041421977954"><ele>44.0</ele><time>2026-04-26T07:00:57.997Z</time></trkpt><trkpt lat="40.427194820463555" lon="16.561173141422216"><ele>44.0</ele><time>2026-04-26T07:00:58.997Z</time></trkpt><trkpt lat="40.42728419949689" lon="16.56130838573516"><ele>44.5</ele><time>2026-04-26T07:00:59.997Z</time></trkpt><trkpt lat="40.42737501281476" lon="16.561447250994906"><ele>45.0</ele><time>2026-04-26T07:01:00.997Z</time></trkpt><trkpt lat="40.427460740327476" lon="16.561587876710266"><ele>45.5</ele><time>2026-04-26T07:01:01.996Z</time></trkpt><trkpt lat="40.42755048903711" lon="16.561725295443786"><ele>46.0</ele><time>2026-04-26T07:01:02.996Z</time></trkpt><trkpt lat="40.42764460109461" lon="16.561863363952902"><ele>46.0</ele><time>2026-04-26T07:01:03.997Z</time></trkpt><trkpt lat="40.42773732953294" lon="16.562001668525625"><ele>46.0</ele><time>2026-04-26T07:01:04.996Z</time></trkpt><trkpt lat="40.42782608584131" lon="16.562134533644397"><ele>46.0</ele><time>2026-04-26T07:01:05.996Z</time></trkpt><trkpt lat="40.427918167727604" lon="16.562270831786034"><ele>46.0</ele><time>2026-04-26T07:01:06.996Z</time></trkpt><trkpt lat="40.42800449733769" lon="16.562402786332225"><ele>45.5</ele><time>2026-04-26T07:01:07.996Z</time></trkpt><trkpt lat="40.42809259703432" lon="16.562538224845337"><ele>45.0</ele><time>2026-04-26T07:01:08.996Z</time></trkpt><trkpt lat="40.42817346715554" lon="16.5626728834225"><ele>44.5</ele><time>2026-04-26T07:01:09.996Z</time></trkpt><trkpt lat="40.428254572287294" lon="16.562812202207223"><ele>44.0</ele><time>2026-04-26T07:01:10.996Z</time></trkpt><trkpt lat="40.42834361548575" lon="16.56294673880079"><ele>43.5</ele><time>2026-04-26T07:01:11.996Z</time></trkpt><trkpt lat="40.428432582214846" lon="16.56308002020371"><ele>43.0</ele><time>2026-04-26T07:01:12.996Z</time></trkpt><trkpt lat="40.42851969534709" lon="16.56320892111546"><ele>42.5</ele><time>2026-04-26T07:01:13.996Z</time></trkpt><trkpt lat="40.42860856531675" lon="16.563342971671336"><ele>42.0</ele><time>2026-04-26T07:01:14.996Z</time></trkpt><trkpt lat="40.42869949220161" lon="16.56347944850405"><ele>42.0</ele><time>2026-04-26T07:01:15.996Z</time></trkpt><trkpt lat="40.42878219297066" lon="16.56360288066781"><ele>42.0</ele><time>2026-04-26T07:01:16.996Z</time></trkpt><trkpt lat="40.42884961890744" lon="16.563710740261115"><ele>42.0</ele><time>2026-04-26T07:01:17.996Z</time></trkpt><trkpt lat="40.42890808077138" lon="16.563796797198737"><ele>42.0</ele><time>2026-04-26T07:01:18.996Z</time></trkpt><trkpt lat="40.428961594981175" lon="16.563873511071943"><ele>42.0</ele><time>2026-04-26T07:01:19.996Z</time></trkpt><trkpt lat="40.429016925171474" lon="16.563957139356734"><ele>42.0</ele><time>2026-04-26T07:01:20.996Z</time></trkpt><trkpt lat="40.42907685398165" lon="16.564045836964254"><ele>42.0</ele><time>2026-04-26T07:01:21.996Z</time></trkpt><trkpt lat="40.42913823843698" lon="16.56414262665249"><ele>42.0</ele><time>2026-04-26T07:01:22.996Z</time></trkpt><trkpt lat="40.42920485055647" lon="16.564248253419965"><ele>42.0</ele><time>2026-04-26T07:01:23.996Z</time></trkpt><trkpt lat="40.429275877321615" lon="16.564350893950092"><ele>42.0</ele><time>2026-04-26T07:01:24.996Z</time></trkpt><trkpt lat="40.42935014427737" lon="16.56445977371412"><ele>41.8</ele><time>2026-04-26T07:01:25.996Z</time></trkpt><trkpt lat="40.429421733373815" lon="16.56457564295687"><ele>41.6</ele><time>2026-04-26T07:01:26.996Z</time></trkpt><trkpt lat="40.42949494030846" lon="16.564682516655175"><ele>41.4</ele><time>2026-04-26T07:01:27.996Z</time></trkpt><trkpt lat="40.42957100566867" lon="16.56478705029766"><ele>41.199999999999996</ele><time>2026-04-26T07:01:28.996Z</time></trkpt><trkpt lat="40.42964221799599" lon="16.56488922497416"><ele>41.0</ele><time>2026-04-26T07:01:29.996Z</time></trkpt><trkpt lat="40.429715909587166" lon="16.5649983736254"><ele>41.0</ele><time>2026-04-26T07:01:30.996Z</time></trkpt><trkpt lat="40.42978061644614" lon="16.565102579785883"><ele>41.0</ele><time>2026-04-26T07:01:31.996Z</time></trkpt><trkpt lat="40.42984044903812" lon="16.5651960067485"><ele>41.0</ele><time>2026-04-26T07:01:32.996Z</time></trkpt><trkpt lat="40.42989370545616" lon="16.5652821722301"><ele>41.0</ele><time>2026-04-26T07:01:33.996Z</time></trkpt><trkpt lat="40.429945383179515" lon="16.56537428170544"><ele>41.0</ele><time>2026-04-26T07:01:34.996Z</time></trkpt><trkpt lat="40.42999671863251" lon="16.56547357648821"><ele>40.4</ele><time>2026-04-26T07:01:35.996Z</time></trkpt><trkpt lat="40.43005162985298" lon="16.565572675981713"><ele>39.8</ele><time>2026-04-26T07:01:36.996Z</time></trkpt><trkpt lat="40.43010982816197" lon="16.565676028989618"><ele>39.199999999999996</ele><time>2026-04-26T07:01:37.996Z</time></trkpt><trkpt lat="40.43016817536847" lon="16.56578020690887"><ele>38.599999999999994</ele><time>2026-04-26T07:01:38.996Z</time></trkpt><trkpt lat="40.430220641537865" lon="16.565887340180556"><ele>38.0</ele><time>2026-04-26T07:01:39.996Z</time></trkpt><trkpt lat="40.43027389848206" lon="16.565995340872487"><ele>38.0</ele><time>2026-04-26T07:01:40.996Z</time></trkpt><trkpt lat="40.43033096175198" lon="16.566103856469077"><ele>38.0</ele><time>2026-04-26T07:01:41.996Z</time></trkpt><trkpt lat="40.43038124597114" lon="16.566213366177927"><ele>38.0</ele><time>2026-04-26T07:01:42.996Z</time></trkpt><trkpt lat="40.43043093414578" lon="16.56631543536133"><ele>38.0</ele><time>2026-04-26T07:01:43.996Z</time></trkpt><trkpt lat="40.43048368313433" lon="16.566412457947038"><ele>38.0</ele><time>2026-04-26T07:01:44.996Z</time></trkpt><trkpt lat="40.43053346210261" lon="16.56651007245257"><ele>37.0</ele><time>2026-04-26T07:01:45.996Z</time></trkpt><trkpt lat="40.430580287314534" lon="16.56660135740677"><ele>36.0</ele><time>2026-04-26T07:01:46.996Z</time></trkpt><trkpt lat="40.43062141737954" lon="16.566685835219648"><ele>35.0</ele><time>2026-04-26T07:01:47.996Z</time></trkpt><trkpt lat="40.43066029370514" lon="16.5667596420654"><ele>34.0</ele><time>2026-04-26T07:01:48.996Z</time></trkpt><trkpt lat="40.43069894972746" lon="16.56683571206863"><ele>33.0</ele><time>2026-04-26T07:01:49.996Z</time></trkpt><trkpt lat="40.430770659655494" lon="16.566952293146443"><ele>32.0</ele><time>2026-04-26T07:01:51.996Z</time></trkpt><trkpt lat="40.43083661557161" lon="16.56705464352002"><ele>32.0</ele><time>2026-04-26T07:01:53.996Z</time></trkpt><trkpt lat="40.430900238883254" lon="16.567070191502218"><ele>32.0</ele><time>2026-04-26T07:01:55.996Z</time></trkpt><trkpt lat="40.43095398216999" lon="16.5670007247594"><ele>32.0</ele><time>2026-04-26T07:01:57.996Z</time></trkpt><trkpt lat="40.43100303008879" lon="16.56686583964552"><ele>32.0</ele><time>2026-04-26T07:01:59.996Z</time></trkpt><trkpt lat="40.431051821282345" lon="16.56675914852878"><ele>32.0</ele><time>2026-04-26T07:02:01.996Z</time></trkpt><trkpt lat="40.4311390065659" lon="16.56663850925747"><ele>31.999999999999996</ele><time>2026-04-26T07:02:03.996Z</time></trkpt><trkpt lat="40.4311807784388" lon="16.566576230365555"><ele>32.0</ele><time>2026-04-26T07:02:04.996Z</time></trkpt><trkpt lat="40.43122473425296" lon="16.566425146383782"><ele>32.0</ele><time>2026-04-26T07:02:06.996Z</time></trkpt><trkpt lat="40.43124361205582" lon="16.56632419859239"><ele>32.0</ele><time>2026-04-26T07:02:07.996Z</time></trkpt><trkpt lat="40.431260555173964" lon="16.56623145223958"><ele>31.999999999999996</ele><time>2026-04-26T07:02:08.996Z</time></trkpt><trkpt lat="40.43128268667751" lon="16.566150439315617"><ele>32.0</ele><time>2026-04-26T07:02:09.996Z</time></trkpt><trkpt lat="40.4313095793792" lon="16.566062124095833"><ele>31.999999999999996</ele><time>2026-04-26T07:02:10.996Z</time></trkpt><trkpt lat="40.43135062615441" lon="16.565980267267086"><ele>32.0</ele><time>2026-04-26T07:02:11.996Z</time></trkpt><trkpt lat="40.43139128717381" lon="16.565889497094922"><ele>32.0</ele><time>2026-04-26T07:02:12.996Z</time></trkpt><trkpt lat="40.43143439829368" lon="16.565794232499222"><ele>32.0</ele><time>2026-04-26T07:02:13.995Z</time></trkpt><trkpt lat="40.431471231812985" lon="16.56569212650319"><ele>31.999999999999996</ele><time>2026-04-26T07:02:14.995Z</time></trkpt><trkpt lat="40.43151187279432" lon="16.56560444323791"><ele>32.0</ele><time>2026-04-26T07:02:15.995Z</time></trkpt><trkpt lat="40.4315468667121" lon="16.565525204177334"><ele>31.999999999999996</ele><time>2026-04-26T07:02:16.995Z</time></trkpt><trkpt lat="40.43159041621362" lon="16.565454851876336"><ele>32.0</ele><time>2026-04-26T07:02:17.995Z</time></trkpt><trkpt lat="40.43164400255507" lon="16.56538895534993"><ele>32.0</ele><time>2026-04-26T07:02:18.995Z</time></trkpt><trkpt lat="40.43169573889498" lon="16.565335486030534"><ele>32.0</ele><time>2026-04-26T07:02:19.995Z</time></trkpt><trkpt lat="40.431771083166005" lon="16.56522279533515"><ele>31.999999999999996</ele><time>2026-04-26T07:02:21.995Z</time></trkpt><trkpt lat="40.43182080627974" lon="16.565087940180437"><ele>32.0</ele><time>2026-04-26T07:02:23.995Z</time></trkpt><trkpt lat="40.43184889685199" lon="16.564947891524447"><ele>32.33333333333333</ele><time>2026-04-26T07:02:25.995Z</time></trkpt><trkpt lat="40.43184804556545" lon="16.56477991735052"><ele>32.666666666666664</ele><time>2026-04-26T07:02:27.995Z</time></trkpt><trkpt lat="40.43184894105073" lon="16.56468059313825"><ele>33.0</ele><time>2026-04-26T07:02:28.995Z</time></trkpt><trkpt lat="40.43185252973419" lon="16.5645716158153"><ele>33.333333333333336</ele><time>2026-04-26T07:02:29.995Z</time></trkpt><trkpt lat="40.43185072907285" lon="16.56447021819393"><ele>33.66666666666667</ele><time>2026-04-26T07:02:30.995Z</time></trkpt><trkpt lat="40.43184987267749" lon="16.564365426367885"><ele>34.0</ele><time>2026-04-26T07:02:31.995Z</time></trkpt><trkpt lat="40.43184617270391" lon="16.564272746360146"><ele>34.5</ele><time>2026-04-26T07:02:32.995Z</time></trkpt><trkpt lat="40.4318327852084" lon="16.564117043355136"><ele>35.0</ele><time>2026-04-26T07:02:34.995Z</time></trkpt><trkpt lat="40.431852846063265" lon="16.56397755137937"><ele>35.5</ele><time>2026-04-26T07:02:36.995Z</time></trkpt><trkpt lat="40.431899008834684" lon="16.563843002938007"><ele>36.0</ele><time>2026-04-26T07:02:38.995Z</time></trkpt><trkpt lat="40.431947130524236" lon="16.56368555901586"><ele>36.0</ele><time>2026-04-26T07:02:40.995Z</time></trkpt><trkpt lat="40.431975789815155" lon="16.563598154035237"><ele>36.0</ele><time>2026-04-26T07:02:41.995Z</time></trkpt><trkpt lat="40.43200201579939" lon="16.563515899618896"><ele>36.0</ele><time>2026-04-26T07:02:42.995Z</time></trkpt><trkpt lat="40.43204675801107" lon="16.56338921691268"><ele>36.0</ele><time>2026-04-26T07:02:44.995Z</time></trkpt><trkpt lat="40.43207904864129" lon="16.56329422654513"><ele>36.0</ele><time>2026-04-26T07:02:45.995Z</time></trkpt><trkpt lat="40.432110858848056" lon="16.56319891129583"><ele>36.0</ele><time>2026-04-26T07:02:46.995Z</time></trkpt><trkpt lat="40.432135785301995" lon="16.563084975687538"><ele>35.5</ele><time>2026-04-26T07:02:47.995Z</time></trkpt><trkpt lat="40.43215908768183" lon="16.562996978364893"><ele>35.0</ele><time>2026-04-26T07:02:48.995Z</time></trkpt><trkpt lat="40.43218829330264" lon="16.56290694972683"><ele>34.5</ele><time>2026-04-26T07:02:49.995Z</time></trkpt><trkpt lat="40.43222777544546" lon="16.562807981871902"><ele>34.0</ele><time>2026-04-26T07:02:50.995Z</time></trkpt><trkpt lat="40.432264339366924" lon="16.562730435033657"><ele>33.5</ele><time>2026-04-26T07:02:51.995Z</time></trkpt><trkpt lat="40.43229555286358" lon="16.562645000637282"><ele>33.0</ele><time>2026-04-26T07:02:52.995Z</time></trkpt><trkpt lat="40.43233033440043" lon="16.56254249592966"><ele>33.0</ele><time>2026-04-26T07:02:53.995Z</time></trkpt><trkpt lat="40.4323696492596" lon="16.562454828345288"><ele>33.0</ele><time>2026-04-26T07:02:54.995Z</time></trkpt><trkpt lat="40.43239464034945" lon="16.562378217596606"><ele>33.0</ele><time>2026-04-26T07:02:55.995Z</time></trkpt><trkpt lat="40.432417319651165" lon="16.56229899656858"><ele>33.0</ele><time>2026-04-26T07:02:56.995Z</time></trkpt><trkpt lat="40.43243482595281" lon="16.56221885197164"><ele>33.0</ele><time>2026-04-26T07:02:57.996Z</time></trkpt><trkpt lat="40.43247947707724" lon="16.562102694716682"><ele>33.0</ele><time>2026-04-26T07:03:05.996Z</time></trkpt><trkpt lat="40.43252294871945" lon="16.561989967101244"><ele>32.833333333333336</ele><time>2026-04-26T07:03:07.996Z</time></trkpt><trkpt lat="40.432560715396775" lon="16.56189127677166"><ele>32.666666666666664</ele><time>2026-04-26T07:03:09.996Z</time></trkpt><trkpt lat="40.43260550901947" lon="16.56177227490721"><ele>32.5</ele><time>2026-04-26T07:03:11.996Z</time></trkpt><trkpt lat="40.43264969174325" lon="16.56162687067218"><ele>32.33333333333333</ele><time>2026-04-26T07:03:13.996Z</time></trkpt><trkpt lat="40.43267928699169" lon="16.561543954317784"><ele>32.166666666666664</ele><time>2026-04-26T07:03:14.996Z</time></trkpt><trkpt lat="40.432706804939" lon="16.56146592302844"><ele>32.0</ele><time>2026-04-26T07:03:15.996Z</time></trkpt><trkpt lat="40.432734175138144" lon="16.561388623241427"><ele>31.999999999999996</ele><time>2026-04-26T07:03:16.996Z</time></trkpt><trkpt lat="40.432762127797474" lon="16.56131266051347"><ele>32.0</ele><time>2026-04-26T07:03:17.996Z</time></trkpt><trkpt lat="40.43281638141802" lon="16.561164383153056"><ele>32.0</ele><time>2026-04-26T07:03:19.996Z</time></trkpt><trkpt lat="40.432845795778015" lon="16.561071431765562"><ele>32.0</ele><time>2026-04-26T07:03:20.996Z</time></trkpt><trkpt lat="40.43287789384234" lon="16.560986534907084"><ele>31.999999999999996</ele><time>2026-04-26T07:03:21.996Z</time></trkpt><trkpt lat="40.43290649683925" lon="16.56090743709012"><ele>32.0</ele><time>2026-04-26T07:03:22.996Z</time></trkpt><trkpt lat="40.43294039465614" lon="16.56081594247055"><ele>32.166666666666664</ele><time>2026-04-26T07:03:23.996Z</time></trkpt><trkpt lat="40.43299055542283" lon="16.56068366807431"><ele>32.33333333333333</ele><time>2026-04-26T07:03:25.996Z</time></trkpt><trkpt lat="40.43304486967894" lon="16.5606026499833"><ele>32.5</ele><time>2026-04-26T07:03:27.996Z</time></trkpt><trkpt lat="40.4331127306421" lon="16.56053720118421"><ele>32.666666666666664</ele><time>2026-04-26T07:03:29.996Z</time></trkpt><trkpt lat="40.43315434510954" lon="16.56045549895598"><ele>32.833333333333336</ele><time>2026-04-26T07:03:32.996Z</time></trkpt><trkpt lat="40.433186149907236" lon="16.56033767319949"><ele>33.0</ele><time>2026-04-26T07:04:11.995Z</time></trkpt><trkpt lat="40.43319267436189" lon="16.560242266880564"><ele>33.0</ele><time>2026-04-26T07:04:14.995Z</time></trkpt><trkpt lat="40.43320814828957" lon="16.56015188145063"><ele>33.0</ele><time>2026-04-26T07:04:23.995Z</time></trkpt><trkpt lat="40.433233878467306" lon="16.560035860770434"><ele>33.0</ele><time>2026-04-26T07:05:57.995Z</time></trkpt><trkpt lat="40.4332623378201" lon="16.559939665470417"><ele>33.0</ele><time>2026-04-26T07:06:00.995Z</time></trkpt><trkpt lat="40.433302598485675" lon="16.559830670861636"><ele>33.0</ele><time>2026-04-26T07:06:03.995Z</time></trkpt><trkpt lat="40.433333619511686" lon="16.559753416017113"><ele>33.0</ele><time>2026-04-26T07:06:05.995Z</time></trkpt><trkpt lat="40.43336367973687" lon="16.55967234684043"><ele>33.0</ele><time>2026-04-26T07:06:07.995Z</time></trkpt><trkpt lat="40.43339323687971" lon="16.55958467685768"><ele>33.0</ele><time>2026-04-26T07:06:09.995Z</time></trkpt><trkpt lat="40.4334281780968" lon="16.559475438246235"><ele>33.0</ele><time>2026-04-26T07:06:11.995Z</time></trkpt><trkpt lat="40.4334567395931" lon="16.559397564732706"><ele>33.0</ele><time>2026-04-26T07:06:13.995Z</time></trkpt><trkpt lat="40.43349359006503" lon="16.559317420395967"><ele>33.0</ele><time>2026-04-26T07:06:15.995Z</time></trkpt><trkpt lat="40.43354683938577" lon="16.559198464776117"><ele>33.0</ele><time>2026-04-26T07:06:17.995Z</time></trkpt><trkpt lat="40.433590986696984" lon="16.55907831142694"><ele>33.333333333333336</ele><time>2026-04-26T07:06:19.995Z</time></trkpt><trkpt lat="40.43362873351237" lon="16.558976401552258"><ele>33.666666666666664</ele><time>2026-04-26T07:06:21.995Z</time></trkpt><trkpt lat="40.43365561342112" lon="16.558883078202744"><ele>34.0</ele><time>2026-04-26T07:06:23.995Z</time></trkpt><trkpt lat="40.4336830014464" lon="16.55877944716574"><ele>34.33333333333333</ele><time>2026-04-26T07:06:26.995Z</time></trkpt><trkpt lat="40.43373530429093" lon="16.558695911242438"><ele>34.666666666666664</ele><time>2026-04-26T07:06:29.995Z</time></trkpt><trkpt lat="40.43375350437484" lon="16.558598320057502"><ele>35.0</ele><time>2026-04-26T07:06:32.995Z</time></trkpt><trkpt lat="40.433783680008396" lon="16.558517737861163"><ele>34.83333333333333</ele><time>2026-04-26T07:06:34.995Z</time></trkpt><trkpt lat="40.433826703785684" lon="16.558413453440032"><ele>34.666666666666664</ele><time>2026-04-26T07:06:36.995Z</time></trkpt><trkpt lat="40.433866822641605" lon="16.558301225435574"><ele>34.5</ele><time>2026-04-26T07:06:38.995Z</time></trkpt><trkpt lat="40.43390471798125" lon="16.558197714589568"><ele>34.333333333333336</ele><time>2026-04-26T07:06:40.995Z</time></trkpt><trkpt lat="40.43394258840693" lon="16.55809845299503"><ele>34.16666666666667</ele><time>2026-04-26T07:06:43.995Z</time></trkpt><trkpt lat="40.43396347322699" lon="16.558001769391872"><ele>34.0</ele><time>2026-04-26T07:06:46.995Z</time></trkpt><trkpt lat="40.433994059136914" lon="16.557929465749744"><ele>35.0</ele><time>2026-04-26T07:06:49.995Z</time></trkpt><trkpt lat="40.434018685311976" lon="16.557831024465756"><ele>36.0</ele><time>2026-04-26T07:06:51.995Z</time></trkpt><trkpt lat="40.43404212965088" lon="16.557740900919523"><ele>37.0</ele><time>2026-04-26T07:06:54.995Z</time></trkpt><trkpt lat="40.434087937825666" lon="16.55766626638122"><ele>38.0</ele><time>2026-04-26T07:06:56.995Z</time></trkpt><trkpt lat="40.43416936083623" lon="16.557585240400627"><ele>39.0</ele><time>2026-04-26T07:06:58.995Z</time></trkpt><trkpt lat="40.434251266760796" lon="16.557508480445026"><ele>40.0</ele><time>2026-04-26T07:07:00.995Z</time></trkpt><trkpt lat="40.43433404761222" lon="16.557408916391605"><ele>40.0</ele><time>2026-04-26T07:07:02.995Z</time></trkpt><trkpt lat="40.434395809414326" lon="16.55727987470104"><ele>40.0</ele><time>2026-04-26T07:07:04.995Z</time></trkpt><trkpt lat="40.43442726957385" lon="16.55718761477604"><ele>40.0</ele><time>2026-04-26T07:07:05.995Z</time></trkpt><trkpt lat="40.434450001543254" lon="16.55710547064117"><ele>40.0</ele><time>2026-04-26T07:07:06.995Z</time></trkpt><trkpt lat="40.434469894631384" lon="16.55694681073678"><ele>40.0</ele><time>2026-04-26T07:07:08.994Z</time></trkpt><trkpt lat="40.43447492480881" lon="16.556835420070556"><ele>39.333333333333336</ele><time>2026-04-26T07:07:10.996Z</time></trkpt><trkpt lat="40.43451876669327" lon="16.556746249025153"><ele>38.66666666666667</ele><time>2026-04-26T07:07:12.996Z</time></trkpt><trkpt lat="40.43460328146677" lon="16.556714802509504"><ele>38.0</ele><time>2026-04-26T07:07:14.995Z</time></trkpt><trkpt lat="40.4346760288479" lon="16.556641679582977"><ele>37.333333333333336</ele><time>2026-04-26T07:07:16.996Z</time></trkpt><trkpt lat="40.43471330536519" lon="16.556541401625353"><ele>36.666666666666664</ele><time>2026-04-26T07:07:18.995Z</time></trkpt><trkpt lat="40.43473839758843" lon="16.556462457243565"><ele>36.0</ele><time>2026-04-26T07:07:20.996Z</time></trkpt><trkpt lat="40.43477664623223" lon="16.55637282576308"><ele>36.0</ele><time>2026-04-26T07:10:00.994Z</time></trkpt><trkpt lat="40.43469509735802" lon="16.556408896067946"><ele>36.0</ele><time>2026-04-26T07:10:05.994Z</time></trkpt><trkpt lat="40.43462087580478" lon="16.556536440445445"><ele>36.0</ele><time>2026-04-26T07:10:07.994Z</time></trkpt><trkpt lat="40.43457127604895" lon="16.556598346888524"><ele>36.0</ele><time>2026-04-26T07:10:08.994Z</time></trkpt><trkpt lat="40.43448391401547" lon="16.556642810983"><ele>36.0</ele><time>2026-04-26T07:10:10.994Z</time></trkpt><trkpt lat="40.43443681534782" lon="16.556565833640498"><ele>36.0</ele><time>2026-04-26T07:10:14.994Z</time></trkpt><trkpt lat="40.43442744961822" lon="16.556470372391615"><ele>37.28571428571429</ele><time>2026-04-26T07:10:16.994Z</time></trkpt><trkpt lat="40.43439991026852" lon="16.556394419344453"><ele>38.57142857142857</ele><time>2026-04-26T07:10:20.994Z</time></trkpt><trkpt lat="40.434441877847355" lon="16.556475764624366"><ele>39.85714285714286</ele><time>2026-04-26T07:12:00.995Z</time></trkpt><trkpt lat="40.43444566087364" lon="16.556582680425894"><ele>41.142857142857146</ele><time>2026-04-26T07:12:02.994Z</time></trkpt><trkpt lat="40.43443154512858" lon="16.55667410875668"><ele>42.42857142857143</ele><time>2026-04-26T07:12:04.994Z</time></trkpt><trkpt lat="40.43440473208537" lon="16.556770714626094"><ele>43.714285714285715</ele><time>2026-04-26T07:12:08.994Z</time></trkpt><trkpt lat="40.4344434202158" lon="16.556837654095737"><ele>45.0</ele><time>2026-04-26T07:12:11.994Z</time></trkpt><trkpt lat="40.43448429137351" lon="16.556921661130183"><ele>44.0</ele><time>2026-04-26T07:12:14.994Z</time></trkpt><trkpt lat="40.434467663961954" lon="16.557036310102088"><ele>43.0</ele><time>2026-04-26T07:12:16.994Z</time></trkpt><trkpt lat="40.43444684583104" lon="16.55715978944394"><ele>42.0</ele><time>2026-04-26T07:12:18.994Z</time></trkpt><trkpt lat="40.434408247055565" lon="16.557258971850896"><ele>41.0</ele><time>2026-04-26T07:12:20.994Z</time></trkpt><trkpt lat="40.434346737786505" lon="16.557362936449113"><ele>40.0</ele><time>2026-04-26T07:12:22.994Z</time></trkpt><trkpt lat="40.434255717032" lon="16.55747615716684"><ele>40.0</ele><time>2026-04-26T07:12:24.994Z</time></trkpt><trkpt lat="40.434199100715" lon="16.55753775983061"><ele>40.0</ele><time>2026-04-26T07:12:25.994Z</time></trkpt><trkpt lat="40.43415133089715" lon="16.557598194419473"><ele>40.0</ele><time>2026-04-26T07:12:26.994Z</time></trkpt><trkpt lat="40.43406404735421" lon="16.557692800349773"><ele>40.0</ele><time>2026-04-26T07:12:28.994Z</time></trkpt><trkpt lat="40.43401065094027" lon="16.557835172391016"><ele>40.0</ele><time>2026-04-26T07:12:30.994Z</time></trkpt><trkpt lat="40.4339888886088" lon="16.557913375233998"><ele>40.0</ele><time>2026-04-26T07:12:31.994Z</time></trkpt><trkpt lat="40.43394859241061" lon="16.558044737249272"><ele>39.2</ele><time>2026-04-26T07:12:33.994Z</time></trkpt><trkpt lat="40.433922408605795" lon="16.558158340396957"><ele>38.4</ele><time>2026-04-26T07:12:35.994Z</time></trkpt><trkpt lat="40.433877293465564" lon="16.558268679621882"><ele>37.6</ele><time>2026-04-26T07:12:37.994Z</time></trkpt><trkpt lat="40.43382715594933" lon="16.558408980076717"><ele>36.8</ele><time>2026-04-26T07:12:39.994Z</time></trkpt><trkpt lat="40.43378034903188" lon="16.558533415889528"><ele>36.0</ele><time>2026-04-26T07:12:41.994Z</time></trkpt><trkpt lat="40.43373775652115" lon="16.55864431058249"><ele>35.8</ele><time>2026-04-26T07:12:43.994Z</time></trkpt><trkpt lat="40.4337224159466" lon="16.55875731556773"><ele>35.6</ele><time>2026-04-26T07:12:45.994Z</time></trkpt><trkpt lat="40.43366446570506" lon="16.558855089411434"><ele>35.4</ele><time>2026-04-26T07:12:47.994Z</time></trkpt><trkpt lat="40.43360914741269" lon="16.558989681984155"><ele>35.2</ele><time>2026-04-26T07:12:49.994Z</time></trkpt><trkpt lat="40.43357039936679" lon="16.559093386957535"><ele>35.0</ele><time>2026-04-26T07:12:51.994Z</time></trkpt><trkpt lat="40.433532419685896" lon="16.55922040598051"><ele>35.0</ele><time>2026-04-26T07:12:53.994Z</time></trkpt><trkpt lat="40.433487188307666" lon="16.559361735277076"><ele>35.0</ele><time>2026-04-26T07:12:55.994Z</time></trkpt><trkpt lat="40.43341950865322" lon="16.559538173542204"><ele>35.0</ele><time>2026-04-26T07:12:58.994Z</time></trkpt><trkpt lat="40.433377115830964" lon="16.55966909504874"><ele>35.0</ele><time>2026-04-26T07:13:00.994Z</time></trkpt><trkpt lat="40.433328509932984" lon="16.55978695565444"><ele>34.6</ele><time>2026-04-26T07:13:02.994Z</time></trkpt><trkpt lat="40.43327957676062" lon="16.559916430242264"><ele>34.2</ele><time>2026-04-26T07:13:04.994Z</time></trkpt><trkpt lat="40.43323381243116" lon="16.560053964261428"><ele>33.8</ele><time>2026-04-26T07:13:06.994Z</time></trkpt><trkpt lat="40.43320656932033" lon="16.560162566472346"><ele>33.4</ele><time>2026-04-26T07:13:08.994Z</time></trkpt><trkpt lat="40.43320234785891" lon="16.56026294081565"><ele>33.0</ele><time>2026-04-26T07:13:11.994Z</time></trkpt><trkpt lat="40.43320040165033" lon="16.56038277554361"><ele>33.0</ele><time>2026-04-26T07:13:15.994Z</time></trkpt><trkpt lat="40.43316862502348" lon="16.560491684736057"><ele>33.0</ele><time>2026-04-26T07:13:17.993Z</time></trkpt><trkpt lat="40.43312559340267" lon="16.560564742966204"><ele>33.0</ele><time>2026-04-26T07:13:19.993Z</time></trkpt><trkpt lat="40.43306090626921" lon="16.560611250943758"><ele>33.0</ele><time>2026-04-26T07:13:21.993Z</time></trkpt><trkpt lat="40.433010525922874" lon="16.5606845365521"><ele>33.0</ele><time>2026-04-26T07:19:27.991Z</time></trkpt><trkpt lat="40.43297723946957" lon="16.560780181737343"><ele>33.0</ele><time>2026-04-26T07:19:29.991Z</time></trkpt><trkpt lat="40.43293412165467" lon="16.560901520879405"><ele>32.8</ele><time>2026-04-26T07:19:31.991Z</time></trkpt><trkpt lat="40.432891832711015" lon="16.561028416749995"><ele>32.599999999999994</ele><time>2026-04-26T07:19:33.991Z</time></trkpt><trkpt lat="40.43286184517724" lon="16.56110590983809"><ele>32.400000000000006</ele><time>2026-04-26T07:19:34.991Z</time></trkpt><trkpt lat="40.43280403069659" lon="16.561256740258287"><ele>32.2</ele><time>2026-04-26T07:19:36.991Z</time></trkpt><trkpt lat="40.43275111523042" lon="16.561404447280587"><ele>32.0</ele><time>2026-04-26T07:19:38.991Z</time></trkpt><trkpt lat="40.43272360663825" lon="16.56148422258341"><ele>32.0</ele><time>2026-04-26T07:19:39.991Z</time></trkpt><trkpt lat="40.432692906372054" lon="16.561563653239954"><ele>31.999999999999996</ele><time>2026-04-26T07:19:40.991Z</time></trkpt><trkpt lat="40.43266520686381" lon="16.561660865435414"><ele>32.0</ele><time>2026-04-26T07:19:41.991Z</time></trkpt><trkpt lat="40.432635353851836" lon="16.56173387450627"><ele>32.0</ele><time>2026-04-26T07:19:42.991Z</time></trkpt><trkpt lat="40.432612911686675" lon="16.561811362203713"><ele>31.999999999999996</ele><time>2026-04-26T07:19:43.991Z</time></trkpt><trkpt lat="40.432591753093156" lon="16.561903965821653"><ele>32.0</ele><time>2026-04-26T07:19:44.991Z</time></trkpt><trkpt lat="40.43255975780263" lon="16.562003939752408"><ele>32.0</ele><time>2026-04-26T07:19:45.992Z</time></trkpt><trkpt lat="40.43252495322726" lon="16.562076419695938"><ele>32.2</ele><time>2026-04-26T07:19:46.992Z</time></trkpt><trkpt lat="40.43248737428949" lon="16.562181008714827"><ele>32.400000000000006</ele><time>2026-04-26T07:19:48.993Z</time></trkpt><trkpt lat="40.432450223717304" lon="16.562265693290538"><ele>32.599999999999994</ele><time>2026-04-26T07:19:51.992Z</time></trkpt><trkpt lat="40.432423801793085" lon="16.562403547144278"><ele>32.8</ele><time>2026-04-26T07:19:53.992Z</time></trkpt><trkpt lat="40.43236780356241" lon="16.562546956517266"><ele>33.0</ele><time>2026-04-26T07:19:55.992Z</time></trkpt><trkpt lat="40.43233758455077" lon="16.562624478735845"><ele>33.0</ele><time>2026-04-26T07:19:56.992Z</time></trkpt><trkpt lat="40.432307903375474" lon="16.56270049590162"><ele>33.0</ele><time>2026-04-26T07:19:57.992Z</time></trkpt><trkpt lat="40.43227090574904" lon="16.562780959560722"><ele>33.0</ele><time>2026-04-26T07:19:58.992Z</time></trkpt><trkpt lat="40.43223407026875" lon="16.562880956531085"><ele>33.0</ele><time>2026-04-26T07:19:59.992Z</time></trkpt><trkpt lat="40.432201910700094" lon="16.56296341578563"><ele>33.0</ele><time>2026-04-26T07:20:00.992Z</time></trkpt><trkpt lat="40.432171304573025" lon="16.563049628025663"><ele>33.0</ele><time>2026-04-26T07:20:01.992Z</time></trkpt><trkpt lat="40.43214235790898" lon="16.56314684109861"><ele>33.0</ele><time>2026-04-26T07:20:02.992Z</time></trkpt><trkpt lat="40.432113650130255" lon="16.56325081084737"><ele>33.5</ele><time>2026-04-26T07:20:03.992Z</time></trkpt><trkpt lat="40.43208138792645" lon="16.563340948520718"><ele>34.0</ele><time>2026-04-26T07:20:04.992Z</time></trkpt><trkpt lat="40.432055446792965" lon="16.56342567986966"><ele>34.5</ele><time>2026-04-26T07:20:05.992Z</time></trkpt><trkpt lat="40.432033216758356" lon="16.563503660224004"><ele>35.0</ele><time>2026-04-26T07:20:06.992Z</time></trkpt><trkpt lat="40.43198888775187" lon="16.563617456464332"><ele>35.5</ele><time>2026-04-26T07:20:08.992Z</time></trkpt><trkpt lat="40.43196511093306" lon="16.563696438405117"><ele>36.0</ele><time>2026-04-26T07:20:09.992Z</time></trkpt><trkpt lat="40.43193130124321" lon="16.56379426861261"><ele>36.166666666666664</ele><time>2026-04-26T07:20:10.992Z</time></trkpt><trkpt lat="40.43190490455808" lon="16.56388117633902"><ele>36.333333333333336</ele><time>2026-04-26T07:20:11.992Z</time></trkpt><trkpt lat="40.43187722531312" lon="16.56398211064148"><ele>36.5</ele><time>2026-04-26T07:20:12.992Z</time></trkpt><trkpt lat="40.431861505404804" lon="16.56406616174869"><ele>36.66666666666667</ele><time>2026-04-26T07:20:13.992Z</time></trkpt><trkpt lat="40.43185427573665" lon="16.564172077591984"><ele>36.833333333333336</ele><time>2026-04-26T07:20:14.992Z</time></trkpt><trkpt lat="40.43185888182651" lon="16.564276016626152"><ele>37.0</ele><time>2026-04-26T07:20:15.992Z</time></trkpt><trkpt lat="40.431870729414975" lon="16.56437762349425"><ele>37.0</ele><time>2026-04-26T07:20:16.992Z</time></trkpt><trkpt lat="40.431880578262046" lon="16.56446842115643"><ele>37.0</ele><time>2026-04-26T07:20:17.992Z</time></trkpt><trkpt lat="40.43187888280433" lon="16.564585438603654"><ele>37.0</ele><time>2026-04-26T07:20:18.992Z</time></trkpt><trkpt lat="40.43187045183208" lon="16.56468446887006"><ele>37.0</ele><time>2026-04-26T07:20:19.992Z</time></trkpt><trkpt lat="40.43185395577133" lon="16.564869695603058"><ele>37.0</ele><time>2026-04-26T07:20:21.992Z</time></trkpt><trkpt lat="40.43185840627092" lon="16.56495537593613"><ele>37.0</ele><time>2026-04-26T07:20:22.992Z</time></trkpt><trkpt lat="40.431837349285395" lon="16.56510768084773"><ele>36.5</ele><time>2026-04-26T07:20:24.992Z</time></trkpt><trkpt lat="40.43180298036909" lon="16.565197315895503"><ele>36.0</ele><time>2026-04-26T07:20:25.992Z</time></trkpt><trkpt lat="40.43176302359711" lon="16.565263509921863"><ele>35.5</ele><time>2026-04-26T07:20:26.992Z</time></trkpt><trkpt lat="40.43171408999724" lon="16.565333575396913"><ele>35.0</ele><time>2026-04-26T07:20:27.992Z</time></trkpt><trkpt lat="40.43165960848883" lon="16.56540104567159"><ele>34.5</ele><time>2026-04-26T07:20:28.992Z</time></trkpt><trkpt lat="40.43159352941425" lon="16.565490785919984"><ele>34.0</ele><time>2026-04-26T07:20:29.992Z</time></trkpt><trkpt lat="40.431541371690685" lon="16.565568046166593"><ele>33.66666666666667</ele><time>2026-04-26T07:20:30.992Z</time></trkpt><trkpt lat="40.4314998089779" lon="16.565654793689706"><ele>33.333333333333336</ele><time>2026-04-26T07:20:31.992Z</time></trkpt><trkpt lat="40.431458186785335" lon="16.565770771800327"><ele>33.0</ele><time>2026-04-26T07:20:32.992Z</time></trkpt><trkpt lat="40.4314194180487" lon="16.565866475467004"><ele>32.666666666666664</ele><time>2026-04-26T07:20:33.992Z</time></trkpt><trkpt lat="40.431381727449" lon="16.565970523946806"><ele>32.33333333333333</ele><time>2026-04-26T07:20:34.992Z</time></trkpt><trkpt lat="40.43133796444905" lon="16.566065619398074"><ele>32.0</ele><time>2026-04-26T07:20:35.992Z</time></trkpt><trkpt lat="40.43129350793654" lon="16.566162019310763"><ele>31.833333333333332</ele><time>2026-04-26T07:20:36.992Z</time></trkpt><trkpt lat="40.43125410365049" lon="16.566279680255143"><ele>31.666666666666664</ele><time>2026-04-26T07:20:37.992Z</time></trkpt><trkpt lat="40.43123395487899" lon="16.56637301919734"><ele>31.5</ele><time>2026-04-26T07:20:38.992Z</time></trkpt><trkpt lat="40.431212265319125" lon="16.566484894727484"><ele>31.333333333333336</ele><time>2026-04-26T07:20:39.992Z</time></trkpt><trkpt lat="40.43117871573615" lon="16.56659591909149"><ele>31.166666666666668</ele><time>2026-04-26T07:20:40.992Z</time></trkpt><trkpt lat="40.431135142354115" lon="16.56668586012309"><ele>31.0</ele><time>2026-04-26T07:20:41.992Z</time></trkpt><trkpt lat="40.43107791408085" lon="16.566774586229073"><ele>31.0</ele><time>2026-04-26T07:20:42.992Z</time></trkpt><trkpt lat="40.430995985157665" lon="16.566907584266414"><ele>31.0</ele><time>2026-04-26T07:20:44.992Z</time></trkpt><trkpt lat="40.43095459603294" lon="16.566990484890233"><ele>31.0</ele><time>2026-04-26T07:20:45.992Z</time></trkpt><trkpt lat="40.430893424057466" lon="16.56707238121683"><ele>31.0</ele><time>2026-04-26T07:20:47.991Z</time></trkpt><trkpt lat="40.43083221881784" lon="16.567048972708907"><ele>31.0</ele><time>2026-04-26T07:20:49.991Z</time></trkpt><trkpt lat="40.43076654354759" lon="16.56694585600748"><ele>31.0</ele><time>2026-04-26T07:20:51.991Z</time></trkpt><trkpt lat="40.430731530714596" lon="16.5668514761584"><ele>31.0</ele><time>2026-04-26T07:20:52.991Z</time></trkpt><trkpt lat="40.430684308207894" lon="16.566757558957924"><ele>31.0</ele><time>2026-04-26T07:20:53.991Z</time></trkpt><trkpt lat="40.43061908725078" lon="16.566650991354223"><ele>31.0</ele><time>2026-04-26T07:20:54.991Z</time></trkpt><trkpt lat="40.43054726045817" lon="16.566511399807975"><ele>31.0</ele><time>2026-04-26T07:20:55.991Z</time></trkpt><trkpt lat="40.43045953816357" lon="16.566319253455298"><ele>33.333333333333336</ele><time>2026-04-26T07:20:56.991Z</time></trkpt><trkpt lat="40.430348857692245" lon="16.566113737287935"><ele>35.666666666666664</ele><time>2026-04-26T07:20:57.991Z</time></trkpt><trkpt lat="40.43023428062323" lon="16.565896664295252"><ele>38.0</ele><time>2026-04-26T07:20:58.991Z</time></trkpt><trkpt lat="40.43013223627565" lon="16.565693330719586"><ele>38.0</ele><time>2026-04-26T07:20:59.991Z</time></trkpt><trkpt lat="40.430045641885165" lon="16.56551303274978"><ele>38.0</ele><time>2026-04-26T07:21:00.991Z</time></trkpt><trkpt lat="40.42994675842289" lon="16.565326544655505"><ele>38.0</ele><time>2026-04-26T07:21:01.991Z</time></trkpt><trkpt lat="40.42984242128741" lon="16.5651680779751"><ele>38.0</ele><time>2026-04-26T07:21:02.991Z</time></trkpt><trkpt lat="40.429758001415536" lon="16.564986591988784"><ele>38.0</ele><time>2026-04-26T07:21:03.991Z</time></trkpt><trkpt lat="40.42965758239822" lon="16.56482993872587"><ele>38.0</ele><time>2026-04-26T07:21:04.991Z</time></trkpt><trkpt lat="40.42956197162331" lon="16.56468180274493"><ele>38.0</ele><time>2026-04-26T07:21:05.991Z</time></trkpt><trkpt lat="40.429467854586555" lon="16.56453658156075"><ele>38.0</ele><time>2026-04-26T07:21:06.991Z</time></trkpt><trkpt lat="40.42936976278837" lon="16.56438769852765"><ele>38.0</ele><time>2026-04-26T07:21:07.991Z</time></trkpt><trkpt lat="40.429274117487026" lon="16.56424252877308"><ele>38.0</ele><time>2026-04-26T07:21:08.991Z</time></trkpt><trkpt lat="40.429181280281796" lon="16.56410297759275"><ele>38.75</ele><time>2026-04-26T07:21:09.991Z</time></trkpt><trkpt lat="40.42908649431049" lon="16.563961718157977"><ele>39.5</ele><time>2026-04-26T07:21:10.991Z</time></trkpt><trkpt lat="40.42899101297969" lon="16.563822465007583"><ele>40.25</ele><time>2026-04-26T07:21:11.991Z</time></trkpt><trkpt lat="40.42888832523403" lon="16.563672701784785"><ele>41.0</ele><time>2026-04-26T07:21:12.991Z</time></trkpt><trkpt lat="40.42878851187323" lon="16.56352352878921"><ele>41.33333333333333</ele><time>2026-04-26T07:21:13.991Z</time></trkpt><trkpt lat="40.42868878733748" lon="16.56337167385653"><ele>41.666666666666664</ele><time>2026-04-26T07:21:14.991Z</time></trkpt><trkpt lat="40.4285856088461" lon="16.563214559434297"><ele>42.0</ele><time>2026-04-26T07:21:15.991Z</time></trkpt><trkpt lat="40.42848012244714" lon="16.56305393065801"><ele>42.0</ele><time>2026-04-26T07:21:16.991Z</time></trkpt><trkpt lat="40.428378181764266" lon="16.562898701100586"><ele>42.0</ele><time>2026-04-26T07:21:17.991Z</time></trkpt><trkpt lat="40.42827929467637" lon="16.562747838691898"><ele>42.0</ele><time>2026-04-26T07:21:18.991Z</time></trkpt><trkpt lat="40.42817517860981" lon="16.562587836997217"><ele>42.666666666666664</ele><time>2026-04-26T07:21:19.991Z</time></trkpt><trkpt lat="40.42806945863359" lon="16.562425370471285"><ele>43.33333333333333</ele><time>2026-04-26T07:21:20.991Z</time></trkpt><trkpt lat="40.427965095030714" lon="16.562264988367367"><ele>44.0</ele><time>2026-04-26T07:21:21.991Z</time></trkpt><trkpt lat="40.427860576864816" lon="16.562106214022933"><ele>44.666666666666664</ele><time>2026-04-26T07:21:22.991Z</time></trkpt><trkpt lat="40.42775309200896" lon="16.561944711842063"><ele>45.333333333333336</ele><time>2026-04-26T07:21:23.991Z</time></trkpt><trkpt lat="40.42765183475834" lon="16.56179256699433"><ele>46.0</ele><time>2026-04-26T07:21:24.991Z</time></trkpt><trkpt lat="40.42754815883055" lon="16.56163678794701"><ele>46.0</ele><time>2026-04-26T07:21:25.991Z</time></trkpt><trkpt lat="40.4274418707468" lon="16.56147967006329"><ele>46.0</ele><time>2026-04-26T07:21:26.991Z</time></trkpt><trkpt lat="40.4273391568749" lon="16.561328594390744"><ele>46.0</ele><time>2026-04-26T07:21:27.991Z</time></trkpt><trkpt lat="40.427236893351875" lon="16.561173759834265"><ele>45.333333333333336</ele><time>2026-04-26T07:21:28.991Z</time></trkpt><trkpt lat="40.42712426990029" lon="16.561035856316646"><ele>44.666666666666664</ele><time>2026-04-26T07:21:29.991Z</time></trkpt><trkpt lat="40.427032929391586" lon="16.56087007920809"><ele>44.0</ele><time>2026-04-26T07:21:30.991Z</time></trkpt><trkpt lat="40.426913673911" lon="16.56072305619145"><ele>44.0</ele><time>2026-04-26T07:21:31.991Z</time></trkpt><trkpt lat="40.4267796175693" lon="16.56061305450608"><ele>44.0</ele><time>2026-04-26T07:21:32.991Z</time></trkpt><trkpt lat="40.42665117403749" lon="16.560500849175703"><ele>44.0</ele><time>2026-04-26T07:21:33.991Z</time></trkpt><trkpt lat="40.426510639421075" lon="16.560403294664308"><ele>44.0</ele><time>2026-04-26T07:21:34.991Z</time></trkpt><trkpt lat="40.42636628820039" lon="16.56031817694475"><ele>44.0</ele><time>2026-04-26T07:21:35.991Z</time></trkpt><trkpt lat="40.4262194058082" lon="16.560232318802676"><ele>44.0</ele><time>2026-04-26T07:21:36.991Z</time></trkpt><trkpt lat="40.426074589878915" lon="16.56015224738708"><ele>44.0</ele><time>2026-04-26T07:21:37.991Z</time></trkpt><trkpt lat="40.42593374194626" lon="16.56004281759068"><ele>44.0</ele><time>2026-04-26T07:21:38.991Z</time></trkpt><trkpt lat="40.42578561520104" lon="16.559953051388653"><ele>44.0</ele><time>2026-04-26T07:21:39.991Z</time></trkpt><trkpt lat="40.425635165472855" lon="16.55986473099919"><ele>44.0</ele><time>2026-04-26T07:21:40.991Z</time></trkpt><trkpt lat="40.42548165408184" lon="16.559774614608404"><ele>44.0</ele><time>2026-04-26T07:21:41.991Z</time></trkpt><trkpt lat="40.42533731532753" lon="16.559690229025694"><ele>44.0</ele><time>2026-04-26T07:21:42.991Z</time></trkpt><trkpt lat="40.42518462727925" lon="16.55960171423764"><ele>44.33333333333333</ele><time>2026-04-26T07:21:43.991Z</time></trkpt><trkpt lat="40.42503981647851" lon="16.559517765940413"><ele>44.666666666666664</ele><time>2026-04-26T07:21:44.991Z</time></trkpt><trkpt lat="40.424890901242996" lon="16.559430987053993"><ele>45.0</ele><time>2026-04-26T07:21:45.991Z</time></trkpt><trkpt lat="40.424747294628666" lon="16.559347068754395"><ele>44.666666666666664</ele><time>2026-04-26T07:21:46.991Z</time></trkpt><trkpt lat="40.42460011297558" lon="16.559261000612192"><ele>44.33333333333333</ele><time>2026-04-26T07:21:47.991Z</time></trkpt><trkpt lat="40.42445640741237" lon="16.55917589240822"><ele>44.0</ele><time>2026-04-26T07:21:48.991Z</time></trkpt><trkpt lat="40.424308437271904" lon="16.559087796784024"><ele>44.0</ele><time>2026-04-26T07:21:49.991Z</time></trkpt><trkpt lat="40.42416485025546" lon="16.558999947547594"><ele>44.0</ele><time>2026-04-26T07:21:50.991Z</time></trkpt><trkpt lat="40.42402102641059" lon="16.558902969324276"><ele>44.0</ele><time>2026-04-26T07:21:51.991Z</time></trkpt><trkpt lat="40.42388444220127" lon="16.558791241165356"><ele>45.0</ele><time>2026-04-26T07:21:52.991Z</time></trkpt><trkpt lat="40.42375155433437" lon="16.558688173169827"><ele>46.0</ele><time>2026-04-26T07:21:53.991Z</time></trkpt><trkpt lat="40.42362642308063" lon="16.558540044565365"><ele>47.0</ele><time>2026-04-26T07:21:54.991Z</time></trkpt><trkpt lat="40.42349693101993" lon="16.55841061972772"><ele>47.0</ele><time>2026-04-26T07:21:55.991Z</time></trkpt><trkpt lat="40.42336471079548" lon="16.558299177406067"><ele>47.0</ele><time>2026-04-26T07:21:56.991Z</time></trkpt><trkpt lat="40.42323255439565" lon="16.55816983742305"><ele>47.0</ele><time>2026-04-26T07:21:57.991Z</time></trkpt><trkpt lat="40.423103921140225" lon="16.55804037763979"><ele>47.0</ele><time>2026-04-26T07:21:58.991Z</time></trkpt><trkpt lat="40.422970258880596" lon="16.557905734794947"><ele>47.0</ele><time>2026-04-26T07:21:59.991Z</time></trkpt><trkpt lat="40.42284530542854" lon="16.557780627804572"><ele>47.0</ele><time>2026-04-26T07:22:00.992Z</time></trkpt><trkpt lat="40.42271060208973" lon="16.55764898265507"><ele>47.33333333333333</ele><time>2026-04-26T07:22:01.991Z</time></trkpt><trkpt lat="40.422583880477475" lon="16.557524611517167"><ele>47.666666666666664</ele><time>2026-04-26T07:22:02.991Z</time></trkpt><trkpt lat="40.42245168160363" lon="16.557388643067423"><ele>48.0</ele><time>2026-04-26T07:22:03.991Z</time></trkpt><trkpt lat="40.422324926885864" lon="16.55726993373622"><ele>48.0</ele><time>2026-04-26T07:22:04.991Z</time></trkpt><trkpt lat="40.4221875663447" lon="16.557139757739602"><ele>48.0</ele><time>2026-04-26T07:22:05.991Z</time></trkpt><trkpt lat="40.422070252973086" lon="16.556999187499535"><ele>48.0</ele><time>2026-04-26T07:22:06.991Z</time></trkpt><trkpt lat="40.42192760634183" lon="16.55688480591009"><ele>48.33333333333333</ele><time>2026-04-26T07:22:07.991Z</time></trkpt><trkpt lat="40.42180344185262" lon="16.5567614179029"><ele>48.666666666666664</ele><time>2026-04-26T07:22:08.991Z</time></trkpt><trkpt lat="40.42167192295712" lon="16.556626041715184"><ele>49.0</ele><time>2026-04-26T07:22:09.991Z</time></trkpt><trkpt lat="40.42154927303437" lon="16.556505149129364"><ele>49.0</ele><time>2026-04-26T07:22:10.991Z</time></trkpt><trkpt lat="40.42142803183844" lon="16.556387508053664"><ele>49.0</ele><time>2026-04-26T07:22:11.991Z</time></trkpt><trkpt lat="40.42131282814291" lon="16.55627123089824"><ele>49.0</ele><time>2026-04-26T07:22:12.991Z</time></trkpt><trkpt lat="40.42119879760887" lon="16.556138941228202"><ele>49.0</ele><time>2026-04-26T07:22:13.991Z</time></trkpt><trkpt lat="40.42107411920883" lon="16.556037979864932"><ele>49.25</ele><time>2026-04-26T07:22:14.991Z</time></trkpt><trkpt lat="40.42095997336498" lon="16.555916234067"><ele>49.5</ele><time>2026-04-26T07:22:15.991Z</time></trkpt><trkpt lat="40.420837482283204" lon="16.55579876235851"><ele>49.75</ele><time>2026-04-26T07:22:16.991Z</time></trkpt><trkpt lat="40.4207227587988" lon="16.555690656269917"><ele>50.0</ele><time>2026-04-26T07:22:17.991Z</time></trkpt><trkpt lat="40.4206171764186" lon="16.555579575158298"><ele>50.0</ele><time>2026-04-26T07:22:18.991Z</time></trkpt><trkpt lat="40.42050060232509" lon="16.55546652537311"><ele>50.0</ele><time>2026-04-26T07:22:19.991Z</time></trkpt><trkpt lat="40.42038165986118" lon="16.55534646559103"><ele>50.0</ele><time>2026-04-26T07:22:20.991Z</time></trkpt><trkpt lat="40.42025745638516" lon="16.55523201598198"><ele>50.0</ele><time>2026-04-26T07:22:21.991Z</time></trkpt><trkpt lat="40.42013569371249" lon="16.55511671145854"><ele>51.0</ele><time>2026-04-26T07:22:22.991Z</time></trkpt><trkpt lat="40.42002043349602" lon="16.554999252900764"><ele>52.0</ele><time>2026-04-26T07:22:23.991Z</time></trkpt><trkpt lat="40.41989974172632" lon="16.554887611010642"><ele>53.0</ele><time>2026-04-26T07:22:24.991Z</time></trkpt><trkpt lat="40.41980375577658" lon="16.554766955241053"><ele>54.0</ele><time>2026-04-26T07:22:25.99Z</time></trkpt><trkpt lat="40.419713980174464" lon="16.55467850099391"><ele>54.0</ele><time>2026-04-26T07:22:26.99Z</time></trkpt><trkpt lat="40.419631621892535" lon="16.554596985426517"><ele>54.0</ele><time>2026-04-26T07:22:27.99Z</time></trkpt><trkpt lat="40.4195466631385" lon="16.554513077794784"><ele>54.0</ele><time>2026-04-26T07:22:28.99Z</time></trkpt><trkpt lat="40.41945305368639" lon="16.55442200938962"><ele>54.0</ele><time>2026-04-26T07:22:29.99Z</time></trkpt><trkpt lat="40.419321994832806" lon="16.55429400378238"><ele>54.0</ele><time>2026-04-26T07:22:30.99Z</time></trkpt><trkpt lat="40.419156989581104" lon="16.55414982930152"><ele>54.0</ele><time>2026-04-26T07:22:31.99Z</time></trkpt><trkpt lat="40.41900063233494" lon="16.553977169126075"><ele>54.0</ele><time>2026-04-26T07:22:32.99Z</time></trkpt><trkpt lat="40.418868683640504" lon="16.553809659796663"><ele>54.0</ele><time>2026-04-26T07:22:33.99Z</time></trkpt><trkpt lat="40.41878403374158" lon="16.553642039697976"><ele>54.0</ele><time>2026-04-26T07:22:34.99Z</time></trkpt><trkpt lat="40.41871872246902" lon="16.55346021781135"><ele>54.0</ele><time>2026-04-26T07:22:35.99Z</time></trkpt><trkpt lat="40.41867596718949" lon="16.55327384274936"><ele>54.0</ele><time>2026-04-26T07:22:36.99Z</time></trkpt><trkpt lat="40.41865863424605" lon="16.553100517305797"><ele>54.0</ele><time>2026-04-26T07:22:37.99Z</time></trkpt><trkpt lat="40.41865961468407" lon="16.552915497002058"><ele>54.0</ele><time>2026-04-26T07:22:38.99Z</time></trkpt><trkpt lat="40.418701522421664" lon="16.552752707896737"><ele>54.0</ele><time>2026-04-26T07:22:39.99Z</time></trkpt><trkpt lat="40.418726964227616" lon="16.5525833142861"><ele>54.5</ele><time>2026-04-26T07:22:40.99Z</time></trkpt><trkpt lat="40.41878020980768" lon="16.552419186583855"><ele>55.0</ele><time>2026-04-26T07:22:41.99Z</time></trkpt><trkpt lat="40.41883221999346" lon="16.552256031676567"><ele>55.5</ele><time>2026-04-26T07:22:42.99Z</time></trkpt><trkpt lat="40.41888637033938" lon="16.552102371936446"><ele>56.0</ele><time>2026-04-26T07:22:43.99Z</time></trkpt><trkpt lat="40.41893319579279" lon="16.55194074936438"><ele>56.25</ele><time>2026-04-26T07:22:44.99Z</time></trkpt><trkpt lat="40.41898073060439" lon="16.551771536383338"><ele>56.5</ele><time>2026-04-26T07:22:45.99Z</time></trkpt><trkpt lat="40.4190281997737" lon="16.55160768019772"><ele>56.75</ele><time>2026-04-26T07:22:46.99Z</time></trkpt><trkpt lat="40.419071415167494" lon="16.551453633884574"><ele>57.0</ele><time>2026-04-26T07:22:47.99Z</time></trkpt><trkpt lat="40.419119356639875" lon="16.551297858317355"><ele>57.0</ele><time>2026-04-26T07:22:48.99Z</time></trkpt><trkpt lat="40.419161662006175" lon="16.551149028335747"><ele>57.0</ele><time>2026-04-26T07:22:49.99Z</time></trkpt><trkpt lat="40.419203380637384" lon="16.55101979580765"><ele>57.0</ele><time>2026-04-26T07:22:50.99Z</time></trkpt><trkpt lat="40.41924288872758" lon="16.55087792186291"><ele>57.0</ele><time>2026-04-26T07:22:51.99Z</time></trkpt><trkpt lat="40.4192771055149" lon="16.550748525285627"><ele>57.0</ele><time>2026-04-26T07:22:52.99Z</time></trkpt><trkpt lat="40.41930862448394" lon="16.55062189805161"><ele>57.0</ele><time>2026-04-26T07:22:53.99Z</time></trkpt><trkpt lat="40.419336116625665" lon="16.55053093305541"><ele>57.0</ele><time>2026-04-26T07:22:54.99Z</time></trkpt><trkpt lat="40.41935951772174" lon="16.550427569529678"><ele>57.0</ele><time>2026-04-26T07:22:55.99Z</time></trkpt><trkpt lat="40.41941203838369" lon="16.550315309760094"><ele>57.0</ele><time>2026-04-26T07:22:57.99Z</time></trkpt><trkpt lat="40.4194545014283" lon="16.55025043011129"><ele>57.0</ele><time>2026-04-26T07:23:00.99Z</time></trkpt><trkpt lat="40.41951320039251" lon="16.550183120836472"><ele>57.0</ele><time>2026-04-26T07:23:02.99Z</time></trkpt><trkpt lat="40.419577498759914" lon="16.550109941830375"><ele>57.0</ele><time>2026-04-26T07:23:04.99Z</time></trkpt><trkpt lat="40.41963657457376" lon="16.550074191689106"><ele>57.0</ele><time>2026-04-26T07:23:05.99Z</time></trkpt><trkpt lat="40.41966108952948" lon="16.549976520304146"><ele>57.0</ele><time>2026-04-26T07:23:06.99Z</time></trkpt><trkpt lat="40.41957936036205" lon="16.549883283296165"><ele>57.0</ele><time>2026-04-26T07:23:07.99Z</time></trkpt><trkpt lat="40.41955929262433" lon="16.54978885894988"><ele>57.0</ele><time>2026-04-26T07:23:08.99Z</time></trkpt><trkpt lat="40.419578058775556" lon="16.549603208371483"><ele>57.6</ele><time>2026-04-26T07:23:10.99Z</time></trkpt><trkpt lat="40.41961821335905" lon="16.549476557822526"><ele>58.2</ele><time>2026-04-26T07:23:11.99Z</time></trkpt><trkpt lat="40.419654161850815" lon="16.549342884725387"><ele>58.8</ele><time>2026-04-26T07:23:12.99Z</time></trkpt><trkpt lat="40.41968757137487" lon="16.549210265893745"><ele>59.4</ele><time>2026-04-26T07:23:13.99Z</time></trkpt><trkpt lat="40.419736860538784" lon="16.5490748042458"><ele>60.0</ele><time>2026-04-26T07:23:14.99Z</time></trkpt><trkpt lat="40.4197740562896" lon="16.548936311672627"><ele>60.0</ele><time>2026-04-26T07:23:15.99Z</time></trkpt><trkpt lat="40.41980712845886" lon="16.548807008646115"><ele>60.0</ele><time>2026-04-26T07:23:16.99Z</time></trkpt><trkpt lat="40.41983915253028" lon="16.54868700307804"><ele>60.0</ele><time>2026-04-26T07:23:17.99Z</time></trkpt><trkpt lat="40.419880701028625" lon="16.548581209592584"><ele>60.0</ele><time>2026-04-26T07:23:18.99Z</time></trkpt><trkpt lat="40.41991836828124" lon="16.54849547924805"><ele>60.0</ele><time>2026-04-26T07:23:19.99Z</time></trkpt><trkpt lat="40.42003859308954" lon="16.548418204714125"><ele>60.0</ele><time>2026-04-26T07:23:21.99Z</time></trkpt><trkpt lat="40.420125886505865" lon="16.548475071245"><ele>60.0</ele><time>2026-04-26T07:23:22.99Z</time></trkpt><trkpt lat="40.42020653241191" lon="16.548530163789213"><ele>60.0</ele><time>2026-04-26T07:23:23.99Z</time></trkpt><trkpt lat="40.42030436927781" lon="16.548576492290014"><ele>60.0</ele><time>2026-04-26T07:23:24.99Z</time></trkpt><trkpt lat="40.42041334236943" lon="16.54862096229311"><ele>60.0</ele><time>2026-04-26T07:23:25.99Z</time></trkpt><trkpt lat="40.420521526826995" lon="16.548666838174917"><ele>59.0</ele><time>2026-04-26T07:23:26.99Z</time></trkpt><trkpt lat="40.420635867629294" lon="16.548723909297195"><ele>58.0</ele><time>2026-04-26T07:23:27.99Z</time></trkpt><trkpt lat="40.420753137865226" lon="16.548779863203976"><ele>57.0</ele><time>2026-04-26T07:23:28.99Z</time></trkpt><trkpt lat="40.42087177253183" lon="16.54884780262143"><ele>56.0</ele><time>2026-04-26T07:23:29.99Z</time></trkpt><trkpt lat="40.42098765142967" lon="16.54890323456815"><ele>56.0</ele><time>2026-04-26T07:23:30.99Z</time></trkpt><trkpt lat="40.42111250714596" lon="16.54896383230635"><ele>56.0</ele><time>2026-04-26T07:23:31.99Z</time></trkpt><trkpt lat="40.421226541862325" lon="16.549020567040515"><ele>56.0</ele><time>2026-04-26T07:23:32.99Z</time></trkpt><trkpt lat="40.421339632863415" lon="16.54907149758667"><ele>56.0</ele><time>2026-04-26T07:23:33.99Z</time></trkpt><trkpt lat="40.42145249833179" lon="16.549115304056972"><ele>56.599999999999994</ele><time>2026-04-26T07:23:34.99Z</time></trkpt><trkpt lat="40.42156460819283" lon="16.54915274159436"><ele>57.199999999999996</ele><time>2026-04-26T07:23:35.99Z</time></trkpt><trkpt lat="40.42167637676932" lon="16.549166147376383"><ele>57.800000000000004</ele><time>2026-04-26T07:23:36.99Z</time></trkpt><trkpt lat="40.421775325177464" lon="16.54913104703604"><ele>58.400000000000006</ele><time>2026-04-26T07:23:37.99Z</time></trkpt><trkpt lat="40.42187067642143" lon="16.549070567538717"><ele>59.0</ele><time>2026-04-26T07:23:38.99Z</time></trkpt><trkpt lat="40.421973181064665" lon="16.548976340372377"><ele>59.0</ele><time>2026-04-26T07:23:39.99Z</time></trkpt><trkpt lat="40.4220712986644" lon="16.548882140794067"><ele>59.0</ele><time>2026-04-26T07:23:40.99Z</time></trkpt><trkpt lat="40.42217671433697" lon="16.548762325115824"><ele>59.0</ele><time>2026-04-26T07:23:41.99Z</time></trkpt><trkpt lat="40.42227661979872" lon="16.548630314988138"><ele>59.0</ele><time>2026-04-26T07:23:42.989Z</time></trkpt><trkpt lat="40.42238214039973" lon="16.548505076677948"><ele>58.66666666666667</ele><time>2026-04-26T07:23:43.989Z</time></trkpt><trkpt lat="40.42249441994228" lon="16.548372483625755"><ele>58.33333333333333</ele><time>2026-04-26T07:23:44.989Z</time></trkpt><trkpt lat="40.42262739187052" lon="16.548255638881095"><ele>58.0</ele><time>2026-04-26T07:23:45.989Z</time></trkpt><trkpt lat="40.42274280808905" lon="16.54813129593834"><ele>58.0</ele><time>2026-04-26T07:23:46.989Z</time></trkpt><trkpt lat="40.42285576054863" lon="16.548005987103846"><ele>58.0</ele><time>2026-04-26T07:23:47.989Z</time></trkpt><trkpt lat="40.42296595341723" lon="16.547871312687054"><ele>58.0</ele><time>2026-04-26T07:23:48.989Z</time></trkpt><trkpt lat="40.42307426245791" lon="16.5477323843563"><ele>58.666666666666664</ele><time>2026-04-26T07:23:49.989Z</time></trkpt><trkpt lat="40.42318793714078" lon="16.547596724526088"><ele>59.33333333333333</ele><time>2026-04-26T07:23:50.989Z</time></trkpt><trkpt lat="40.42330292453626" lon="16.547459736324267"><ele>60.0</ele><time>2026-04-26T07:23:51.989Z</time></trkpt><trkpt lat="40.423421223770035" lon="16.54731709473172"><ele>60.0</ele><time>2026-04-26T07:23:52.989Z</time></trkpt><trkpt lat="40.423543461633145" lon="16.547179551041104"><ele>60.0</ele><time>2026-04-26T07:23:53.989Z</time></trkpt><trkpt lat="40.423674134092025" lon="16.54703880215273"><ele>60.0</ele><time>2026-04-26T07:23:54.989Z</time></trkpt><trkpt lat="40.42380653714595" lon="16.546930173856907"><ele>59.66666666666667</ele><time>2026-04-26T07:23:55.989Z</time></trkpt><trkpt lat="40.42395916415593" lon="16.5468527206074"><ele>59.333333333333336</ele><time>2026-04-26T07:23:56.989Z</time></trkpt><trkpt lat="40.42410674810745" lon="16.546763331062362"><ele>59.0</ele><time>2026-04-26T07:23:57.99Z</time></trkpt><trkpt lat="40.424271844450146" lon="16.546671125315637"><ele>59.0</ele><time>2026-04-26T07:23:58.99Z</time></trkpt><trkpt lat="40.42444521150197" lon="16.54657581812518"><ele>59.0</ele><time>2026-04-26T07:23:59.99Z</time></trkpt><trkpt lat="40.424604102259075" lon="16.546488102218916"><ele>59.0</ele><time>2026-04-26T07:24:00.991Z</time></trkpt><trkpt lat="40.424769882203584" lon="16.546393396206383"><ele>57.333333333333336</ele><time>2026-04-26T07:24:01.99Z</time></trkpt><trkpt lat="40.42492295848219" lon="16.54628377774329"><ele>55.66666666666667</ele><time>2026-04-26T07:24:02.99Z</time></trkpt><trkpt lat="40.42508486527411" lon="16.54619094818047"><ele>54.0</ele><time>2026-04-26T07:24:03.991Z</time></trkpt><trkpt lat="40.425261201101975" lon="16.54611271944979"><ele>54.0</ele><time>2026-04-26T07:24:04.99Z</time></trkpt><trkpt lat="40.4254329267761" lon="16.54599567877896"><ele>54.0</ele><time>2026-04-26T07:24:05.99Z</time></trkpt><trkpt lat="40.42560592756026" lon="16.545901709184392"><ele>54.0</ele><time>2026-04-26T07:24:06.99Z</time></trkpt><trkpt lat="40.425767563465165" lon="16.545808980822972"><ele>54.0</ele><time>2026-04-26T07:24:07.99Z</time></trkpt><trkpt lat="40.42594193972453" lon="16.545710755196918"><ele>54.0</ele><time>2026-04-26T07:24:08.99Z</time></trkpt><trkpt lat="40.426111782197054" lon="16.545645785006045"><ele>54.0</ele><time>2026-04-26T07:24:09.99Z</time></trkpt><trkpt lat="40.42628534107436" lon="16.545571765346033"><ele>53.66666666666667</ele><time>2026-04-26T07:24:10.99Z</time></trkpt><trkpt lat="40.42646630852394" lon="16.545510751366503"><ele>53.333333333333336</ele><time>2026-04-26T07:24:11.99Z</time></trkpt><trkpt lat="40.426632220913284" lon="16.545461783319777"><ele>53.0</ele><time>2026-04-26T07:24:12.99Z</time></trkpt><trkpt lat="40.426809721950775" lon="16.54541553313111"><ele>53.333333333333336</ele><time>2026-04-26T07:24:13.99Z</time></trkpt><trkpt lat="40.426987016988384" lon="16.54537533603398"><ele>53.66666666666667</ele><time>2026-04-26T07:24:14.99Z</time></trkpt><trkpt lat="40.42716210983494" lon="16.54531969072871"><ele>54.0</ele><time>2026-04-26T07:24:15.99Z</time></trkpt><trkpt lat="40.42734179138604" lon="16.545289120198998"><ele>53.33333333333333</ele><time>2026-04-26T07:24:16.99Z</time></trkpt><trkpt lat="40.42753455703626" lon="16.545255304514257"><ele>52.666666666666664</ele><time>2026-04-26T07:24:17.99Z</time></trkpt><trkpt lat="40.42772432400617" lon="16.545224636472888"><ele>52.0</ele><time>2026-04-26T07:24:18.99Z</time></trkpt><trkpt lat="40.4279058156292" lon="16.545192071957555"><ele>52.666666666666664</ele><time>2026-04-26T07:24:19.99Z</time></trkpt><trkpt lat="40.42808809946938" lon="16.545174023821293"><ele>53.33333333333333</ele><time>2026-04-26T07:24:20.99Z</time></trkpt><trkpt lat="40.42827855164177" lon="16.545124245473847"><ele>54.0</ele><time>2026-04-26T07:24:21.99Z</time></trkpt><trkpt lat="40.42846920143334" lon="16.545087254268864"><ele>54.0</ele><time>2026-04-26T07:24:22.99Z</time></trkpt><trkpt lat="40.42866604659589" lon="16.545054759450917"><ele>54.0</ele><time>2026-04-26T07:24:23.99Z</time></trkpt><trkpt lat="40.42886146343465" lon="16.545023890745696"><ele>54.0</ele><time>2026-04-26T07:24:24.99Z</time></trkpt><trkpt lat="40.429060049029154" lon="16.544992106854476"><ele>54.0</ele><time>2026-04-26T07:24:25.99Z</time></trkpt><trkpt lat="40.429263826209834" lon="16.544957498967666"><ele>54.0</ele><time>2026-04-26T07:24:26.99Z</time></trkpt><trkpt lat="40.429464032869646" lon="16.544917188508837"><ele>54.0</ele><time>2026-04-26T07:24:27.99Z</time></trkpt><trkpt lat="40.429684240020364" lon="16.544873826433147"><ele>54.5</ele><time>2026-04-26T07:24:28.99Z</time></trkpt><trkpt lat="40.42991316871923" lon="16.544831013107338"><ele>55.0</ele><time>2026-04-26T07:24:29.99Z</time></trkpt><trkpt lat="40.430139100025414" lon="16.544791959990032"><ele>55.0</ele><time>2026-04-26T07:24:30.99Z</time></trkpt><trkpt lat="40.43036131822353" lon="16.544742808335307"><ele>55.0</ele><time>2026-04-26T07:24:31.99Z</time></trkpt><trkpt lat="40.43057688787093" lon="16.544689379718875"><ele>55.0</ele><time>2026-04-26T07:24:32.99Z</time></trkpt><trkpt lat="40.43079078393145" lon="16.544623385652645"><ele>55.0</ele><time>2026-04-26T07:24:33.99Z</time></trkpt><trkpt lat="40.43100064329818" lon="16.544558038222505"><ele>55.0</ele><time>2026-04-26T07:24:34.99Z</time></trkpt><trkpt lat="40.43120606975753" lon="16.544482238194874"><ele>55.0</ele><time>2026-04-26T07:24:35.99Z</time></trkpt><trkpt lat="40.43140290352342" lon="16.544400850618697"><ele>55.0</ele><time>2026-04-26T07:24:36.99Z</time></trkpt><trkpt lat="40.43160927846104" lon="16.544311816677467"><ele>55.0</ele><time>2026-04-26T07:24:37.99Z</time></trkpt><trkpt lat="40.43180133297963" lon="16.544224349261317"><ele>55.0</ele><time>2026-04-26T07:24:38.99Z</time></trkpt><trkpt lat="40.431991007737636" lon="16.544136459381903"><ele>54.0</ele><time>2026-04-26T07:24:39.99Z</time></trkpt><trkpt lat="40.43216447324437" lon="16.544040677436087"><ele>53.0</ele><time>2026-04-26T07:24:40.99Z</time></trkpt><trkpt lat="40.432337932885545" lon="16.54393753479177"><ele>52.0</ele><time>2026-04-26T07:24:41.99Z</time></trkpt><trkpt lat="40.432504830490416" lon="16.54382990225904"><ele>52.0</ele><time>2026-04-26T07:24:42.99Z</time></trkpt><trkpt lat="40.43267152925749" lon="16.54371341942644"><ele>52.0</ele><time>2026-04-26T07:24:43.99Z</time></trkpt><trkpt lat="40.432842930131066" lon="16.543618634609455"><ele>52.0</ele><time>2026-04-26T07:24:44.99Z</time></trkpt><trkpt lat="40.43298773854408" lon="16.54349640970783"><ele>52.0</ele><time>2026-04-26T07:24:45.99Z</time></trkpt><trkpt lat="40.433155976783034" lon="16.543375406429575"><ele>52.0</ele><time>2026-04-26T07:24:46.99Z</time></trkpt><trkpt lat="40.43332153210047" lon="16.54324926283471"><ele>52.0</ele><time>2026-04-26T07:24:47.99Z</time></trkpt><trkpt lat="40.43349045055395" lon="16.5431120366762"><ele>52.0</ele><time>2026-04-26T07:24:48.99Z</time></trkpt><trkpt lat="40.43365101458551" lon="16.542973252630134"><ele>52.0</ele><time>2026-04-26T07:24:49.99Z</time></trkpt><trkpt lat="40.433803511026106" lon="16.54283018263438"><ele>52.0</ele><time>2026-04-26T07:24:50.99Z</time></trkpt><trkpt lat="40.433952563483636" lon="16.542692414225915"><ele>53.0</ele><time>2026-04-26T07:24:51.99Z</time></trkpt><trkpt lat="40.4341145141582" lon="16.5425544775454"><ele>54.0</ele><time>2026-04-26T07:24:52.99Z</time></trkpt><trkpt lat="40.43425679365032" lon="16.542400217676384"><ele>55.0</ele><time>2026-04-26T07:24:53.99Z</time></trkpt><trkpt lat="40.43439672027254" lon="16.54224199676449"><ele>55.0</ele><time>2026-04-26T07:24:54.99Z</time></trkpt><trkpt lat="40.43454431360459" lon="16.542077165028658"><ele>55.0</ele><time>2026-04-26T07:24:55.99Z</time></trkpt><trkpt lat="40.43467308063348" lon="16.541931651588"><ele>55.0</ele><time>2026-04-26T07:24:56.99Z</time></trkpt><trkpt lat="40.434789492183285" lon="16.54178107933593"><ele>55.0</ele><time>2026-04-26T07:24:57.99Z</time></trkpt><trkpt lat="40.43492025475796" lon="16.54160972082219"><ele>55.0</ele><time>2026-04-26T07:24:58.99Z</time></trkpt><trkpt lat="40.435063476592305" lon="16.541420156342973"><ele>55.0</ele><time>2026-04-26T07:24:59.989Z</time></trkpt><trkpt lat="40.43519407313057" lon="16.54122529020731"><ele>55.0</ele><time>2026-04-26T07:25:00.989Z</time></trkpt><trkpt lat="40.435321586852055" lon="16.541040979181876"><ele>55.0</ele><time>2026-04-26T07:25:01.989Z</time></trkpt><trkpt lat="40.43543795963006" lon="16.54085232243324"><ele>55.0</ele><time>2026-04-26T07:25:02.989Z</time></trkpt><trkpt lat="40.43555955682595" lon="16.540660264048178"><ele>55.0</ele><time>2026-04-26T07:25:03.989Z</time></trkpt><trkpt lat="40.43567588402808" lon="16.54045994365152"><ele>55.0</ele><time>2026-04-26T07:25:04.989Z</time></trkpt><trkpt lat="40.43578997191418" lon="16.54026086926711"><ele>55.0</ele><time>2026-04-26T07:25:05.989Z</time></trkpt><trkpt lat="40.4359023014392" lon="16.540055326269744"><ele>55.0</ele><time>2026-04-26T07:25:06.989Z</time></trkpt><trkpt lat="40.43600437190579" lon="16.539848361687877"><ele>55.0</ele><time>2026-04-26T07:25:07.989Z</time></trkpt><trkpt lat="40.43621344071901" lon="16.539417112828865"><ele>53.666666666666664</ele><time>2026-04-26T07:25:09.989Z</time></trkpt><trkpt lat="40.43631664951105" lon="16.539190656622402"><ele>52.33333333333333</ele><time>2026-04-26T07:25:10.989Z</time></trkpt><trkpt lat="40.43641802849568" lon="16.53896719520857"><ele>51.0</ele><time>2026-04-26T07:25:11.989Z</time></trkpt><trkpt lat="40.43651084091646" lon="16.53874890699933"><ele>51.33333333333333</ele><time>2026-04-26T07:25:12.989Z</time></trkpt><trkpt lat="40.436621711496784" lon="16.53854286213956"><ele>51.666666666666664</ele><time>2026-04-26T07:25:13.989Z</time></trkpt><trkpt lat="40.436719331310336" lon="16.538325385827157"><ele>52.0</ele><time>2026-04-26T07:25:14.989Z</time></trkpt><trkpt lat="40.43681621741645" lon="16.53811057598757"><ele>52.0</ele><time>2026-04-26T07:25:15.989Z</time></trkpt><trkpt lat="40.4369171518312" lon="16.537891226900815"><ele>52.0</ele><time>2026-04-26T07:25:16.989Z</time></trkpt><trkpt lat="40.43701078865936" lon="16.537687736829046"><ele>52.0</ele><time>2026-04-26T07:25:17.989Z</time></trkpt><trkpt lat="40.437102719728095" lon="16.537487516009385"><ele>51.666666666666664</ele><time>2026-04-26T07:25:18.989Z</time></trkpt><trkpt lat="40.43719766587419" lon="16.537280055438842"><ele>51.33333333333333</ele><time>2026-04-26T07:25:19.989Z</time></trkpt><trkpt lat="40.437277030008886" lon="16.53707033005538"><ele>51.0</ele><time>2026-04-26T07:25:20.989Z</time></trkpt><trkpt lat="40.437384522086475" lon="16.536870816225086"><ele>52.0</ele><time>2026-04-26T07:25:21.989Z</time></trkpt><trkpt lat="40.43747726685942" lon="16.536663482601"><ele>53.0</ele><time>2026-04-26T07:25:22.989Z</time></trkpt><trkpt lat="40.437577699988005" lon="16.536436111193723"><ele>54.0</ele><time>2026-04-26T07:25:23.989Z</time></trkpt><trkpt lat="40.43767749612476" lon="16.536211614208003"><ele>54.33333333333333</ele><time>2026-04-26T07:25:24.989Z</time></trkpt><trkpt lat="40.437785704184215" lon="16.535975529091743"><ele>54.666666666666664</ele><time>2026-04-26T07:25:25.989Z</time></trkpt><trkpt lat="40.437890883079376" lon="16.535746052964132"><ele>55.0</ele><time>2026-04-26T07:25:26.989Z</time></trkpt><trkpt lat="40.43798422410083" lon="16.535542404247565"><ele>54.666666666666664</ele><time>2026-04-26T07:25:27.989Z</time></trkpt><trkpt lat="40.438073051576204" lon="16.535347372783864"><ele>54.33333333333333</ele><time>2026-04-26T07:25:28.989Z</time></trkpt><trkpt lat="40.438159395982936" lon="16.53515557262513"><ele>54.0</ele><time>2026-04-26T07:25:29.989Z</time></trkpt><trkpt lat="40.43824188955322" lon="16.534967411449855"><ele>54.0</ele><time>2026-04-26T07:25:30.989Z</time></trkpt><trkpt lat="40.438328940199526" lon="16.534770611939756"><ele>54.0</ele><time>2026-04-26T07:25:31.989Z</time></trkpt><trkpt lat="40.43841081765424" lon="16.534626749794622"><ele>54.0</ele><time>2026-04-26T07:25:32.989Z</time></trkpt><trkpt lat="40.438491903294825" lon="16.534508691565723"><ele>54.0</ele><time>2026-04-26T07:25:33.989Z</time></trkpt><trkpt lat="40.43857189809391" lon="16.534401968653555"><ele>54.2</ele><time>2026-04-26T07:25:34.989Z</time></trkpt><trkpt lat="40.4386497101361" lon="16.534298782189286"><ele>54.400000000000006</ele><time>2026-04-26T07:25:35.989Z</time></trkpt><trkpt lat="40.43873142760131" lon="16.534189883162004"><ele>54.6</ele><time>2026-04-26T07:25:36.989Z</time></trkpt><trkpt lat="40.43881406936386" lon="16.53407610350401"><ele>54.8</ele><time>2026-04-26T07:25:37.989Z</time></trkpt><trkpt lat="40.43886281856721" lon="16.53396931128721"><ele>55.0</ele><time>2026-04-26T07:25:38.989Z</time></trkpt><trkpt lat="40.438931270095416" lon="16.53386877887762"><ele>54.49999999999999</ele><time>2026-04-26T07:25:40.989Z</time></trkpt><trkpt lat="40.43901630083115" lon="16.533910094507775"><ele>54.0</ele><time>2026-04-26T07:25:43.989Z</time></trkpt><trkpt lat="40.439080028061724" lon="16.533975853652358"><ele>53.5</ele><time>2026-04-26T07:25:45.989Z</time></trkpt><trkpt lat="40.43914520623191" lon="16.534027698295617"><ele>53.0</ele><time>2026-04-26T07:25:46.989Z</time></trkpt><trkpt lat="40.439220102344876" lon="16.534102798865817"><ele>52.49999999999999</ele><time>2026-04-26T07:25:47.989Z</time></trkpt><trkpt lat="40.43930138747491" lon="16.534189705375866"><ele>52.0</ele><time>2026-04-26T07:25:48.989Z</time></trkpt><trkpt lat="40.4393885095561" lon="16.534290368668504"><ele>52.0</ele><time>2026-04-26T07:25:49.989Z</time></trkpt><trkpt lat="40.439479151042384" lon="16.5344041544733"><ele>52.0</ele><time>2026-04-26T07:25:50.989Z</time></trkpt><trkpt lat="40.4395774604352" lon="16.53451244955677"><ele>52.0</ele><time>2026-04-26T07:25:51.989Z</time></trkpt><trkpt lat="40.439684088235374" lon="16.534621549790774"><ele>52.0</ele><time>2026-04-26T07:25:52.989Z</time></trkpt><trkpt lat="40.43977971356637" lon="16.534719422675103"><ele>51.0</ele><time>2026-04-26T07:25:53.989Z</time></trkpt><trkpt lat="40.43987231946359" lon="16.534828470677514"><ele>50.0</ele><time>2026-04-26T07:25:54.989Z</time></trkpt><trkpt lat="40.43995617264646" lon="16.534941380314667"><ele>49.0</ele><time>2026-04-26T07:25:55.989Z</time></trkpt><trkpt lat="40.44002056715604" lon="16.535059929935258"><ele>48.0</ele><time>2026-04-26T07:25:56.989Z</time></trkpt><trkpt lat="40.440092951002114" lon="16.535159687654446"><ele>48.0</ele><time>2026-04-26T07:25:57.989Z</time></trkpt><trkpt lat="40.44017611133995" lon="16.535246686261708"><ele>48.0</ele><time>2026-04-26T07:25:58.989Z</time></trkpt><trkpt lat="40.4402640537664" lon="16.535318079139625"><ele>48.0</ele><time>2026-04-26T07:25:59.989Z</time></trkpt><trkpt lat="40.44035798817195" lon="16.535382702364068"><ele>48.0</ele><time>2026-04-26T07:26:00.989Z</time></trkpt><trkpt lat="40.44044347483607" lon="16.535455568789335"><ele>48.0</ele><time>2026-04-26T07:26:01.989Z</time></trkpt><trkpt lat="40.44053585266289" lon="16.5355455088313"><ele>48.25</ele><time>2026-04-26T07:26:02.989Z</time></trkpt><trkpt lat="40.440619762538915" lon="16.535639682208426"><ele>48.5</ele><time>2026-04-26T07:26:03.989Z</time></trkpt><trkpt lat="40.44070602433122" lon="16.535730652916104"><ele>48.75</ele><time>2026-04-26T07:26:04.99Z</time></trkpt><trkpt lat="40.44080238159024" lon="16.535818973333857"><ele>49.0</ele><time>2026-04-26T07:26:05.99Z</time></trkpt><trkpt lat="40.440895698108044" lon="16.535920524941844"><ele>49.0</ele><time>2026-04-26T07:26:06.99Z</time></trkpt><trkpt lat="40.440980632470065" lon="16.536019217128736"><ele>49.0</ele><time>2026-04-26T07:26:07.989Z</time></trkpt><trkpt lat="40.44106750736973" lon="16.5361093710958"><ele>49.0</ele><time>2026-04-26T07:26:08.989Z</time></trkpt><trkpt lat="40.44116358612266" lon="16.53619357332348"><ele>49.0</ele><time>2026-04-26T07:26:09.99Z</time></trkpt><trkpt lat="40.441253893327875" lon="16.53626657258366"><ele>49.0</ele><time>2026-04-26T07:26:10.989Z</time></trkpt><trkpt lat="40.441339927047075" lon="16.536335281803037"><ele>48.800000000000004</ele><time>2026-04-26T07:26:11.989Z</time></trkpt><trkpt lat="40.4414164804714" lon="16.536387316602237"><ele>48.6</ele><time>2026-04-26T07:26:12.989Z</time></trkpt><trkpt lat="40.44148488214861" lon="16.536446348889662"><ele>48.4</ele><time>2026-04-26T07:26:13.99Z</time></trkpt><trkpt lat="40.44157628891451" lon="16.536514240489932"><ele>48.2</ele><time>2026-04-26T07:26:15.99Z</time></trkpt><trkpt lat="40.441684964907154" lon="16.53652184712958"><ele>48.0</ele><time>2026-04-26T07:26:17.989Z</time></trkpt><trkpt lat="40.441763545495306" lon="16.536508459688807"><ele>48.0</ele><time>2026-04-26T07:26:18.989Z</time></trkpt><trkpt lat="40.44184459421317" lon="16.536480900695913"><ele>48.0</ele><time>2026-04-26T07:26:19.989Z</time></trkpt><trkpt lat="40.44192574947256" lon="16.5364432885328"><ele>48.0</ele><time>2026-04-26T07:26:20.989Z</time></trkpt><trkpt lat="40.442008904821826" lon="16.536376511613604"><ele>48.0</ele><time>2026-04-26T07:26:21.989Z</time></trkpt><trkpt lat="40.44210449969605" lon="16.53634496401379"><ele>48.0</ele><time>2026-04-26T07:26:22.989Z</time></trkpt><trkpt lat="40.44218532901904" lon="16.536310262898564"><ele>47.4</ele><time>2026-04-26T07:26:23.989Z</time></trkpt><trkpt lat="40.44227570754664" lon="16.536281325680292"><ele>46.8</ele><time>2026-04-26T07:26:24.989Z</time></trkpt><trkpt lat="40.44235911774574" lon="16.53626688695182"><ele>46.2</ele><time>2026-04-26T07:26:25.989Z</time></trkpt><trkpt lat="40.44243863179484" lon="16.536263783749177"><ele>45.6</ele><time>2026-04-26T07:26:26.989Z</time></trkpt><trkpt lat="40.4425153312972" lon="16.536271138772243"><ele>45.0</ele><time>2026-04-26T07:26:27.989Z</time></trkpt><trkpt lat="40.44263598901768" lon="16.53630477583305"><ele>45.0</ele><time>2026-04-26T07:26:29.989Z</time></trkpt><trkpt lat="40.44268793127919" lon="16.536352949350057"><ele>45.0</ele><time>2026-04-26T07:26:30.989Z</time></trkpt><trkpt lat="40.44275185828479" lon="16.536364779166533"><ele>45.0</ele><time>2026-04-26T07:26:32.989Z</time></trkpt><trkpt lat="40.442827658114595" lon="16.53640509905531"><ele>45.0</ele><time>2026-04-26T07:26:35.989Z</time></trkpt><trkpt lat="40.44289621029045" lon="16.536434946941768"><ele>45.0</ele><time>2026-04-26T07:26:38.989Z</time></trkpt><trkpt lat="40.442971399856525" lon="16.53644255624798"><ele>45.0</ele><time>2026-04-26T07:29:02.988Z</time></trkpt><trkpt lat="40.4430402516548" lon="16.536431877431177"><ele>45.0</ele><time>2026-04-26T07:29:04.988Z</time></trkpt><trkpt lat="40.44313108533186" lon="16.536445758133674"><ele>44.42857142857142</ele><time>2026-04-26T07:29:06.988Z</time></trkpt><trkpt lat="40.443193977170964" lon="16.536456678491483"><ele>43.85714285714286</ele><time>2026-04-26T07:29:07.988Z</time></trkpt><trkpt lat="40.443269043552135" lon="16.536469919029038"><ele>43.285714285714285</ele><time>2026-04-26T07:29:08.988Z</time></trkpt><trkpt lat="40.443335777499534" lon="16.536484372798558"><ele>42.71428571428571</ele><time>2026-04-26T07:29:09.988Z</time></trkpt><trkpt lat="40.443405383771655" lon="16.536508333310234"><ele>42.14285714285714</ele><time>2026-04-26T07:29:11.988Z</time></trkpt><trkpt lat="40.44341915508857" lon="16.53659438917499"><ele>41.57142857142857</ele><time>2026-04-26T07:29:21.988Z</time></trkpt><trkpt lat="40.443443652300886" lon="16.536675953693916"><ele>41.0</ele><time>2026-04-26T07:29:46.987Z</time></trkpt><trkpt lat="40.44353728421819" lon="16.53673319042286"><ele>41.0</ele><time>2026-04-26T07:30:29.988Z</time></trkpt><trkpt lat="40.44363234084305" lon="16.536791736406467"><ele>41.0</ele><time>2026-04-26T07:30:31.987Z</time></trkpt><trkpt lat="40.443694294695504" lon="16.536831333558407"><ele>41.0</ele><time>2026-04-26T07:30:32.987Z</time></trkpt><trkpt lat="40.443759326730756" lon="16.536876260953907"><ele>41.0</ele><time>2026-04-26T07:30:33.987Z</time></trkpt><trkpt lat="40.443829805111456" lon="16.536925231653882"><ele>41.0</ele><time>2026-04-26T07:30:34.987Z</time></trkpt><trkpt lat="40.443909652689946" lon="16.536971421740233"><ele>41.0</ele><time>2026-04-26T07:30:35.987Z</time></trkpt><trkpt lat="40.44400650659875" lon="16.53702983350966"><ele>40.5</ele><time>2026-04-26T07:30:36.987Z</time></trkpt><trkpt lat="40.44408973172739" lon="16.537086779853123"><ele>40.0</ele><time>2026-04-26T07:30:37.987Z</time></trkpt><trkpt lat="40.44416577036481" lon="16.53713519432697"><ele>39.5</ele><time>2026-04-26T07:30:38.987Z</time></trkpt><trkpt lat="40.444246964465144" lon="16.53719240315645"><ele>39.0</ele><time>2026-04-26T07:30:39.987Z</time></trkpt><trkpt lat="40.44432780533054" lon="16.53725132459064"><ele>38.5</ele><time>2026-04-26T07:30:40.987Z</time></trkpt><trkpt lat="40.44439182966007" lon="16.53729538581913"><ele>38.0</ele><time>2026-04-26T07:30:41.987Z</time></trkpt><trkpt lat="40.44445151474001" lon="16.537335203380877"><ele>38.0</ele><time>2026-04-26T07:30:42.987Z</time></trkpt><trkpt lat="40.44451870344768" lon="16.537377898746968"><ele>38.0</ele><time>2026-04-26T07:30:43.987Z</time></trkpt><trkpt lat="40.44457208082663" lon="16.537422931695758"><ele>38.0</ele><time>2026-04-26T07:30:44.987Z</time></trkpt><trkpt lat="40.44466981041157" lon="16.53748582704703"><ele>38.0</ele><time>2026-04-26T07:30:46.987Z</time></trkpt><trkpt lat="40.44471563489496" lon="16.537571878915305"><ele>38.0</ele><time>2026-04-26T07:30:48.987Z</time></trkpt><trkpt lat="40.444675181469385" lon="16.537668103386494"><ele>38.0</ele><time>2026-04-26T07:30:52.987Z</time></trkpt><trkpt lat="40.44460132361902" lon="16.537755588751878"><ele>38.0</ele><time>2026-04-26T07:30:54.987Z</time></trkpt><trkpt lat="40.44450971682658" lon="16.537862371282678"><ele>38.0</ele><time>2026-04-26T07:30:56.987Z</time></trkpt><trkpt lat="40.444462808518516" lon="16.53794656393528"><ele>38.0</ele><time>2026-04-26T07:30:57.987Z</time></trkpt><trkpt lat="40.44441083425745" lon="16.538040270760227"><ele>38.0</ele><time>2026-04-26T07:30:58.987Z</time></trkpt><trkpt lat="40.444353599990336" lon="16.53812651891992"><ele>38.0</ele><time>2026-04-26T07:30:59.987Z</time></trkpt><trkpt lat="40.444282759912994" lon="16.538213431827025"><ele>37.8</ele><time>2026-04-26T07:31:00.987Z</time></trkpt><trkpt lat="40.44422024235746" lon="16.538311251591168"><ele>37.599999999999994</ele><time>2026-04-26T07:31:01.987Z</time></trkpt><trkpt lat="40.44416003124687" lon="16.538407116034797"><ele>37.400000000000006</ele><time>2026-04-26T07:31:02.987Z</time></trkpt><trkpt lat="40.444083632098845" lon="16.53850635648585"><ele>37.2</ele><time>2026-04-26T07:31:03.987Z</time></trkpt><trkpt lat="40.44400509955291" lon="16.538582368523677"><ele>37.0</ele><time>2026-04-26T07:31:04.987Z</time></trkpt><trkpt lat="40.443952741385125" lon="16.538667989279368"><ele>37.2</ele><time>2026-04-26T07:31:05.987Z</time></trkpt><trkpt lat="40.44388852491049" lon="16.538767424045766"><ele>37.400000000000006</ele><time>2026-04-26T07:31:06.987Z</time></trkpt><trkpt lat="40.44382981165395" lon="16.538856106871428"><ele>37.599999999999994</ele><time>2026-04-26T07:31:07.987Z</time></trkpt><trkpt lat="40.44377053815767" lon="16.538919407847267"><ele>37.8</ele><time>2026-04-26T07:31:08.987Z</time></trkpt><trkpt lat="40.44370595708852" lon="16.539006584479893"><ele>38.0</ele><time>2026-04-26T07:31:09.987Z</time></trkpt><trkpt lat="40.443638787102124" lon="16.539098069841494"><ele>38.0</ele><time>2026-04-26T07:31:10.987Z</time></trkpt><trkpt lat="40.44357809824609" lon="16.53919672916737"><ele>38.0</ele><time>2026-04-26T07:31:11.987Z</time></trkpt><trkpt lat="40.4435122139" lon="16.539302707163376"><ele>38.0</ele><time>2026-04-26T07:31:12.987Z</time></trkpt><trkpt lat="40.4434422576292" lon="16.53940879158104"><ele>38.0</ele><time>2026-04-26T07:31:13.987Z</time></trkpt><trkpt lat="40.44336036570653" lon="16.539524270000797"><ele>38.0</ele><time>2026-04-26T07:31:14.987Z</time></trkpt><trkpt lat="40.44328286404195" lon="16.539634036803434"><ele>38.25</ele><time>2026-04-26T07:31:15.987Z</time></trkpt><trkpt lat="40.44320898092148" lon="16.539741246879213"><ele>38.5</ele><time>2026-04-26T07:31:16.987Z</time></trkpt><trkpt lat="40.44313138797012" lon="16.539841711069958"><ele>38.75</ele><time>2026-04-26T07:31:17.987Z</time></trkpt><trkpt lat="40.44304648691109" lon="16.539954459864806"><ele>39.0</ele><time>2026-04-26T07:31:18.987Z</time></trkpt><trkpt lat="40.44296238280091" lon="16.540063104320286"><ele>38.75</ele><time>2026-04-26T07:31:19.987Z</time></trkpt><trkpt lat="40.44288601532313" lon="16.54016924706145"><ele>38.5</ele><time>2026-04-26T07:31:20.987Z</time></trkpt><trkpt lat="40.442803365006576" lon="16.540282355953583"><ele>38.25</ele><time>2026-04-26T07:31:21.987Z</time></trkpt><trkpt lat="40.44272358092379" lon="16.540392803053663"><ele>38.0</ele><time>2026-04-26T07:31:22.987Z</time></trkpt><trkpt lat="40.442646885991806" lon="16.540485972221262"><ele>38.0</ele><time>2026-04-26T07:31:23.987Z</time></trkpt><trkpt lat="40.4425769167174" lon="16.540560406143346"><ele>38.0</ele><time>2026-04-26T07:31:24.987Z</time></trkpt><trkpt lat="40.44250548494649" lon="16.540638370251756"><ele>38.0</ele><time>2026-04-26T07:31:25.987Z</time></trkpt><trkpt lat="40.442447189812206" lon="16.540710565194843"><ele>38.0</ele><time>2026-04-26T07:31:26.987Z</time></trkpt><trkpt lat="40.44239133230985" lon="16.540797752155576"><ele>38.0</ele><time>2026-04-26T07:31:27.987Z</time></trkpt><trkpt lat="40.44233429228233" lon="16.540891117885216"><ele>38.0</ele><time>2026-04-26T07:31:28.987Z</time></trkpt><trkpt lat="40.442270311567874" lon="16.540995859710883"><ele>38.0</ele><time>2026-04-26T07:31:29.987Z</time></trkpt><trkpt lat="40.44220048647399" lon="16.541097090430256"><ele>38.0</ele><time>2026-04-26T07:31:30.987Z</time></trkpt><trkpt lat="40.44213141916133" lon="16.54118764077065"><ele>38.0</ele><time>2026-04-26T07:31:31.987Z</time></trkpt><trkpt lat="40.44206314668477" lon="16.541282519001722"><ele>38.0</ele><time>2026-04-26T07:31:32.987Z</time></trkpt><trkpt lat="40.44200632285718" lon="16.541367898179278"><ele>38.0</ele><time>2026-04-26T07:31:33.987Z</time></trkpt><trkpt lat="40.44194782462321" lon="16.541452535074164"><ele>37.8</ele><time>2026-04-26T07:31:34.987Z</time></trkpt><trkpt lat="40.441871795072146" lon="16.541549947173767"><ele>37.599999999999994</ele><time>2026-04-26T07:31:36.987Z</time></trkpt><trkpt lat="40.441804979921095" lon="16.541652355173685"><ele>37.400000000000006</ele><time>2026-04-26T07:31:38.987Z</time></trkpt><trkpt lat="40.44174523029552" lon="16.54173028564821"><ele>37.2</ele><time>2026-04-26T07:31:40.987Z</time></trkpt><trkpt lat="40.441665157368725" lon="16.541831111879148"><ele>37.0</ele><time>2026-04-26T07:31:42.987Z</time></trkpt><trkpt lat="40.441576995550335" lon="16.541936318807462"><ele>37.0</ele><time>2026-04-26T07:31:44.987Z</time></trkpt><trkpt lat="40.44150615432063" lon="16.542027012358567"><ele>37.0</ele><time>2026-04-26T07:31:46.986Z</time></trkpt><trkpt lat="40.441444270545375" lon="16.542102147175857"><ele>37.0</ele><time>2026-04-26T07:31:48.986Z</time></trkpt><trkpt lat="40.44138331454337" lon="16.542178249017987"><ele>37.0</ele><time>2026-04-26T07:31:51.986Z</time></trkpt><trkpt lat="40.44134344113869" lon="16.542247771213965"><ele>37.0</ele><time>2026-04-26T07:31:54.986Z</time></trkpt><trkpt lat="40.44128673384993" lon="16.542297775832683"><ele>37.0</ele><time>2026-04-26T07:31:57.986Z</time></trkpt><trkpt lat="40.44123912501133" lon="16.542389862698297"><ele>36.800000000000004</ele><time>2026-04-26T07:32:20.986Z</time></trkpt><trkpt lat="40.44119139515059" lon="16.542460245225747"><ele>36.6</ele><time>2026-04-26T07:32:22.986Z</time></trkpt><trkpt lat="40.44112871377992" lon="16.542546444375507"><ele>36.400000000000006</ele><time>2026-04-26T07:32:24.987Z</time></trkpt><trkpt lat="40.44105128839939" lon="16.542643932769828"><ele>36.2</ele><time>2026-04-26T07:32:26.987Z</time></trkpt><trkpt lat="40.440969142455465" lon="16.54275609428439"><ele>36.0</ele><time>2026-04-26T07:32:28.986Z</time></trkpt><trkpt lat="40.44089090127596" lon="16.5428624088738"><ele>36.0</ele><time>2026-04-26T07:32:30.987Z</time></trkpt><trkpt lat="40.44082049979173" lon="16.542960857220177"><ele>36.0</ele><time>2026-04-26T07:32:32.986Z</time></trkpt><trkpt lat="40.440750591758594" lon="16.54303804985243"><ele>36.0</ele><time>2026-04-26T07:32:34.986Z</time></trkpt><trkpt lat="40.440696416825226" lon="16.54313173070716"><ele>36.0</ele><time>2026-04-26T07:32:36.986Z</time></trkpt><trkpt lat="40.44064863406436" lon="16.54321658231381"><ele>36.0</ele><time>2026-04-26T07:32:38.986Z</time></trkpt><trkpt lat="40.44059367928404" lon="16.543294969534557"><ele>36.0</ele><time>2026-04-26T07:32:40.986Z</time></trkpt><trkpt lat="40.440537637360826" lon="16.543355366825654"><ele>36.0</ele><time>2026-04-26T07:32:44.986Z</time></trkpt><trkpt lat="40.44048045309415" lon="16.543416445422036"><ele>36.0</ele><time>2026-04-26T07:32:51.986Z</time></trkpt><trkpt lat="40.44042498479837" lon="16.543484291415773"><ele>36.0</ele><time>2026-04-26T07:32:53.986Z</time></trkpt><trkpt lat="40.44037739919692" lon="16.54354476558758"><ele>36.0</ele><time>2026-04-26T07:32:55.986Z</time></trkpt><trkpt lat="40.44032608305039" lon="16.543616127233133"><ele>36.0</ele><time>2026-04-26T07:32:58.986Z</time></trkpt><trkpt lat="40.44027249619862" lon="16.543701273112468"><ele>36.0</ele><time>2026-04-26T07:33:00.986Z</time></trkpt><trkpt lat="40.44019843956489" lon="16.5438078650038"><ele>36.142857142857146</ele><time>2026-04-26T07:33:02.986Z</time></trkpt><trkpt lat="40.44014003416489" lon="16.543881865541447"><ele>36.285714285714285</ele><time>2026-04-26T07:33:04.986Z</time></trkpt><trkpt lat="40.44008300585133" lon="16.54395546357934"><ele>36.42857142857143</ele><time>2026-04-26T07:33:06.986Z</time></trkpt><trkpt lat="40.44003512035285" lon="16.544024671822534"><ele>36.57142857142857</ele><time>2026-04-26T07:33:08.986Z</time></trkpt><trkpt lat="40.439986562952924" lon="16.544089260424528"><ele>36.714285714285715</ele><time>2026-04-26T07:33:10.986Z</time></trkpt><trkpt lat="40.43994543516244" lon="16.54415306106224"><ele>36.85714285714286</ele><time>2026-04-26T07:33:13.986Z</time></trkpt><trkpt lat="40.43989197883033" lon="16.54422309354297"><ele>37.0</ele><time>2026-04-26T07:33:17.986Z</time></trkpt><trkpt lat="40.43983870071843" lon="16.54430910106284"><ele>37.0</ele><time>2026-04-26T07:33:21.985Z</time></trkpt><trkpt lat="40.439792192820526" lon="16.544386403989133"><ele>37.0</ele><time>2026-04-26T07:33:23.985Z</time></trkpt><trkpt lat="40.43972406176106" lon="16.54446332077008"><ele>37.0</ele><time>2026-04-26T07:33:25.985Z</time></trkpt><trkpt lat="40.43967568184708" lon="16.544527622349378"><ele>37.0</ele><time>2026-04-26T07:33:27.985Z</time></trkpt><trkpt lat="40.439627390655616" lon="16.54458845096654"><ele>37.0</ele><time>2026-04-26T07:33:29.985Z</time></trkpt><trkpt lat="40.43957269623008" lon="16.544703187979046"><ele>37.0</ele><time>2026-04-26T07:33:32.985Z</time></trkpt><trkpt lat="40.439495706155476" lon="16.544811384391416"><ele>37.0</ele><time>2026-04-26T07:33:34.985Z</time></trkpt><trkpt lat="40.43945150489194" lon="16.544872850874803"><ele>37.0</ele><time>2026-04-26T07:33:35.985Z</time></trkpt><trkpt lat="40.43939720670556" lon="16.544945942548786"><ele>37.0</ele><time>2026-04-26T07:33:36.985Z</time></trkpt><trkpt lat="40.43934792104977" lon="16.545012765904698"><ele>37.0</ele><time>2026-04-26T07:33:37.985Z</time></trkpt><trkpt lat="40.43929665109827" lon="16.545085072103024"><ele>37.0</ele><time>2026-04-26T07:33:38.985Z</time></trkpt><trkpt lat="40.43922343611795" lon="16.545191012466532"><ele>37.0</ele><time>2026-04-26T07:33:40.985Z</time></trkpt><trkpt lat="40.43915663732541" lon="16.545269920257642"><ele>37.0</ele><time>2026-04-26T07:33:42.985Z</time></trkpt><trkpt lat="40.43908302749198" lon="16.545321900179967"><ele>37.0</ele><time>2026-04-26T07:33:44.985Z</time></trkpt><trkpt lat="40.43901641825199" lon="16.545411732256024"><ele>37.0</ele><time>2026-04-26T07:33:46.985Z</time></trkpt><trkpt lat="40.43895892528134" lon="16.545479978419706"><ele>37.0</ele><time>2026-04-26T07:33:47.985Z</time></trkpt><trkpt lat="40.438902926997315" lon="16.545552653016674"><ele>37.0</ele><time>2026-04-26T07:33:48.985Z</time></trkpt><trkpt lat="40.43884763555902" lon="16.54563372662455"><ele>37.0</ele><time>2026-04-26T07:33:49.985Z</time></trkpt><trkpt lat="40.43880219174369" lon="16.545723567030393"><ele>37.0</ele><time>2026-04-26T07:33:50.985Z</time></trkpt><trkpt lat="40.438756576836944" lon="16.545797133133355"><ele>37.0</ele><time>2026-04-26T07:33:51.985Z</time></trkpt><trkpt lat="40.43869761803638" lon="16.545868355244036"><ele>37.0</ele><time>2026-04-26T07:33:52.985Z</time></trkpt><trkpt lat="40.4386434883854" lon="16.545927748063388"><ele>37.0</ele><time>2026-04-26T07:33:53.985Z</time></trkpt><trkpt lat="40.43856995139708" lon="16.54603448049316"><ele>37.0</ele><time>2026-04-26T07:33:55.985Z</time></trkpt><trkpt lat="40.438518280064876" lon="16.546102438961174"><ele>37.0</ele><time>2026-04-26T07:33:56.985Z</time></trkpt><trkpt lat="40.43846960597087" lon="16.546182724888702"><ele>36.85714285714286</ele><time>2026-04-26T07:33:57.985Z</time></trkpt><trkpt lat="40.43842786803449" lon="16.546247432560275"><ele>36.714285714285715</ele><time>2026-04-26T07:33:58.985Z</time></trkpt><trkpt lat="40.438360993231115" lon="16.546327643328937"><ele>36.57142857142857</ele><time>2026-04-26T07:34:00.985Z</time></trkpt><trkpt lat="40.43833620729447" lon="16.546403942430086"><ele>36.42857142857143</ele><time>2026-04-26T07:34:04.985Z</time></trkpt><trkpt lat="40.43832139279918" lon="16.546321262297646"><ele>36.285714285714285</ele><time>2026-04-26T07:35:38.985Z</time></trkpt><trkpt lat="40.43840297622011" lon="16.546336639636298"><ele>36.142857142857146</ele><time>2026-04-26T07:35:44.985Z</time></trkpt><trkpt lat="40.43841486431461" lon="16.546422364509297"><ele>36.0</ele><time>2026-04-26T07:35:46.985Z</time></trkpt><trkpt lat="40.43844533408267" lon="16.54651188743666"><ele>36.00000000000001</ele><time>2026-04-26T07:35:49.984Z</time></trkpt><trkpt lat="40.43849298087973" lon="16.546581089758476"><ele>36.0</ele><time>2026-04-26T07:35:51.984Z</time></trkpt><trkpt lat="40.43853153297441" lon="16.546647532727196"><ele>36.0</ele><time>2026-04-26T07:35:54.984Z</time></trkpt><trkpt lat="40.43858036739791" lon="16.546726857054107"><ele>36.0</ele><time>2026-04-26T07:35:57.984Z</time></trkpt><trkpt lat="40.43862397088677" lon="16.54681405276586"><ele>36.0</ele><time>2026-04-26T07:36:00.984Z</time></trkpt><trkpt lat="40.43866484767418" lon="16.54689040902005"><ele>36.00000000000001</ele><time>2026-04-26T07:36:02.984Z</time></trkpt><trkpt lat="40.4387087680989" lon="16.546985701798928"><ele>36.0</ele><time>2026-04-26T07:36:05.984Z</time></trkpt><trkpt lat="40.43875250373182" lon="16.547077281421775"><ele>36.00000000000001</ele><time>2026-04-26T07:36:08.984Z</time></trkpt><trkpt lat="40.43878597291741" lon="16.54715481120313"><ele>36.0</ele><time>2026-04-26T07:36:10.984Z</time></trkpt><trkpt lat="40.43882062062246" lon="16.54723127748126"><ele>36.0</ele><time>2026-04-26T07:36:12.984Z</time></trkpt><trkpt lat="40.43886181238826" lon="16.547305568641775"><ele>36.0</ele><time>2026-04-26T07:36:14.984Z</time></trkpt><trkpt lat="40.43892333153922" lon="16.547397652726005"><ele>36.0</ele><time>2026-04-26T07:36:17.984Z</time></trkpt><trkpt lat="40.43896580382643" lon="16.547470435585723"><ele>36.00000000000001</ele><time>2026-04-26T07:36:19.984Z</time></trkpt><trkpt lat="40.43901764881488" lon="16.547544255552854"><ele>36.0</ele><time>2026-04-26T07:36:21.984Z</time></trkpt><trkpt lat="40.4390618177064" lon="16.547605612756502"><ele>36.142857142857146</ele><time>2026-04-26T07:36:23.984Z</time></trkpt><trkpt lat="40.43910411613079" lon="16.547672429997863"><ele>36.285714285714285</ele><time>2026-04-26T07:36:25.984Z</time></trkpt><trkpt lat="40.43913883797103" lon="16.547751265922006"><ele>36.42857142857143</ele><time>2026-04-26T07:36:27.984Z</time></trkpt><trkpt lat="40.439177789100164" lon="16.54783336460362"><ele>36.57142857142857</ele><time>2026-04-26T07:36:29.984Z</time></trkpt><trkpt lat="40.43922595640117" lon="16.547896809467296"><ele>36.714285714285715</ele><time>2026-04-26T07:36:32.984Z</time></trkpt><trkpt lat="40.43927912543428" lon="16.547952370259424"><ele>36.85714285714286</ele><time>2026-04-26T07:36:35.984Z</time></trkpt><trkpt lat="40.43934321632195" lon="16.5480024169504"><ele>37.0</ele><time>2026-04-26T07:36:50.984Z</time></trkpt><trkpt lat="40.43940771233091" lon="16.548023826379783"><ele>37.0</ele><time>2026-04-26T07:36:53.984Z</time></trkpt><trkpt lat="40.43940630313806" lon="16.547928666087234"><ele>37.0</ele><time>2026-04-26T07:47:32.981Z</time></trkpt><trkpt lat="40.43944248909154" lon="16.547830891398583"><ele>37.0</ele><time>2026-04-26T07:47:36.981Z</time></trkpt><trkpt lat="40.43946970506418" lon="16.547740213689238"><ele>37.0</ele><time>2026-04-26T07:47:40.981Z</time></trkpt><trkpt lat="40.43942965894" lon="16.547661342663165"><ele>37.0</ele><time>2026-04-26T07:47:43.981Z</time></trkpt><trkpt lat="40.43939928965173" lon="16.547562728378043"><ele>37.0</ele><time>2026-04-26T07:47:45.981Z</time></trkpt><trkpt lat="40.4393636522439" lon="16.54746166972335"><ele>37.0</ele><time>2026-04-26T07:47:48.981Z</time></trkpt><trkpt lat="40.43935649088974" lon="16.547359412394805"><ele>37.0</ele><time>2026-04-26T07:47:51.981Z</time></trkpt><trkpt lat="40.439343988545616" lon="16.547256843288498"><ele>37.0</ele><time>2026-04-26T07:47:53.981Z</time></trkpt><trkpt lat="40.43932217544335" lon="16.547146366101135"><ele>37.0</ele><time>2026-04-26T07:47:56.981Z</time></trkpt><trkpt lat="40.43928896970042" lon="16.547053462613484"><ele>37.0</ele><time>2026-04-26T07:47:59.981Z</time></trkpt><trkpt lat="40.43923676582588" lon="16.546972804334388"><ele>37.0</ele><time>2026-04-26T07:48:02.981Z</time></trkpt><trkpt lat="40.43920970964073" lon="16.546887435423503"><ele>36.85714285714286</ele><time>2026-04-26T07:48:04.981Z</time></trkpt><trkpt lat="40.43916916762697" lon="16.546811478690067"><ele>36.714285714285715</ele><time>2026-04-26T07:48:06.981Z</time></trkpt><trkpt lat="40.43911280842223" lon="16.546766063603936"><ele>36.57142857142857</ele><time>2026-04-26T07:48:08.981Z</time></trkpt><trkpt lat="40.43904179623932" lon="16.546696540810103"><ele>36.42857142857143</ele><time>2026-04-26T07:48:10.981Z</time></trkpt><trkpt lat="40.438999033755735" lon="16.546632679324247"><ele>36.285714285714285</ele><time>2026-04-26T07:48:12.981Z</time></trkpt><trkpt lat="40.438959774579594" lon="16.546557065480215"><ele>36.142857142857146</ele><time>2026-04-26T07:48:14.981Z</time></trkpt><trkpt lat="40.438941774856275" lon="16.546455764172507"><ele>36.0</ele><time>2026-04-26T07:48:16.981Z</time></trkpt><trkpt lat="40.43891535152491" lon="16.546343008013036"><ele>36.0</ele><time>2026-04-26T07:48:19.981Z</time></trkpt><trkpt lat="40.43885929489706" lon="16.54627960220824"><ele>36.0</ele><time>2026-04-26T07:48:21.981Z</time></trkpt><trkpt lat="40.43881262255532" lon="16.54621661679154"><ele>36.0</ele><time>2026-04-26T07:48:23.981Z</time></trkpt><trkpt lat="40.438752556489206" lon="16.54611625510472"><ele>36.0</ele><time>2026-04-26T07:48:26.981Z</time></trkpt><trkpt lat="40.4387213647239" lon="16.546028198677924"><ele>36.0</ele><time>2026-04-26T07:48:29.981Z</time></trkpt><trkpt lat="40.43875751301747" lon="16.54595980762761"><ele>36.0</ele><time>2026-04-26T07:51:26.981Z</time></trkpt><trkpt lat="40.43881435439385" lon="16.54588391586111"><ele>36.2</ele><time>2026-04-26T07:51:28.981Z</time></trkpt><trkpt lat="40.438875115805374" lon="16.545778962514813"><ele>36.400000000000006</ele><time>2026-04-26T07:51:30.981Z</time></trkpt><trkpt lat="40.438942923355675" lon="16.545680199587594"><ele>36.6</ele><time>2026-04-26T07:51:32.981Z</time></trkpt><trkpt lat="40.43902708200399" lon="16.545561112030768"><ele>36.800000000000004</ele><time>2026-04-26T07:51:34.981Z</time></trkpt><trkpt lat="40.43906885478117" lon="16.54549586240584"><ele>37.0</ele><time>2026-04-26T07:51:35.98Z</time></trkpt><trkpt lat="40.43911281405953" lon="16.54542485819938"><ele>37.0</ele><time>2026-04-26T07:51:36.98Z</time></trkpt><trkpt lat="40.43916947840675" lon="16.545357947377745"><ele>37.0</ele><time>2026-04-26T07:51:37.98Z</time></trkpt><trkpt lat="40.43920855428428" lon="16.54529289243602"><ele>37.0</ele><time>2026-04-26T07:51:38.98Z</time></trkpt><trkpt lat="40.43925908012878" lon="16.545230285837164"><ele>37.0</ele><time>2026-04-26T07:51:39.98Z</time></trkpt><trkpt lat="40.43930888927199" lon="16.545165736182266"><ele>37.0</ele><time>2026-04-26T07:51:40.98Z</time></trkpt><trkpt lat="40.439371288960984" lon="16.545080335422963"><ele>37.0</ele><time>2026-04-26T07:51:42.98Z</time></trkpt><trkpt lat="40.43942182089932" lon="16.54502200306666"><ele>37.0</ele><time>2026-04-26T07:51:44.98Z</time></trkpt><trkpt lat="40.43947096744383" lon="16.54495524283816"><ele>37.0</ele><time>2026-04-26T07:51:57.98Z</time></trkpt><trkpt lat="40.439522890433516" lon="16.544884932531975"><ele>37.0</ele><time>2026-04-26T07:51:59.98Z</time></trkpt><trkpt lat="40.439577671096224" lon="16.544805002507943"><ele>37.0</ele><time>2026-04-26T07:52:01.98Z</time></trkpt><trkpt lat="40.43965215527488" lon="16.544712095535335"><ele>37.0</ele><time>2026-04-26T07:52:03.98Z</time></trkpt><trkpt lat="40.43969642562861" lon="16.54464861340593"><ele>37.0</ele><time>2026-04-26T07:52:04.98Z</time></trkpt><trkpt lat="40.43974003622708" lon="16.544587719948243"><ele>37.0</ele><time>2026-04-26T07:52:05.98Z</time></trkpt><trkpt lat="40.439787721775204" lon="16.544525366935993"><ele>37.0</ele><time>2026-04-26T07:52:06.98Z</time></trkpt><trkpt lat="40.439842956242245" lon="16.544449238660068"><ele>37.0</ele><time>2026-04-26T07:52:07.98Z</time></trkpt><trkpt lat="40.43990057811465" lon="16.544364655403896"><ele>37.0</ele><time>2026-04-26T07:52:08.98Z</time></trkpt><trkpt lat="40.43996038289967" lon="16.544279446511464"><ele>37.0</ele><time>2026-04-26T07:52:09.98Z</time></trkpt><trkpt lat="40.44001790937718" lon="16.54419563105863"><ele>37.0</ele><time>2026-04-26T07:52:10.98Z</time></trkpt><trkpt lat="40.44007847930676" lon="16.54410962041609"><ele>37.0</ele><time>2026-04-26T07:52:11.98Z</time></trkpt><trkpt lat="40.44013525855759" lon="16.544021279927602"><ele>37.0</ele><time>2026-04-26T07:52:12.98Z</time></trkpt><trkpt lat="40.44019559829096" lon="16.543955342474835"><ele>37.0</ele><time>2026-04-26T07:52:13.98Z</time></trkpt><trkpt lat="40.44024877313883" lon="16.54386893429084"><ele>37.0</ele><time>2026-04-26T07:52:14.98Z</time></trkpt><trkpt lat="40.440303606898134" lon="16.54375860666977"><ele>37.0</ele><time>2026-04-26T07:52:16.98Z</time></trkpt><trkpt lat="40.44033276771819" lon="16.54366267099802"><ele>37.0</ele><time>2026-04-26T07:52:17.98Z</time></trkpt><trkpt lat="40.44035628697175" lon="16.54356970898421"><ele>37.0</ele><time>2026-04-26T07:52:18.98Z</time></trkpt><trkpt lat="40.440411993826366" lon="16.54347242799466"><ele>36.85714285714286</ele><time>2026-04-26T07:52:20.98Z</time></trkpt><trkpt lat="40.440470826574256" lon="16.54343216045526"><ele>36.714285714285715</ele><time>2026-04-26T07:52:22.98Z</time></trkpt><trkpt lat="40.44052957797613" lon="16.54346709273154"><ele>36.57142857142857</ele><time>2026-04-26T07:52:24.98Z</time></trkpt><trkpt lat="40.44059517790897" lon="16.543577429789604"><ele>36.42857142857143</ele><time>2026-04-26T07:52:26.98Z</time></trkpt><trkpt lat="40.44064448149546" lon="16.543637380490512"><ele>36.285714285714285</ele><time>2026-04-26T07:52:27.98Z</time></trkpt><trkpt lat="40.440699654865305" lon="16.543692577373733"><ele>36.142857142857146</ele><time>2026-04-26T07:52:28.98Z</time></trkpt><trkpt lat="40.44075177143849" lon="16.54375061228678"><ele>36.0</ele><time>2026-04-26T07:52:29.98Z</time></trkpt><trkpt lat="40.44080884772056" lon="16.54381134317237"><ele>36.00000000000001</ele><time>2026-04-26T07:52:30.98Z</time></trkpt><trkpt lat="40.44086621251032" lon="16.543883139006073"><ele>36.0</ele><time>2026-04-26T07:52:31.98Z</time></trkpt><trkpt lat="40.440918664717245" lon="16.5439489051334"><ele>36.0</ele><time>2026-04-26T07:52:32.98Z</time></trkpt><trkpt lat="40.4409747604103" lon="16.544013318118797"><ele>36.0</ele><time>2026-04-26T07:52:33.98Z</time></trkpt><trkpt lat="40.441026841315306" lon="16.544065439975427"><ele>36.0</ele><time>2026-04-26T07:52:34.98Z</time></trkpt><trkpt lat="40.44108740712693" lon="16.544125570405356"><ele>36.00000000000001</ele><time>2026-04-26T07:52:35.98Z</time></trkpt><trkpt lat="40.44114687683665" lon="16.54419324325117"><ele>36.0</ele><time>2026-04-26T07:52:36.98Z</time></trkpt><trkpt lat="40.4412089418101" lon="16.544266945787836"><ele>36.0</ele><time>2026-04-26T07:52:37.98Z</time></trkpt><trkpt lat="40.4412649160435" lon="16.544328493057648"><ele>36.0</ele><time>2026-04-26T07:52:38.98Z</time></trkpt><trkpt lat="40.441335271403794" lon="16.544417968009043"><ele>36.0</ele><time>2026-04-26T07:52:39.98Z</time></trkpt><trkpt lat="40.441395658588604" lon="16.544489301418142"><ele>36.0</ele><time>2026-04-26T07:52:40.98Z</time></trkpt><trkpt lat="40.44144485068413" lon="16.544553083468152"><ele>36.0</ele><time>2026-04-26T07:52:41.98Z</time></trkpt><trkpt lat="40.44149885332109" lon="16.544621533254833"><ele>36.0</ele><time>2026-04-26T07:52:42.98Z</time></trkpt><trkpt lat="40.44154470254581" lon="16.54467931441821"><ele>36.2</ele><time>2026-04-26T07:52:43.98Z</time></trkpt><trkpt lat="40.44162621084552" lon="16.544756347384304"><ele>36.400000000000006</ele><time>2026-04-26T07:52:45.98Z</time></trkpt><trkpt lat="40.44170293213776" lon="16.544788941980823"><ele>36.6</ele><time>2026-04-26T07:52:47.98Z</time></trkpt><trkpt lat="40.44177323150291" lon="16.544797928280673"><ele>36.800000000000004</ele><time>2026-04-26T07:52:49.98Z</time></trkpt><trkpt lat="40.44192029527797" lon="16.54478307363756"><ele>37.0</ele><time>2026-04-26T07:53:27.98Z</time></trkpt><trkpt lat="40.44199111100414" lon="16.54478375520267"><ele>37.0</ele><time>2026-04-26T07:53:29.98Z</time></trkpt><trkpt lat="40.442059901699096" lon="16.544745994414097"><ele>37.0</ele><time>2026-04-26T07:53:34.98Z</time></trkpt><trkpt lat="40.442121257550085" lon="16.5447132081935"><ele>37.0</ele><time>2026-04-26T07:53:37.98Z</time></trkpt><trkpt lat="40.4421729694614" lon="16.54476949634686"><ele>37.0</ele><time>2026-04-26T07:53:40.98Z</time></trkpt><trkpt lat="40.4422477313771" lon="16.544809300371675"><ele>37.0</ele><time>2026-04-26T07:53:43.98Z</time></trkpt><trkpt lat="40.44231974889298" lon="16.54483405833951"><ele>37.0</ele><time>2026-04-26T07:53:45.98Z</time></trkpt><trkpt lat="40.4424200096271" lon="16.54483667427077"><ele>37.333333333333336</ele><time>2026-04-26T07:53:48.98Z</time></trkpt><trkpt lat="40.44249241956053" lon="16.544802820334553"><ele>37.66666666666667</ele><time>2026-04-26T07:53:52.98Z</time></trkpt><trkpt lat="40.44253311973847" lon="16.54488666718602"><ele>38.0</ele><time>2026-04-26T07:53:56.98Z</time></trkpt><trkpt lat="40.44252272280257" lon="16.544991856122607"><ele>38.333333333333336</ele><time>2026-04-26T07:54:06.98Z</time></trkpt><trkpt lat="40.44251502581186" lon="16.5451166258431"><ele>38.666666666666664</ele><time>2026-04-26T07:54:09.98Z</time></trkpt><trkpt lat="40.44250634146432" lon="16.54522750201295"><ele>39.0</ele><time>2026-04-26T07:54:12.979Z</time></trkpt><trkpt lat="40.442513237797705" lon="16.545316759925615"><ele>39.0</ele><time>2026-04-26T07:54:16.979Z</time></trkpt><trkpt lat="40.442460459465735" lon="16.545264988038276"><ele>39.0</ele><time>2026-04-26T07:54:23.979Z</time></trkpt><trkpt lat="40.442486468212934" lon="16.545184938137194"><ele>39.0</ele><time>2026-04-26T07:54:25.979Z</time></trkpt><trkpt lat="40.44250444996063" lon="16.545102161101735"><ele>39.0</ele><time>2026-04-26T07:54:29.979Z</time></trkpt><trkpt lat="40.442534779926326" lon="16.545022447687515"><ele>39.0</ele><time>2026-04-26T07:54:32.979Z</time></trkpt><trkpt lat="40.44250362923116" lon="16.544941736351262"><ele>39.0</ele><time>2026-04-26T07:56:24.978Z</time></trkpt><trkpt lat="40.44250614422333" lon="16.545027859441525"><ele>39.0</ele><time>2026-04-26T07:56:27.978Z</time></trkpt><trkpt lat="40.44247475659146" lon="16.545110661068687"><ele>39.0</ele><time>2026-04-26T07:56:30.978Z</time></trkpt><trkpt lat="40.442475563626544" lon="16.54522102917534"><ele>39.0</ele><time>2026-04-26T07:56:33.978Z</time></trkpt><trkpt lat="40.44246478161791" lon="16.545321969354177"><ele>39.0</ele><time>2026-04-26T07:56:36.978Z</time></trkpt><trkpt lat="40.44245404233416" lon="16.545418022769017"><ele>39.0</ele><time>2026-04-26T07:56:38.978Z</time></trkpt><trkpt lat="40.44242575201304" lon="16.54550465423501"><ele>39.0</ele><time>2026-04-26T07:56:41.978Z</time></trkpt><trkpt lat="40.44239694720013" lon="16.5455797325051"><ele>39.0</ele><time>2026-04-26T07:56:43.978Z</time></trkpt><trkpt lat="40.44238654256062" lon="16.545678522023298"><ele>39.0</ele><time>2026-04-26T07:56:46.978Z</time></trkpt><trkpt lat="40.4423820442375" lon="16.545767256514583"><ele>39.0</ele><time>2026-04-26T07:56:49.978Z</time></trkpt><trkpt lat="40.44244734268112" lon="16.5458579126281"><ele>39.0</ele><time>2026-04-26T07:56:53.978Z</time></trkpt><trkpt lat="40.44245398586635" lon="16.545957663001925"><ele>39.0</ele><time>2026-04-26T08:16:41.97Z</time></trkpt><trkpt lat="40.442369853126486" lon="16.545973904416126"><ele>39.0</ele><time>2026-04-26T08:16:49.97Z</time></trkpt><trkpt lat="40.44230959149199" lon="16.54593981338065"><ele>39.0</ele><time>2026-04-26T08:16:53.97Z</time></trkpt><trkpt lat="40.44231557392395" lon="16.54584124618972"><ele>39.0</ele><time>2026-04-26T08:16:59.97Z</time></trkpt><trkpt lat="40.44234897549624" lon="16.545750891328673"><ele>39.0</ele><time>2026-04-26T08:17:02.97Z</time></trkpt><trkpt lat="40.44237313635143" lon="16.545665408676985"><ele>39.0</ele><time>2026-04-26T08:17:04.97Z</time></trkpt><trkpt lat="40.44240288823772" lon="16.54556387988114"><ele>39.0</ele><time>2026-04-26T08:17:06.97Z</time></trkpt><trkpt lat="40.44242254249743" lon="16.54546196824104"><ele>39.0</ele><time>2026-04-26T08:17:09.97Z</time></trkpt><trkpt lat="40.44244707100357" lon="16.54534129087697"><ele>39.0</ele><time>2026-04-26T08:17:12.97Z</time></trkpt><trkpt lat="40.44244175458181" lon="16.545252244175767"><ele>39.0</ele><time>2026-04-26T08:17:14.97Z</time></trkpt><trkpt lat="40.442420332184035" lon="16.545167735161105"><ele>39.0</ele><time>2026-04-26T08:17:17.97Z</time></trkpt><trkpt lat="40.44237511282075" lon="16.545083678134773"><ele>39.0</ele><time>2026-04-26T08:17:20.97Z</time></trkpt><trkpt lat="40.44234605037699" lon="16.54499994456424"><ele>39.0</ele><time>2026-04-26T08:17:22.97Z</time></trkpt><trkpt lat="40.44230887414496" lon="16.54491053985838"><ele>39.0</ele><time>2026-04-26T08:17:24.97Z</time></trkpt><trkpt lat="40.4422727258577" lon="16.544815009804992"><ele>39.0</ele><time>2026-04-26T08:17:27.97Z</time></trkpt><trkpt lat="40.442226690572326" lon="16.544736125437833"><ele>39.0</ele><time>2026-04-26T08:17:29.97Z</time></trkpt><trkpt lat="40.442165634157966" lon="16.544692112946866"><ele>38.666666666666664</ele><time>2026-04-26T08:17:32.97Z</time></trkpt><trkpt lat="40.44209783327191" lon="16.544730972866763"><ele>38.333333333333336</ele><time>2026-04-26T08:17:35.97Z</time></trkpt><trkpt lat="40.4420503072826" lon="16.544788938927343"><ele>38.0</ele><time>2026-04-26T08:17:37.97Z</time></trkpt><trkpt lat="40.44196522160728" lon="16.54479235539424"><ele>37.66666666666667</ele><time>2026-04-26T08:17:41.969Z</time></trkpt><trkpt lat="40.44190118242118" lon="16.54478145091889"><ele>37.333333333333336</ele><time>2026-04-26T08:17:51.969Z</time></trkpt><trkpt lat="40.44180476784348" lon="16.544780703527508"><ele>37.0</ele><time>2026-04-26T08:17:54.969Z</time></trkpt><trkpt lat="40.44172153894998" lon="16.544787758013122"><ele>37.0</ele><time>2026-04-26T08:17:58.969Z</time></trkpt><trkpt lat="40.441669364310265" lon="16.544735615173334"><ele>37.0</ele><time>2026-04-26T08:18:00.969Z</time></trkpt><trkpt lat="40.44158816195696" lon="16.54464635258384"><ele>37.0</ele><time>2026-04-26T08:18:03.969Z</time></trkpt><trkpt lat="40.441530412202326" lon="16.544604390604135"><ele>37.0</ele><time>2026-04-26T08:18:05.969Z</time></trkpt><trkpt lat="40.44146028121599" lon="16.544559372870822"><ele>37.0</ele><time>2026-04-26T08:18:07.969Z</time></trkpt><trkpt lat="40.441386901443856" lon="16.54447416985755"><ele>37.0</ele><time>2026-04-26T08:18:09.969Z</time></trkpt><trkpt lat="40.44131904851648" lon="16.54438759840813"><ele>36.800000000000004</ele><time>2026-04-26T08:18:11.969Z</time></trkpt><trkpt lat="40.44125184203956" lon="16.54430540058282"><ele>36.6</ele><time>2026-04-26T08:18:13.969Z</time></trkpt><trkpt lat="40.441197096742954" lon="16.544255407036562"><ele>36.400000000000006</ele><time>2026-04-26T08:18:14.969Z</time></trkpt><trkpt lat="40.441097121787216" lon="16.544163965493507"><ele>36.2</ele><time>2026-04-26T08:18:16.969Z</time></trkpt><trkpt lat="40.44100722011855" lon="16.544068290267592"><ele>36.0</ele><time>2026-04-26T08:18:18.969Z</time></trkpt><trkpt lat="40.44092207771547" lon="16.543954991310137"><ele>36.0</ele><time>2026-04-26T08:18:20.969Z</time></trkpt><trkpt lat="40.44087274337462" lon="16.543888654349665"><ele>36.0</ele><time>2026-04-26T08:18:21.969Z</time></trkpt><trkpt lat="40.44082112715628" lon="16.543823550554034"><ele>36.0</ele><time>2026-04-26T08:18:22.969Z</time></trkpt><trkpt lat="40.440722351214376" lon="16.543713847130014"><ele>36.0</ele><time>2026-04-26T08:18:24.969Z</time></trkpt><trkpt lat="40.44066324928265" lon="16.543646104587292"><ele>36.0</ele><time>2026-04-26T08:18:25.969Z</time></trkpt><trkpt lat="40.44058963872309" lon="16.54355089857029"><ele>36.0</ele><time>2026-04-26T08:18:27.969Z</time></trkpt><trkpt lat="40.44053557621928" lon="16.543481871476526"><ele>36.0</ele><time>2026-04-26T08:18:29.969Z</time></trkpt><trkpt lat="40.440518881748005" lon="16.543387591410685"><ele>36.0</ele><time>2026-04-26T08:18:31.969Z</time></trkpt><trkpt lat="40.44057458513299" lon="16.543328042082635"><ele>36.0</ele><time>2026-04-26T08:18:34.97Z</time></trkpt><trkpt lat="40.44064121839284" lon="16.543246162824705"><ele>36.0</ele><time>2026-04-26T08:18:37.971Z</time></trkpt><trkpt lat="40.440704992587385" lon="16.54315764913735"><ele>36.0</ele><time>2026-04-26T08:18:39.97Z</time></trkpt><trkpt lat="40.44076978179269" lon="16.543061572780875"><ele>36.0</ele><time>2026-04-26T08:18:41.971Z</time></trkpt><trkpt lat="40.44083349141992" lon="16.542970204566252"><ele>36.0</ele><time>2026-04-26T08:18:43.97Z</time></trkpt><trkpt lat="40.44091292113318" lon="16.542841353621604"><ele>36.0</ele><time>2026-04-26T08:18:45.97Z</time></trkpt><trkpt lat="40.44095831802377" lon="16.54278208906586"><ele>36.0</ele><time>2026-04-26T08:18:46.97Z</time></trkpt><trkpt lat="40.44100614167821" lon="16.54271023277362"><ele>36.0</ele><time>2026-04-26T08:18:47.97Z</time></trkpt><trkpt lat="40.44110745962075" lon="16.542571781492725"><ele>36.0</ele><time>2026-04-26T08:18:49.97Z</time></trkpt><trkpt lat="40.44116377485633" lon="16.542494332087323"><ele>36.0</ele><time>2026-04-26T08:18:50.97Z</time></trkpt><trkpt lat="40.44122200920313" lon="16.542412814481764"><ele>36.0</ele><time>2026-04-26T08:18:51.97Z</time></trkpt><trkpt lat="40.441279106067" lon="16.54233834055797"><ele>36.0</ele><time>2026-04-26T08:18:52.97Z</time></trkpt><trkpt lat="40.44134511410811" lon="16.54224763882457"><ele>36.0</ele><time>2026-04-26T08:18:53.97Z</time></trkpt><trkpt lat="40.441417191287826" lon="16.542150090658865"><ele>36.0</ele><time>2026-04-26T08:18:54.97Z</time></trkpt><trkpt lat="40.441473222709305" lon="16.542062743648398"><ele>36.2</ele><time>2026-04-26T08:18:55.97Z</time></trkpt><trkpt lat="40.44154173920296" lon="16.541964793877632"><ele>36.400000000000006</ele><time>2026-04-26T08:18:56.97Z</time></trkpt><trkpt lat="40.44160945023099" lon="16.541868680408545"><ele>36.6</ele><time>2026-04-26T08:18:57.97Z</time></trkpt><trkpt lat="40.441677324016574" lon="16.541770762644028"><ele>36.800000000000004</ele><time>2026-04-26T08:18:58.97Z</time></trkpt><trkpt lat="40.44174322853425" lon="16.541681567455086"><ele>37.0</ele><time>2026-04-26T08:18:59.97Z</time></trkpt><trkpt lat="40.44181468804419" lon="16.541593404403713"><ele>37.0</ele><time>2026-04-26T08:19:00.97Z</time></trkpt><trkpt lat="40.441881033325025" lon="16.541494323208077"><ele>37.0</ele><time>2026-04-26T08:19:01.97Z</time></trkpt><trkpt lat="40.44193965091197" lon="16.541403330845828"><ele>37.0</ele><time>2026-04-26T08:19:02.97Z</time></trkpt><trkpt lat="40.44201658614847" lon="16.541312713572832"><ele>37.0</ele><time>2026-04-26T08:19:03.97Z</time></trkpt><trkpt lat="40.44208620175983" lon="16.541217796298756"><ele>37.0</ele><time>2026-04-26T08:19:04.97Z</time></trkpt><trkpt lat="40.442152751406034" lon="16.541120609534193"><ele>37.2</ele><time>2026-04-26T08:19:05.97Z</time></trkpt><trkpt lat="40.442219003763874" lon="16.541023310304585"><ele>37.400000000000006</ele><time>2026-04-26T08:19:06.97Z</time></trkpt><trkpt lat="40.44228868406988" lon="16.54091219151999"><ele>37.599999999999994</ele><time>2026-04-26T08:19:07.97Z</time></trkpt><trkpt lat="40.44235875444429" lon="16.54081445072278"><ele>37.8</ele><time>2026-04-26T08:19:08.97Z</time></trkpt><trkpt lat="40.44242519135685" lon="16.54072394192785"><ele>38.0</ele><time>2026-04-26T08:19:09.97Z</time></trkpt><trkpt lat="40.442471409460595" lon="16.540627444698057"><ele>38.0</ele><time>2026-04-26T08:19:10.97Z</time></trkpt><trkpt lat="40.44253325352678" lon="16.540543601931077"><ele>38.0</ele><time>2026-04-26T08:19:11.97Z</time></trkpt><trkpt lat="40.442609661702576" lon="16.54045953666814"><ele>38.0</ele><time>2026-04-26T08:19:12.97Z</time></trkpt><trkpt lat="40.44268595992539" lon="16.540374555823902"><ele>38.0</ele><time>2026-04-26T08:19:13.97Z</time></trkpt><trkpt lat="40.44277144818672" lon="16.540260818797712"><ele>38.0</ele><time>2026-04-26T08:19:14.97Z</time></trkpt><trkpt lat="40.44285462468674" lon="16.54015407911417"><ele>37.75</ele><time>2026-04-26T08:19:15.97Z</time></trkpt><trkpt lat="40.44293125445269" lon="16.54004645127709"><ele>37.5</ele><time>2026-04-26T08:19:16.97Z</time></trkpt><trkpt lat="40.44300830897854" lon="16.53993561149922"><ele>37.25</ele><time>2026-04-26T08:19:17.97Z</time></trkpt><trkpt lat="40.44309230268746" lon="16.539824120506676"><ele>37.0</ele><time>2026-04-26T08:19:18.97Z</time></trkpt><trkpt lat="40.44317229239364" lon="16.539725790287445"><ele>37.2</ele><time>2026-04-26T08:19:19.97Z</time></trkpt><trkpt lat="40.44324994345649" lon="16.539615497893763"><ele>37.400000000000006</ele><time>2026-04-26T08:19:20.97Z</time></trkpt><trkpt lat="40.44331685144982" lon="16.539511244351875"><ele>37.599999999999994</ele><time>2026-04-26T08:19:21.97Z</time></trkpt><trkpt lat="40.44339312782197" lon="16.539405966721308"><ele>37.8</ele><time>2026-04-26T08:19:22.97Z</time></trkpt><trkpt lat="40.4434544137788" lon="16.539314407379496"><ele>38.0</ele><time>2026-04-26T08:19:23.97Z</time></trkpt><trkpt lat="40.443529952700324" lon="16.539220359635443"><ele>38.0</ele><time>2026-04-26T08:19:24.97Z</time></trkpt><trkpt lat="40.4435966987233" lon="16.539122861309895"><ele>38.0</ele><time>2026-04-26T08:19:25.97Z</time></trkpt><trkpt lat="40.44366985059705" lon="16.539009356869812"><ele>38.0</ele><time>2026-04-26T08:19:26.97Z</time></trkpt><trkpt lat="40.44374608982072" lon="16.53890020644285"><ele>38.0</ele><time>2026-04-26T08:19:27.97Z</time></trkpt><trkpt lat="40.443809753102855" lon="16.538813010605427"><ele>38.0</ele><time>2026-04-26T08:19:28.97Z</time></trkpt><trkpt lat="40.44388157311976" lon="16.538716796706932"><ele>37.8</ele><time>2026-04-26T08:19:29.97Z</time></trkpt><trkpt lat="40.44394332019862" lon="16.53863711353968"><ele>37.599999999999994</ele><time>2026-04-26T08:19:30.97Z</time></trkpt><trkpt lat="40.44401078430746" lon="16.538541344175123"><ele>37.400000000000006</ele><time>2026-04-26T08:19:31.969Z</time></trkpt><trkpt lat="40.444079491273904" lon="16.538448959977732"><ele>37.2</ele><time>2026-04-26T08:19:32.969Z</time></trkpt><trkpt lat="40.44415703338728" lon="16.53835555367686"><ele>37.0</ele><time>2026-04-26T08:19:33.969Z</time></trkpt><trkpt lat="40.44422701776887" lon="16.538277917727843"><ele>37.0</ele><time>2026-04-26T08:19:34.969Z</time></trkpt><trkpt lat="40.44427045705712" lon="16.53820406840263"><ele>37.0</ele><time>2026-04-26T08:19:35.969Z</time></trkpt><trkpt lat="40.44431814997766" lon="16.538138793328464"><ele>37.0</ele><time>2026-04-26T08:19:36.969Z</time></trkpt><trkpt lat="40.44438158146354" lon="16.538051438952387"><ele>37.0</ele><time>2026-04-26T08:19:37.969Z</time></trkpt><trkpt lat="40.4444431729784" lon="16.537967531196397"><ele>37.0</ele><time>2026-04-26T08:19:38.969Z</time></trkpt><trkpt lat="40.44450158803373" lon="16.537876821455285"><ele>37.0</ele><time>2026-04-26T08:19:39.969Z</time></trkpt><trkpt lat="40.444558813291124" lon="16.537785959711247"><ele>37.16666666666667</ele><time>2026-04-26T08:19:40.969Z</time></trkpt><trkpt lat="40.44461844527028" lon="16.537716060907684"><ele>37.333333333333336</ele><time>2026-04-26T08:19:41.969Z</time></trkpt><trkpt lat="40.444674816909604" lon="16.537649489740083"><ele>37.5</ele><time>2026-04-26T08:19:42.969Z</time></trkpt><trkpt lat="40.44468643871929" lon="16.537555439402286"><ele>37.666666666666664</ele><time>2026-04-26T08:19:44.969Z</time></trkpt><trkpt lat="40.444613080766025" lon="16.537430866357546"><ele>37.83333333333333</ele><time>2026-04-26T08:19:46.969Z</time></trkpt><trkpt lat="40.44453901287198" lon="16.537391165440603"><ele>38.0</ele><time>2026-04-26T08:19:47.969Z</time></trkpt><trkpt lat="40.444431478204585" lon="16.53733237906917"><ele>38.0</ele><time>2026-04-26T08:19:48.969Z</time></trkpt><trkpt lat="40.44433768831128" lon="16.537278647502518"><ele>38.0</ele><time>2026-04-26T08:19:49.969Z</time></trkpt><trkpt lat="40.4442486222874" lon="16.537215143527636"><ele>38.0</ele><time>2026-04-26T08:19:50.969Z</time></trkpt><trkpt lat="40.44415772489769" lon="16.537154157514674"><ele>38.0</ele><time>2026-04-26T08:19:51.969Z</time></trkpt><trkpt lat="40.444065885232966" lon="16.537085083429172"><ele>38.0</ele><time>2026-04-26T08:19:52.969Z</time></trkpt><trkpt lat="40.44395933262381" lon="16.537011817796543"><ele>38.33333333333333</ele><time>2026-04-26T08:19:53.969Z</time></trkpt><trkpt lat="40.4438707924591" lon="16.5369451394225"><ele>38.666666666666664</ele><time>2026-04-26T08:19:54.969Z</time></trkpt><trkpt lat="40.44378772825279" lon="16.536904479215643"><ele>39.0</ele><time>2026-04-26T08:19:55.969Z</time></trkpt><trkpt lat="40.44371608961215" lon="16.53686588320215"><ele>39.333333333333336</ele><time>2026-04-26T08:19:56.969Z</time></trkpt><trkpt lat="40.443656000467335" lon="16.53682710443301"><ele>39.66666666666667</ele><time>2026-04-26T08:19:57.969Z</time></trkpt><trkpt lat="40.44359695457499" lon="16.536786360986845"><ele>40.0</ele><time>2026-04-26T08:19:58.969Z</time></trkpt><trkpt lat="40.44353280668201" lon="16.536752969652305"><ele>40.16666666666667</ele><time>2026-04-26T08:19:59.969Z</time></trkpt><trkpt lat="40.443459374220076" lon="16.536709714580656"><ele>40.333333333333336</ele><time>2026-04-26T08:20:01.969Z</time></trkpt><trkpt lat="40.443426804425165" lon="16.536620941121974"><ele>40.5</ele><time>2026-04-26T08:20:04.969Z</time></trkpt><trkpt lat="40.44335747780511" lon="16.53656825125371"><ele>40.666666666666664</ele><time>2026-04-26T08:20:29.969Z</time></trkpt><trkpt lat="40.443271842836374" lon="16.536567444364824"><ele>40.83333333333333</ele><time>2026-04-26T08:20:32.969Z</time></trkpt><trkpt lat="40.44319066648477" lon="16.536545081870873"><ele>41.0</ele><time>2026-04-26T08:20:34.969Z</time></trkpt><trkpt lat="40.443117956342924" lon="16.536525022941866"><ele>41.0</ele><time>2026-04-26T08:20:36.969Z</time></trkpt><trkpt lat="40.44301765871226" lon="16.53649020504286"><ele>41.0</ele><time>2026-04-26T08:20:39.97Z</time></trkpt><trkpt lat="40.442943832590814" lon="16.536446139460363"><ele>41.0</ele><time>2026-04-26T08:20:41.97Z</time></trkpt><trkpt lat="40.442869064000774" lon="16.536407810588727"><ele>41.0</ele><time>2026-04-26T08:20:43.97Z</time></trkpt><trkpt lat="40.44278830099147" lon="16.536364301042493"><ele>41.0</ele><time>2026-04-26T08:22:21.968Z</time></trkpt><trkpt lat="40.442874678539184" lon="16.536398000936476"><ele>41.0</ele><time>2026-04-26T08:22:38.967Z</time></trkpt><trkpt lat="40.4429638300051" lon="16.536410076559786"><ele>41.0</ele><time>2026-04-26T08:22:40.967Z</time></trkpt><trkpt lat="40.44303320779648" lon="16.53641763607496"><ele>41.0</ele><time>2026-04-26T08:22:41.967Z</time></trkpt><trkpt lat="40.443109605652815" lon="16.536424692545445"><ele>41.0</ele><time>2026-04-26T08:22:42.967Z</time></trkpt><trkpt lat="40.443256782039235" lon="16.536453455089582"><ele>41.0</ele><time>2026-04-26T08:22:43.967Z</time></trkpt><trkpt lat="40.443352019501695" lon="16.536478251947827"><ele>41.0</ele><time>2026-04-26T08:22:44.968Z</time></trkpt><trkpt lat="40.44343804575373" lon="16.536509102357094"><ele>41.0</ele><time>2026-04-26T08:22:45.968Z</time></trkpt><trkpt lat="40.44351770974615" lon="16.536507899855458"><ele>41.0</ele><time>2026-04-26T08:22:46.968Z</time></trkpt><trkpt lat="40.44358712026412" lon="16.53651822037259"><ele>41.0</ele><time>2026-04-26T08:22:47.969Z</time></trkpt><trkpt lat="40.44369855028274" lon="16.536516874866795"><ele>41.0</ele><time>2026-04-26T08:22:49.968Z</time></trkpt><trkpt lat="40.44377274204152" lon="16.53643378164679"><ele>41.0</ele><time>2026-04-26T08:22:51.969Z</time></trkpt><trkpt lat="40.44380578082393" lon="16.53632288090069"><ele>41.0</ele><time>2026-04-26T08:22:53.968Z</time></trkpt><trkpt lat="40.443808702415474" lon="16.536210976411333"><ele>41.0</ele><time>2026-04-26T08:22:56.969Z</time></trkpt><trkpt lat="40.443800469607005" lon="16.536063879581967"><ele>41.0</ele><time>2026-04-26T08:22:59.968Z</time></trkpt><trkpt lat="40.44378017654823" lon="16.535980750098624"><ele>41.0</ele><time>2026-04-26T08:23:00.968Z</time></trkpt><trkpt lat="40.44377047824714" lon="16.535873597827596"><ele>41.0</ele><time>2026-04-26T08:23:01.968Z</time></trkpt><trkpt lat="40.44378147774141" lon="16.53575157862102"><ele>41.0</ele><time>2026-04-26T08:23:02.968Z</time></trkpt><trkpt lat="40.4437837183395" lon="16.53564348337682"><ele>41.0</ele><time>2026-04-26T08:23:03.968Z</time></trkpt><trkpt lat="40.443780352041856" lon="16.535478593509417"><ele>40.5</ele><time>2026-04-26T08:23:05.968Z</time></trkpt><trkpt lat="40.44379736168596" lon="16.53530673763164"><ele>40.0</ele><time>2026-04-26T08:23:07.968Z</time></trkpt><trkpt lat="40.443818597407436" lon="16.535144151332613"><ele>39.5</ele><time>2026-04-26T08:23:09.968Z</time></trkpt><trkpt lat="40.44383869368405" lon="16.535005632031993"><ele>39.0</ele><time>2026-04-26T08:23:11.968Z</time></trkpt><trkpt lat="40.4438593158111" lon="16.534853053234844"><ele>39.0</ele><time>2026-04-26T08:23:13.968Z</time></trkpt><trkpt lat="40.44388175122792" lon="16.534772775869527"><ele>39.0</ele><time>2026-04-26T08:23:14.968Z</time></trkpt><trkpt lat="40.44387648974394" lon="16.534684233257448"><ele>39.0</ele><time>2026-04-26T08:23:15.968Z</time></trkpt><trkpt lat="40.44388814316181" lon="16.534595159228566"><ele>39.0</ele><time>2026-04-26T08:23:16.968Z</time></trkpt><trkpt lat="40.44390448031352" lon="16.534509837395863"><ele>39.0</ele><time>2026-04-26T08:23:17.968Z</time></trkpt><trkpt lat="40.44391091935583" lon="16.534415761253314"><ele>39.0</ele><time>2026-04-26T08:23:18.968Z</time></trkpt><trkpt lat="40.443922064287534" lon="16.53432711609596"><ele>39.0</ele><time>2026-04-26T08:23:19.968Z</time></trkpt><trkpt lat="40.44393492251845" lon="16.53423557255981"><ele>39.4</ele><time>2026-04-26T08:23:20.968Z</time></trkpt><trkpt lat="40.44395357085056" lon="16.534082966107682"><ele>39.8</ele><time>2026-04-26T08:23:22.968Z</time></trkpt><trkpt lat="40.44398579901877" lon="16.53392792122504"><ele>40.199999999999996</ele><time>2026-04-26T08:23:24.968Z</time></trkpt><trkpt lat="40.443983865256385" lon="16.533803782215863"><ele>40.599999999999994</ele><time>2026-04-26T08:23:26.968Z</time></trkpt><trkpt lat="40.4439996873893" lon="16.533682586107783"><ele>41.0</ele><time>2026-04-26T08:23:28.968Z</time></trkpt><trkpt lat="40.444013167357056" lon="16.53356528475468"><ele>41.0</ele><time>2026-04-26T08:23:30.968Z</time></trkpt><trkpt lat="40.44402573672059" lon="16.533450201012265"><ele>41.0</ele><time>2026-04-26T08:23:32.968Z</time></trkpt><trkpt lat="40.44405572966068" lon="16.53335295558684"><ele>41.0</ele><time>2026-04-26T08:23:34.968Z</time></trkpt><trkpt lat="40.44408464688568" lon="16.533229961043673"><ele>41.0</ele><time>2026-04-26T08:23:36.968Z</time></trkpt><trkpt lat="40.44412120618244" lon="16.53311867475854"><ele>41.0</ele><time>2026-04-26T08:23:38.968Z</time></trkpt><trkpt lat="40.44416913036309" lon="16.533037029064285"><ele>41.0</ele><time>2026-04-26T08:23:41.967Z</time></trkpt><trkpt lat="40.44424931885067" lon="16.53298791408887"><ele>41.0</ele><time>2026-04-26T08:23:44.967Z</time></trkpt><trkpt lat="40.44432205414856" lon="16.533005761365594"><ele>41.0</ele><time>2026-04-26T08:23:46.967Z</time></trkpt><trkpt lat="40.44441628780526" lon="16.533001259881274"><ele>41.0</ele><time>2026-04-26T08:23:48.967Z</time></trkpt><trkpt lat="40.444497875070006" lon="16.533024344420134"><ele>41.0</ele><time>2026-04-26T08:23:50.967Z</time></trkpt><trkpt lat="40.444590010840685" lon="16.533040326344626"><ele>41.0</ele><time>2026-04-26T08:23:53.967Z</time></trkpt><trkpt lat="40.44461674164661" lon="16.533124986448538"><ele>41.0</ele><time>2026-04-26T08:23:54.967Z</time></trkpt><trkpt lat="40.444710852328825" lon="16.53314700668439"><ele>41.199999999999996</ele><time>2026-04-26T08:23:56.967Z</time></trkpt><trkpt lat="40.44480484921792" lon="16.533163639874267"><ele>41.4</ele><time>2026-04-26T08:23:58.967Z</time></trkpt><trkpt lat="40.44490379382981" lon="16.53318114838725"><ele>41.6</ele><time>2026-04-26T08:24:00.967Z</time></trkpt><trkpt lat="40.44495193786603" lon="16.533242425688528"><ele>41.8</ele><time>2026-04-26T08:24:02.967Z</time></trkpt><trkpt lat="40.4450361488225" lon="16.533289878207285"><ele>42.0</ele><time>2026-04-26T08:24:04.967Z</time></trkpt><trkpt lat="40.44515341755039" lon="16.53310265480369"><ele>42.0</ele><time>2026-04-26T08:24:05.967Z</time></trkpt><trkpt lat="40.44521943793117" lon="16.53311387209848"><ele>42.0</ele><time>2026-04-26T08:24:07.967Z</time></trkpt><trkpt lat="40.445294589836685" lon="16.533129969873503"><ele>42.0</ele><time>2026-04-26T08:24:09.967Z</time></trkpt><trkpt lat="40.445373875283344" lon="16.533141953060216"><ele>42.0</ele><time>2026-04-26T08:24:11.967Z</time></trkpt><trkpt lat="40.44544240811747" lon="16.53314472778505"><ele>42.0</ele><time>2026-04-26T08:24:13.967Z</time></trkpt><trkpt lat="40.44552318356128" lon="16.533146778523648"><ele>42.0</ele><time>2026-04-26T08:24:16.967Z</time></trkpt><trkpt lat="40.44559793844468" lon="16.533167386687218"><ele>42.0</ele><time>2026-04-26T08:24:18.967Z</time></trkpt><trkpt lat="40.44568217299806" lon="16.53318884020258"><ele>42.0</ele><time>2026-04-26T08:24:20.967Z</time></trkpt><trkpt lat="40.44577299306538" lon="16.533204923272407"><ele>42.0</ele><time>2026-04-26T08:24:23.967Z</time></trkpt><trkpt lat="40.44584448937115" lon="16.533215938289977"><ele>42.0</ele><time>2026-04-26T08:24:26.967Z</time></trkpt><trkpt lat="40.44591530112809" lon="16.533230018410876"><ele>42.0</ele><time>2026-04-26T08:24:30.967Z</time></trkpt><trkpt lat="40.445978400672814" lon="16.533233905274585"><ele>42.0</ele><time>2026-04-26T08:24:32.967Z</time></trkpt><trkpt lat="40.44604092971231" lon="16.533249748254303"><ele>42.0</ele><time>2026-04-26T08:24:34.967Z</time></trkpt><trkpt lat="40.44611585204444" lon="16.533258536019872"><ele>42.0</ele><time>2026-04-26T08:24:37.967Z</time></trkpt><trkpt lat="40.446178662454194" lon="16.53327545327739"><ele>42.0</ele><time>2026-04-26T08:24:39.967Z</time></trkpt><trkpt lat="40.44624507110721" lon="16.533289050718185"><ele>42.0</ele><time>2026-04-26T08:24:42.967Z</time></trkpt><trkpt lat="40.44631392935973" lon="16.53331051728349"><ele>42.0</ele><time>2026-04-26T08:24:44.967Z</time></trkpt><trkpt lat="40.44638363478493" lon="16.5333253163963"><ele>42.0</ele><time>2026-04-26T08:24:46.967Z</time></trkpt><trkpt lat="40.446451871163525" lon="16.53333504878769"><ele>42.0</ele><time>2026-04-26T08:24:48.967Z</time></trkpt><trkpt lat="40.44655181483353" lon="16.533382251746417"><ele>42.0</ele><time>2026-04-26T08:24:51.967Z</time></trkpt><trkpt lat="40.446643957376885" lon="16.533409185947562"><ele>41.833333333333336</ele><time>2026-04-26T08:24:53.968Z</time></trkpt><trkpt lat="40.44670793381279" lon="16.53342346736382"><ele>41.666666666666664</ele><time>2026-04-26T08:24:55.967Z</time></trkpt><trkpt lat="40.44678577179888" lon="16.533445539109223"><ele>41.5</ele><time>2026-04-26T08:24:57.967Z</time></trkpt><trkpt lat="40.44686573408569" lon="16.533468354148397"><ele>41.33333333333333</ele><time>2026-04-26T08:24:59.968Z</time></trkpt><trkpt lat="40.44696047663232" lon="16.533487866712086"><ele>41.166666666666664</ele><time>2026-04-26T08:25:02.967Z</time></trkpt><trkpt lat="40.44704069107693" lon="16.5334893289001"><ele>41.0</ele><time>2026-04-26T08:25:05.967Z</time></trkpt><trkpt lat="40.44695995516689" lon="16.53348363544983"><ele>41.0</ele><time>2026-04-26T08:40:06.943Z</time></trkpt><trkpt lat="40.446894571823584" lon="16.533458835995788"><ele>41.0</ele><time>2026-04-26T08:40:08.943Z</time></trkpt><trkpt lat="40.44680685975325" lon="16.533458025167636"><ele>41.0</ele><time>2026-04-26T08:40:10.943Z</time></trkpt><trkpt lat="40.446737215274766" lon="16.533441545249993"><ele>41.0</ele><time>2026-04-26T08:40:12.943Z</time></trkpt><trkpt lat="40.446674751541664" lon="16.533418201977337"><ele>41.0</ele><time>2026-04-26T08:40:13.943Z</time></trkpt><trkpt lat="40.446606240426846" lon="16.533393704851086"><ele>41.0</ele><time>2026-04-26T08:40:14.943Z</time></trkpt><trkpt lat="40.44648045711424" lon="16.53336116939404"><ele>41.0</ele><time>2026-04-26T08:40:16.943Z</time></trkpt><trkpt lat="40.44641781900081" lon="16.533328005005416"><ele>41.0</ele><time>2026-04-26T08:40:17.943Z</time></trkpt><trkpt lat="40.446350023442804" lon="16.533349882445723"><ele>41.0</ele><time>2026-04-26T08:40:19.943Z</time></trkpt><trkpt lat="40.446279023662086" lon="16.53333287694118"><ele>41.0</ele><time>2026-04-26T08:40:20.943Z</time></trkpt><trkpt lat="40.44618451415491" lon="16.533291712797823"><ele>41.0</ele><time>2026-04-26T08:40:21.943Z</time></trkpt><trkpt lat="40.44610480286869" lon="16.53326431454017"><ele>41.0</ele><time>2026-04-26T08:40:22.943Z</time></trkpt><trkpt lat="40.44600993525071" lon="16.533257582974286"><ele>41.199999999999996</ele><time>2026-04-26T08:40:24.943Z</time></trkpt><trkpt lat="40.44591971908357" lon="16.533234346447184"><ele>41.4</ele><time>2026-04-26T08:40:26.943Z</time></trkpt><trkpt lat="40.4457878473939" lon="16.533211432275902"><ele>41.6</ele><time>2026-04-26T08:40:28.943Z</time></trkpt><trkpt lat="40.44570558752713" lon="16.53319879938996"><ele>41.8</ele><time>2026-04-26T08:40:29.943Z</time></trkpt><trkpt lat="40.445631987530604" lon="16.53318373246626"><ele>42.0</ele><time>2026-04-26T08:40:30.943Z</time></trkpt><trkpt lat="40.44555415186346" lon="16.533166102059862"><ele>42.0</ele><time>2026-04-26T08:40:31.943Z</time></trkpt><trkpt lat="40.44543304371156" lon="16.533145431167565"><ele>42.0</ele><time>2026-04-26T08:40:33.943Z</time></trkpt><trkpt lat="40.44533496623539" lon="16.533151046083105"><ele>42.0</ele><time>2026-04-26T08:40:35.943Z</time></trkpt><trkpt lat="40.445257974800384" lon="16.533129742325304"><ele>42.0</ele><time>2026-04-26T08:40:36.943Z</time></trkpt><trkpt lat="40.44518936673981" lon="16.533105858218796"><ele>42.0</ele><time>2026-04-26T08:40:38.943Z</time></trkpt><trkpt lat="40.445119075432956" lon="16.533092652346276"><ele>42.0</ele><time>2026-04-26T08:40:39.943Z</time></trkpt><trkpt lat="40.445033042220054" lon="16.53308670224274"><ele>42.0</ele><time>2026-04-26T08:40:40.943Z</time></trkpt><trkpt lat="40.444968079976135" lon="16.533065513323177"><ele>42.0</ele><time>2026-04-26T08:40:41.943Z</time></trkpt><trkpt lat="40.44489856615608" lon="16.5330495236563"><ele>42.0</ele><time>2026-04-26T08:40:42.943Z</time></trkpt><trkpt lat="40.444835281213074" lon="16.533030624378906"><ele>42.0</ele><time>2026-04-26T08:40:43.943Z</time></trkpt><trkpt lat="40.44476970961049" lon="16.533006211986052"><ele>42.0</ele><time>2026-04-26T08:40:44.943Z</time></trkpt><trkpt lat="40.44465293094097" lon="16.53297428092424"><ele>42.0</ele><time>2026-04-26T08:40:46.943Z</time></trkpt><trkpt lat="40.44456611805164" lon="16.532994660636113"><ele>41.8</ele><time>2026-04-26T08:40:48.943Z</time></trkpt><trkpt lat="40.44448202037103" lon="16.533060810835604"><ele>41.6</ele><time>2026-04-26T08:40:50.943Z</time></trkpt><trkpt lat="40.4443746024629" lon="16.53303385658441"><ele>41.4</ele><time>2026-04-26T08:40:51.943Z</time></trkpt><trkpt lat="40.4442880679436" lon="16.53301795386933"><ele>41.199999999999996</ele><time>2026-04-26T08:40:52.943Z</time></trkpt><trkpt lat="40.444220791099056" lon="16.533007660217507"><ele>41.0</ele><time>2026-04-26T08:40:53.943Z</time></trkpt><trkpt lat="40.44413890122768" lon="16.53305586808933"><ele>41.0</ele><time>2026-04-26T08:40:55.943Z</time></trkpt><trkpt lat="40.44408419249031" lon="16.53314809969778"><ele>41.0</ele><time>2026-04-26T08:40:57.943Z</time></trkpt><trkpt lat="40.44405922194413" lon="16.5332279582568"><ele>41.0</ele><time>2026-04-26T08:40:58.943Z</time></trkpt><trkpt lat="40.444020580854584" lon="16.533371922028103"><ele>41.0</ele><time>2026-04-26T08:41:00.943Z</time></trkpt><trkpt lat="40.44400979943725" lon="16.53346592501069"><ele>41.0</ele><time>2026-04-26T08:41:01.943Z</time></trkpt><trkpt lat="40.443995202893674" lon="16.533558933448788"><ele>41.0</ele><time>2026-04-26T08:41:02.943Z</time></trkpt><trkpt lat="40.44398291329882" lon="16.533723357327652"><ele>40.99999999999999</ele><time>2026-04-26T08:41:04.943Z</time></trkpt><trkpt lat="40.443972960928434" lon="16.533813856017886"><ele>41.0</ele><time>2026-04-26T08:41:05.943Z</time></trkpt><trkpt lat="40.443959247368696" lon="16.53391283067502"><ele>41.0</ele><time>2026-04-26T08:41:06.943Z</time></trkpt><trkpt lat="40.4439512643554" lon="16.53401606814568"><ele>41.0</ele><time>2026-04-26T08:41:07.943Z</time></trkpt><trkpt lat="40.44394259483559" lon="16.534107198283394"><ele>41.0</ele><time>2026-04-26T08:41:08.943Z</time></trkpt><trkpt lat="40.443928918440974" lon="16.534208257283304"><ele>40.99999999999999</ele><time>2026-04-26T08:41:09.942Z</time></trkpt><trkpt lat="40.443916836188365" lon="16.534305338615983"><ele>41.0</ele><time>2026-04-26T08:41:10.942Z</time></trkpt><trkpt lat="40.44389593498383" lon="16.534479606671734"><ele>40.71428571428571</ele><time>2026-04-26T08:41:12.942Z</time></trkpt><trkpt lat="40.44388385166019" lon="16.53457283509061"><ele>40.42857142857143</ele><time>2026-04-26T08:41:13.942Z</time></trkpt><trkpt lat="40.44387401325836" lon="16.534672361857073"><ele>40.14285714285714</ele><time>2026-04-26T08:41:14.942Z</time></trkpt><trkpt lat="40.44386257988775" lon="16.53476604472785"><ele>39.857142857142854</ele><time>2026-04-26T08:41:15.942Z</time></trkpt><trkpt lat="40.44384756923147" lon="16.534853938445515"><ele>39.57142857142857</ele><time>2026-04-26T08:41:16.942Z</time></trkpt><trkpt lat="40.44383441661311" lon="16.534942529930497"><ele>39.285714285714285</ele><time>2026-04-26T08:41:17.942Z</time></trkpt><trkpt lat="40.44382244561391" lon="16.53504097128531"><ele>39.0</ele><time>2026-04-26T08:41:18.942Z</time></trkpt><trkpt lat="40.44381109021123" lon="16.535129783445015"><ele>39.0</ele><time>2026-04-26T08:41:19.942Z</time></trkpt><trkpt lat="40.44379985196457" lon="16.535220387781116"><ele>39.0</ele><time>2026-04-26T08:41:20.942Z</time></trkpt><trkpt lat="40.44378712487063" lon="16.535315664949696"><ele>39.0</ele><time>2026-04-26T08:41:21.942Z</time></trkpt><trkpt lat="40.44377478149938" lon="16.535403393945202"><ele>39.0</ele><time>2026-04-26T08:41:22.942Z</time></trkpt><trkpt lat="40.44376288042847" lon="16.535503357480103"><ele>39.0</ele><time>2026-04-26T08:41:23.942Z</time></trkpt><trkpt lat="40.443757249462" lon="16.535592558511688"><ele>39.0</ele><time>2026-04-26T08:41:24.942Z</time></trkpt><trkpt lat="40.44375531454909" lon="16.535678543424442"><ele>39.0</ele><time>2026-04-26T08:41:25.942Z</time></trkpt><trkpt lat="40.443760631419366" lon="16.53577384703972"><ele>39.333333333333336</ele><time>2026-04-26T08:41:26.942Z</time></trkpt><trkpt lat="40.443763073781916" lon="16.53586813877037"><ele>39.666666666666664</ele><time>2026-04-26T08:41:27.942Z</time></trkpt><trkpt lat="40.44376726374799" lon="16.535954335716156"><ele>40.0</ele><time>2026-04-26T08:41:28.942Z</time></trkpt><trkpt lat="40.44377935854434" lon="16.536082501947362"><ele>40.33333333333333</ele><time>2026-04-26T08:41:30.942Z</time></trkpt><trkpt lat="40.44378040290514" lon="16.53618931182398"><ele>40.666666666666664</ele><time>2026-04-26T08:41:32.942Z</time></trkpt><trkpt lat="40.44377916287009" lon="16.53632842562738"><ele>41.0</ele><time>2026-04-26T08:41:35.942Z</time></trkpt><trkpt lat="40.44376297270161" lon="16.536469346886612"><ele>41.0</ele><time>2026-04-26T08:41:37.942Z</time></trkpt><trkpt lat="40.44366977935224" lon="16.536588587331142"><ele>41.0</ele><time>2026-04-26T08:41:39.94Z</time></trkpt><trkpt lat="40.44354369347776" lon="16.536589463029923"><ele>41.0</ele><time>2026-04-26T08:41:41.941Z</time></trkpt><trkpt lat="40.443472660438616" lon="16.536551440725212"><ele>41.0</ele><time>2026-04-26T08:41:42.94Z</time></trkpt><trkpt lat="40.44340928124279" lon="16.536510292421386"><ele>41.0</ele><time>2026-04-26T08:41:43.94Z</time></trkpt><trkpt lat="40.44333502631909" lon="16.536478860575997"><ele>41.0</ele><time>2026-04-26T08:41:44.941Z</time></trkpt><trkpt lat="40.44324780343976" lon="16.536453486560436"><ele>41.0</ele><time>2026-04-26T08:41:45.941Z</time></trkpt><trkpt lat="40.44316135317338" lon="16.5364420091111"><ele>41.0</ele><time>2026-04-26T08:41:46.941Z</time></trkpt><trkpt lat="40.44308007292923" lon="16.53643081811173"><ele>41.0</ele><time>2026-04-26T08:41:47.941Z</time></trkpt><trkpt lat="40.44299139001847" lon="16.53642497368302"><ele>41.0</ele><time>2026-04-26T08:41:48.941Z</time></trkpt><trkpt lat="40.442910238078774" lon="16.536420930132465"><ele>41.0</ele><time>2026-04-26T08:41:49.941Z</time></trkpt><trkpt lat="40.44282473878751" lon="16.5364064564986"><ele>41.666666666666664</ele><time>2026-04-26T08:41:50.941Z</time></trkpt><trkpt lat="40.44274069997709" lon="16.53636765041372"><ele>42.33333333333333</ele><time>2026-04-26T08:41:51.941Z</time></trkpt><trkpt lat="40.44265441634171" lon="16.536320511926384"><ele>43.0</ele><time>2026-04-26T08:41:52.941Z</time></trkpt><trkpt lat="40.44256527165376" lon="16.536279475094727"><ele>43.666666666666664</ele><time>2026-04-26T08:41:53.941Z</time></trkpt><trkpt lat="40.442495307251626" lon="16.536246819583933"><ele>44.333333333333336</ele><time>2026-04-26T08:41:54.941Z</time></trkpt><trkpt lat="40.44241963143591" lon="16.536237061835124"><ele>45.0</ele><time>2026-04-26T08:41:55.941Z</time></trkpt><trkpt lat="40.442328595707046" lon="16.53625203118464"><ele>45.0</ele><time>2026-04-26T08:41:56.941Z</time></trkpt><trkpt lat="40.442242500809044" lon="16.536259785196947"><ele>45.0</ele><time>2026-04-26T08:41:57.941Z</time></trkpt><trkpt lat="40.44215509657302" lon="16.536294882485734"><ele>45.0</ele><time>2026-04-26T08:41:58.941Z</time></trkpt><trkpt lat="40.44206808193724" lon="16.536339025213216"><ele>45.0</ele><time>2026-04-26T08:41:59.941Z</time></trkpt><trkpt lat="40.44199143386378" lon="16.53637847946384"><ele>45.0</ele><time>2026-04-26T08:42:00.941Z</time></trkpt><trkpt lat="40.44191071525546" lon="16.536429239877172"><ele>45.0</ele><time>2026-04-26T08:42:01.941Z</time></trkpt><trkpt lat="40.44183400361442" lon="16.53646954330896"><ele>45.5</ele><time>2026-04-26T08:42:02.941Z</time></trkpt><trkpt lat="40.441752809224454" lon="16.53650555582169"><ele>46.0</ele><time>2026-04-26T08:42:03.941Z</time></trkpt><trkpt lat="40.44167001049255" lon="16.53652371699177"><ele>46.5</ele><time>2026-04-26T08:42:04.941Z</time></trkpt><trkpt lat="40.44158793513726" lon="16.536521643401375"><ele>47.0</ele><time>2026-04-26T08:42:05.941Z</time></trkpt><trkpt lat="40.441521110280995" lon="16.53649726029962"><ele>47.5</ele><time>2026-04-26T08:42:06.941Z</time></trkpt><trkpt lat="40.44144814494679" lon="16.536441935960816"><ele>48.0</ele><time>2026-04-26T08:42:07.941Z</time></trkpt><trkpt lat="40.44137717824928" lon="16.536372877755426"><ele>48.0</ele><time>2026-04-26T08:42:08.941Z</time></trkpt><trkpt lat="40.441299405322034" lon="16.536294720482356"><ele>48.0</ele><time>2026-04-26T08:42:09.941Z</time></trkpt><trkpt lat="40.441222657748426" lon="16.536228189468783"><ele>48.0</ele><time>2026-04-26T08:42:10.941Z</time></trkpt><trkpt lat="40.441137729323074" lon="16.536162593831936"><ele>48.0</ele><time>2026-04-26T08:42:11.941Z</time></trkpt><trkpt lat="40.44106140283999" lon="16.536095864437623"><ele>48.0</ele><time>2026-04-26T08:42:12.941Z</time></trkpt><trkpt lat="40.4409747957424" lon="16.536019213164302"><ele>48.2</ele><time>2026-04-26T08:42:13.941Z</time></trkpt><trkpt lat="40.44090595306608" lon="16.53593400745695"><ele>48.4</ele><time>2026-04-26T08:42:14.941Z</time></trkpt><trkpt lat="40.44083018877356" lon="16.53584000412481"><ele>48.6</ele><time>2026-04-26T08:42:15.941Z</time></trkpt><trkpt lat="40.44073977143255" lon="16.535743615542096"><ele>48.800000000000004</ele><time>2026-04-26T08:42:16.941Z</time></trkpt><trkpt lat="40.440654483388194" lon="16.535651834827597"><ele>49.0</ele><time>2026-04-26T08:42:17.941Z</time></trkpt><trkpt lat="40.44057102335602" lon="16.535572616121836"><ele>49.0</ele><time>2026-04-26T08:42:18.941Z</time></trkpt><trkpt lat="40.440477085618106" lon="16.5354833283465"><ele>49.0</ele><time>2026-04-26T08:42:19.94Z</time></trkpt><trkpt lat="40.440385884532525" lon="16.535394231979396"><ele>49.0</ele><time>2026-04-26T08:42:20.94Z</time></trkpt><trkpt lat="40.44029863043492" lon="16.53531514475716"><ele>49.0</ele><time>2026-04-26T08:42:21.94Z</time></trkpt><trkpt lat="40.44020787932963" lon="16.535246850348482"><ele>49.0</ele><time>2026-04-26T08:42:22.94Z</time></trkpt><trkpt lat="40.440141796116265" lon="16.53512757670586"><ele>48.800000000000004</ele><time>2026-04-26T08:42:23.94Z</time></trkpt><trkpt lat="40.44006955684893" lon="16.535037430941486"><ele>48.6</ele><time>2026-04-26T08:42:24.94Z</time></trkpt><trkpt lat="40.440002562309665" lon="16.534944012922026"><ele>48.4</ele><time>2026-04-26T08:42:25.94Z</time></trkpt><trkpt lat="40.439925543555674" lon="16.53484375722329"><ele>48.2</ele><time>2026-04-26T08:42:26.94Z</time></trkpt><trkpt lat="40.439838926856005" lon="16.534769525898806"><ele>48.0</ele><time>2026-04-26T08:42:27.94Z</time></trkpt><trkpt lat="40.43976002702888" lon="16.53466217436908"><ele>48.0</ele><time>2026-04-26T08:42:28.94Z</time></trkpt><trkpt lat="40.43967208843339" lon="16.534577936910413"><ele>48.0</ele><time>2026-04-26T08:42:29.94Z</time></trkpt><trkpt lat="40.43959318685846" lon="16.534469709372615"><ele>48.0</ele><time>2026-04-26T08:42:30.94Z</time></trkpt><trkpt lat="40.4395099617812" lon="16.534391202883896"><ele>48.0</ele><time>2026-04-26T08:42:31.94Z</time></trkpt><trkpt lat="40.43943477346391" lon="16.534292358546086"><ele>48.0</ele><time>2026-04-26T08:42:32.94Z</time></trkpt><trkpt lat="40.43937573765875" lon="16.53419626747007"><ele>48.666666666666664</ele><time>2026-04-26T08:42:33.94Z</time></trkpt><trkpt lat="40.43929766237329" lon="16.534126497391686"><ele>49.33333333333333</ele><time>2026-04-26T08:42:34.94Z</time></trkpt><trkpt lat="40.439229441001956" lon="16.53405482224571"><ele>50.0</ele><time>2026-04-26T08:42:35.94Z</time></trkpt><trkpt lat="40.43916369614297" lon="16.533998024560837"><ele>50.666666666666664</ele><time>2026-04-26T08:42:36.94Z</time></trkpt><trkpt lat="40.43911326371693" lon="16.533947636180372"><ele>51.33333333333333</ele><time>2026-04-26T08:42:37.94Z</time></trkpt><trkpt lat="40.439054301811915" lon="16.533898618434993"><ele>52.0</ele><time>2026-04-26T08:42:39.94Z</time></trkpt><trkpt lat="40.43895339636272" lon="16.533840285623956"><ele>51.99999999999999</ele><time>2026-04-26T08:42:41.94Z</time></trkpt><trkpt lat="40.4388850403333" lon="16.533837662593562"><ele>52.0</ele><time>2026-04-26T08:42:43.94Z</time></trkpt><trkpt lat="40.43883169894791" lon="16.533961538734843"><ele>52.0</ele><time>2026-04-26T08:42:44.94Z</time></trkpt><trkpt lat="40.43880541970585" lon="16.53404690484687"><ele>52.0</ele><time>2026-04-26T08:42:45.94Z</time></trkpt><trkpt lat="40.43874890436594" lon="16.534102731254258"><ele>51.99999999999999</ele><time>2026-04-26T08:42:46.94Z</time></trkpt><trkpt lat="40.43871066203253" lon="16.534170934610387"><ele>52.0</ele><time>2026-04-26T08:42:47.94Z</time></trkpt><trkpt lat="40.438660046581" lon="16.534235395574786"><ele>52.33333333333333</ele><time>2026-04-26T08:42:48.94Z</time></trkpt><trkpt lat="40.438606848374995" lon="16.534306669675612"><ele>52.666666666666664</ele><time>2026-04-26T08:42:49.94Z</time></trkpt><trkpt lat="40.43856174634935" lon="16.534368931797225"><ele>53.0</ele><time>2026-04-26T08:42:50.94Z</time></trkpt><trkpt lat="40.43850184408713" lon="16.534442366921287"><ele>53.33333333333333</ele><time>2026-04-26T08:42:51.94Z</time></trkpt><trkpt lat="40.438449835745374" lon="16.534513389242587"><ele>53.666666666666664</ele><time>2026-04-26T08:42:52.94Z</time></trkpt><trkpt lat="40.43840263045984" lon="16.5345813332871"><ele>54.0</ele><time>2026-04-26T08:42:53.94Z</time></trkpt><trkpt lat="40.438352422915194" lon="16.534668627944182"><ele>54.0</ele><time>2026-04-26T08:42:54.94Z</time></trkpt><trkpt lat="40.438309011197575" lon="16.53474956905615"><ele>54.0</ele><time>2026-04-26T08:42:55.94Z</time></trkpt><trkpt lat="40.43826288941396" lon="16.534847937776203"><ele>54.0</ele><time>2026-04-26T08:42:56.94Z</time></trkpt><trkpt lat="40.43821915310049" lon="16.534940459420476"><ele>54.0</ele><time>2026-04-26T08:42:57.94Z</time></trkpt><trkpt lat="40.43818300221649" lon="16.535031985941245"><ele>54.0</ele><time>2026-04-26T08:42:58.94Z</time></trkpt><trkpt lat="40.43812913434125" lon="16.535136897822444"><ele>54.0</ele><time>2026-04-26T08:42:59.94Z</time></trkpt><trkpt lat="40.43808767499013" lon="16.535250351754414"><ele>54.0</ele><time>2026-04-26T08:43:00.94Z</time></trkpt><trkpt lat="40.43803747452686" lon="16.535356551023234"><ele>54.00000000000001</ele><time>2026-04-26T08:43:01.94Z</time></trkpt><trkpt lat="40.43798832040214" lon="16.53545371745101"><ele>54.00000000000001</ele><time>2026-04-26T08:43:02.94Z</time></trkpt><trkpt lat="40.43793706991912" lon="16.535559335662754"><ele>54.0</ele><time>2026-04-26T08:43:03.94Z</time></trkpt><trkpt lat="40.437884539773734" lon="16.535669246005433"><ele>54.0</ele><time>2026-04-26T08:43:04.94Z</time></trkpt><trkpt lat="40.437830885806946" lon="16.53577891347927"><ele>54.0</ele><time>2026-04-26T08:43:05.94Z</time></trkpt><trkpt lat="40.437773539194154" lon="16.53589180105791"><ele>54.00000000000001</ele><time>2026-04-26T08:43:06.94Z</time></trkpt><trkpt lat="40.43771913887557" lon="16.53601419805223"><ele>54.00000000000001</ele><time>2026-04-26T08:43:07.94Z</time></trkpt><trkpt lat="40.437661818190186" lon="16.536147321331008"><ele>54.0</ele><time>2026-04-26T08:43:08.94Z</time></trkpt><trkpt lat="40.43760301375034" lon="16.536273870522923"><ele>54.0</ele><time>2026-04-26T08:43:09.94Z</time></trkpt><trkpt lat="40.43754733933536" lon="16.536411055279675"><ele>54.0</ele><time>2026-04-26T08:43:10.94Z</time></trkpt><trkpt lat="40.437488618280724" lon="16.536551971195117"><ele>54.0</ele><time>2026-04-26T08:43:11.94Z</time></trkpt><trkpt lat="40.4374291756738" lon="16.536690831926474"><ele>54.0</ele><time>2026-04-26T08:43:12.94Z</time></trkpt><trkpt lat="40.437368660714405" lon="16.536836062181028"><ele>54.0</ele><time>2026-04-26T08:43:13.94Z</time></trkpt><trkpt lat="40.43730832032651" lon="16.53696778066945"><ele>53.25</ele><time>2026-04-26T08:43:14.94Z</time></trkpt><trkpt lat="40.43725005599265" lon="16.537100949805996"><ele>52.5</ele><time>2026-04-26T08:43:15.94Z</time></trkpt><trkpt lat="40.43719153712552" lon="16.53723675550729"><ele>51.75</ele><time>2026-04-26T08:43:16.94Z</time></trkpt><trkpt lat="40.43712974974972" lon="16.537369609046983"><ele>51.0</ele><time>2026-04-26T08:43:17.94Z</time></trkpt><trkpt lat="40.43706456964483" lon="16.537500403329865"><ele>51.0</ele><time>2026-04-26T08:43:18.94Z</time></trkpt><trkpt lat="40.437006559963336" lon="16.537640760216537"><ele>51.0</ele><time>2026-04-26T08:43:19.94Z</time></trkpt><trkpt lat="40.43694595033785" lon="16.537770047190467"><ele>51.0</ele><time>2026-04-26T08:43:20.94Z</time></trkpt><trkpt lat="40.4368791706951" lon="16.53790763917151"><ele>51.0</ele><time>2026-04-26T08:43:21.94Z</time></trkpt><trkpt lat="40.43680867884025" lon="16.538051241683434"><ele>51.25</ele><time>2026-04-26T08:43:22.94Z</time></trkpt><trkpt lat="40.43674377766942" lon="16.53819609912507"><ele>51.5</ele><time>2026-04-26T08:43:23.939Z</time></trkpt><trkpt lat="40.43667906790187" lon="16.538341939150005"><ele>51.75</ele><time>2026-04-26T08:43:24.939Z</time></trkpt><trkpt lat="40.43660862082184" lon="16.53849709180548"><ele>52.0</ele><time>2026-04-26T08:43:25.939Z</time></trkpt><trkpt lat="40.43653721793823" lon="16.538655529285215"><ele>51.75</ele><time>2026-04-26T08:43:26.939Z</time></trkpt><trkpt lat="40.4364659025368" lon="16.53881680688231"><ele>51.5</ele><time>2026-04-26T08:43:27.939Z</time></trkpt><trkpt lat="40.436391588758504" lon="16.53897240978846"><ele>51.25</ele><time>2026-04-26T08:43:28.939Z</time></trkpt><trkpt lat="40.43632039927497" lon="16.53912661491391"><ele>51.0</ele><time>2026-04-26T08:43:29.939Z</time></trkpt><trkpt lat="40.436247705850946" lon="16.539283084162765"><ele>51.75</ele><time>2026-04-26T08:43:30.939Z</time></trkpt><trkpt lat="40.4361808055406" lon="16.539430766706467"><ele>52.5</ele><time>2026-04-26T08:43:31.939Z</time></trkpt><trkpt lat="40.436111422782595" lon="16.539581072743253"><ele>53.25</ele><time>2026-04-26T08:43:32.939Z</time></trkpt><trkpt lat="40.436041692831175" lon="16.539706146682562"><ele>54.0</ele><time>2026-04-26T08:43:33.939Z</time></trkpt><trkpt lat="40.435964814239654" lon="16.539854252642478"><ele>54.25</ele><time>2026-04-26T08:43:34.939Z</time></trkpt><trkpt lat="40.435889452937744" lon="16.540000444485077"><ele>54.5</ele><time>2026-04-26T08:43:35.939Z</time></trkpt><trkpt lat="40.43582154788201" lon="16.540149043647528"><ele>54.75</ele><time>2026-04-26T08:43:36.939Z</time></trkpt><trkpt lat="40.435740240884606" lon="16.5402908279096"><ele>55.0</ele><time>2026-04-26T08:43:37.939Z</time></trkpt><trkpt lat="40.43566083312197" lon="16.54043582483392"><ele>55.0</ele><time>2026-04-26T08:43:38.939Z</time></trkpt><trkpt lat="40.4355796531154" lon="16.54058091937699"><ele>55.0</ele><time>2026-04-26T08:43:39.939Z</time></trkpt><trkpt lat="40.43549930388131" lon="16.54072669467775"><ele>55.0</ele><time>2026-04-26T08:43:40.939Z</time></trkpt><trkpt lat="40.435413024076176" lon="16.540870565502658"><ele>55.0</ele><time>2026-04-26T08:43:41.939Z</time></trkpt><trkpt lat="40.435312980951615" lon="16.540992180734214"><ele>55.0</ele><time>2026-04-26T08:43:42.939Z</time></trkpt><trkpt lat="40.435224072849735" lon="16.541124897844007"><ele>55.0</ele><time>2026-04-26T08:43:43.939Z</time></trkpt><trkpt lat="40.43513397168094" lon="16.541256377113566"><ele>55.0</ele><time>2026-04-26T08:43:44.938Z</time></trkpt><trkpt lat="40.43504294950438" lon="16.541384123848122"><ele>55.0</ele><time>2026-04-26T08:43:45.937Z</time></trkpt><trkpt lat="40.4349481093752" lon="16.541512952096607"><ele>55.0</ele><time>2026-04-26T08:43:46.936Z</time></trkpt><trkpt lat="40.434849446236015" lon="16.541643416242938"><ele>55.0</ele><time>2026-04-26T08:43:47.936Z</time></trkpt><trkpt lat="40.43474699361864" lon="16.541781025903592"><ele>55.0</ele><time>2026-04-26T08:43:48.936Z</time></trkpt><trkpt lat="40.43463938374476" lon="16.541918521552933"><ele>55.0</ele><time>2026-04-26T08:43:49.935Z</time></trkpt><trkpt lat="40.4345320203165" lon="16.54205547345858"><ele>55.0</ele><time>2026-04-26T08:43:50.935Z</time></trkpt><trkpt lat="40.434432169431446" lon="16.54217253864495"><ele>55.0</ele><time>2026-04-26T08:43:51.934Z</time></trkpt><trkpt lat="40.4343248152008" lon="16.542265675692875"><ele>55.0</ele><time>2026-04-26T08:43:52.934Z</time></trkpt><trkpt lat="40.43423500341824" lon="16.54236931549939"><ele>55.0</ele><time>2026-04-26T08:43:53.934Z</time></trkpt><trkpt lat="40.43416274852372" lon="16.54244522192506"><ele>54.99999999999999</ele><time>2026-04-26T08:43:54.934Z</time></trkpt><trkpt lat="40.43410336357119" lon="16.542506641576423"><ele>55.0</ele><time>2026-04-26T08:43:55.933Z</time></trkpt><trkpt lat="40.43404362888134" lon="16.542543936956392"><ele>55.0</ele><time>2026-04-26T08:43:58.933Z</time></trkpt><trkpt lat="40.43399983555272" lon="16.542607261179224"><ele>55.0</ele><time>2026-04-26T08:45:44.928Z</time></trkpt><trkpt lat="40.43391288625398" lon="16.542703872954164"><ele>54.99999999999999</ele><time>2026-04-26T08:45:46.928Z</time></trkpt><trkpt lat="40.433861878772326" lon="16.542761306104907"><ele>55.0</ele><time>2026-04-26T08:45:47.928Z</time></trkpt><trkpt lat="40.43378789536622" lon="16.542826145565055"><ele>54.4</ele><time>2026-04-26T08:45:48.928Z</time></trkpt><trkpt lat="40.43370466671596" lon="16.542897901060236"><ele>53.8</ele><time>2026-04-26T08:45:49.928Z</time></trkpt><trkpt lat="40.43362275667966" lon="16.542972137278987"><ele>53.2</ele><time>2026-04-26T08:45:50.928Z</time></trkpt><trkpt lat="40.43352130589387" lon="16.543041890050446"><ele>52.6</ele><time>2026-04-26T08:45:51.929Z</time></trkpt><trkpt lat="40.433426287883826" lon="16.543112449651748"><ele>52.0</ele><time>2026-04-26T08:45:52.929Z</time></trkpt><trkpt lat="40.43333208592202" lon="16.543190813153878"><ele>52.0</ele><time>2026-04-26T08:45:53.929Z</time></trkpt><trkpt lat="40.43323863154897" lon="16.543260321067937"><ele>52.0</ele><time>2026-04-26T08:45:54.928Z</time></trkpt><trkpt lat="40.433154227909824" lon="16.543329593688366"><ele>52.0</ele><time>2026-04-26T08:45:55.928Z</time></trkpt><trkpt lat="40.433070647538706" lon="16.543396674816975"><ele>52.0</ele><time>2026-04-26T08:45:56.929Z</time></trkpt><trkpt lat="40.432981682125785" lon="16.543465987695523"><ele>52.0</ele><time>2026-04-26T08:45:57.929Z</time></trkpt><trkpt lat="40.43289268603697" lon="16.543533780581146"><ele>52.0</ele><time>2026-04-26T08:45:58.928Z</time></trkpt><trkpt lat="40.43280729163601" lon="16.543596587101842"><ele>52.0</ele><time>2026-04-26T08:45:59.929Z</time></trkpt><trkpt lat="40.4327167560797" lon="16.54365775913422"><ele>52.0</ele><time>2026-04-26T08:46:00.928Z</time></trkpt><trkpt lat="40.43262611750422" lon="16.543719338465884"><ele>52.0</ele><time>2026-04-26T08:46:01.928Z</time></trkpt><trkpt lat="40.43254310739278" lon="16.543776141031202"><ele>52.0</ele><time>2026-04-26T08:46:02.929Z</time></trkpt><trkpt lat="40.43245880597697" lon="16.54383512977457"><ele>52.0</ele><time>2026-04-26T08:46:03.928Z</time></trkpt><trkpt lat="40.432365518585435" lon="16.54389337771566"><ele>52.0</ele><time>2026-04-26T08:46:04.928Z</time></trkpt><trkpt lat="40.43226804436587" lon="16.543956315453315"><ele>52.0</ele><time>2026-04-26T08:46:05.928Z</time></trkpt><trkpt lat="40.4321608734695" lon="16.54399998725323"><ele>52.0</ele><time>2026-04-26T08:46:06.928Z</time></trkpt><trkpt lat="40.432064536753664" lon="16.544053045153465"><ele>52.0</ele><time>2026-04-26T08:46:07.928Z</time></trkpt><trkpt lat="40.431966155212585" lon="16.54410416312018"><ele>52.75</ele><time>2026-04-26T08:46:08.928Z</time></trkpt><trkpt lat="40.431862355299586" lon="16.54414956793756"><ele>53.5</ele><time>2026-04-26T08:46:09.928Z</time></trkpt><trkpt lat="40.43175540359826" lon="16.544195748744425"><ele>54.25</ele><time>2026-04-26T08:46:10.928Z</time></trkpt><trkpt lat="40.43164171013145" lon="16.544248114263766"><ele>55.0</ele><time>2026-04-26T08:46:11.928Z</time></trkpt><trkpt lat="40.43152881329625" lon="16.5443046169306"><ele>55.0</ele><time>2026-04-26T08:46:12.928Z</time></trkpt><trkpt lat="40.431412743550275" lon="16.54435162814789"><ele>55.0</ele><time>2026-04-26T08:46:13.928Z</time></trkpt><trkpt lat="40.4312984996983" lon="16.544397877508374"><ele>55.0</ele><time>2026-04-26T08:46:14.928Z</time></trkpt><trkpt lat="40.431181061033755" lon="16.544440893437702"><ele>55.0</ele><time>2026-04-26T08:46:15.928Z</time></trkpt><trkpt lat="40.43106118483176" lon="16.544484081649706"><ele>55.0</ele><time>2026-04-26T08:46:16.928Z</time></trkpt><trkpt lat="40.430942568690504" lon="16.54452991696815"><ele>55.0</ele><time>2026-04-26T08:46:17.928Z</time></trkpt><trkpt lat="40.43081668932716" lon="16.54457805843508"><ele>55.0</ele><time>2026-04-26T08:46:18.928Z</time></trkpt><trkpt lat="40.430691673528315" lon="16.544619428599642"><ele>55.0</ele><time>2026-04-26T08:46:19.927Z</time></trkpt><trkpt lat="40.43055849575004" lon="16.544657585269288"><ele>55.0</ele><time>2026-04-26T08:46:20.927Z</time></trkpt><trkpt lat="40.43042575052353" lon="16.544694491183627"><ele>55.0</ele><time>2026-04-26T08:46:21.927Z</time></trkpt><trkpt lat="40.430293041900946" lon="16.54472870025357"><ele>55.0</ele><time>2026-04-26T08:46:22.927Z</time></trkpt><trkpt lat="40.43016198210237" lon="16.54476306002758"><ele>55.0</ele><time>2026-04-26T08:46:23.927Z</time></trkpt><trkpt lat="40.43002549716785" lon="16.544796333922836"><ele>55.0</ele><time>2026-04-26T08:46:24.927Z</time></trkpt><trkpt lat="40.42989267402162" lon="16.544824006533336"><ele>55.0</ele><time>2026-04-26T08:46:25.927Z</time></trkpt><trkpt lat="40.42975439002348" lon="16.54484881241637"><ele>55.0</ele><time>2026-04-26T08:46:26.927Z</time></trkpt><trkpt lat="40.429619327131164" lon="16.544866098518455"><ele>55.0</ele><time>2026-04-26T08:46:27.927Z</time></trkpt><trkpt lat="40.429484527377944" lon="16.544887104548412"><ele>54.75</ele><time>2026-04-26T08:46:28.927Z</time></trkpt><trkpt lat="40.42935068905608" lon="16.54490133598564"><ele>54.5</ele><time>2026-04-26T08:46:29.927Z</time></trkpt><trkpt lat="40.42920887179022" lon="16.544927472644616"><ele>54.25</ele><time>2026-04-26T08:46:30.927Z</time></trkpt><trkpt lat="40.429077377684024" lon="16.54495401992837"><ele>54.0</ele><time>2026-04-26T08:46:31.927Z</time></trkpt><trkpt lat="40.428933517273066" lon="16.544979507458933"><ele>54.0</ele><time>2026-04-26T08:46:32.927Z</time></trkpt><trkpt lat="40.42879512299708" lon="16.545007548332066"><ele>54.0</ele><time>2026-04-26T08:46:33.927Z</time></trkpt><trkpt lat="40.42865119274839" lon="16.545037665013627"><ele>54.0</ele><time>2026-04-26T08:46:34.927Z</time></trkpt><trkpt lat="40.42850536435455" lon="16.545064846565804"><ele>54.0</ele><time>2026-04-26T08:46:35.927Z</time></trkpt><trkpt lat="40.428361057535945" lon="16.54509037025393"><ele>54.0</ele><time>2026-04-26T08:46:36.927Z</time></trkpt><trkpt lat="40.42821799915121" lon="16.545117840367823"><ele>54.0</ele><time>2026-04-26T08:46:37.927Z</time></trkpt><trkpt lat="40.42807460627641" lon="16.54514138573348"><ele>54.0</ele><time>2026-04-26T08:46:38.927Z</time></trkpt><trkpt lat="40.42793238711818" lon="16.545169709091248"><ele>54.0</ele><time>2026-04-26T08:46:39.927Z</time></trkpt><trkpt lat="40.427791755504536" lon="16.545192640366423"><ele>53.5</ele><time>2026-04-26T08:46:40.927Z</time></trkpt><trkpt lat="40.42764806453543" lon="16.545217976554493"><ele>53.0</ele><time>2026-04-26T08:46:41.927Z</time></trkpt><trkpt lat="40.42750521440883" lon="16.54523689461171"><ele>52.5</ele><time>2026-04-26T08:46:42.927Z</time></trkpt><trkpt lat="40.42736120431613" lon="16.545262010575172"><ele>52.0</ele><time>2026-04-26T08:46:43.927Z</time></trkpt><trkpt lat="40.42721324864713" lon="16.545287269793853"><ele>52.25</ele><time>2026-04-26T08:46:44.927Z</time></trkpt><trkpt lat="40.42706144465563" lon="16.545315913299234"><ele>52.5</ele><time>2026-04-26T08:46:45.927Z</time></trkpt><trkpt lat="40.42691451205024" lon="16.545346391869526"><ele>52.75</ele><time>2026-04-26T08:46:46.927Z</time></trkpt><trkpt lat="40.426773028965584" lon="16.54537232690944"><ele>53.0</ele><time>2026-04-26T08:46:47.927Z</time></trkpt><trkpt lat="40.426631499743756" lon="16.545401483196976"><ele>53.0</ele><time>2026-04-26T08:46:48.927Z</time></trkpt><trkpt lat="40.42649238138385" lon="16.545439891807142"><ele>53.0</ele><time>2026-04-26T08:46:49.927Z</time></trkpt><trkpt lat="40.42635377218887" lon="16.54548721317405"><ele>53.0</ele><time>2026-04-26T08:46:50.927Z</time></trkpt><trkpt lat="40.42622200666989" lon="16.545545187344427"><ele>53.0</ele><time>2026-04-26T08:46:51.927Z</time></trkpt><trkpt lat="40.42608498146454" lon="16.54560507441305"><ele>53.25</ele><time>2026-04-26T08:46:52.927Z</time></trkpt><trkpt lat="40.42595128934557" lon="16.54567659743344"><ele>53.5</ele><time>2026-04-26T08:46:53.927Z</time></trkpt><trkpt lat="40.42581430793545" lon="16.54574626101054"><ele>53.75</ele><time>2026-04-26T08:46:54.927Z</time></trkpt><trkpt lat="40.425680151188644" lon="16.54582674673856"><ele>54.0</ele><time>2026-04-26T08:46:55.927Z</time></trkpt><trkpt lat="40.42554362235313" lon="16.545908493307795"><ele>54.0</ele><time>2026-04-26T08:46:56.927Z</time></trkpt><trkpt lat="40.42540788896666" lon="16.54598732818319"><ele>54.0</ele><time>2026-04-26T08:46:57.927Z</time></trkpt><trkpt lat="40.42526921403888" lon="16.54606409308825"><ele>54.0</ele><time>2026-04-26T08:46:58.927Z</time></trkpt><trkpt lat="40.42513117153782" lon="16.546139633647783"><ele>54.0</ele><time>2026-04-26T08:46:59.927Z</time></trkpt><trkpt lat="40.424996645582894" lon="16.546216838602607"><ele>53.66666666666667</ele><time>2026-04-26T08:47:00.927Z</time></trkpt><trkpt lat="40.42485938498587" lon="16.546289983359348"><ele>53.333333333333336</ele><time>2026-04-26T08:47:01.927Z</time></trkpt><trkpt lat="40.42471469766562" lon="16.546374989292836"><ele>53.0</ele><time>2026-04-26T08:47:02.927Z</time></trkpt><trkpt lat="40.424575877098384" lon="16.54645578200118"><ele>54.5</ele><time>2026-04-26T08:47:03.927Z</time></trkpt><trkpt lat="40.42444975168323" lon="16.546527167873737"><ele>56.0</ele><time>2026-04-26T08:47:04.927Z</time></trkpt><trkpt lat="40.42433095047627" lon="16.546597305272837"><ele>57.5</ele><time>2026-04-26T08:47:05.927Z</time></trkpt><trkpt lat="40.42421512703969" lon="16.54666703572977"><ele>59.0</ele><time>2026-04-26T08:47:06.927Z</time></trkpt><trkpt lat="40.42409349336911" lon="16.546730928383955"><ele>59.0</ele><time>2026-04-26T08:47:07.927Z</time></trkpt><trkpt lat="40.4239588851967" lon="16.546810936746855"><ele>59.0</ele><time>2026-04-26T08:47:08.927Z</time></trkpt><trkpt lat="40.42382435930001" lon="16.54688100717035"><ele>59.0</ele><time>2026-04-26T08:47:09.927Z</time></trkpt><trkpt lat="40.423694851601795" lon="16.54696574432135"><ele>59.0</ele><time>2026-04-26T08:47:10.927Z</time></trkpt><trkpt lat="40.4235769683123" lon="16.547072604998625"><ele>59.25</ele><time>2026-04-26T08:47:11.927Z</time></trkpt><trkpt lat="40.42346867777671" lon="16.547199924387805"><ele>59.5</ele><time>2026-04-26T08:47:12.927Z</time></trkpt><trkpt lat="40.42335875470986" lon="16.547325972232553"><ele>59.75</ele><time>2026-04-26T08:47:13.927Z</time></trkpt><trkpt lat="40.42325284141647" lon="16.54745375720566"><ele>60.0</ele><time>2026-04-26T08:47:14.927Z</time></trkpt><trkpt lat="40.42314300054143" lon="16.54759867554106"><ele>60.0</ele><time>2026-04-26T08:47:15.927Z</time></trkpt><trkpt lat="40.42303639139894" lon="16.547723901344764"><ele>60.0</ele><time>2026-04-26T08:47:16.927Z</time></trkpt><trkpt lat="40.42293193576949" lon="16.547854995248123"><ele>60.0</ele><time>2026-04-26T08:47:17.926Z</time></trkpt><trkpt lat="40.42281726544337" lon="16.54796557885257"><ele>60.0</ele><time>2026-04-26T08:47:18.926Z</time></trkpt><trkpt lat="40.42271179101273" lon="16.548096173116704"><ele>59.5</ele><time>2026-04-26T08:47:19.926Z</time></trkpt><trkpt lat="40.42260936247783" lon="16.548228134734163"><ele>59.0</ele><time>2026-04-26T08:47:20.926Z</time></trkpt><trkpt lat="40.422497693943896" lon="16.548345982082118"><ele>58.5</ele><time>2026-04-26T08:47:21.926Z</time></trkpt><trkpt lat="40.42239279621978" lon="16.54847339492886"><ele>58.0</ele><time>2026-04-26T08:47:22.926Z</time></trkpt><trkpt lat="40.42228361256318" lon="16.54859578849461"><ele>58.25</ele><time>2026-04-26T08:47:23.926Z</time></trkpt><trkpt lat="40.42217851383533" lon="16.548709607972476"><ele>58.5</ele><time>2026-04-26T08:47:24.926Z</time></trkpt><trkpt lat="40.42207754336065" lon="16.548839700985543"><ele>58.75</ele><time>2026-04-26T08:47:25.926Z</time></trkpt><trkpt lat="40.42197691977752" lon="16.548954747132687"><ele>59.0</ele><time>2026-04-26T08:47:26.926Z</time></trkpt><trkpt lat="40.4218755387825" lon="16.549045302041005"><ele>59.0</ele><time>2026-04-26T08:47:27.926Z</time></trkpt><trkpt lat="40.42177274680787" lon="16.549097575171828"><ele>59.00000000000001</ele><time>2026-04-26T08:47:28.926Z</time></trkpt><trkpt lat="40.42166511475606" lon="16.54911584575661"><ele>59.00000000000001</ele><time>2026-04-26T08:47:29.926Z</time></trkpt><trkpt lat="40.42156066866877" lon="16.549108494341333"><ele>59.0</ele><time>2026-04-26T08:47:30.926Z</time></trkpt><trkpt lat="40.42147690108546" lon="16.549062926619907"><ele>59.0</ele><time>2026-04-26T08:47:31.926Z</time></trkpt><trkpt lat="40.42135271361051" lon="16.549002643487654"><ele>58.400000000000006</ele><time>2026-04-26T08:47:32.926Z</time></trkpt><trkpt lat="40.42122930777898" lon="16.548944281022862"><ele>57.800000000000004</ele><time>2026-04-26T08:47:33.926Z</time></trkpt><trkpt lat="40.42112209230392" lon="16.548882749723152"><ele>57.199999999999996</ele><time>2026-04-26T08:47:34.926Z</time></trkpt><trkpt lat="40.42102542900592" lon="16.548842195543"><ele>56.599999999999994</ele><time>2026-04-26T08:47:35.926Z</time></trkpt><trkpt lat="40.42093224681019" lon="16.548801447055418"><ele>56.0</ele><time>2026-04-26T08:47:36.926Z</time></trkpt><trkpt lat="40.420839563128894" lon="16.548764002846653"><ele>56.0</ele><time>2026-04-26T08:47:37.926Z</time></trkpt><trkpt lat="40.42074188274987" lon="16.548718682424052"><ele>55.99999999999999</ele><time>2026-04-26T08:47:38.926Z</time></trkpt><trkpt lat="40.420644185980954" lon="16.548678698955055"><ele>55.99999999999999</ele><time>2026-04-26T08:47:39.926Z</time></trkpt><trkpt lat="40.42053895668758" lon="16.54863163787668"><ele>56.0</ele><time>2026-04-26T08:47:40.926Z</time></trkpt><trkpt lat="40.42043416798155" lon="16.54858702387444"><ele>56.0</ele><time>2026-04-26T08:47:41.926Z</time></trkpt><trkpt lat="40.42033616784551" lon="16.548535731880726"><ele>56.66666666666667</ele><time>2026-04-26T08:47:42.926Z</time></trkpt><trkpt lat="40.42023978440298" lon="16.54849047966141"><ele>57.333333333333336</ele><time>2026-04-26T08:47:43.926Z</time></trkpt><trkpt lat="40.42015469436056" lon="16.548443573521833"><ele>58.0</ele><time>2026-04-26T08:47:44.926Z</time></trkpt><trkpt lat="40.42007999943492" lon="16.5484085483069"><ele>58.66666666666667</ele><time>2026-04-26T08:47:45.926Z</time></trkpt><trkpt lat="40.42001231664752" lon="16.54838611970048"><ele>59.333333333333336</ele><time>2026-04-26T08:47:46.926Z</time></trkpt><trkpt lat="40.41994602921347" lon="16.548333661791762"><ele>60.0</ele><time>2026-04-26T08:47:48.926Z</time></trkpt><trkpt lat="40.41987957864192" lon="16.54846314499257"><ele>60.0</ele><time>2026-04-26T08:47:49.926Z</time></trkpt><trkpt lat="40.41984018198746" lon="16.548561703145825"><ele>60.0</ele><time>2026-04-26T08:47:50.926Z</time></trkpt><trkpt lat="40.419806917171144" lon="16.548683094525064"><ele>60.0</ele><time>2026-04-26T08:47:51.926Z</time></trkpt><trkpt lat="40.4197714901772" lon="16.548820437412147"><ele>60.0</ele><time>2026-04-26T08:47:52.926Z</time></trkpt><trkpt lat="40.41973553119083" lon="16.548965997043258"><ele>60.0</ele><time>2026-04-26T08:47:53.926Z</time></trkpt><trkpt lat="40.419696295535" lon="16.549119773188156"><ele>60.0</ele><time>2026-04-26T08:47:54.926Z</time></trkpt><trkpt lat="40.41965432910983" lon="16.549278165284456"><ele>60.0</ele><time>2026-04-26T08:47:55.926Z</time></trkpt><trkpt lat="40.41960923979628" lon="16.549432343134576"><ele>60.0</ele><time>2026-04-26T08:47:56.926Z</time></trkpt><trkpt lat="40.41957640779884" lon="16.549568501593395"><ele>60.0</ele><time>2026-04-26T08:47:57.926Z</time></trkpt><trkpt lat="40.41953853309814" lon="16.549682052260607"><ele>59.6</ele><time>2026-04-26T08:47:58.926Z</time></trkpt><trkpt lat="40.41952883989732" lon="16.549802811737944"><ele>59.2</ele><time>2026-04-26T08:47:59.926Z</time></trkpt><trkpt lat="40.41956708785856" lon="16.549907255442392"><ele>58.8</ele><time>2026-04-26T08:48:00.925Z</time></trkpt><trkpt lat="40.419616176599284" lon="16.54997236490209"><ele>58.4</ele><time>2026-04-26T08:48:01.925Z</time></trkpt><trkpt lat="40.41957356900187" lon="16.550108268623443"><ele>58.0</ele><time>2026-04-26T08:48:03.926Z</time></trkpt><trkpt lat="40.41947569823516" lon="16.55010493943198"><ele>57.99999999999999</ele><time>2026-04-26T08:48:05.925Z</time></trkpt><trkpt lat="40.419388060282216" lon="16.55001877023817"><ele>58.0</ele><time>2026-04-26T08:48:07.925Z</time></trkpt><trkpt lat="40.41934604077516" lon="16.549940164175066"><ele>58.0</ele><time>2026-04-26T08:48:08.926Z</time></trkpt><trkpt lat="40.41930050170402" lon="16.54986426071277"><ele>58.0</ele><time>2026-04-26T08:48:09.926Z</time></trkpt><trkpt lat="40.41924769562563" lon="16.54977680707945"><ele>57.99999999999999</ele><time>2026-04-26T08:48:10.926Z</time></trkpt><trkpt lat="40.419191146673064" lon="16.54967715504905"><ele>58.0</ele><time>2026-04-26T08:48:11.926Z</time></trkpt><trkpt lat="40.41912714969115" lon="16.549569487680333"><ele>58.2</ele><time>2026-04-26T08:48:12.926Z</time></trkpt><trkpt lat="40.41907257375225" lon="16.549472708600113"><ele>58.4</ele><time>2026-04-26T08:48:13.926Z</time></trkpt><trkpt lat="40.41900479191703" lon="16.549377771850665"><ele>58.60000000000001</ele><time>2026-04-26T08:48:14.926Z</time></trkpt><trkpt lat="40.418934603405084" lon="16.549283546744157"><ele>58.800000000000004</ele><time>2026-04-26T08:48:15.926Z</time></trkpt><trkpt lat="40.41887006543853" lon="16.549183922277116"><ele>59.0</ele><time>2026-04-26T08:48:16.926Z</time></trkpt><trkpt lat="40.418805117577776" lon="16.54908357317457"><ele>59.0</ele><time>2026-04-26T08:48:17.926Z</time></trkpt><trkpt lat="40.418734199271306" lon="16.54897530585008"><ele>59.0</ele><time>2026-04-26T08:48:18.926Z</time></trkpt><trkpt lat="40.418660666573594" lon="16.548867478333527"><ele>59.0</ele><time>2026-04-26T08:48:19.926Z</time></trkpt><trkpt lat="40.41858370638804" lon="16.548746763991247"><ele>59.0</ele><time>2026-04-26T08:48:20.926Z</time></trkpt><trkpt lat="40.4185062098247" lon="16.54862258068363"><ele>59.25</ele><time>2026-04-26T08:48:21.926Z</time></trkpt><trkpt lat="40.41843435877093" lon="16.548499661284012"><ele>59.5</ele><time>2026-04-26T08:48:22.926Z</time></trkpt><trkpt lat="40.418364741233226" lon="16.54838043219997"><ele>59.75</ele><time>2026-04-26T08:48:23.926Z</time></trkpt><trkpt lat="40.41829296699363" lon="16.54826783999089"><ele>60.0</ele><time>2026-04-26T08:48:24.926Z</time></trkpt><trkpt lat="40.41822375508943" lon="16.54815022666829"><ele>60.0</ele><time>2026-04-26T08:48:25.926Z</time></trkpt><trkpt lat="40.41815475645592" lon="16.54803704360369"><ele>60.0</ele><time>2026-04-26T08:48:26.926Z</time></trkpt><trkpt lat="40.41808169520311" lon="16.547935026016237"><ele>60.0</ele><time>2026-04-26T08:48:27.926Z</time></trkpt><trkpt lat="40.418005667645" lon="16.547831310908226"><ele>60.0</ele><time>2026-04-26T08:48:28.926Z</time></trkpt><trkpt lat="40.41794040300025" lon="16.54772397602807"><ele>60.0</ele><time>2026-04-26T08:48:29.926Z</time></trkpt><trkpt lat="40.41787160524357" lon="16.547622284918813"><ele>60.5</ele><time>2026-04-26T08:48:30.926Z</time></trkpt><trkpt lat="40.41780420716688" lon="16.547527787439957"><ele>61.0</ele><time>2026-04-26T08:48:31.925Z</time></trkpt><trkpt lat="40.41775385005476" lon="16.547446077242824"><ele>61.5</ele><time>2026-04-26T08:48:32.925Z</time></trkpt><trkpt lat="40.41769813035911" lon="16.54736645931624"><ele>62.0</ele><time>2026-04-26T08:48:33.925Z</time></trkpt><trkpt lat="40.41764823586717" lon="16.54728549230145"><ele>62.5</ele><time>2026-04-26T08:48:34.925Z</time></trkpt><trkpt lat="40.41759066569957" lon="16.547192980267017"><ele>63.0</ele><time>2026-04-26T08:48:35.925Z</time></trkpt><trkpt lat="40.4175322133652" lon="16.547100353720896"><ele>63.599999999999994</ele><time>2026-04-26T08:48:36.925Z</time></trkpt><trkpt lat="40.41747257416214" lon="16.547007406204365"><ele>64.19999999999999</ele><time>2026-04-26T08:48:37.925Z</time></trkpt><trkpt lat="40.417407901335636" lon="16.54690224495289"><ele>64.8</ele><time>2026-04-26T08:48:38.925Z</time></trkpt><trkpt lat="40.41734005463739" lon="16.546785478408598"><ele>65.39999999999999</ele><time>2026-04-26T08:48:39.925Z</time></trkpt><trkpt lat="40.417267562037026" lon="16.54666969537709"><ele>66.0</ele><time>2026-04-26T08:48:40.925Z</time></trkpt><trkpt lat="40.41720403121022" lon="16.546547753118098"><ele>65.33333333333333</ele><time>2026-04-26T08:48:41.925Z</time></trkpt><trkpt lat="40.41714470514362" lon="16.546429720276116"><ele>64.66666666666667</ele><time>2026-04-26T08:48:42.925Z</time></trkpt><trkpt lat="40.41707765209698" lon="16.546336628893574"><ele>64.0</ele><time>2026-04-26T08:48:43.925Z</time></trkpt><trkpt lat="40.41701638642707" lon="16.54626510836415"><ele>63.333333333333336</ele><time>2026-04-26T08:48:44.925Z</time></trkpt><trkpt lat="40.41697178183898" lon="16.54619762768917"><ele>62.66666666666667</ele><time>2026-04-26T08:48:45.925Z</time></trkpt><trkpt lat="40.416927329283425" lon="16.54612906358985"><ele>62.0</ele><time>2026-04-26T08:48:46.925Z</time></trkpt><trkpt lat="40.416888316300145" lon="16.546063018537232"><ele>62.00000000000001</ele><time>2026-04-26T08:48:47.925Z</time></trkpt><trkpt lat="40.41684651718408" lon="16.545991830435813"><ele>62.0</ele><time>2026-04-26T08:48:48.925Z</time></trkpt><trkpt lat="40.416798687836646" lon="16.545910853903905"><ele>62.0</ele><time>2026-04-26T08:48:49.925Z</time></trkpt><trkpt lat="40.41674521082581" lon="16.545829686664256"><ele>62.0</ele><time>2026-04-26T08:48:50.925Z</time></trkpt><trkpt lat="40.41668754055525" lon="16.54574968891901"><ele>62.00000000000001</ele><time>2026-04-26T08:48:51.925Z</time></trkpt><trkpt lat="40.416624105613444" lon="16.545651151577683"><ele>62.0</ele><time>2026-04-26T08:48:52.925Z</time></trkpt><trkpt lat="40.41655421003143" lon="16.545544059885554"><ele>62.0</ele><time>2026-04-26T08:48:53.925Z</time></trkpt><trkpt lat="40.416473563624784" lon="16.54541595149603"><ele>62.0</ele><time>2026-04-26T08:48:54.925Z</time></trkpt><trkpt lat="40.41638124188511" lon="16.54527261874793"><ele>62.0</ele><time>2026-04-26T08:48:55.925Z</time></trkpt><trkpt lat="40.41627430864725" lon="16.545108669336393"><ele>62.0</ele><time>2026-04-26T08:48:56.925Z</time></trkpt><trkpt lat="40.41615380448243" lon="16.544927702979567"><ele>63.333333333333336</ele><time>2026-04-26T08:48:57.925Z</time></trkpt><trkpt lat="40.41602503103269" lon="16.544718005890857"><ele>64.66666666666667</ele><time>2026-04-26T08:48:58.925Z</time></trkpt><trkpt lat="40.41590448315531" lon="16.54452646260231"><ele>66.0</ele><time>2026-04-26T08:48:59.925Z</time></trkpt><trkpt lat="40.41579139795942" lon="16.544338774478508"><ele>66.0</ele><time>2026-04-26T08:49:00.925Z</time></trkpt><trkpt lat="40.41565719284966" lon="16.544134081378665"><ele>66.0</ele><time>2026-04-26T08:49:01.925Z</time></trkpt><trkpt lat="40.41552375819374" lon="16.5439250577332"><ele>66.0</ele><time>2026-04-26T08:49:02.925Z</time></trkpt><trkpt lat="40.41539524620312" lon="16.543720307223612"><ele>66.0</ele><time>2026-04-26T08:49:03.925Z</time></trkpt><trkpt lat="40.41526651018757" lon="16.5435082109243"><ele>66.0</ele><time>2026-04-26T08:49:04.925Z</time></trkpt><trkpt lat="40.415141473383365" lon="16.543302253357638"><ele>66.0</ele><time>2026-04-26T08:49:05.925Z</time></trkpt><trkpt lat="40.41501514835773" lon="16.543106785337773"><ele>66.0</ele><time>2026-04-26T08:49:06.925Z</time></trkpt><trkpt lat="40.41489142059676" lon="16.542915100234666"><ele>66.0</ele><time>2026-04-26T08:49:07.925Z</time></trkpt><trkpt lat="40.41476781189727" lon="16.542719369938446"><ele>66.0</ele><time>2026-04-26T08:49:08.925Z</time></trkpt><trkpt lat="40.41465120792756" lon="16.542532440301095"><ele>66.0</ele><time>2026-04-26T08:49:09.925Z</time></trkpt><trkpt lat="40.41452770506614" lon="16.542336053439865"><ele>66.0</ele><time>2026-04-26T08:49:10.925Z</time></trkpt><trkpt lat="40.414398988832225" lon="16.542136794053576"><ele>66.0</ele><time>2026-04-26T08:49:11.925Z</time></trkpt><trkpt lat="40.4142735491402" lon="16.541938289328098"><ele>67.0</ele><time>2026-04-26T08:49:12.925Z</time></trkpt><trkpt lat="40.41414979829893" lon="16.54173964992405"><ele>68.0</ele><time>2026-04-26T08:49:13.925Z</time></trkpt><trkpt lat="40.414026375239" lon="16.54154995541011"><ele>69.0</ele><time>2026-04-26T08:49:14.925Z</time></trkpt><trkpt lat="40.41388838835431" lon="16.541368020999563"><ele>69.66666666666667</ele><time>2026-04-26T08:49:15.925Z</time></trkpt><trkpt lat="40.4137313213808" lon="16.541196734555523"><ele>70.33333333333334</ele><time>2026-04-26T08:49:16.925Z</time></trkpt><trkpt lat="40.41356602500803" lon="16.541040856078617"><ele>71.0</ele><time>2026-04-26T08:49:17.925Z</time></trkpt><trkpt lat="40.413396999919506" lon="16.540900846449883"><ele>71.0</ele><time>2026-04-26T08:49:18.925Z</time></trkpt><trkpt lat="40.413229889846086" lon="16.540757773384044"><ele>71.0</ele><time>2026-04-26T08:49:19.925Z</time></trkpt><trkpt lat="40.413080730192036" lon="16.54063548473527"><ele>71.0</ele><time>2026-04-26T08:49:20.925Z</time></trkpt><trkpt lat="40.412939942294145" lon="16.540545942737147"><ele>72.33333333333334</ele><time>2026-04-26T08:49:21.925Z</time></trkpt><trkpt lat="40.41278767803344" lon="16.540501855828353"><ele>73.66666666666667</ele><time>2026-04-26T08:49:22.925Z</time></trkpt><trkpt lat="40.41261826660924" lon="16.540515816289567"><ele>75.0</ele><time>2026-04-26T08:49:23.925Z</time></trkpt><trkpt lat="40.412448381089916" lon="16.54057052530804"><ele>75.0</ele><time>2026-04-26T08:49:24.925Z</time></trkpt><trkpt lat="40.412271074788556" lon="16.54065578602703"><ele>75.0</ele><time>2026-04-26T08:49:25.925Z</time></trkpt><trkpt lat="40.41208308906727" lon="16.540736048571866"><ele>75.0</ele><time>2026-04-26T08:49:26.925Z</time></trkpt><trkpt lat="40.411879916215355" lon="16.540817250803276"><ele>75.0</ele><time>2026-04-26T08:49:27.925Z</time></trkpt><trkpt lat="40.4116699548838" lon="16.540864888776344"><ele>75.0</ele><time>2026-04-26T08:49:28.925Z</time></trkpt><trkpt lat="40.41146906008963" lon="16.54088363700966"><ele>75.0</ele><time>2026-04-26T08:49:29.925Z</time></trkpt><trkpt lat="40.41127756770613" lon="16.540874489060563"><ele>76.0</ele><time>2026-04-26T08:49:30.924Z</time></trkpt><trkpt lat="40.411116355014684" lon="16.54085290578869"><ele>77.0</ele><time>2026-04-26T08:49:31.924Z</time></trkpt><trkpt lat="40.410949785144815" lon="16.540849775773072"><ele>78.0</ele><time>2026-04-26T08:49:32.924Z</time></trkpt><trkpt lat="40.41079701755459" lon="16.540908991659133"><ele>78.0</ele><time>2026-04-26T08:49:33.924Z</time></trkpt><trkpt lat="40.41064958829943" lon="16.541025485015254"><ele>78.0</ele><time>2026-04-26T08:49:34.924Z</time></trkpt><trkpt lat="40.41050552681911" lon="16.54114970779557"><ele>78.0</ele><time>2026-04-26T08:49:35.924Z</time></trkpt><trkpt lat="40.41036456188007" lon="16.541232103100032"><ele>78.66666666666667</ele><time>2026-04-26T08:49:36.924Z</time></trkpt><trkpt lat="40.41020464629777" lon="16.541249742752147"><ele>79.33333333333334</ele><time>2026-04-26T08:49:37.924Z</time></trkpt><trkpt lat="40.41004592899983" lon="16.541222710045755"><ele>80.0</ele><time>2026-04-26T08:49:38.924Z</time></trkpt><trkpt lat="40.40990617638799" lon="16.54114289101135"><ele>81.66666666666667</ele><time>2026-04-26T08:49:39.924Z</time></trkpt><trkpt lat="40.409799754883245" lon="16.54099793988229"><ele>83.33333333333333</ele><time>2026-04-26T08:49:40.924Z</time></trkpt><trkpt lat="40.40968693938483" lon="16.540846301173616"><ele>85.0</ele><time>2026-04-26T08:49:41.924Z</time></trkpt><trkpt lat="40.40957020115148" lon="16.540718568824293"><ele>86.5</ele><time>2026-04-26T08:49:42.924Z</time></trkpt><trkpt lat="40.409484939128546" lon="16.540626532357795"><ele>88.0</ele><time>2026-04-26T08:49:43.924Z</time></trkpt><trkpt lat="40.409396223985965" lon="16.540616961322833"><ele>89.5</ele><time>2026-04-26T08:49:44.924Z</time></trkpt><trkpt lat="40.40924023246724" lon="16.54078477745315"><ele>91.0</ele><time>2026-04-26T08:49:46.924Z</time></trkpt><trkpt lat="40.40922463511594" lon="16.540933734919463"><ele>91.0</ele><time>2026-04-26T08:49:47.924Z</time></trkpt><trkpt lat="40.4092458171695" lon="16.541101237438756"><ele>91.0</ele><time>2026-04-26T08:49:48.924Z</time></trkpt><trkpt lat="40.409279336029414" lon="16.541277344743268"><ele>91.0</ele><time>2026-04-26T08:49:49.924Z</time></trkpt><trkpt lat="40.409313731996825" lon="16.541450151059703"><ele>91.0</ele><time>2026-04-26T08:49:50.924Z</time></trkpt><trkpt lat="40.409310117840654" lon="16.5416188143275"><ele>91.66666666666666</ele><time>2026-04-26T08:49:51.924Z</time></trkpt><trkpt lat="40.40923924589785" lon="16.541772912331563"><ele>92.33333333333333</ele><time>2026-04-26T08:49:52.924Z</time></trkpt><trkpt lat="40.40912934970424" lon="16.54192564187393"><ele>93.0</ele><time>2026-04-26T08:49:53.924Z</time></trkpt><trkpt lat="40.40899661401912" lon="16.5420803625241"><ele>91.0</ele><time>2026-04-26T08:49:54.924Z</time></trkpt><trkpt lat="40.408837562537585" lon="16.542271900460303"><ele>89.0</ele><time>2026-04-26T08:49:55.924Z</time></trkpt><trkpt lat="40.40868187534939" lon="16.54243957800702"><ele>87.0</ele><time>2026-04-26T08:49:56.924Z</time></trkpt><trkpt lat="40.4085127223893" lon="16.542476329973"><ele>92.33333333333334</ele><time>2026-04-26T08:49:57.924Z</time></trkpt><trkpt lat="40.40834066597722" lon="16.542478155496404"><ele>97.66666666666667</ele><time>2026-04-26T08:49:58.924Z</time></trkpt><trkpt lat="40.408151587095546" lon="16.542464516850224"><ele>103.0</ele><time>2026-04-26T08:49:59.924Z</time></trkpt><trkpt lat="40.407952716299675" lon="16.542445260839585"><ele>105.33333333333334</ele><time>2026-04-26T08:50:00.924Z</time></trkpt><trkpt lat="40.40776161293989" lon="16.542413592798493"><ele>107.66666666666666</ele><time>2026-04-26T08:50:01.924Z</time></trkpt><trkpt lat="40.40761162837331" lon="16.542345858828003"><ele>110.0</ele><time>2026-04-26T08:50:02.923Z</time></trkpt><trkpt lat="40.40749585744419" lon="16.54220816708186"><ele>109.0</ele><time>2026-04-26T08:50:03.923Z</time></trkpt><trkpt lat="40.40738255277563" lon="16.542040752717682"><ele>108.0</ele><time>2026-04-26T08:50:04.923Z</time></trkpt><trkpt lat="40.40725250567062" lon="16.541840843153825"><ele>107.0</ele><time>2026-04-26T08:50:05.923Z</time></trkpt><trkpt lat="40.40711377109698" lon="16.541621687904943"><ele>107.0</ele><time>2026-04-26T08:50:06.923Z</time></trkpt><trkpt lat="40.40696058605967" lon="16.541416504426717"><ele>107.0</ele><time>2026-04-26T08:50:07.923Z</time></trkpt><trkpt lat="40.406835701036506" lon="16.5411892399073"><ele>107.0</ele><time>2026-04-26T08:50:08.924Z</time></trkpt><trkpt lat="40.40669627431019" lon="16.540972542733375"><ele>106.66666666666666</ele><time>2026-04-26T08:50:09.923Z</time></trkpt><trkpt lat="40.40655668427752" lon="16.540755966009005"><ele>106.33333333333334</ele><time>2026-04-26T08:50:10.923Z</time></trkpt><trkpt lat="40.40641128217455" lon="16.540558275970035"><ele>106.0</ele><time>2026-04-26T08:50:11.924Z</time></trkpt><trkpt lat="40.40627881803079" lon="16.540354218491423"><ele>106.0</ele><time>2026-04-26T08:50:12.923Z</time></trkpt><trkpt lat="40.406163528417544" lon="16.540157944178194"><ele>106.0</ele><time>2026-04-26T08:50:13.923Z</time></trkpt><trkpt lat="40.40603584311457" lon="16.540005072758834"><ele>106.0</ele><time>2026-04-26T08:50:14.923Z</time></trkpt><trkpt lat="40.405896331504145" lon="16.539880639620787"><ele>106.0</ele><time>2026-04-26T08:50:15.923Z</time></trkpt><trkpt lat="40.40573953662548" lon="16.53978958811829"><ele>106.0</ele><time>2026-04-26T08:50:16.923Z</time></trkpt><trkpt lat="40.4055708175723" lon="16.53975527762638"><ele>106.0</ele><time>2026-04-26T08:50:17.923Z</time></trkpt><trkpt lat="40.405399782389864" lon="16.539748244386786"><ele>106.0</ele><time>2026-04-26T08:50:18.923Z</time></trkpt><trkpt lat="40.40523321790376" lon="16.539801276407378"><ele>106.0</ele><time>2026-04-26T08:50:19.923Z</time></trkpt><trkpt lat="40.405085116764134" lon="16.53989498352426"><ele>106.0</ele><time>2026-04-26T08:50:20.923Z</time></trkpt><trkpt lat="40.40494574062286" lon="16.54001101496109"><ele>106.0</ele><time>2026-04-26T08:50:21.923Z</time></trkpt><trkpt lat="40.40480562456825" lon="16.540116353123477"><ele>106.0</ele><time>2026-04-26T08:50:22.923Z</time></trkpt><trkpt lat="40.40465710922521" lon="16.540219416446437"><ele>106.0</ele><time>2026-04-26T08:50:23.923Z</time></trkpt><trkpt lat="40.404523901765785" lon="16.540300624225857"><ele>105.5</ele><time>2026-04-26T08:50:24.923Z</time></trkpt><trkpt lat="40.40440040722032" lon="16.540352061402892"><ele>105.0</ele><time>2026-04-26T08:50:25.923Z</time></trkpt><trkpt lat="40.40428207856697" lon="16.5403696643749"><ele>104.5</ele><time>2026-04-26T08:50:26.923Z</time></trkpt><trkpt lat="40.40417328086993" lon="16.5403279993688"><ele>104.0</ele><time>2026-04-26T08:50:27.923Z</time></trkpt><trkpt lat="40.40406789463591" lon="16.54024965115703"><ele>104.0</ele><time>2026-04-26T08:50:28.923Z</time></trkpt><trkpt lat="40.403995830743334" lon="16.54010093233145"><ele>104.0</ele><time>2026-04-26T08:50:29.923Z</time></trkpt><trkpt lat="40.40393136410452" lon="16.539949171497664"><ele>104.0</ele><time>2026-04-26T08:50:30.923Z</time></trkpt><trkpt lat="40.40386899034004" lon="16.539792486716074"><ele>104.0</ele><time>2026-04-26T08:50:31.923Z</time></trkpt><trkpt lat="40.40389978524336" lon="16.539586445530382"><ele>104.0</ele><time>2026-04-26T08:50:32.923Z</time></trkpt><trkpt lat="40.4038770034622" lon="16.53938528019402"><ele>104.0</ele><time>2026-04-26T08:50:33.923Z</time></trkpt><trkpt lat="40.40383596483203" lon="16.539190144824076"><ele>104.0</ele><time>2026-04-26T08:50:34.923Z</time></trkpt><trkpt lat="40.40379463590998" lon="16.53898263348032"><ele>105.33333333333333</ele><time>2026-04-26T08:50:35.923Z</time></trkpt><trkpt lat="40.403734247846636" lon="16.53877385082987"><ele>106.66666666666666</ele><time>2026-04-26T08:50:36.923Z</time></trkpt><trkpt lat="40.40367478068489" lon="16.53856539692495"><ele>108.0</ele><time>2026-04-26T08:50:37.923Z</time></trkpt><trkpt lat="40.40360086155651" lon="16.53835916073428"><ele>108.0</ele><time>2026-04-26T08:50:38.923Z</time></trkpt><trkpt lat="40.40353402562314" lon="16.53816648921242"><ele>108.0</ele><time>2026-04-26T08:50:39.923Z</time></trkpt><trkpt lat="40.403465596570605" lon="16.53797763197163"><ele>108.0</ele><time>2026-04-26T08:50:40.923Z</time></trkpt><trkpt lat="40.40339721300816" lon="16.537778092312415"><ele>105.0</ele><time>2026-04-26T08:50:41.923Z</time></trkpt><trkpt lat="40.40334332365356" lon="16.537579224596282"><ele>102.0</ele><time>2026-04-26T08:50:42.923Z</time></trkpt><trkpt lat="40.403314990922915" lon="16.53735581428981"><ele>99.0</ele><time>2026-04-26T08:50:43.923Z</time></trkpt><trkpt lat="40.40330407557936" lon="16.537136914313923"><ele>98.66666666666666</ele><time>2026-04-26T08:50:44.923Z</time></trkpt><trkpt lat="40.403292214932854" lon="16.536913164706416"><ele>98.33333333333333</ele><time>2026-04-26T08:50:45.923Z</time></trkpt><trkpt lat="40.403276744104794" lon="16.536702825408376"><ele>98.0</ele><time>2026-04-26T08:50:46.923Z</time></trkpt><trkpt lat="40.40325983500694" lon="16.536474710022137"><ele>98.0</ele><time>2026-04-26T08:50:47.923Z</time></trkpt><trkpt lat="40.40323897191453" lon="16.536252163817018"><ele>98.0</ele><time>2026-04-26T08:50:48.923Z</time></trkpt><trkpt lat="40.40321728101399" lon="16.536040639196006"><ele>98.0</ele><time>2026-04-26T08:50:49.922Z</time></trkpt><trkpt lat="40.40319436596179" lon="16.535833868254045"><ele>97.0</ele><time>2026-04-26T08:50:50.922Z</time></trkpt><trkpt lat="40.40316476279243" lon="16.535613064786634"><ele>96.0</ele><time>2026-04-26T08:50:51.922Z</time></trkpt><trkpt lat="40.40313019956603" lon="16.535399960902375"><ele>95.0</ele><time>2026-04-26T08:50:52.922Z</time></trkpt><trkpt lat="40.40306852568255" lon="16.535200867713197"><ele>94.33333333333334</ele><time>2026-04-26T08:50:53.922Z</time></trkpt><trkpt lat="40.402989600003735" lon="16.535017275471514"><ele>93.66666666666667</ele><time>2026-04-26T08:50:54.922Z</time></trkpt><trkpt lat="40.40289662133917" lon="16.534831800053944"><ele>93.0</ele><time>2026-04-26T08:50:55.922Z</time></trkpt><trkpt lat="40.40278962458469" lon="16.534668433539167"><ele>93.33333333333333</ele><time>2026-04-26T08:50:56.922Z</time></trkpt><trkpt lat="40.402673621082954" lon="16.534494405416265"><ele>93.66666666666666</ele><time>2026-04-26T08:50:57.922Z</time></trkpt><trkpt lat="40.40256291729655" lon="16.5343183307859"><ele>94.0</ele><time>2026-04-26T08:50:58.922Z</time></trkpt><trkpt lat="40.40245027204082" lon="16.53414177470997"><ele>94.0</ele><time>2026-04-26T08:50:59.922Z</time></trkpt><trkpt lat="40.40234370596405" lon="16.5339676166504"><ele>94.0</ele><time>2026-04-26T08:51:00.922Z</time></trkpt><trkpt lat="40.40223030766787" lon="16.533781901447693"><ele>94.0</ele><time>2026-04-26T08:51:01.922Z</time></trkpt><trkpt lat="40.40211876674429" lon="16.533608895708618"><ele>92.66666666666666</ele><time>2026-04-26T08:51:02.922Z</time></trkpt><trkpt lat="40.40201369643196" lon="16.53342225778498"><ele>91.33333333333333</ele><time>2026-04-26T08:51:03.922Z</time></trkpt><trkpt lat="40.40190467673894" lon="16.53324161530063"><ele>90.0</ele><time>2026-04-26T08:51:04.922Z</time></trkpt><trkpt lat="40.40180192540508" lon="16.53306865584386"><ele>91.66666666666667</ele><time>2026-04-26T08:51:05.922Z</time></trkpt><trkpt lat="40.401687457332066" lon="16.53288732637994"><ele>93.33333333333334</ele><time>2026-04-26T08:51:06.922Z</time></trkpt><trkpt lat="40.401560880821656" lon="16.532730716747405"><ele>95.0</ele><time>2026-04-26T08:51:07.922Z</time></trkpt><trkpt lat="40.40144473686794" lon="16.53257025978825"><ele>94.5</ele><time>2026-04-26T08:51:08.922Z</time></trkpt><trkpt lat="40.40132779439033" lon="16.53246485277"><ele>94.0</ele><time>2026-04-26T08:51:09.922Z</time></trkpt><trkpt lat="40.401201716864406" lon="16.532377492196183"><ele>93.5</ele><time>2026-04-26T08:51:10.922Z</time></trkpt><trkpt lat="40.40108056597906" lon="16.532298847194532"><ele>93.0</ele><time>2026-04-26T08:51:11.922Z</time></trkpt><trkpt lat="40.40097279619488" lon="16.53221991102949"><ele>93.0</ele><time>2026-04-26T08:51:12.922Z</time></trkpt><trkpt lat="40.400874329846715" lon="16.53214332545914"><ele>93.0</ele><time>2026-04-26T08:51:13.922Z</time></trkpt><trkpt lat="40.40079014484759" lon="16.532070478151407"><ele>93.0</ele><time>2026-04-26T08:51:14.922Z</time></trkpt><trkpt lat="40.40071654433788" lon="16.532017174188006"><ele>93.0</ele><time>2026-04-26T08:51:15.922Z</time></trkpt><trkpt lat="40.40068054983911" lon="16.531900489333093"><ele>93.0</ele><time>2026-04-26T08:51:17.922Z</time></trkpt><trkpt lat="40.40075709783171" lon="16.5318553145898"><ele>93.0</ele><time>2026-04-26T08:51:19.922Z</time></trkpt><trkpt lat="40.40084193999831" lon="16.53187708643791"><ele>93.0</ele><time>2026-04-26T08:51:21.922Z</time></trkpt><trkpt lat="40.400958373228626" lon="16.531990160811525"><ele>93.0</ele><time>2026-04-26T08:51:23.922Z</time></trkpt><trkpt lat="40.401026602322936" lon="16.532058174808675"><ele>93.0</ele><time>2026-04-26T08:51:24.922Z</time></trkpt><trkpt lat="40.40111588555295" lon="16.532139322795278"><ele>93.0</ele><time>2026-04-26T08:51:25.922Z</time></trkpt><trkpt lat="40.401205711565204" lon="16.532227726285093"><ele>93.0</ele><time>2026-04-26T08:51:26.922Z</time></trkpt><trkpt lat="40.401297078380765" lon="16.532308423282945"><ele>93.0</ele><time>2026-04-26T08:51:27.922Z</time></trkpt><trkpt lat="40.40138862497426" lon="16.532375873838397"><ele>93.0</ele><time>2026-04-26T08:51:28.922Z</time></trkpt><trkpt lat="40.40147426136954" lon="16.53243509775406"><ele>93.0</ele><time>2026-04-26T08:51:29.922Z</time></trkpt><trkpt lat="40.40156045522094" lon="16.532483601143543"><ele>93.0</ele><time>2026-04-26T08:51:30.922Z</time></trkpt><trkpt lat="40.40164067759034" lon="16.532499495124952"><ele>93.4</ele><time>2026-04-26T08:51:31.922Z</time></trkpt><trkpt lat="40.401715967787524" lon="16.532513897598548"><ele>93.80000000000001</ele><time>2026-04-26T08:51:32.922Z</time></trkpt><trkpt lat="40.40178836914307" lon="16.53245345109148"><ele>94.2</ele><time>2026-04-26T08:51:33.922Z</time></trkpt><trkpt lat="40.40182503962185" lon="16.532345068985514"><ele>94.6</ele><time>2026-04-26T08:51:34.922Z</time></trkpt><trkpt lat="40.4018135600512" lon="16.53220620557622"><ele>95.0</ele><time>2026-04-26T08:51:35.922Z</time></trkpt><trkpt lat="40.40181780919507" lon="16.53208577299237"><ele>95.5</ele><time>2026-04-26T08:51:36.922Z</time></trkpt><trkpt lat="40.40182669958019" lon="16.531940662260418"><ele>96.0</ele><time>2026-04-26T08:51:37.922Z</time></trkpt><trkpt lat="40.40184081819853" lon="16.53179432390313"><ele>96.5</ele><time>2026-04-26T08:51:38.922Z</time></trkpt><trkpt lat="40.40186785633232" lon="16.531647227040676"><ele>97.0</ele><time>2026-04-26T08:51:39.922Z</time></trkpt><trkpt lat="40.40191139182552" lon="16.531492423109853"><ele>97.0</ele><time>2026-04-26T08:51:40.922Z</time></trkpt><trkpt lat="40.40196076606547" lon="16.53133597008861"><ele>97.0</ele><time>2026-04-26T08:51:41.922Z</time></trkpt><trkpt lat="40.40201026089403" lon="16.531182235618722"><ele>97.0</ele><time>2026-04-26T08:51:42.922Z</time></trkpt><trkpt lat="40.40207434539118" lon="16.531019888536353"><ele>97.0</ele><time>2026-04-26T08:51:43.921Z</time></trkpt><trkpt lat="40.40214757675475" lon="16.53086110135385"><ele>97.0</ele><time>2026-04-26T08:51:44.921Z</time></trkpt><trkpt lat="40.40222171128517" lon="16.530699676972283"><ele>97.0</ele><time>2026-04-26T08:51:45.921Z</time></trkpt><trkpt lat="40.402261135765684" lon="16.53053493476185"><ele>97.0</ele><time>2026-04-26T08:51:46.921Z</time></trkpt><trkpt lat="40.40228815021269" lon="16.530397470547864"><ele>97.0</ele><time>2026-04-26T08:51:47.921Z</time></trkpt><trkpt lat="40.402294942528805" lon="16.53023909144404"><ele>97.0</ele><time>2026-04-26T08:51:48.921Z</time></trkpt><trkpt lat="40.40230935860019" lon="16.53007809041073"><ele>97.0</ele><time>2026-04-26T08:51:49.921Z</time></trkpt><trkpt lat="40.402294130251" lon="16.529928075266927"><ele>97.0</ele><time>2026-04-26T08:51:50.921Z</time></trkpt><trkpt lat="40.40224923835079" lon="16.52977335591134"><ele>97.0</ele><time>2026-04-26T08:51:51.921Z</time></trkpt><trkpt lat="40.40218158601274" lon="16.52962521502027"><ele>96.25</ele><time>2026-04-26T08:51:52.921Z</time></trkpt><trkpt lat="40.40208510120791" lon="16.529497509099663"><ele>95.5</ele><time>2026-04-26T08:51:53.921Z</time></trkpt><trkpt lat="40.40196905161433" lon="16.529396599157835"><ele>94.75</ele><time>2026-04-26T08:51:54.921Z</time></trkpt><trkpt lat="40.40185100898313" lon="16.529271823038446"><ele>94.0</ele><time>2026-04-26T08:51:55.921Z</time></trkpt><trkpt lat="40.40172212594499" lon="16.529166171097383"><ele>94.0</ele><time>2026-04-26T08:51:56.921Z</time></trkpt><trkpt lat="40.40161092829083" lon="16.52905738616228"><ele>94.0</ele><time>2026-04-26T08:51:57.921Z</time></trkpt><trkpt lat="40.40151363227742" lon="16.528928876212788"><ele>94.0</ele><time>2026-04-26T08:51:58.921Z</time></trkpt><trkpt lat="40.40143033819647" lon="16.528769014174852"><ele>94.0</ele><time>2026-04-26T08:51:59.921Z</time></trkpt><trkpt lat="40.40133581792185" lon="16.528617807799446"><ele>94.75</ele><time>2026-04-26T08:52:00.921Z</time></trkpt><trkpt lat="40.401234290241874" lon="16.528454204012807"><ele>95.5</ele><time>2026-04-26T08:52:01.921Z</time></trkpt><trkpt lat="40.40112884608654" lon="16.528320198887638"><ele>96.25</ele><time>2026-04-26T08:52:02.921Z</time></trkpt><trkpt lat="40.40104929892732" lon="16.528201780437968"><ele>97.0</ele><time>2026-04-26T08:52:03.921Z</time></trkpt><trkpt lat="40.40097334691661" lon="16.52809317950652"><ele>97.0</ele><time>2026-04-26T08:52:04.921Z</time></trkpt><trkpt lat="40.40090730945774" lon="16.52801342460263"><ele>97.0</ele><time>2026-04-26T08:52:05.921Z</time></trkpt><trkpt lat="40.400816141637875" lon="16.527979098574395"><ele>97.0</ele><time>2026-04-26T08:52:06.921Z</time></trkpt><trkpt lat="40.40071257984224" lon="16.528036564767888"><ele>97.0</ele><time>2026-04-26T08:52:07.921Z</time></trkpt><trkpt lat="40.40060272060787" lon="16.5281120723478"><ele>97.0</ele><time>2026-04-26T08:52:08.921Z</time></trkpt><trkpt lat="40.40047354907403" lon="16.528180624641124"><ele>96.25</ele><time>2026-04-26T08:52:09.921Z</time></trkpt><trkpt lat="40.40033784831339" lon="16.528244648458628"><ele>95.5</ele><time>2026-04-26T08:52:10.921Z</time></trkpt><trkpt lat="40.4002124974168" lon="16.528253178167926"><ele>94.75</ele><time>2026-04-26T08:52:11.921Z</time></trkpt><trkpt lat="40.40009006912033" lon="16.528225054939288"><ele>94.0</ele><time>2026-04-26T08:52:12.921Z</time></trkpt><trkpt lat="40.39996391505999" lon="16.52817619391956"><ele>94.0</ele><time>2026-04-26T08:52:13.921Z</time></trkpt><trkpt lat="40.39986593810533" lon="16.52806683413757"><ele>94.0</ele><time>2026-04-26T08:52:14.921Z</time></trkpt><trkpt lat="40.399761707452164" lon="16.527957512219274"><ele>94.0</ele><time>2026-04-26T08:52:15.921Z</time></trkpt><trkpt lat="40.399664597746195" lon="16.52783340316301"><ele>94.0</ele><time>2026-04-26T08:52:16.921Z</time></trkpt><trkpt lat="40.39959736754695" lon="16.527710343915015"><ele>94.75</ele><time>2026-04-26T08:52:17.921Z</time></trkpt><trkpt lat="40.39954773326195" lon="16.527566814525766"><ele>95.5</ele><time>2026-04-26T08:52:18.921Z</time></trkpt><trkpt lat="40.39949893067612" lon="16.527383896710035"><ele>96.25</ele><time>2026-04-26T08:52:19.921Z</time></trkpt><trkpt lat="40.39945247351027" lon="16.527191749338282"><ele>97.0</ele><time>2026-04-26T08:52:20.921Z</time></trkpt><trkpt lat="40.39941082948151" lon="16.526997356157324"><ele>98.5</ele><time>2026-04-26T08:52:21.92Z</time></trkpt><trkpt lat="40.39938993976547" lon="16.526827049570947"><ele>100.0</ele><time>2026-04-26T08:52:22.92Z</time></trkpt><trkpt lat="40.39939668889618" lon="16.526682697284038"><ele>101.5</ele><time>2026-04-26T08:52:23.92Z</time></trkpt><trkpt lat="40.399427430890476" lon="16.52655406071642"><ele>103.0</ele><time>2026-04-26T08:52:24.92Z</time></trkpt><trkpt lat="40.39947877310875" lon="16.526408961790207"><ele>103.0</ele><time>2026-04-26T08:52:25.92Z</time></trkpt><trkpt lat="40.39952673298054" lon="16.526279082788808"><ele>103.0</ele><time>2026-04-26T08:52:26.92Z</time></trkpt><trkpt lat="40.39953975027521" lon="16.52614259099554"><ele>103.0</ele><time>2026-04-26T08:52:27.92Z</time></trkpt><trkpt lat="40.399500000693855" lon="16.525992464127985"><ele>103.0</ele><time>2026-04-26T08:52:28.92Z</time></trkpt><trkpt lat="40.39948335010681" lon="16.52584160629601"><ele>102.25</ele><time>2026-04-26T08:52:29.92Z</time></trkpt><trkpt lat="40.399473554825036" lon="16.525703493169548"><ele>101.5</ele><time>2026-04-26T08:52:30.92Z</time></trkpt><trkpt lat="40.399483241735766" lon="16.525554022258024"><ele>100.75</ele><time>2026-04-26T08:52:31.92Z</time></trkpt><trkpt lat="40.39952904830748" lon="16.52540147602355"><ele>100.0</ele><time>2026-04-26T08:52:32.92Z</time></trkpt><trkpt lat="40.399585270737234" lon="16.5252307345933"><ele>100.25</ele><time>2026-04-26T08:52:33.92Z</time></trkpt><trkpt lat="40.39964459844866" lon="16.525057085485695"><ele>100.5</ele><time>2026-04-26T08:52:34.92Z</time></trkpt><trkpt lat="40.39970968461843" lon="16.524871432637784"><ele>100.75</ele><time>2026-04-26T08:52:35.92Z</time></trkpt><trkpt lat="40.399767247030645" lon="16.524694514808463"><ele>101.0</ele><time>2026-04-26T08:52:36.92Z</time></trkpt><trkpt lat="40.399836500271014" lon="16.524544676558268"><ele>100.0</ele><time>2026-04-26T08:52:37.92Z</time></trkpt><trkpt lat="40.39993454871882" lon="16.524425929073896"><ele>99.0</ele><time>2026-04-26T08:52:38.92Z</time></trkpt><trkpt lat="40.40003457568617" lon="16.524279691374236"><ele>98.0</ele><time>2026-04-26T08:52:39.92Z</time></trkpt><trkpt lat="40.40014141099597" lon="16.524155966890582"><ele>97.0</ele><time>2026-04-26T08:52:40.92Z</time></trkpt><trkpt lat="40.40024712422848" lon="16.524010928546097"><ele>97.0</ele><time>2026-04-26T08:52:41.92Z</time></trkpt><trkpt lat="40.40033794901799" lon="16.523862899399806"><ele>97.0</ele><time>2026-04-26T08:52:42.92Z</time></trkpt><trkpt lat="40.40040482794377" lon="16.523720032731955"><ele>97.0</ele><time>2026-04-26T08:52:43.92Z</time></trkpt><trkpt lat="40.40045959996349" lon="16.52358417148269"><ele>97.0</ele><time>2026-04-26T08:52:44.92Z</time></trkpt><trkpt lat="40.40051141282876" lon="16.523459572363247"><ele>97.25</ele><time>2026-04-26T08:52:45.92Z</time></trkpt><trkpt lat="40.40055797770275" lon="16.523340712899206"><ele>97.5</ele><time>2026-04-26T08:52:46.92Z</time></trkpt><trkpt lat="40.400595044347334" lon="16.523213987682833"><ele>97.75</ele><time>2026-04-26T08:52:47.92Z</time></trkpt><trkpt lat="40.40060995073826" lon="16.52304909207605"><ele>98.0</ele><time>2026-04-26T08:52:48.92Z</time></trkpt><trkpt lat="40.40063286005312" lon="16.522861644845758"><ele>97.0</ele><time>2026-04-26T08:52:49.92Z</time></trkpt><trkpt lat="40.40061849197028" lon="16.522680217685263"><ele>96.0</ele><time>2026-04-26T08:52:50.92Z</time></trkpt><trkpt lat="40.40057655464931" lon="16.522512178908872"><ele>95.0</ele><time>2026-04-26T08:52:51.92Z</time></trkpt><trkpt lat="40.40054969863819" lon="16.522345597458784"><ele>94.0</ele><time>2026-04-26T08:52:52.92Z</time></trkpt><trkpt lat="40.40050047293461" lon="16.522176633483596"><ele>93.33333333333333</ele><time>2026-04-26T08:52:53.92Z</time></trkpt><trkpt lat="40.40044089954983" lon="16.522004522212153"><ele>92.66666666666667</ele><time>2026-04-26T08:52:54.92Z</time></trkpt><trkpt lat="40.40039762469472" lon="16.521804790869922"><ele>92.0</ele><time>2026-04-26T08:52:55.92Z</time></trkpt><trkpt lat="40.40034270471477" lon="16.52161646953514"><ele>92.0</ele><time>2026-04-26T08:52:56.92Z</time></trkpt><trkpt lat="40.400286348876385" lon="16.521426631001503"><ele>92.0</ele><time>2026-04-26T08:52:57.92Z</time></trkpt><trkpt lat="40.40023658544656" lon="16.52126591837821"><ele>92.0</ele><time>2026-04-26T08:52:58.92Z</time></trkpt><trkpt lat="40.40020280711458" lon="16.521115735645648"><ele>92.0</ele><time>2026-04-26T08:52:59.92Z</time></trkpt><trkpt lat="40.40018961942117" lon="16.520966415395932"><ele>92.0</ele><time>2026-04-26T08:53:00.92Z</time></trkpt><trkpt lat="40.400218386858015" lon="16.520843984671522"><ele>92.0</ele><time>2026-04-26T08:53:01.92Z</time></trkpt><trkpt lat="40.4002765703162" lon="16.520739180496584"><ele>92.0</ele><time>2026-04-26T08:53:02.92Z</time></trkpt><trkpt lat="40.40034220053531" lon="16.520621487082977"><ele>92.0</ele><time>2026-04-26T08:53:03.92Z</time></trkpt><trkpt lat="40.40043923481253" lon="16.520500991550783"><ele>92.0</ele><time>2026-04-26T08:53:04.92Z</time></trkpt><trkpt lat="40.40053384035861" lon="16.520370623915433"><ele>94.66666666666667</ele><time>2026-04-26T08:53:05.92Z</time></trkpt><trkpt lat="40.400627211025046" lon="16.520208654716704"><ele>97.33333333333334</ele><time>2026-04-26T08:53:06.92Z</time></trkpt><trkpt lat="40.40073952564634" lon="16.520054063471452"><ele>100.0</ele><time>2026-04-26T08:53:07.92Z</time></trkpt><trkpt lat="40.40085439706251" lon="16.519905803492353"><ele>100.0</ele><time>2026-04-26T08:53:08.92Z</time></trkpt><trkpt lat="40.40094373233992" lon="16.519776261106767"><ele>100.0</ele><time>2026-04-26T08:53:09.92Z</time></trkpt><trkpt lat="40.40102269379043" lon="16.519691307981486"><ele>100.0</ele><time>2026-04-26T08:53:10.92Z</time></trkpt><trkpt lat="40.40111743374077" lon="16.51963563501567"><ele>100.0</ele><time>2026-04-26T08:53:11.92Z</time></trkpt><trkpt lat="40.40122718896073" lon="16.5196186791478"><ele>100.0</ele><time>2026-04-26T08:53:12.92Z</time></trkpt><trkpt lat="40.401356202303084" lon="16.519604351938902"><ele>98.66666666666667</ele><time>2026-04-26T08:53:13.92Z</time></trkpt><trkpt lat="40.40151717414861" lon="16.51958645841204"><ele>97.33333333333334</ele><time>2026-04-26T08:53:14.92Z</time></trkpt><trkpt lat="40.401683254509194" lon="16.519548564891814"><ele>96.0</ele><time>2026-04-26T08:53:15.92Z</time></trkpt><trkpt lat="40.4018408440738" lon="16.519497870970028"><ele>96.0</ele><time>2026-04-26T08:53:16.919Z</time></trkpt><trkpt lat="40.40196730320958" lon="16.519438943730357"><ele>96.0</ele><time>2026-04-26T08:53:17.919Z</time></trkpt><trkpt lat="40.40207653396755" lon="16.51937555374097"><ele>96.0</ele><time>2026-04-26T08:53:18.919Z</time></trkpt><trkpt lat="40.402183660765346" lon="16.51930222760782"><ele>96.0</ele><time>2026-04-26T08:53:19.919Z</time></trkpt><trkpt lat="40.40229884162397" lon="16.519232375436648"><ele>96.75</ele><time>2026-04-26T08:53:20.919Z</time></trkpt><trkpt lat="40.40241067266132" lon="16.519126861261455"><ele>97.5</ele><time>2026-04-26T08:53:21.919Z</time></trkpt><trkpt lat="40.402526553613285" lon="16.519021607030556"><ele>98.25</ele><time>2026-04-26T08:53:22.919Z</time></trkpt><trkpt lat="40.402645513306275" lon="16.51894172617913"><ele>99.0</ele><time>2026-04-26T08:53:23.919Z</time></trkpt><trkpt lat="40.40277602001854" lon="16.51887456204606"><ele>99.0</ele><time>2026-04-26T08:53:24.919Z</time></trkpt><trkpt lat="40.40289090454158" lon="16.51880740191268"><ele>99.0</ele><time>2026-04-26T08:53:25.919Z</time></trkpt><trkpt lat="40.402986003645644" lon="16.518758716478107"><ele>99.0</ele><time>2026-04-26T08:53:26.919Z</time></trkpt><trkpt lat="40.40307555240844" lon="16.51870782830293"><ele>99.0</ele><time>2026-04-26T08:53:27.919Z</time></trkpt><trkpt lat="40.40316796667603" lon="16.518667093196505"><ele>99.0</ele><time>2026-04-26T08:53:28.919Z</time></trkpt><trkpt lat="40.403256706003845" lon="16.518651663290793"><ele>99.33333333333333</ele><time>2026-04-26T08:53:29.919Z</time></trkpt><trkpt lat="40.40333414540444" lon="16.518670515502418"><ele>99.66666666666666</ele><time>2026-04-26T08:53:30.919Z</time></trkpt><trkpt lat="40.40341440252957" lon="16.518727479962575"><ele>100.0</ele><time>2026-04-26T08:53:31.919Z</time></trkpt><trkpt lat="40.40348746157485" lon="16.518805849023142"><ele>100.33333333333333</ele><time>2026-04-26T08:53:32.919Z</time></trkpt><trkpt lat="40.40353594913371" lon="16.518880761365573"><ele>100.66666666666666</ele><time>2026-04-26T08:53:33.919Z</time></trkpt><trkpt lat="40.40358416696652" lon="16.51894543147649"><ele>101.0</ele><time>2026-04-26T08:53:34.919Z</time></trkpt><trkpt lat="40.40363004633388" lon="16.51901237246642"><ele>100.99999999999999</ele><time>2026-04-26T08:53:35.919Z</time></trkpt><trkpt lat="40.40366371130032" lon="16.519110238487176"><ele>101.0</ele><time>2026-04-26T08:53:36.919Z</time></trkpt><trkpt lat="40.40364581288693" lon="16.51922962588403"><ele>101.0</ele><time>2026-04-26T08:53:37.919Z</time></trkpt><trkpt lat="40.40363534786558" lon="16.51934345960156"><ele>101.0</ele><time>2026-04-26T08:53:38.919Z</time></trkpt><trkpt lat="40.403621555757915" lon="16.519465832030303"><ele>100.99999999999999</ele><time>2026-04-26T08:53:39.919Z</time></trkpt><trkpt lat="40.403620703040424" lon="16.519582326340352"><ele>101.0</ele><time>2026-04-26T08:53:40.919Z</time></trkpt><trkpt lat="40.40360156232455" lon="16.519700948034306"><ele>101.83333333333333</ele><time>2026-04-26T08:53:41.919Z</time></trkpt><trkpt lat="40.4035822100436" lon="16.519820378941407"><ele>102.66666666666666</ele><time>2026-04-26T08:53:42.919Z</time></trkpt><trkpt lat="40.40356096065166" lon="16.51992355916279"><ele>103.5</ele><time>2026-04-26T08:53:43.919Z</time></trkpt><trkpt lat="40.40354324399347" lon="16.520029365901912"><ele>104.33333333333334</ele><time>2026-04-26T08:53:44.919Z</time></trkpt><trkpt lat="40.40352511748218" lon="16.520119499639243"><ele>105.16666666666667</ele><time>2026-04-26T08:53:45.919Z</time></trkpt><trkpt lat="40.40350242194039" lon="16.520225159966937"><ele>106.0</ele><time>2026-04-26T08:53:46.919Z</time></trkpt><trkpt lat="40.403464903066585" lon="16.520335956042196"><ele>107.4</ele><time>2026-04-26T08:53:47.919Z</time></trkpt><trkpt lat="40.403415643949856" lon="16.520439899690167"><ele>108.8</ele><time>2026-04-26T08:53:48.919Z</time></trkpt><trkpt lat="40.40337029938678" lon="16.520558176312033"><ele>110.20000000000002</ele><time>2026-04-26T08:53:49.919Z</time></trkpt><trkpt lat="40.403330377119524" lon="16.520672969752734"><ele>111.60000000000001</ele><time>2026-04-26T08:53:50.919Z</time></trkpt><trkpt lat="40.403307033542134" lon="16.520808390292025"><ele>113.0</ele><time>2026-04-26T08:53:51.919Z</time></trkpt><trkpt lat="40.40329557639419" lon="16.5209676145054"><ele>113.0</ele><time>2026-04-26T08:53:52.919Z</time></trkpt><trkpt lat="40.40329591210064" lon="16.521130711519532"><ele>113.00000000000001</ele><time>2026-04-26T08:53:53.919Z</time></trkpt><trkpt lat="40.403296760431395" lon="16.52127615954058"><ele>113.00000000000001</ele><time>2026-04-26T08:53:54.919Z</time></trkpt><trkpt lat="40.403318027848805" lon="16.521386363390747"><ele>113.0</ele><time>2026-04-26T08:53:55.919Z</time></trkpt><trkpt lat="40.4033674256973" lon="16.521474573142836"><ele>113.0</ele><time>2026-04-26T08:53:56.919Z</time></trkpt><trkpt lat="40.40343347065907" lon="16.5215471794229"><ele>112.75</ele><time>2026-04-26T08:53:57.919Z</time></trkpt><trkpt lat="40.403529870154" lon="16.521588726379857"><ele>112.5</ele><time>2026-04-26T08:53:58.919Z</time></trkpt><trkpt lat="40.403646740224524" lon="16.521602454325098"><ele>112.25</ele><time>2026-04-26T08:53:59.919Z</time></trkpt><trkpt lat="40.40376553089188" lon="16.52162735990128"><ele>112.0</ele><time>2026-04-26T08:54:00.919Z</time></trkpt><trkpt lat="40.4038532704929" lon="16.52171775095119"><ele>113.6</ele><time>2026-04-26T08:54:01.919Z</time></trkpt><trkpt lat="40.403942795306676" lon="16.52180019324261"><ele>115.19999999999999</ele><time>2026-04-26T08:54:02.919Z</time></trkpt><trkpt lat="40.404011610412184" lon="16.5218631667588"><ele>116.8</ele><time>2026-04-26T08:54:03.919Z</time></trkpt><trkpt lat="40.40409694837644" lon="16.521873532193293"><ele>118.4</ele><time>2026-04-26T08:54:04.919Z</time></trkpt><trkpt lat="40.404188840598145" lon="16.5218525618616"><ele>120.0</ele><time>2026-04-26T08:54:05.919Z</time></trkpt><trkpt lat="40.40426863208783" lon="16.521838610132694"><ele>120.0</ele><time>2026-04-26T08:54:06.919Z</time></trkpt><trkpt lat="40.404333979446456" lon="16.52186449151192"><ele>120.0</ele><time>2026-04-26T08:54:07.919Z</time></trkpt><trkpt lat="40.40435023147024" lon="16.522044458260623"><ele>120.0</ele><time>2026-04-26T08:54:09.919Z</time></trkpt><trkpt lat="40.40436146291262" lon="16.522161334862645"><ele>120.0</ele><time>2026-04-26T08:54:10.919Z</time></trkpt><trkpt lat="40.404375017373745" lon="16.52226439062965"><ele>120.0</ele><time>2026-04-26T08:54:11.919Z</time></trkpt><trkpt lat="40.404426873012355" lon="16.522343388382577"><ele>120.5</ele><time>2026-04-26T08:54:12.919Z</time></trkpt><trkpt lat="40.404508261072195" lon="16.52239334768796"><ele>121.0</ele><time>2026-04-26T08:54:13.919Z</time></trkpt><trkpt lat="40.404593376419875" lon="16.522402617233595"><ele>121.5</ele><time>2026-04-26T08:54:14.919Z</time></trkpt><trkpt lat="40.40465660668457" lon="16.522383178172493"><ele>122.0</ele><time>2026-04-26T08:54:15.919Z</time></trkpt><trkpt lat="40.404714530227544" lon="16.522348640283248"><ele>122.5</ele><time>2026-04-26T08:54:16.919Z</time></trkpt><trkpt lat="40.404756101954966" lon="16.522278806418107"><ele>123.0</ele><time>2026-04-26T08:54:17.919Z</time></trkpt><trkpt lat="40.404748579346446" lon="16.522162173388836"><ele>125.0</ele><time>2026-04-26T08:54:18.919Z</time></trkpt><trkpt lat="40.404746469647975" lon="16.52205158375501"><ele>127.00000000000001</ele><time>2026-04-26T08:54:19.919Z</time></trkpt><trkpt lat="40.40476512448167" lon="16.521929635100193"><ele>129.0</ele><time>2026-04-26T08:54:20.919Z</time></trkpt><trkpt lat="40.40480986562963" lon="16.521826102679356"><ele>131.0</ele><time>2026-04-26T08:54:21.919Z</time></trkpt><trkpt lat="40.4048867709738" lon="16.521742522770836"><ele>133.0</ele><time>2026-04-26T08:54:22.919Z</time></trkpt><trkpt lat="40.40499927411974" lon="16.521699935265712"><ele>133.0</ele><time>2026-04-26T08:54:23.919Z</time></trkpt><trkpt lat="40.40510480564531" lon="16.521617799825073"><ele>133.0</ele><time>2026-04-26T08:54:24.918Z</time></trkpt><trkpt lat="40.4052158888166" lon="16.521532699041337"><ele>133.0</ele><time>2026-04-26T08:54:25.918Z</time></trkpt><trkpt lat="40.40532554863913" lon="16.521440174376693"><ele>133.0</ele><time>2026-04-26T08:54:26.918Z</time></trkpt><trkpt lat="40.40541656519631" lon="16.52138666579786"><ele>133.4</ele><time>2026-04-26T08:54:27.919Z</time></trkpt><trkpt lat="40.40550386196205" lon="16.52136701166668"><ele>133.8</ele><time>2026-04-26T08:54:28.919Z</time></trkpt><trkpt lat="40.40560406005653" lon="16.52139765788221"><ele>134.2</ele><time>2026-04-26T08:54:29.919Z</time></trkpt><trkpt lat="40.40569994223344" lon="16.521447656484703"><ele>134.6</ele><time>2026-04-26T08:54:30.919Z</time></trkpt><trkpt lat="40.40579065230209" lon="16.52154448877536"><ele>135.0</ele><time>2026-04-26T08:54:31.919Z</time></trkpt><trkpt lat="40.405896131025045" lon="16.52162803795044"><ele>135.0</ele><time>2026-04-26T08:54:32.919Z</time></trkpt><trkpt lat="40.405993478997075" lon="16.521759289208912"><ele>135.0</ele><time>2026-04-26T08:54:33.919Z</time></trkpt><trkpt lat="40.4061197186155" lon="16.52187375055654"><ele>135.0</ele><time>2026-04-26T08:54:34.919Z</time></trkpt><trkpt lat="40.406277356322626" lon="16.521960273672605"><ele>137.5</ele><time>2026-04-26T08:54:35.919Z</time></trkpt><trkpt lat="40.40641380627298" lon="16.522077638710993"><ele>140.0</ele><time>2026-04-26T08:54:36.919Z</time></trkpt><trkpt lat="40.4065269399927" lon="16.5221900167284"><ele>142.5</ele><time>2026-04-26T08:54:37.919Z</time></trkpt><trkpt lat="40.406596545170885" lon="16.522278440935402"><ele>145.0</ele><time>2026-04-26T08:54:38.919Z</time></trkpt><trkpt lat="40.406658746025215" lon="16.522321789407627"><ele>145.0</ele><time>2026-04-26T08:54:39.919Z</time></trkpt><trkpt lat="40.406759211230195" lon="16.52231026099042"><ele>145.0</ele><time>2026-04-26T08:54:41.919Z</time></trkpt><trkpt lat="40.40679175246911" lon="16.522164219950444"><ele>145.0</ele><time>2026-04-26T08:54:43.919Z</time></trkpt><trkpt lat="40.406780582711235" lon="16.522051983956988"><ele>145.0</ele><time>2026-04-26T08:54:44.919Z</time></trkpt><trkpt lat="40.40677140518499" lon="16.521936471750205"><ele>145.0</ele><time>2026-04-26T08:54:45.919Z</time></trkpt><trkpt lat="40.40677008737824" lon="16.521809558801984"><ele>145.0</ele><time>2026-04-26T08:54:46.919Z</time></trkpt><trkpt lat="40.40682811412515" lon="16.52172417390368"><ele>145.0</ele><time>2026-04-26T08:54:47.919Z</time></trkpt><trkpt lat="40.40689303834736" lon="16.521614741882747"><ele>145.0</ele><time>2026-04-26T08:54:48.919Z</time></trkpt><trkpt lat="40.406977196063266" lon="16.521497219534997"><ele>145.0</ele><time>2026-04-26T08:54:49.919Z</time></trkpt><trkpt lat="40.40706070840319" lon="16.52136353016085"><ele>145.0</ele><time>2026-04-26T08:54:50.919Z</time></trkpt><trkpt lat="40.40718293698974" lon="16.521266023517274"><ele>145.75</ele><time>2026-04-26T08:54:51.919Z</time></trkpt><trkpt lat="40.407301796182935" lon="16.52116547164474"><ele>146.5</ele><time>2026-04-26T08:54:52.919Z</time></trkpt><trkpt lat="40.40742073547196" lon="16.521071177874532"><ele>147.25</ele><time>2026-04-26T08:54:53.919Z</time></trkpt><trkpt lat="40.407521996308866" lon="16.520986639814687"><ele>148.0</ele><time>2026-04-26T08:54:54.919Z</time></trkpt><trkpt lat="40.40760753260662" lon="16.520878319494944"><ele>148.0</ele><time>2026-04-26T08:54:55.919Z</time></trkpt><trkpt lat="40.407719580450966" lon="16.520764046712586"><ele>148.0</ele><time>2026-04-26T08:54:56.919Z</time></trkpt><trkpt lat="40.40782814561877" lon="16.52062802921705"><ele>148.0</ele><time>2026-04-26T08:54:57.919Z</time></trkpt><trkpt lat="40.407928727864494" lon="16.520512334360216"><ele>148.0</ele><time>2026-04-26T08:54:58.919Z</time></trkpt><trkpt lat="40.408022851612586" lon="16.520413257649462"><ele>148.4</ele><time>2026-04-26T08:54:59.919Z</time></trkpt><trkpt lat="40.40811418437638" lon="16.5203348428315"><ele>148.8</ele><time>2026-04-26T08:55:00.919Z</time></trkpt><trkpt lat="40.4081951318783" lon="16.520267791480826"><ele>149.2</ele><time>2026-04-26T08:55:01.919Z</time></trkpt><trkpt lat="40.40826814978849" lon="16.520191965194034"><ele>149.6</ele><time>2026-04-26T08:55:02.919Z</time></trkpt><trkpt lat="40.408315973028685" lon="16.520106199278203"><ele>150.0</ele><time>2026-04-26T08:55:03.919Z</time></trkpt><trkpt lat="40.40835369240096" lon="16.51996411009054"><ele>150.0</ele><time>2026-04-26T08:55:04.919Z</time></trkpt><trkpt lat="40.40839017696428" lon="16.519796696905665"><ele>150.0</ele><time>2026-04-26T08:55:05.919Z</time></trkpt><trkpt lat="40.40843611364824" lon="16.51962288570686"><ele>150.0</ele><time>2026-04-26T08:55:06.919Z</time></trkpt><trkpt lat="40.408493793330045" lon="16.519451040927994"><ele>150.0</ele><time>2026-04-26T08:55:07.919Z</time></trkpt><trkpt lat="40.40855236410207" lon="16.519288834055455"><ele>149.4</ele><time>2026-04-26T08:55:08.919Z</time></trkpt><trkpt lat="40.40860574389856" lon="16.519158849384947"><ele>148.8</ele><time>2026-04-26T08:55:09.919Z</time></trkpt><trkpt lat="40.40866115153213" lon="16.51904767739461"><ele>148.2</ele><time>2026-04-26T08:55:10.919Z</time></trkpt><trkpt lat="40.408744279504994" lon="16.518946875587865"><ele>147.6</ele><time>2026-04-26T08:55:11.919Z</time></trkpt><trkpt lat="40.408812577496214" lon="16.518849045633633"><ele>147.0</ele><time>2026-04-26T08:55:12.919Z</time></trkpt><trkpt lat="40.40887830023749" lon="16.51876304634126"><ele>147.33333333333334</ele><time>2026-04-26T08:55:13.918Z</time></trkpt><trkpt lat="40.40895018095955" lon="16.518611675308577"><ele>147.66666666666669</ele><time>2026-04-26T08:55:14.918Z</time></trkpt><trkpt lat="40.40888154962419" lon="16.518401069546634"><ele>148.0</ele><time>2026-04-26T08:55:15.918Z</time></trkpt><trkpt lat="40.40889387312722" lon="16.518207682043162"><ele>148.0</ele><time>2026-04-26T08:55:16.918Z</time></trkpt><trkpt lat="40.40892834644706" lon="16.51802396952943"><ele>148.0</ele><time>2026-04-26T08:55:17.918Z</time></trkpt><trkpt lat="40.40895985668563" lon="16.517867552563736"><ele>148.0</ele><time>2026-04-26T08:55:18.918Z</time></trkpt><trkpt lat="40.409036714579074" lon="16.517763215118787"><ele>148.0</ele><time>2026-04-26T08:55:19.918Z</time></trkpt><trkpt lat="40.40910205240317" lon="16.51767900153483"><ele>148.5</ele><time>2026-04-26T08:55:20.918Z</time></trkpt><trkpt lat="40.409182792213976" lon="16.51761731126559"><ele>149.0</ele><time>2026-04-26T08:55:21.918Z</time></trkpt><trkpt lat="40.40923222359171" lon="16.517515292430588"><ele>149.5</ele><time>2026-04-26T08:55:22.918Z</time></trkpt><trkpt lat="40.4092433555639" lon="16.51742194424131"><ele>150.0</ele><time>2026-04-26T08:55:23.918Z</time></trkpt><trkpt lat="40.40920906533121" lon="16.51731657904567"><ele>150.5</ele><time>2026-04-26T08:55:24.918Z</time></trkpt><trkpt lat="40.409180532839365" lon="16.517208028668882"><ele>151.0</ele><time>2026-04-26T08:55:25.918Z</time></trkpt><trkpt lat="40.40915345123575" lon="16.517072045603772"><ele>152.2</ele><time>2026-04-26T08:55:26.918Z</time></trkpt><trkpt lat="40.40914306323876" lon="16.516923571148897"><ele>153.39999999999998</ele><time>2026-04-26T08:55:27.918Z</time></trkpt><trkpt lat="40.40913375402352" lon="16.516768254839665"><ele>154.6</ele><time>2026-04-26T08:55:28.918Z</time></trkpt><trkpt lat="40.40912539307478" lon="16.51661337584233"><ele>155.79999999999998</ele><time>2026-04-26T08:55:29.918Z</time></trkpt><trkpt lat="40.40911867791007" lon="16.516488983493886"><ele>157.0</ele><time>2026-04-26T08:55:30.918Z</time></trkpt><trkpt lat="40.40916415419048" lon="16.516417110254743"><ele>157.0</ele><time>2026-04-26T08:55:31.918Z</time></trkpt><trkpt lat="40.40916954868331" lon="16.516323244622033"><ele>157.0</ele><time>2026-04-26T08:55:32.918Z</time></trkpt><trkpt lat="40.40906206582646" lon="16.516123264513723"><ele>157.0</ele><time>2026-04-26T08:55:34.918Z</time></trkpt><trkpt lat="40.409121448354675" lon="16.516008635439256"><ele>157.0</ele><time>2026-04-26T08:55:35.918Z</time></trkpt><trkpt lat="40.40916808311341" lon="16.515881083601066"><ele>159.6</ele><time>2026-04-26T08:55:36.918Z</time></trkpt><trkpt lat="40.40920452303695" lon="16.515746870374304"><ele>162.2</ele><time>2026-04-26T08:55:37.918Z</time></trkpt><trkpt lat="40.409223105602955" lon="16.51561179693227"><ele>164.8</ele><time>2026-04-26T08:55:38.918Z</time></trkpt><trkpt lat="40.40922661123021" lon="16.515485484352133"><ele>167.4</ele><time>2026-04-26T08:55:39.918Z</time></trkpt><trkpt lat="40.4092116135846" lon="16.515371370968754"><ele>170.0</ele><time>2026-04-26T08:55:40.918Z</time></trkpt><trkpt lat="40.40917732693772" lon="16.515270923980594"><ele>171.5</ele><time>2026-04-26T08:55:41.918Z</time></trkpt><trkpt lat="40.40911864700274" lon="16.515193290580907"><ele>173.0</ele><time>2026-04-26T08:55:42.918Z</time></trkpt><trkpt lat="40.40903410938146" lon="16.51510250998586"><ele>174.5</ele><time>2026-04-26T08:55:43.918Z</time></trkpt><trkpt lat="40.40897137581449" lon="16.515028001484662"><ele>176.0</ele><time>2026-04-26T08:55:44.918Z</time></trkpt><trkpt lat="40.408934972348085" lon="16.514956195821142"><ele>177.5</ele><time>2026-04-26T08:55:46.918Z</time></trkpt><trkpt lat="40.4090163860059" lon="16.514893387613558"><ele>179.0</ele><time>2026-04-26T08:55:55.918Z</time></trkpt><trkpt lat="40.409123547247" lon="16.514842372308404"><ele>179.0</ele><time>2026-04-26T08:55:57.918Z</time></trkpt><trkpt lat="40.40920051817435" lon="16.514808069503705"><ele>179.0</ele><time>2026-04-26T08:55:58.918Z</time></trkpt><trkpt lat="40.409288285213854" lon="16.514775032901937"><ele>179.0</ele><time>2026-04-26T08:55:59.918Z</time></trkpt><trkpt lat="40.40937688731316" lon="16.514742518215197"><ele>179.0</ele><time>2026-04-26T08:56:00.918Z</time></trkpt><trkpt lat="40.409461425025874" lon="16.51471788743921"><ele>179.0</ele><time>2026-04-26T08:56:01.918Z</time></trkpt><trkpt lat="40.40956594704276" lon="16.514633284458615"><ele>179.6</ele><time>2026-04-26T08:56:03.918Z</time></trkpt><trkpt lat="40.409621163457565" lon="16.51455859216375"><ele>180.2</ele><time>2026-04-26T08:56:04.918Z</time></trkpt><trkpt lat="40.40968509056444" lon="16.514472749978744"><ele>180.79999999999998</ele><time>2026-04-26T08:56:05.918Z</time></trkpt><trkpt lat="40.40973930682185" lon="16.514379687636374"><ele>181.39999999999998</ele><time>2026-04-26T08:56:06.918Z</time></trkpt><trkpt lat="40.40978502479821" lon="16.514282115141285"><ele>182.0</ele><time>2026-04-26T08:56:07.918Z</time></trkpt><trkpt lat="40.40984243045924" lon="16.514154647102675"><ele>182.0</ele><time>2026-04-26T08:56:08.917Z</time></trkpt><trkpt lat="40.40992228734436" lon="16.51403546817971"><ele>182.0</ele><time>2026-04-26T08:56:09.917Z</time></trkpt><trkpt lat="40.40998739102548" lon="16.513919643744618"><ele>182.0</ele><time>2026-04-26T08:56:10.917Z</time></trkpt><trkpt lat="40.41005659946051" lon="16.51382309329803"><ele>182.0</ele><time>2026-04-26T08:56:11.917Z</time></trkpt><trkpt lat="40.41013315127584" lon="16.51373166247545"><ele>182.0</ele><time>2026-04-26T08:56:12.917Z</time></trkpt><trkpt lat="40.410225298766775" lon="16.513619189916167"><ele>183.39999999999998</ele><time>2026-04-26T08:56:13.917Z</time></trkpt><trkpt lat="40.41031391028889" lon="16.51352584656375"><ele>184.79999999999998</ele><time>2026-04-26T08:56:14.917Z</time></trkpt><trkpt lat="40.41040097325739" lon="16.513473104428037"><ele>186.2</ele><time>2026-04-26T08:56:15.917Z</time></trkpt><trkpt lat="40.410475030537974" lon="16.513445403630538"><ele>187.6</ele><time>2026-04-26T08:56:16.917Z</time></trkpt><trkpt lat="40.41055116606274" lon="16.51342514601585"><ele>189.0</ele><time>2026-04-26T08:56:17.917Z</time></trkpt><trkpt lat="40.41065160553366" lon="16.51342061384873"><ele>189.0</ele><time>2026-04-26T08:56:18.917Z</time></trkpt><trkpt lat="40.41076285841463" lon="16.513407868848464"><ele>189.0</ele><time>2026-04-26T08:56:19.917Z</time></trkpt><trkpt lat="40.410862329204726" lon="16.513390495530825"><ele>189.0</ele><time>2026-04-26T08:56:20.917Z</time></trkpt><trkpt lat="40.41094532563556" lon="16.51336941185866"><ele>189.0</ele><time>2026-04-26T08:56:21.917Z</time></trkpt><trkpt lat="40.411030692548294" lon="16.51331761954467"><ele>189.0</ele><time>2026-04-26T08:56:22.917Z</time></trkpt><trkpt lat="40.41110596447332" lon="16.513239983274598"><ele>189.0</ele><time>2026-04-26T08:56:23.917Z</time></trkpt><trkpt lat="40.411181499348444" lon="16.513155026177238"><ele>189.0</ele><time>2026-04-26T08:56:24.917Z</time></trkpt><trkpt lat="40.41125051566698" lon="16.51305031970667"><ele>189.0</ele><time>2026-04-26T08:56:25.917Z</time></trkpt><trkpt lat="40.41134783009152" lon="16.51297227057848"><ele>189.0</ele><time>2026-04-26T08:56:26.916Z</time></trkpt><trkpt lat="40.41142857475197" lon="16.512856068954285"><ele>189.0</ele><time>2026-04-26T08:56:27.917Z</time></trkpt><trkpt lat="40.41152263833784" lon="16.51276223452811"><ele>189.2</ele><time>2026-04-26T08:56:28.917Z</time></trkpt><trkpt lat="40.41160794927311" lon="16.51265637119214"><ele>189.39999999999998</ele><time>2026-04-26T08:56:29.917Z</time></trkpt><trkpt lat="40.41166569754344" lon="16.51256688412487"><ele>189.6</ele><time>2026-04-26T08:56:30.917Z</time></trkpt><trkpt lat="40.41173056292465" lon="16.51251541108993"><ele>189.8</ele><time>2026-04-26T08:56:31.917Z</time></trkpt><trkpt lat="40.41182474143976" lon="16.512462884861872"><ele>190.0</ele><time>2026-04-26T08:56:32.917Z</time></trkpt><trkpt lat="40.41191622603713" lon="16.51242310138397"><ele>190.0</ele><time>2026-04-26T08:56:33.917Z</time></trkpt><trkpt lat="40.4119951861749" lon="16.512404090870437"><ele>190.0</ele><time>2026-04-26T08:56:34.917Z</time></trkpt><trkpt lat="40.412086609598646" lon="16.512346570920855"><ele>190.0</ele><time>2026-04-26T08:56:35.917Z</time></trkpt><trkpt lat="40.4121818685105" lon="16.51231501093472"><ele>190.0</ele><time>2026-04-26T08:56:36.917Z</time></trkpt><trkpt lat="40.412284506798876" lon="16.512298976784987"><ele>190.0</ele><time>2026-04-26T08:56:37.917Z</time></trkpt><trkpt lat="40.41237211434327" lon="16.512248405256223"><ele>189.6</ele><time>2026-04-26T08:56:38.917Z</time></trkpt><trkpt lat="40.41243918460361" lon="16.512150308906858"><ele>189.2</ele><time>2026-04-26T08:56:39.917Z</time></trkpt><trkpt lat="40.412511740278156" lon="16.51207591762028"><ele>188.8</ele><time>2026-04-26T08:56:40.917Z</time></trkpt><trkpt lat="40.41258214831336" lon="16.511981797727636"><ele>188.4</ele><time>2026-04-26T08:56:41.917Z</time></trkpt><trkpt lat="40.41266100679924" lon="16.511868513225483"><ele>188.0</ele><time>2026-04-26T08:56:42.917Z</time></trkpt><trkpt lat="40.41273067679872" lon="16.511735883825366"><ele>188.0</ele><time>2026-04-26T08:56:43.917Z</time></trkpt><trkpt lat="40.41279474339629" lon="16.51160994760302"><ele>188.0</ele><time>2026-04-26T08:56:44.917Z</time></trkpt><trkpt lat="40.41285388993077" lon="16.511496077785306"><ele>188.0</ele><time>2026-04-26T08:56:45.917Z</time></trkpt><trkpt lat="40.41291357479237" lon="16.51137261872962"><ele>188.0</ele><time>2026-04-26T08:56:46.917Z</time></trkpt><trkpt lat="40.412986882961306" lon="16.5112606273121"><ele>188.0</ele><time>2026-04-26T08:56:47.917Z</time></trkpt><trkpt lat="40.41305151160685" lon="16.511152319188525"><ele>189.2</ele><time>2026-04-26T08:56:48.917Z</time></trkpt><trkpt lat="40.41313254368597" lon="16.511017260865287"><ele>190.4</ele><time>2026-04-26T08:56:50.917Z</time></trkpt><trkpt lat="40.41319327689836" lon="16.510941020336848"><ele>191.6</ele><time>2026-04-26T08:56:51.916Z</time></trkpt><trkpt lat="40.413259598260176" lon="16.51083918962985"><ele>192.79999999999998</ele><time>2026-04-26T08:56:52.916Z</time></trkpt><trkpt lat="40.41331881212683" lon="16.51072857309862"><ele>194.0</ele><time>2026-04-26T08:56:53.916Z</time></trkpt><trkpt lat="40.413371356550584" lon="16.51060231698569"><ele>194.0</ele><time>2026-04-26T08:56:54.916Z</time></trkpt><trkpt lat="40.41342150141118" lon="16.510483882295663"><ele>194.0</ele><time>2026-04-26T08:56:55.916Z</time></trkpt><trkpt lat="40.413486159928595" lon="16.51037324383946"><ele>194.0</ele><time>2026-04-26T08:56:56.916Z</time></trkpt><trkpt lat="40.41354267452067" lon="16.510250231212048"><ele>194.0</ele><time>2026-04-26T08:56:57.916Z</time></trkpt><trkpt lat="40.41358508452752" lon="16.51011817705541"><ele>194.0</ele><time>2026-04-26T08:56:58.916Z</time></trkpt><trkpt lat="40.41364192587438" lon="16.510035167128233"><ele>194.50000000000003</ele><time>2026-04-26T08:56:59.916Z</time></trkpt><trkpt lat="40.413665097738054" lon="16.509947933534452"><ele>195.0</ele><time>2026-04-26T08:57:00.916Z</time></trkpt><trkpt lat="40.41372111181966" lon="16.509860322369637"><ele>195.5</ele><time>2026-04-26T08:57:01.916Z</time></trkpt><trkpt lat="40.41374698567547" lon="16.509759402185942"><ele>196.0</ele><time>2026-04-26T08:57:02.916Z</time></trkpt><trkpt lat="40.41379952910762" lon="16.5096449205908"><ele>196.50000000000003</ele><time>2026-04-26T08:57:03.916Z</time></trkpt><trkpt lat="40.413845476564056" lon="16.50954255090281"><ele>197.0</ele><time>2026-04-26T08:57:04.916Z</time></trkpt><trkpt lat="40.41387713669794" lon="16.509469186743715"><ele>197.39999999999998</ele><time>2026-04-26T08:57:05.916Z</time></trkpt><trkpt lat="40.41389371562798" lon="16.50934446112631"><ele>197.79999999999998</ele><time>2026-04-26T08:57:07.916Z</time></trkpt><trkpt lat="40.413849931323355" lon="16.50918787523981"><ele>198.2</ele><time>2026-04-26T08:57:09.916Z</time></trkpt><trkpt lat="40.41379141279588" lon="16.509035234792613"><ele>198.6</ele><time>2026-04-26T08:57:11.916Z</time></trkpt><trkpt lat="40.413745988597896" lon="16.50894331019735"><ele>199.0</ele><time>2026-04-26T08:57:12.916Z</time></trkpt><trkpt lat="40.41373124168747" lon="16.50883997852725"><ele>202.0</ele><time>2026-04-26T08:57:13.916Z</time></trkpt><trkpt lat="40.4137164409591" lon="16.50872765861037"><ele>205.0</ele><time>2026-04-26T08:57:14.916Z</time></trkpt><trkpt lat="40.41372745138314" lon="16.508626377004056"><ele>207.99999999999997</ele><time>2026-04-26T08:57:15.916Z</time></trkpt><trkpt lat="40.41373105759317" lon="16.508469806682253"><ele>211.0</ele><time>2026-04-26T08:57:17.916Z</time></trkpt><trkpt lat="40.413697993626414" lon="16.50839678116707"><ele>214.0</ele><time>2026-04-26T08:57:18.916Z</time></trkpt><trkpt lat="40.41364917254852" lon="16.508254358037764"><ele>213.99999999999997</ele><time>2026-04-26T08:57:20.916Z</time></trkpt><trkpt lat="40.41361062445573" lon="16.50812401397852"><ele>214.0</ele><time>2026-04-26T08:57:22.916Z</time></trkpt><trkpt lat="40.41357540120869" lon="16.50803641568679"><ele>214.0</ele><time>2026-04-26T08:57:24.916Z</time></trkpt><trkpt lat="40.41353623265899" lon="16.507967967337688"><ele>214.0</ele><time>2026-04-26T08:57:26.916Z</time></trkpt><trkpt lat="40.413485958216114" lon="16.50782026409329"><ele>213.99999999999997</ele><time>2026-04-26T08:57:28.916Z</time></trkpt><trkpt lat="40.41344939897472" lon="16.50773504934868"><ele>214.0</ele><time>2026-04-26T08:57:29.916Z</time></trkpt><trkpt lat="40.4133972193872" lon="16.50765593590719"><ele>214.83333333333331</ele><time>2026-04-26T08:57:30.916Z</time></trkpt><trkpt lat="40.4133558677808" lon="16.50755733375346"><ele>215.66666666666666</ele><time>2026-04-26T08:57:31.916Z</time></trkpt><trkpt lat="40.41330921144989" lon="16.507464725291403"><ele>216.5</ele><time>2026-04-26T08:57:32.916Z</time></trkpt><trkpt lat="40.4132787922053" lon="16.507391437923634"><ele>217.33333333333331</ele><time>2026-04-26T08:57:33.916Z</time></trkpt><trkpt lat="40.41324153798252" lon="16.50729033436596"><ele>218.16666666666666</ele><time>2026-04-26T08:57:34.916Z</time></trkpt><trkpt lat="40.413165281707485" lon="16.507184588591397"><ele>219.0</ele><time>2026-04-26T08:57:36.916Z</time></trkpt><trkpt lat="40.41312444720069" lon="16.507116892195803"><ele>219.33333333333334</ele><time>2026-04-26T08:57:39.916Z</time></trkpt><trkpt lat="40.41304838167274" lon="16.507058810714142"><ele>219.66666666666669</ele><time>2026-04-26T08:57:41.916Z</time></trkpt><trkpt lat="40.41298942258141" lon="16.507020892764896"><ele>220.0</ele><time>2026-04-26T08:57:42.916Z</time></trkpt><trkpt lat="40.41288710331362" lon="16.50696370645487"><ele>220.33333333333334</ele><time>2026-04-26T08:57:44.916Z</time></trkpt><trkpt lat="40.412831446880325" lon="16.50689625349472"><ele>220.66666666666669</ele><time>2026-04-26T08:58:07.915Z</time></trkpt><trkpt lat="40.412797504926885" lon="16.506799888303004"><ele>221.0</ele><time>2026-04-26T08:58:09.915Z</time></trkpt><trkpt lat="40.412749098864204" lon="16.506675647002712"><ele>221.0</ele><time>2026-04-26T08:58:11.915Z</time></trkpt><trkpt lat="40.41267846382251" lon="16.50657458999188"><ele>221.00000000000003</ele><time>2026-04-26T08:58:13.915Z</time></trkpt><trkpt lat="40.41263263491085" lon="16.50648824749613"><ele>221.00000000000003</ele><time>2026-04-26T08:58:15.915Z</time></trkpt><trkpt lat="40.412571411535694" lon="16.50636915798946"><ele>221.0</ele><time>2026-04-26T08:58:17.915Z</time></trkpt><trkpt lat="40.41252374678275" lon="16.506232530027283"><ele>221.0</ele><time>2026-04-26T08:58:19.915Z</time></trkpt><trkpt lat="40.41243941844911" lon="16.506092816657095"><ele>220.57142857142858</ele><time>2026-04-26T08:58:21.915Z</time></trkpt><trkpt lat="40.41239491692958" lon="16.506021203410423"><ele>220.14285714285714</ele><time>2026-04-26T08:58:22.915Z</time></trkpt><trkpt lat="40.412344859609554" lon="16.50594066082015"><ele>219.71428571428572</ele><time>2026-04-26T08:58:23.915Z</time></trkpt><trkpt lat="40.412289947020994" lon="16.505869514799002"><ele>219.28571428571428</ele><time>2026-04-26T08:58:24.915Z</time></trkpt><trkpt lat="40.412250234963025" lon="16.505799672406848"><ele>218.85714285714286</ele><time>2026-04-26T08:58:25.915Z</time></trkpt><trkpt lat="40.412209742170084" lon="16.505720152920055"><ele>218.42857142857144</ele><time>2026-04-26T08:58:26.915Z</time></trkpt><trkpt lat="40.412175642382245" lon="16.505639277385917"><ele>218.0</ele><time>2026-04-26T08:58:27.914Z</time></trkpt><trkpt lat="40.41216798272562" lon="16.505553327873145"><ele>218.0</ele><time>2026-04-26T08:58:28.914Z</time></trkpt><trkpt lat="40.41217304073582" lon="16.50542016051702"><ele>218.0</ele><time>2026-04-26T08:58:30.915Z</time></trkpt><trkpt lat="40.41221627038452" lon="16.505299214738294"><ele>218.0</ele><time>2026-04-26T08:58:32.915Z</time></trkpt><trkpt lat="40.41226605601111" lon="16.505171235396073"><ele>218.0</ele><time>2026-04-26T08:58:34.914Z</time></trkpt><trkpt lat="40.41230936326577" lon="16.505023902431738"><ele>218.0</ele><time>2026-04-26T08:58:36.915Z</time></trkpt><trkpt lat="40.412349598415936" lon="16.504954713251372"><ele>218.33333333333334</ele><time>2026-04-26T08:58:37.914Z</time></trkpt><trkpt lat="40.412383687583585" lon="16.50487624135378"><ele>218.66666666666669</ele><time>2026-04-26T08:58:39.914Z</time></trkpt><trkpt lat="40.41225682283073" lon="16.504823075192743"><ele>219.0</ele><time>2026-04-26T08:58:43.914Z</time></trkpt><trkpt lat="40.41222324218452" lon="16.504912956496494"><ele>219.33333333333331</ele><time>2026-04-26T08:58:44.914Z</time></trkpt><trkpt lat="40.41217128434946" lon="16.50498553171851"><ele>219.66666666666666</ele><time>2026-04-26T08:58:45.914Z</time></trkpt><trkpt lat="40.412117707088306" lon="16.505034760269183"><ele>220.0</ele><time>2026-04-26T08:58:46.914Z</time></trkpt><trkpt lat="40.41206727726071" lon="16.505096401523666"><ele>220.16666666666666</ele><time>2026-04-26T08:58:47.914Z</time></trkpt><trkpt lat="40.41199629301158" lon="16.505179769148004"><ele>220.33333333333331</ele><time>2026-04-26T08:58:48.914Z</time></trkpt><trkpt lat="40.41190826100462" lon="16.50526075284158"><ele>220.5</ele><time>2026-04-26T08:58:50.914Z</time></trkpt><trkpt lat="40.41181839210633" lon="16.505319897406356"><ele>220.66666666666669</ele><time>2026-04-26T08:58:52.914Z</time></trkpt><trkpt lat="40.411754256787525" lon="16.505364496054494"><ele>220.83333333333334</ele><time>2026-04-26T08:58:53.914Z</time></trkpt><trkpt lat="40.411690453676265" lon="16.50541101813055"><ele>221.0</ele><time>2026-04-26T08:58:54.914Z</time></trkpt><trkpt lat="40.41162742437689" lon="16.50545407179604"><ele>221.00000000000003</ele><time>2026-04-26T08:58:55.914Z</time></trkpt><trkpt lat="40.41156365123573" lon="16.505494573568722"><ele>221.0</ele><time>2026-04-26T08:58:56.914Z</time></trkpt><trkpt lat="40.41149481245684" lon="16.50553298014355"><ele>221.0</ele><time>2026-04-26T08:58:57.914Z</time></trkpt><trkpt lat="40.41144783277157" lon="16.50559178663137"><ele>221.0</ele><time>2026-04-26T08:58:58.914Z</time></trkpt><trkpt lat="40.41132853603406" lon="16.50556994336354"><ele>221.00000000000003</ele><time>2026-04-26T08:59:00.913Z</time></trkpt><trkpt lat="40.41132076515514" lon="16.505435869196855"><ele>221.0</ele><time>2026-04-26T08:59:01.913Z</time></trkpt><trkpt lat="40.41125252140465" lon="16.50539050920663"><ele>219.33333333333334</ele><time>2026-04-26T08:59:02.913Z</time></trkpt><trkpt lat="40.41118388812991" lon="16.5052965533417"><ele>217.66666666666669</ele><time>2026-04-26T08:59:04.913Z</time></trkpt><trkpt lat="40.41114598730573" lon="16.50521470013546"><ele>216.0</ele><time>2026-04-26T08:59:05.913Z</time></trkpt><trkpt lat="40.41111537669204" lon="16.505097647264762"><ele>214.33333333333331</ele><time>2026-04-26T08:59:06.913Z</time></trkpt><trkpt lat="40.41107369787053" lon="16.505002700606596"><ele>212.66666666666666</ele><time>2026-04-26T08:59:07.913Z</time></trkpt><trkpt lat="40.41104356932321" lon="16.504921859626837"><ele>211.0</ele><time>2026-04-26T08:59:08.913Z</time></trkpt><trkpt lat="40.41103736394353" lon="16.50483392270922"><ele>211.0</ele><time>2026-04-26T08:59:09.913Z</time></trkpt><trkpt lat="40.41104120819037" lon="16.504720521404117"><ele>211.0</ele><time>2026-04-26T08:59:10.913Z</time></trkpt><trkpt lat="40.41101242249023" lon="16.504606490350664"><ele>211.0</ele><time>2026-04-26T08:59:11.913Z</time></trkpt><trkpt lat="40.41099593441435" lon="16.50448754123227"><ele>211.0</ele><time>2026-04-26T08:59:12.913Z</time></trkpt><trkpt lat="40.410987928591254" lon="16.50432186292346"><ele>211.0</ele><time>2026-04-26T08:59:14.913Z</time></trkpt><trkpt lat="40.410984125701056" lon="16.504206282845434"><ele>208.4</ele><time>2026-04-26T08:59:15.913Z</time></trkpt><trkpt lat="40.41097855880528" lon="16.50410013466315"><ele>205.8</ele><time>2026-04-26T08:59:16.913Z</time></trkpt><trkpt lat="40.41097792325528" lon="16.504017391318946"><ele>203.20000000000002</ele><time>2026-04-26T08:59:17.913Z</time></trkpt><trkpt lat="40.410949507271084" lon="16.503876066698712"><ele>200.60000000000002</ele><time>2026-04-26T08:59:19.913Z</time></trkpt><trkpt lat="40.41089106584309" lon="16.503708987924984"><ele>198.0</ele><time>2026-04-26T08:59:21.913Z</time></trkpt><trkpt lat="40.41083030578895" lon="16.503640650495523"><ele>196.66666666666666</ele><time>2026-04-26T08:59:22.914Z</time></trkpt><trkpt lat="40.41076979777589" lon="16.50350574821695"><ele>195.33333333333334</ele><time>2026-04-26T08:59:24.918Z</time></trkpt><trkpt lat="40.41078319968533" lon="16.50340166788398"><ele>194.0</ele><time>2026-04-26T08:59:26.921Z</time></trkpt><trkpt lat="40.410798993947445" lon="16.503310103600356"><ele>192.66666666666669</ele><time>2026-04-26T08:59:28.924Z</time></trkpt><trkpt lat="40.410807400643016" lon="16.503197301368523"><ele>191.33333333333334</ele><time>2026-04-26T08:59:30.926Z</time></trkpt><trkpt lat="40.410825410436104" lon="16.50308943289512"><ele>190.0</ele><time>2026-04-26T08:59:32.928Z</time></trkpt><trkpt lat="40.410853266516774" lon="16.503003753907876"><ele>190.0</ele><time>2026-04-26T08:59:41.935Z</time></trkpt><trkpt lat="40.41085375452489" lon="16.50291787812913"><ele>190.0</ele><time>2026-04-26T08:59:42.935Z</time></trkpt><trkpt lat="40.41081454102117" lon="16.50282539173808"><ele>190.0</ele><time>2026-04-26T08:59:43.936Z</time></trkpt><trkpt lat="40.41080268235363" lon="16.502710593515932"><ele>190.0</ele><time>2026-04-26T08:59:44.936Z</time></trkpt><trkpt lat="40.410796884078074" lon="16.502586348841678"><ele>190.0</ele><time>2026-04-26T08:59:45.936Z</time></trkpt><trkpt lat="40.41079479282836" lon="16.502478771607503"><ele>190.0</ele><time>2026-04-26T08:59:46.937Z</time></trkpt><trkpt lat="40.41080232795633" lon="16.502363031463442"><ele>188.5</ele><time>2026-04-26T08:59:47.937Z</time></trkpt><trkpt lat="40.41079587036529" lon="16.502241912142733"><ele>187.0</ele><time>2026-04-26T08:59:48.938Z</time></trkpt><trkpt lat="40.410794902976725" lon="16.5021367101029"><ele>185.5</ele><time>2026-04-26T08:59:49.938Z</time></trkpt><trkpt lat="40.41079809960612" lon="16.50205107123032"><ele>184.0</ele><time>2026-04-26T08:59:50.938Z</time></trkpt><trkpt lat="40.41080972292601" lon="16.50196252769501"><ele>182.5</ele><time>2026-04-26T08:59:51.939Z</time></trkpt><trkpt lat="40.41082470629629" lon="16.501875152170985"><ele>181.0</ele><time>2026-04-26T08:59:52.939Z</time></trkpt><trkpt lat="40.41086814938923" lon="16.501759919295463"><ele>180.8</ele><time>2026-04-26T08:59:54.939Z</time></trkpt><trkpt lat="40.410884045043005" lon="16.501673676213553"><ele>180.60000000000002</ele><time>2026-04-26T08:59:55.939Z</time></trkpt><trkpt lat="40.410924077398306" lon="16.501565230917386"><ele>180.4</ele><time>2026-04-26T08:59:56.94Z</time></trkpt><trkpt lat="40.41095998130857" lon="16.50145744001417"><ele>180.2</ele><time>2026-04-26T08:59:57.94Z</time></trkpt><trkpt lat="40.41099769948812" lon="16.501344119473522"><ele>180.0</ele><time>2026-04-26T08:59:58.94Z</time></trkpt><trkpt lat="40.41104578654633" lon="16.50121497908637"><ele>180.0</ele><time>2026-04-26T08:59:59.94Z</time></trkpt><trkpt lat="40.41107976818079" lon="16.501099521861736"><ele>180.0</ele><time>2026-04-26T09:00:00.94Z</time></trkpt><trkpt lat="40.41108584810983" lon="16.50101610011067"><ele>180.0</ele><time>2026-04-26T09:00:01.941Z</time></trkpt><trkpt lat="40.411040646405354" lon="16.50089743864087"><ele>180.0</ele><time>2026-04-26T09:00:03.941Z</time></trkpt><trkpt lat="40.41098766629126" lon="16.500808774829956"><ele>180.0</ele><time>2026-04-26T09:00:04.941Z</time></trkpt><trkpt lat="40.410933610414475" lon="16.500709535169488"><ele>180.0</ele><time>2026-04-26T09:00:05.941Z</time></trkpt><trkpt lat="40.41090957760763" lon="16.500585185369513"><ele>180.0</ele><time>2026-04-26T09:00:07.941Z</time></trkpt><trkpt lat="40.4109112912674" lon="16.50042650632115"><ele>180.0</ele><time>2026-04-26T09:00:09.941Z</time></trkpt><trkpt lat="40.41090996428999" lon="16.5003075383203"><ele>180.0</ele><time>2026-04-26T09:00:10.941Z</time></trkpt><trkpt lat="40.410927359995355" lon="16.500197266359436"><ele>180.0</ele><time>2026-04-26T09:00:11.942Z</time></trkpt><trkpt lat="40.41091237247869" lon="16.500080720891468"><ele>180.0</ele><time>2026-04-26T09:00:12.942Z</time></trkpt><trkpt lat="40.410917709384734" lon="16.49997545856797"><ele>180.5</ele><time>2026-04-26T09:00:13.942Z</time></trkpt><trkpt lat="40.41092295549113" lon="16.49986541856897"><ele>181.0</ele><time>2026-04-26T09:00:14.942Z</time></trkpt><trkpt lat="40.41092320599269" lon="16.499745172923028"><ele>181.5</ele><time>2026-04-26T09:00:15.942Z</time></trkpt><trkpt lat="40.41092618557115" lon="16.499643214722383"><ele>182.0</ele><time>2026-04-26T09:00:16.942Z</time></trkpt><trkpt lat="40.410953716458906" lon="16.49951148773427"><ele>182.5</ele><time>2026-04-26T09:00:18.942Z</time></trkpt><trkpt lat="40.41100310403752" lon="16.49941863750935"><ele>183.0</ele><time>2026-04-26T09:00:22.942Z</time></trkpt><trkpt lat="40.41105860073254" lon="16.499347926934167"><ele>181.16666666666666</ele><time>2026-04-26T09:00:24.942Z</time></trkpt><trkpt lat="40.41105319992898" lon="16.499265105743888"><ele>179.33333333333334</ele><time>2026-04-26T09:00:25.942Z</time></trkpt><trkpt lat="40.4110301125036" lon="16.499158339823843"><ele>177.5</ele><time>2026-04-26T09:00:26.942Z</time></trkpt><trkpt lat="40.41100103250082" lon="16.49904568295234"><ele>175.66666666666669</ele><time>2026-04-26T09:00:27.942Z</time></trkpt><trkpt lat="40.41098535724582" lon="16.498946358662604"><ele>173.83333333333334</ele><time>2026-04-26T09:00:28.942Z</time></trkpt><trkpt lat="40.41097480685666" lon="16.498850809642704"><ele>172.0</ele><time>2026-04-26T09:00:29.942Z</time></trkpt><trkpt lat="40.41100490192417" lon="16.498701416860012"><ele>171.2</ele><time>2026-04-26T09:00:31.942Z</time></trkpt><trkpt lat="40.411047921888446" lon="16.49863277579439"><ele>170.39999999999998</ele><time>2026-04-26T09:00:32.943Z</time></trkpt><trkpt lat="40.411133656831595" lon="16.498594230916936"><ele>169.60000000000002</ele><time>2026-04-26T09:00:33.943Z</time></trkpt><trkpt lat="40.41124418711227" lon="16.498576578449576"><ele>168.8</ele><time>2026-04-26T09:00:34.943Z</time></trkpt><trkpt lat="40.41136446465103" lon="16.49857149436064"><ele>168.0</ele><time>2026-04-26T09:00:35.943Z</time></trkpt><trkpt lat="40.411462050692684" lon="16.49857067300465"><ele>168.0</ele><time>2026-04-26T09:00:36.943Z</time></trkpt><trkpt lat="40.41156237902987" lon="16.498558214335233"><ele>168.0</ele><time>2026-04-26T09:00:37.943Z</time></trkpt><trkpt lat="40.4116623595331" lon="16.498520013163127"><ele>168.0</ele><time>2026-04-26T09:00:38.942Z</time></trkpt><trkpt lat="40.411750022241435" lon="16.498444521148315"><ele>168.0</ele><time>2026-04-26T09:00:39.943Z</time></trkpt><trkpt lat="40.41183576547054" lon="16.498365585258313"><ele>168.0</ele><time>2026-04-26T09:00:40.943Z</time></trkpt><trkpt lat="40.4119098645107" lon="16.498261606382624"><ele>168.0</ele><time>2026-04-26T09:00:41.943Z</time></trkpt><trkpt lat="40.41197952826199" lon="16.498130694896076"><ele>168.0</ele><time>2026-04-26T09:00:42.943Z</time></trkpt><trkpt lat="40.41203722921293" lon="16.498013979242874"><ele>168.0</ele><time>2026-04-26T09:00:43.943Z</time></trkpt><trkpt lat="40.412088278698086" lon="16.497889722609976"><ele>168.0</ele><time>2026-04-26T09:00:44.942Z</time></trkpt><trkpt lat="40.412128938931424" lon="16.497767459379634"><ele>168.0</ele><time>2026-04-26T09:00:45.943Z</time></trkpt><trkpt lat="40.41211735547682" lon="16.49762060801346"><ele>166.8</ele><time>2026-04-26T09:00:46.943Z</time></trkpt><trkpt lat="40.412115499603665" lon="16.497466417594996"><ele>165.60000000000002</ele><time>2026-04-26T09:00:47.943Z</time></trkpt><trkpt lat="40.412075132699265" lon="16.49732631885772"><ele>164.39999999999998</ele><time>2026-04-26T09:00:48.943Z</time></trkpt><trkpt lat="40.41208805982595" lon="16.49718362200167"><ele>163.2</ele><time>2026-04-26T09:00:49.943Z</time></trkpt><trkpt lat="40.41211699896127" lon="16.497065531422788"><ele>162.0</ele><time>2026-04-26T09:00:50.943Z</time></trkpt><trkpt lat="40.41216250513789" lon="16.49693195045776"><ele>162.0</ele><time>2026-04-26T09:00:51.943Z</time></trkpt><trkpt lat="40.412212161193445" lon="16.496816244512814"><ele>162.0</ele><time>2026-04-26T09:00:52.943Z</time></trkpt><trkpt lat="40.41225111346566" lon="16.496686137318882"><ele>162.0</ele><time>2026-04-26T09:00:53.943Z</time></trkpt><trkpt lat="40.412323239831466" lon="16.496574518566955"><ele>162.0</ele><time>2026-04-26T09:00:54.943Z</time></trkpt><trkpt lat="40.412373231485496" lon="16.496457874158065"><ele>162.0</ele><time>2026-04-26T09:00:55.943Z</time></trkpt><trkpt lat="40.412396403592446" lon="16.496333722983533"><ele>162.0</ele><time>2026-04-26T09:00:56.943Z</time></trkpt><trkpt lat="40.41240307500248" lon="16.496207729164706"><ele>162.0</ele><time>2026-04-26T09:00:57.943Z</time></trkpt><trkpt lat="40.41237591731652" lon="16.496080962514366"><ele>162.0</ele><time>2026-04-26T09:00:58.943Z</time></trkpt><trkpt lat="40.41237108640042" lon="16.495955026402335"><ele>162.0</ele><time>2026-04-26T09:00:59.943Z</time></trkpt><trkpt lat="40.41231856581024" lon="16.495831222056115"><ele>162.0</ele><time>2026-04-26T09:01:00.943Z</time></trkpt><trkpt lat="40.41227082807604" lon="16.495704030794528"><ele>162.0</ele><time>2026-04-26T09:01:01.943Z</time></trkpt><trkpt lat="40.412242387345636" lon="16.49557976471096"><ele>162.0</ele><time>2026-04-26T09:01:02.943Z</time></trkpt><trkpt lat="40.41221827387306" lon="16.495475698860176"><ele>162.0</ele><time>2026-04-26T09:01:03.943Z</time></trkpt><trkpt lat="40.412222859834614" lon="16.49537196062601"><ele>162.0</ele><time>2026-04-26T09:01:04.943Z</time></trkpt><trkpt lat="40.41226025501026" lon="16.495291347996233"><ele>162.0</ele><time>2026-04-26T09:01:05.943Z</time></trkpt><trkpt lat="40.41230562095487" lon="16.495227492385368"><ele>162.0</ele><time>2026-04-26T09:01:06.943Z</time></trkpt><trkpt lat="40.41238083004294" lon="16.495159502714284"><ele>162.6</ele><time>2026-04-26T09:01:07.943Z</time></trkpt><trkpt lat="40.412465408764035" lon="16.49505455576403"><ele>163.2</ele><time>2026-04-26T09:01:08.943Z</time></trkpt><trkpt lat="40.41252622622299" lon="16.49493298780805"><ele>163.8</ele><time>2026-04-26T09:01:09.943Z</time></trkpt><trkpt lat="40.4125639424188" lon="16.49480053939589"><ele>164.4</ele><time>2026-04-26T09:01:10.943Z</time></trkpt><trkpt lat="40.41260847972284" lon="16.49469981843234"><ele>165.0</ele><time>2026-04-26T09:01:11.943Z</time></trkpt><trkpt lat="40.4126704706516" lon="16.49464093032097"><ele>165.0</ele><time>2026-04-26T09:01:12.943Z</time></trkpt><trkpt lat="40.412752525182704" lon="16.494602138489142"><ele>165.0</ele><time>2026-04-26T09:01:13.943Z</time></trkpt><trkpt lat="40.41286192283288" lon="16.494552310563243"><ele>165.0</ele><time>2026-04-26T09:01:14.943Z</time></trkpt><trkpt lat="40.41295576689587" lon="16.494496299398158"><ele>165.0</ele><time>2026-04-26T09:01:15.943Z</time></trkpt><trkpt lat="40.41303876188592" lon="16.494415255072667"><ele>165.0</ele><time>2026-04-26T09:01:16.943Z</time></trkpt><trkpt lat="40.413099961730936" lon="16.49431003323221"><ele>164.8</ele><time>2026-04-26T09:01:17.943Z</time></trkpt><trkpt lat="40.41314921075475" lon="16.494190323316257"><ele>164.6</ele><time>2026-04-26T09:01:18.943Z</time></trkpt><trkpt lat="40.4131997598537" lon="16.49407997186198"><ele>164.39999999999998</ele><time>2026-04-26T09:01:19.943Z</time></trkpt><trkpt lat="40.413266385428315" lon="16.49397707853977"><ele>164.2</ele><time>2026-04-26T09:01:20.943Z</time></trkpt><trkpt lat="40.41334645973999" lon="16.493908605073614"><ele>164.0</ele><time>2026-04-26T09:01:21.943Z</time></trkpt><trkpt lat="40.41343158823112" lon="16.493846717345036"><ele>164.0</ele><time>2026-04-26T09:01:22.943Z</time></trkpt><trkpt lat="40.41351025645425" lon="16.493792281460177"><ele>164.0</ele><time>2026-04-26T09:01:23.943Z</time></trkpt><trkpt lat="40.4135836505468" lon="16.49372369463109"><ele>164.0</ele><time>2026-04-26T09:01:24.943Z</time></trkpt><trkpt lat="40.41363804431255" lon="16.4936581869473"><ele>164.0</ele><time>2026-04-26T09:01:25.942Z</time></trkpt><trkpt lat="40.4136731813545" lon="16.49358678740896"><ele>164.0</ele><time>2026-04-26T09:01:26.942Z</time></trkpt><trkpt lat="40.41368749146279" lon="16.493446208921952"><ele>164.0</ele><time>2026-04-26T09:01:28.942Z</time></trkpt><trkpt lat="40.413658874312944" lon="16.493363561314858"><ele>164.16666666666666</ele><time>2026-04-26T09:01:29.942Z</time></trkpt><trkpt lat="40.413611361612354" lon="16.49330806481155"><ele>164.33333333333331</ele><time>2026-04-26T09:01:30.942Z</time></trkpt><trkpt lat="40.413544728409484" lon="16.49320185730689"><ele>164.5</ele><time>2026-04-26T09:01:32.942Z</time></trkpt><trkpt lat="40.41345299001283" lon="16.49312194058073"><ele>164.66666666666666</ele><time>2026-04-26T09:01:34.942Z</time></trkpt><trkpt lat="40.41337201013119" lon="16.493150371778015"><ele>164.83333333333334</ele><time>2026-04-26T09:01:35.942Z</time></trkpt><trkpt lat="40.413289925065136" lon="16.493162589562314"><ele>165.0</ele><time>2026-04-26T09:01:36.942Z</time></trkpt><trkpt lat="40.41319333184026" lon="16.49319093911382"><ele>165.0</ele><time>2026-04-26T09:01:37.942Z</time></trkpt><trkpt lat="40.413096163829664" lon="16.4932162458587"><ele>165.0</ele><time>2026-04-26T09:01:38.942Z</time></trkpt><trkpt lat="40.413007039600835" lon="16.493239721962276"><ele>165.0</ele><time>2026-04-26T09:01:39.942Z</time></trkpt><trkpt lat="40.41291589236616" lon="16.493239586874065"><ele>165.0</ele><time>2026-04-26T09:01:40.942Z</time></trkpt><trkpt lat="40.4128357631713" lon="16.493249686571936"><ele>165.0</ele><time>2026-04-26T09:01:41.942Z</time></trkpt><trkpt lat="40.412752081627815" lon="16.493233076213315"><ele>165.0</ele><time>2026-04-26T09:01:42.942Z</time></trkpt><trkpt lat="40.412689596641506" lon="16.49318041218102"><ele>163.0</ele><time>2026-04-26T09:01:43.942Z</time></trkpt><trkpt lat="40.41263223083843" lon="16.493106643705044"><ele>161.0</ele><time>2026-04-26T09:01:44.942Z</time></trkpt><trkpt lat="40.41259844740928" lon="16.493004829956963"><ele>159.0</ele><time>2026-04-26T09:01:45.942Z</time></trkpt><trkpt lat="40.4125414009403" lon="16.49292046285153"><ele>157.0</ele><time>2026-04-26T09:01:46.942Z</time></trkpt><trkpt lat="40.412468706846944" lon="16.49283936982138"><ele>155.0</ele><time>2026-04-26T09:01:47.942Z</time></trkpt><trkpt lat="40.412389279709785" lon="16.49278280623925"><ele>153.0</ele><time>2026-04-26T09:01:48.942Z</time></trkpt><trkpt lat="40.41227144482003" lon="16.49276267858774"><ele>153.0</ele><time>2026-04-26T09:01:49.942Z</time></trkpt><trkpt lat="40.41216070644787" lon="16.49268998278055"><ele>153.0</ele><time>2026-04-26T09:01:50.942Z</time></trkpt><trkpt lat="40.41203432922163" lon="16.49262070543423"><ele>153.0</ele><time>2026-04-26T09:01:51.942Z</time></trkpt><trkpt lat="40.4119344819809" lon="16.492536383393066"><ele>153.0</ele><time>2026-04-26T09:01:52.942Z</time></trkpt><trkpt lat="40.41185104577268" lon="16.492443423108863"><ele>151.0</ele><time>2026-04-26T09:01:53.942Z</time></trkpt><trkpt lat="40.41177718090738" lon="16.492349094474143"><ele>149.0</ele><time>2026-04-26T09:01:54.942Z</time></trkpt><trkpt lat="40.411714261180265" lon="16.492233424691683"><ele>147.0</ele><time>2026-04-26T09:01:55.942Z</time></trkpt><trkpt lat="40.411660109994415" lon="16.49210576461468"><ele>145.0</ele><time>2026-04-26T09:01:56.942Z</time></trkpt><trkpt lat="40.41160860105986" lon="16.491974495018162"><ele>143.0</ele><time>2026-04-26T09:01:57.942Z</time></trkpt><trkpt lat="40.411546638116334" lon="16.491853261883392"><ele>142.20000000000002</ele><time>2026-04-26T09:01:58.942Z</time></trkpt><trkpt lat="40.4115009822609" lon="16.491710599928073"><ele>141.4</ele><time>2026-04-26T09:01:59.942Z</time></trkpt><trkpt lat="40.411443078732816" lon="16.491593331160956"><ele>140.60000000000002</ele><time>2026-04-26T09:02:00.942Z</time></trkpt><trkpt lat="40.411410105862565" lon="16.491487188667886"><ele>139.8</ele><time>2026-04-26T09:02:01.942Z</time></trkpt><trkpt lat="40.411375218575834" lon="16.491389788329478"><ele>139.0</ele><time>2026-04-26T09:02:02.942Z</time></trkpt><trkpt lat="40.411344715926255" lon="16.49130702754212"><ele>139.33333333333334</ele><time>2026-04-26T09:02:03.942Z</time></trkpt><trkpt lat="40.41130970460343" lon="16.491231766041444"><ele>139.66666666666669</ele><time>2026-04-26T09:02:04.942Z</time></trkpt><trkpt lat="40.41125557861212" lon="16.491160413101973"><ele>140.0</ele><time>2026-04-26T09:02:05.942Z</time></trkpt><trkpt lat="40.41118996899656" lon="16.491112271818803"><ele>140.33333333333334</ele><time>2026-04-26T09:02:06.942Z</time></trkpt><trkpt lat="40.411109782319116" lon="16.491089135952496"><ele>140.66666666666666</ele><time>2026-04-26T09:02:07.942Z</time></trkpt><trkpt lat="40.411017255213686" lon="16.49109383767867"><ele>141.0</ele><time>2026-04-26T09:02:08.942Z</time></trkpt><trkpt lat="40.41092620417218" lon="16.491162201868026"><ele>141.0</ele><time>2026-04-26T09:02:09.942Z</time></trkpt><trkpt lat="40.410831108047816" lon="16.491205710265408"><ele>141.0</ele><time>2026-04-26T09:02:10.942Z</time></trkpt><trkpt lat="40.41075742019785" lon="16.49127985873548"><ele>141.0</ele><time>2026-04-26T09:02:11.942Z</time></trkpt><trkpt lat="40.41066810213306" lon="16.49131168687723"><ele>141.0</ele><time>2026-04-26T09:02:12.942Z</time></trkpt><trkpt lat="40.41056888042521" lon="16.491360360752672"><ele>141.0</ele><time>2026-04-26T09:02:13.942Z</time></trkpt><trkpt lat="40.41046951243173" lon="16.491403553859268"><ele>139.6</ele><time>2026-04-26T09:02:14.942Z</time></trkpt><trkpt lat="40.4103614781549" lon="16.49144453540846"><ele>138.2</ele><time>2026-04-26T09:02:15.942Z</time></trkpt><trkpt lat="40.410266181398704" lon="16.491507523284184"><ele>136.8</ele><time>2026-04-26T09:02:16.942Z</time></trkpt><trkpt lat="40.41017206781371" lon="16.49156945613654"><ele>135.4</ele><time>2026-04-26T09:02:17.942Z</time></trkpt><trkpt lat="40.4100921938271" lon="16.49165406847804"><ele>134.0</ele><time>2026-04-26T09:02:18.942Z</time></trkpt><trkpt lat="40.41001258422883" lon="16.49176454202642"><ele>134.0</ele><time>2026-04-26T09:02:19.942Z</time></trkpt><trkpt lat="40.40992323918558" lon="16.49187288580908"><ele>134.0</ele><time>2026-04-26T09:02:20.942Z</time></trkpt><trkpt lat="40.40987635155007" lon="16.492028594097608"><ele>134.0</ele><time>2026-04-26T09:02:21.942Z</time></trkpt><trkpt lat="40.40981085829198" lon="16.492146389118425"><ele>134.0</ele><time>2026-04-26T09:02:22.942Z</time></trkpt><trkpt lat="40.409716515831214" lon="16.492223107725223"><ele>132.25</ele><time>2026-04-26T09:02:23.942Z</time></trkpt><trkpt lat="40.409609391455525" lon="16.492301492287503"><ele>130.5</ele><time>2026-04-26T09:02:24.942Z</time></trkpt><trkpt lat="40.409520356904245" lon="16.492419891361912"><ele>128.75</ele><time>2026-04-26T09:02:25.942Z</time></trkpt><trkpt lat="40.40943354599735" lon="16.492539668939013"><ele>127.0</ele><time>2026-04-26T09:02:26.942Z</time></trkpt><trkpt lat="40.409367243900064" lon="16.492668903294916"><ele>127.0</ele><time>2026-04-26T09:02:27.942Z</time></trkpt><trkpt lat="40.40929384892964" lon="16.492788234571417"><ele>127.0</ele><time>2026-04-26T09:02:28.942Z</time></trkpt><trkpt lat="40.409199414408825" lon="16.492870792507937"><ele>127.0</ele><time>2026-04-26T09:02:29.942Z</time></trkpt><trkpt lat="40.409090699806285" lon="16.492955264336352"><ele>127.0</ele><time>2026-04-26T09:02:30.942Z</time></trkpt><trkpt lat="40.408971353836876" lon="16.493014282433766"><ele>125.25</ele><time>2026-04-26T09:02:31.942Z</time></trkpt><trkpt lat="40.40885202432685" lon="16.49304012154946"><ele>123.5</ele><time>2026-04-26T09:02:32.942Z</time></trkpt><trkpt lat="40.408724252937546" lon="16.493045438323993"><ele>121.75</ele><time>2026-04-26T09:02:33.942Z</time></trkpt><trkpt lat="40.40859742780438" lon="16.4930479348779"><ele>120.0</ele><time>2026-04-26T09:02:34.942Z</time></trkpt><trkpt lat="40.408462875824135" lon="16.49305688830789"><ele>117.66666666666666</ele><time>2026-04-26T09:02:35.942Z</time></trkpt><trkpt lat="40.40831460618165" lon="16.49301281699102"><ele>115.33333333333333</ele><time>2026-04-26T09:02:36.942Z</time></trkpt><trkpt lat="40.40817091608721" lon="16.49297861045438"><ele>113.0</ele><time>2026-04-26T09:02:37.942Z</time></trkpt><trkpt lat="40.40801525111654" lon="16.492977639349633"><ele>113.5</ele><time>2026-04-26T09:02:38.942Z</time></trkpt><trkpt lat="40.4078664459612" lon="16.49296037186599"><ele>114.0</ele><time>2026-04-26T09:02:39.941Z</time></trkpt><trkpt lat="40.40773134343251" lon="16.49297622878582"><ele>114.5</ele><time>2026-04-26T09:02:40.941Z</time></trkpt><trkpt lat="40.40761605618683" lon="16.492992994925274"><ele>115.0</ele><time>2026-04-26T09:02:41.942Z</time></trkpt><trkpt lat="40.40749698338914" lon="16.49298744730653"><ele>115.0</ele><time>2026-04-26T09:02:42.942Z</time></trkpt><trkpt lat="40.40738370071568" lon="16.492939037954574"><ele>115.0</ele><time>2026-04-26T09:02:43.942Z</time></trkpt><trkpt lat="40.40725076730586" lon="16.49288672479389"><ele>115.0</ele><time>2026-04-26T09:02:44.941Z</time></trkpt><trkpt lat="40.407112909558975" lon="16.492829788733037"><ele>115.0</ele><time>2026-04-26T09:02:45.941Z</time></trkpt><trkpt lat="40.40696008367586" lon="16.49278912235341"><ele>113.0</ele><time>2026-04-26T09:02:46.941Z</time></trkpt><trkpt lat="40.406798941468644" lon="16.492721638675334"><ele>111.0</ele><time>2026-04-26T09:02:47.942Z</time></trkpt><trkpt lat="40.40663779306727" lon="16.492670797481317"><ele>109.0</ele><time>2026-04-26T09:02:48.941Z</time></trkpt><trkpt lat="40.40650144059027" lon="16.492641920497718"><ele>109.0</ele><time>2026-04-26T09:02:49.941Z</time></trkpt><trkpt lat="40.406368467104656" lon="16.49262443799325"><ele>109.0</ele><time>2026-04-26T09:02:50.942Z</time></trkpt><trkpt lat="40.406234460238636" lon="16.492623605317764"><ele>109.0</ele><time>2026-04-26T09:02:51.941Z</time></trkpt><trkpt lat="40.40609827547037" lon="16.492640541915527"><ele>109.0</ele><time>2026-04-26T09:02:52.941Z</time></trkpt><trkpt lat="40.405952154950256" lon="16.49267473624809"><ele>109.66666666666667</ele><time>2026-04-26T09:02:53.941Z</time></trkpt><trkpt lat="40.405804797100764" lon="16.492721940589913"><ele>110.33333333333334</ele><time>2026-04-26T09:02:54.941Z</time></trkpt><trkpt lat="40.405657348880204" lon="16.492771131633354"><ele>111.0</ele><time>2026-04-26T09:02:55.941Z</time></trkpt><trkpt lat="40.40551088881671" lon="16.492822472827285"><ele>110.0</ele><time>2026-04-26T09:02:56.941Z</time></trkpt><trkpt lat="40.40535689735864" lon="16.492882903027393"><ele>109.0</ele><time>2026-04-26T09:02:57.941Z</time></trkpt><trkpt lat="40.40520257955607" lon="16.492930287138684"><ele>108.0</ele><time>2026-04-26T09:02:58.941Z</time></trkpt><trkpt lat="40.40505141844837" lon="16.49296960327119"><ele>108.0</ele><time>2026-04-26T09:02:59.941Z</time></trkpt><trkpt lat="40.404895778482896" lon="16.49300485068266"><ele>108.0</ele><time>2026-04-26T09:03:00.941Z</time></trkpt><trkpt lat="40.404728760269734" lon="16.49305079061464"><ele>108.0</ele><time>2026-04-26T09:03:01.941Z</time></trkpt><trkpt lat="40.40457587502043" lon="16.49309021634074"><ele>107.25</ele><time>2026-04-26T09:03:02.941Z</time></trkpt><trkpt lat="40.404417163850525" lon="16.49315095691733"><ele>106.5</ele><time>2026-04-26T09:03:03.941Z</time></trkpt><trkpt lat="40.40427354133714" lon="16.493212263608033"><ele>105.75</ele><time>2026-04-26T09:03:04.941Z</time></trkpt><trkpt lat="40.404153668014686" lon="16.493276669979704"><ele>105.0</ele><time>2026-04-26T09:03:05.941Z</time></trkpt><trkpt lat="40.40405339133057" lon="16.49332556225459"><ele>105.0</ele><time>2026-04-26T09:03:06.941Z</time></trkpt><trkpt lat="40.40395512182146" lon="16.493322258501067"><ele>105.0</ele><time>2026-04-26T09:03:07.941Z</time></trkpt><trkpt lat="40.40388445148156" lon="16.493308660611152"><ele>105.0</ele><time>2026-04-26T09:03:08.941Z</time></trkpt><trkpt lat="40.40381359628275" lon="16.49326487408746"><ele>105.0</ele><time>2026-04-26T09:03:09.941Z</time></trkpt><trkpt lat="40.40371899169114" lon="16.49322539676616"><ele>105.0</ele><time>2026-04-26T09:03:10.941Z</time></trkpt><trkpt lat="40.403611175521185" lon="16.49322553094671"><ele>106.25</ele><time>2026-04-26T09:03:11.941Z</time></trkpt><trkpt lat="40.40348795695562" lon="16.493237784750573"><ele>107.5</ele><time>2026-04-26T09:03:12.941Z</time></trkpt><trkpt lat="40.4033540167955" lon="16.49323306842873"><ele>108.75</ele><time>2026-04-26T09:03:13.941Z</time></trkpt><trkpt lat="40.40321680879447" lon="16.493207544704163"><ele>110.0</ele><time>2026-04-26T09:03:14.941Z</time></trkpt><trkpt lat="40.403061672411525" lon="16.49316583483998"><ele>109.66666666666666</ele><time>2026-04-26T09:03:15.941Z</time></trkpt><trkpt lat="40.40290102083419" lon="16.493123995976948"><ele>109.33333333333334</ele><time>2026-04-26T09:03:16.941Z</time></trkpt><trkpt lat="40.402732376999694" lon="16.49309610399662"><ele>109.0</ele><time>2026-04-26T09:03:17.941Z</time></trkpt><trkpt lat="40.40257471275503" lon="16.493095332501138"><ele>109.0</ele><time>2026-04-26T09:03:18.941Z</time></trkpt><trkpt lat="40.40242568653805" lon="16.49307660130115"><ele>109.0</ele><time>2026-04-26T09:03:19.941Z</time></trkpt><trkpt lat="40.40228305067121" lon="16.49305862379389"><ele>109.0</ele><time>2026-04-26T09:03:20.941Z</time></trkpt><trkpt lat="40.4021516785482" lon="16.49297082635827"><ele>109.0</ele><time>2026-04-26T09:03:21.941Z</time></trkpt><trkpt lat="40.402020668225745" lon="16.492910906828648"><ele>107.25</ele><time>2026-04-26T09:03:22.941Z</time></trkpt><trkpt lat="40.40189440025346" lon="16.492874045452865"><ele>105.5</ele><time>2026-04-26T09:03:23.941Z</time></trkpt><trkpt lat="40.40176215408264" lon="16.492847999334334"><ele>103.75</ele><time>2026-04-26T09:03:24.941Z</time></trkpt><trkpt lat="40.40164896596674" lon="16.49285850827626"><ele>102.0</ele><time>2026-04-26T09:03:25.941Z</time></trkpt><trkpt lat="40.401533702022114" lon="16.492852174156308"><ele>102.0</ele><time>2026-04-26T09:03:26.941Z</time></trkpt><trkpt lat="40.40141853222583" lon="16.49286494508422"><ele>102.0</ele><time>2026-04-26T09:03:27.941Z</time></trkpt><trkpt lat="40.40130083774011" lon="16.4929100001724"><ele>102.0</ele><time>2026-04-26T09:03:28.941Z</time></trkpt><trkpt lat="40.40118659998126" lon="16.492976393072848"><ele>102.0</ele><time>2026-04-26T09:03:29.941Z</time></trkpt><trkpt lat="40.40110344606918" lon="16.493065104545334"><ele>102.8</ele><time>2026-04-26T09:03:30.941Z</time></trkpt><trkpt lat="40.40103808844409" lon="16.493171847796116"><ele>103.6</ele><time>2026-04-26T09:03:31.94Z</time></trkpt><trkpt lat="40.4009829291899" lon="16.493295287440013"><ele>104.39999999999999</ele><time>2026-04-26T09:03:32.94Z</time></trkpt><trkpt lat="40.40093131810669" lon="16.49338299147935"><ele>105.19999999999999</ele><time>2026-04-26T09:03:33.94Z</time></trkpt><trkpt lat="40.40086089605216" lon="16.493417438925523"><ele>106.0</ele><time>2026-04-26T09:03:34.94Z</time></trkpt><trkpt lat="40.400771706984955" lon="16.49336465934074"><ele>106.0</ele><time>2026-04-26T09:03:35.94Z</time></trkpt><trkpt lat="40.40066816009758" lon="16.493313074011926"><ele>106.0</ele><time>2026-04-26T09:03:36.94Z</time></trkpt><trkpt lat="40.40056610627201" lon="16.49324802007826"><ele>106.0</ele><time>2026-04-26T09:03:37.94Z</time></trkpt><trkpt lat="40.40044949678687" lon="16.493201318454748"><ele>106.0</ele><time>2026-04-26T09:03:38.94Z</time></trkpt><trkpt lat="40.400333903933706" lon="16.493180686550343"><ele>107.4</ele><time>2026-04-26T09:03:39.94Z</time></trkpt><trkpt lat="40.40022285701952" lon="16.493148317284927"><ele>108.8</ele><time>2026-04-26T09:03:40.94Z</time></trkpt><trkpt lat="40.40012463433854" lon="16.493137534802266"><ele>110.20000000000002</ele><time>2026-04-26T09:03:41.94Z</time></trkpt><trkpt lat="40.400043848436894" lon="16.493136653344674"><ele>111.60000000000001</ele><time>2026-04-26T09:03:42.94Z</time></trkpt><trkpt lat="40.39996569496581" lon="16.493161739728844"><ele>113.0</ele><time>2026-04-26T09:03:43.94Z</time></trkpt><trkpt lat="40.39988290299456" lon="16.493242533697885"><ele>113.0</ele><time>2026-04-26T09:03:45.94Z</time></trkpt><trkpt lat="40.399823150887336" lon="16.4933303189195"><ele>113.00000000000001</ele><time>2026-04-26T09:03:47.94Z</time></trkpt><trkpt lat="40.3997812302306" lon="16.4934324137634"><ele>113.00000000000001</ele><time>2026-04-26T09:03:50.94Z</time></trkpt><trkpt lat="40.39971623957607" lon="16.493543094873445"><ele>113.0</ele><time>2026-04-26T09:03:52.94Z</time></trkpt><trkpt lat="40.39960944325297" lon="16.49357634682553"><ele>113.0</ele><time>2026-04-26T09:03:54.94Z</time></trkpt><trkpt lat="40.39953890565228" lon="16.49352790725339"><ele>114.60000000000001</ele><time>2026-04-26T09:03:56.94Z</time></trkpt><trkpt lat="40.399452762466574" lon="16.49346331258033"><ele>116.20000000000002</ele><time>2026-04-26T09:03:58.94Z</time></trkpt><trkpt lat="40.39937345035039" lon="16.493414292695448"><ele>117.8</ele><time>2026-04-26T09:04:00.94Z</time></trkpt><trkpt lat="40.39929637457704" lon="16.49337791066329"><ele>119.4</ele><time>2026-04-26T09:04:03.94Z</time></trkpt><trkpt lat="40.399217781682836" lon="16.49335094621607"><ele>121.0</ele><time>2026-04-26T09:04:05.94Z</time></trkpt><trkpt lat="40.39911325080204" lon="16.493342194593346"><ele>121.00000000000001</ele><time>2026-04-26T09:04:07.94Z</time></trkpt><trkpt lat="40.39905044875292" lon="16.493350569708195"><ele>121.0</ele><time>2026-04-26T09:04:08.94Z</time></trkpt><trkpt lat="40.3989858605007" lon="16.493376747239125"><ele>121.0</ele><time>2026-04-26T09:04:09.94Z</time></trkpt><trkpt lat="40.398922736637324" lon="16.493422325586952"><ele>121.0</ele><time>2026-04-26T09:04:10.94Z</time></trkpt><trkpt lat="40.39886548798718" lon="16.493484668969863"><ele>121.00000000000001</ele><time>2026-04-26T09:04:11.94Z</time></trkpt><trkpt lat="40.39879991454657" lon="16.493567564418175"><ele>121.0</ele><time>2026-04-26T09:04:12.94Z</time></trkpt><trkpt lat="40.39877382710388" lon="16.493676589533067"><ele>121.33333333333334</ele><time>2026-04-26T09:04:13.94Z</time></trkpt><trkpt lat="40.39878694881865" lon="16.493783197247602"><ele>121.66666666666667</ele><time>2026-04-26T09:04:14.94Z</time></trkpt><trkpt lat="40.39880823699303" lon="16.493891586515026"><ele>122.0</ele><time>2026-04-26T09:04:15.94Z</time></trkpt><trkpt lat="40.39884341314937" lon="16.493995798981665"><ele>122.33333333333334</ele><time>2026-04-26T09:04:16.94Z</time></trkpt><trkpt lat="40.3988897572273" lon="16.494090913873872"><ele>122.66666666666667</ele><time>2026-04-26T09:04:17.94Z</time></trkpt><trkpt lat="40.39894198038888" lon="16.49418546119374"><ele>123.0</ele><time>2026-04-26T09:04:18.94Z</time></trkpt><trkpt lat="40.398985058176876" lon="16.494294722258495"><ele>124.0</ele><time>2026-04-26T09:04:19.94Z</time></trkpt><trkpt lat="40.39898910178309" lon="16.494429861153375"><ele>125.0</ele><time>2026-04-26T09:04:20.94Z</time></trkpt><trkpt lat="40.398990289513364" lon="16.49457795748221"><ele>126.0</ele><time>2026-04-26T09:04:21.94Z</time></trkpt><trkpt lat="40.39899644983576" lon="16.49473522118458"><ele>127.0</ele><time>2026-04-26T09:04:22.94Z</time></trkpt><trkpt lat="40.3990041819323" lon="16.494905918142365"><ele>128.25</ele><time>2026-04-26T09:04:23.94Z</time></trkpt><trkpt lat="40.399010622799565" lon="16.495078934784033"><ele>129.5</ele><time>2026-04-26T09:04:24.94Z</time></trkpt><trkpt lat="40.39901724983773" lon="16.49526122150497"><ele>130.75</ele><time>2026-04-26T09:04:25.94Z</time></trkpt><trkpt lat="40.39902270209622" lon="16.49543131750614"><ele>132.0</ele><time>2026-04-26T09:04:26.94Z</time></trkpt><trkpt lat="40.399017722070305" lon="16.49558520709147"><ele>132.25</ele><time>2026-04-26T09:04:27.94Z</time></trkpt><trkpt lat="40.39899070922557" lon="16.49574161737727"><ele>132.5</ele><time>2026-04-26T09:04:28.94Z</time></trkpt><trkpt lat="40.398948729570876" lon="16.49590707882257"><ele>132.75</ele><time>2026-04-26T09:04:29.94Z</time></trkpt><trkpt lat="40.398909993093916" lon="16.496056650120458"><ele>133.0</ele><time>2026-04-26T09:04:30.94Z</time></trkpt><trkpt lat="40.39887619669122" lon="16.496181459295077"><ele>131.75</ele><time>2026-04-26T09:04:31.94Z</time></trkpt><trkpt lat="40.398835527817795" lon="16.496314072489863"><ele>130.5</ele><time>2026-04-26T09:04:32.94Z</time></trkpt><trkpt lat="40.398798830913" lon="16.496462808115965"><ele>129.25</ele><time>2026-04-26T09:04:33.94Z</time></trkpt><trkpt lat="40.39877137177594" lon="16.496600374231825"><ele>128.0</ele><time>2026-04-26T09:04:34.94Z</time></trkpt><trkpt lat="40.39874965522048" lon="16.496761238384334"><ele>128.0</ele><time>2026-04-26T09:04:35.94Z</time></trkpt><trkpt lat="40.39873887615717" lon="16.496923912706194"><ele>128.0</ele><time>2026-04-26T09:04:36.94Z</time></trkpt><trkpt lat="40.39873329677854" lon="16.49707049271029"><ele>128.0</ele><time>2026-04-26T09:04:37.94Z</time></trkpt><trkpt lat="40.39872310166674" lon="16.4971916385749"><ele>128.0</ele><time>2026-04-26T09:04:38.94Z</time></trkpt><trkpt lat="40.39870041837106" lon="16.49728846166023"><ele>128.0</ele><time>2026-04-26T09:04:39.94Z</time></trkpt><trkpt lat="40.39862294410366" lon="16.497353761861373"><ele>126.49999999999999</ele><time>2026-04-26T09:04:40.94Z</time></trkpt><trkpt lat="40.39858596990321" lon="16.49744142799355"><ele>125.0</ele><time>2026-04-26T09:04:41.94Z</time></trkpt><trkpt lat="40.39856562660074" lon="16.4975197450767"><ele>123.5</ele><time>2026-04-26T09:04:42.94Z</time></trkpt><trkpt lat="40.39859968063125" lon="16.497645327821647"><ele>122.0</ele><time>2026-04-26T09:04:44.941Z</time></trkpt><trkpt lat="40.398686755856254" lon="16.497684859046718"><ele>120.49999999999999</ele><time>2026-04-26T09:04:45.94Z</time></trkpt><trkpt lat="40.398767416655375" lon="16.49767222800815"><ele>119.0</ele><time>2026-04-26T09:04:46.94Z</time></trkpt><trkpt lat="40.39883929529606" lon="16.497591441938212"><ele>117.25</ele><time>2026-04-26T09:04:47.94Z</time></trkpt><trkpt lat="40.39890630499789" lon="16.497505368084656"><ele>115.5</ele><time>2026-04-26T09:04:48.94Z</time></trkpt><trkpt lat="40.39897467417926" lon="16.497387746995162"><ele>113.75</ele><time>2026-04-26T09:04:49.94Z</time></trkpt><trkpt lat="40.399065969781695" lon="16.497287356044076"><ele>112.0</ele><time>2026-04-26T09:04:50.94Z</time></trkpt><trkpt lat="40.39915918939726" lon="16.497157530709416"><ele>114.19999999999999</ele><time>2026-04-26T09:04:51.94Z</time></trkpt><trkpt lat="40.39924442651275" lon="16.497038822413593"><ele>116.39999999999999</ele><time>2026-04-26T09:04:52.94Z</time></trkpt><trkpt lat="40.39932054254153" lon="16.49693975258705"><ele>118.60000000000001</ele><time>2026-04-26T09:04:53.94Z</time></trkpt><trkpt lat="40.39939673436015" lon="16.496879177651177"><ele>120.80000000000001</ele><time>2026-04-26T09:04:54.939Z</time></trkpt><trkpt lat="40.39947373207167" lon="16.496864894464828"><ele>123.0</ele><time>2026-04-26T09:04:55.939Z</time></trkpt><trkpt lat="40.399549250387246" lon="16.496884313760187"><ele>123.0</ele><time>2026-04-26T09:04:56.94Z</time></trkpt><trkpt lat="40.399621011222024" lon="16.49693622490528"><ele>123.00000000000001</ele><time>2026-04-26T09:04:57.94Z</time></trkpt><trkpt lat="40.39966523753956" lon="16.497010859866528"><ele>123.00000000000001</ele><time>2026-04-26T09:04:58.94Z</time></trkpt><trkpt lat="40.39968789561531" lon="16.497125591776285"><ele>123.0</ele><time>2026-04-26T09:04:59.94Z</time></trkpt><trkpt lat="40.39968229346701" lon="16.49725243883537"><ele>123.0</ele><time>2026-04-26T09:05:00.94Z</time></trkpt><trkpt lat="40.39967513997783" lon="16.497404185795112"><ele>120.66666666666666</ele><time>2026-04-26T09:05:01.94Z</time></trkpt><trkpt lat="40.399689380625496" lon="16.49759008739978"><ele>118.33333333333333</ele><time>2026-04-26T09:05:02.94Z</time></trkpt><trkpt lat="40.39967630629545" lon="16.497792713078226"><ele>116.0</ele><time>2026-04-26T09:05:03.94Z</time></trkpt><trkpt lat="40.39967301861831" lon="16.498003070211904"><ele>113.5</ele><time>2026-04-26T09:05:04.94Z</time></trkpt><trkpt lat="40.399661329274835" lon="16.49818660817183"><ele>111.0</ele><time>2026-04-26T09:05:05.94Z</time></trkpt><trkpt lat="40.399648654165816" lon="16.49833961050273"><ele>108.5</ele><time>2026-04-26T09:05:06.94Z</time></trkpt><trkpt lat="40.39960581236891" lon="16.498487166334822"><ele>106.0</ele><time>2026-04-26T09:05:07.94Z</time></trkpt><trkpt lat="40.39955607143702" lon="16.498635817146326"><ele>104.75</ele><time>2026-04-26T09:05:08.94Z</time></trkpt><trkpt lat="40.399499778579354" lon="16.49879590961804"><ele>103.5</ele><time>2026-04-26T09:05:09.94Z</time></trkpt><trkpt lat="40.39944568415885" lon="16.498953750633582"><ele>102.25</ele><time>2026-04-26T09:05:10.94Z</time></trkpt><trkpt lat="40.39939483196644" lon="16.4991144217137"><ele>101.0</ele><time>2026-04-26T09:05:11.94Z</time></trkpt><trkpt lat="40.399325192462435" lon="16.49926882293549"><ele>101.0</ele><time>2026-04-26T09:05:12.94Z</time></trkpt><trkpt lat="40.39928127589613" lon="16.499420382655817"><ele>101.0</ele><time>2026-04-26T09:05:13.94Z</time></trkpt><trkpt lat="40.399241441761006" lon="16.49954911838457"><ele>101.0</ele><time>2026-04-26T09:05:14.94Z</time></trkpt><trkpt lat="40.39920179156186" lon="16.499671848690127"><ele>101.0</ele><time>2026-04-26T09:05:15.94Z</time></trkpt><trkpt lat="40.3991626142475" lon="16.49977038275066"><ele>101.0</ele><time>2026-04-26T09:05:16.94Z</time></trkpt><trkpt lat="40.39911885701444" lon="16.499836671683827"><ele>101.0</ele><time>2026-04-26T09:05:17.94Z</time></trkpt><trkpt lat="40.399028463901466" lon="16.499763296674477"><ele>101.0</ele><time>2026-04-26T09:05:19.94Z</time></trkpt><trkpt lat="40.39899701239159" lon="16.4996876534495"><ele>101.0</ele><time>2026-04-26T09:05:20.94Z</time></trkpt><trkpt lat="40.39893045636407" lon="16.499592085069054"><ele>101.0</ele><time>2026-04-26T09:05:21.94Z</time></trkpt><trkpt lat="40.39884703546466" lon="16.499497511465776"><ele>101.0</ele><time>2026-04-26T09:05:22.94Z</time></trkpt><trkpt lat="40.39873968792447" lon="16.499431799388177"><ele>100.6</ele><time>2026-04-26T09:05:23.94Z</time></trkpt><trkpt lat="40.39863725523161" lon="16.499412961475926"><ele>100.19999999999999</ele><time>2026-04-26T09:05:24.94Z</time></trkpt><trkpt lat="40.398536270048325" lon="16.499456165592793"><ele>99.80000000000001</ele><time>2026-04-26T09:05:25.94Z</time></trkpt><trkpt lat="40.39845055715055" lon="16.499509633282447"><ele>99.4</ele><time>2026-04-26T09:05:26.94Z</time></trkpt><trkpt lat="40.398375427279596" lon="16.499590645935005"><ele>99.0</ele><time>2026-04-26T09:05:27.94Z</time></trkpt><trkpt lat="40.39832443115544" lon="16.499692862146052"><ele>100.0</ele><time>2026-04-26T09:05:28.94Z</time></trkpt><trkpt lat="40.39828057483233" lon="16.499814290165272"><ele>101.0</ele><time>2026-04-26T09:05:29.94Z</time></trkpt><trkpt lat="40.39820820245031" lon="16.499900151951703"><ele>102.0</ele><time>2026-04-26T09:05:30.94Z</time></trkpt><trkpt lat="40.39812338367678" lon="16.499931346864262"><ele>103.0</ele><time>2026-04-26T09:05:31.94Z</time></trkpt><trkpt lat="40.39802956227174" lon="16.499979892810146"><ele>104.0</ele><time>2026-04-26T09:05:32.94Z</time></trkpt><trkpt lat="40.397922426714615" lon="16.500059073104037"><ele>104.0</ele><time>2026-04-26T09:05:33.94Z</time></trkpt><trkpt lat="40.39782353686067" lon="16.500143057295304"><ele>104.0</ele><time>2026-04-26T09:05:34.94Z</time></trkpt><trkpt lat="40.39774335032258" lon="16.500257827786626"><ele>104.0</ele><time>2026-04-26T09:05:35.939Z</time></trkpt><trkpt lat="40.397693965937556" lon="16.50038653308412"><ele>104.0</ele><time>2026-04-26T09:05:36.939Z</time></trkpt><trkpt lat="40.39767547267624" lon="16.50051496797453"><ele>104.0</ele><time>2026-04-26T09:05:37.939Z</time></trkpt><trkpt lat="40.39768235230531" lon="16.500649381472808"><ele>104.5</ele><time>2026-04-26T09:05:38.939Z</time></trkpt><trkpt lat="40.39772391316487" lon="16.50077589733694"><ele>105.0</ele><time>2026-04-26T09:05:39.939Z</time></trkpt><trkpt lat="40.397785294480684" lon="16.50091380216466"><ele>105.5</ele><time>2026-04-26T09:05:40.939Z</time></trkpt><trkpt lat="40.397843255067556" lon="16.50106392837143"><ele>106.0</ele><time>2026-04-26T09:05:41.939Z</time></trkpt><trkpt lat="40.39790027337724" lon="16.501229743930125"><ele>106.0</ele><time>2026-04-26T09:05:42.939Z</time></trkpt><trkpt lat="40.397950443986495" lon="16.501404800169446"><ele>106.0</ele><time>2026-04-26T09:05:43.939Z</time></trkpt><trkpt lat="40.39798364056395" lon="16.50158938787013"><ele>106.0</ele><time>2026-04-26T09:05:44.939Z</time></trkpt><trkpt lat="40.39801188419449" lon="16.501792108898073"><ele>106.0</ele><time>2026-04-26T09:05:45.939Z</time></trkpt><trkpt lat="40.398026526789394" lon="16.5020087907004"><ele>108.33333333333334</ele><time>2026-04-26T09:05:46.939Z</time></trkpt><trkpt lat="40.3980381113805" lon="16.502265052660995"><ele>110.66666666666666</ele><time>2026-04-26T09:05:47.939Z</time></trkpt><trkpt lat="40.39805202108089" lon="16.50248914160193"><ele>113.0</ele><time>2026-04-26T09:05:48.939Z</time></trkpt><trkpt lat="40.39806318379253" lon="16.50267940372403"><ele>113.0</ele><time>2026-04-26T09:05:49.939Z</time></trkpt><trkpt lat="40.398072371236665" lon="16.50284675757959"><ele>113.00000000000001</ele><time>2026-04-26T09:05:50.939Z</time></trkpt><trkpt lat="40.398084690982124" lon="16.502991888379935"><ele>113.00000000000001</ele><time>2026-04-26T09:05:51.939Z</time></trkpt><trkpt lat="40.3981061241889" lon="16.503120814377297"><ele>113.0</ele><time>2026-04-26T09:05:52.939Z</time></trkpt><trkpt lat="40.39814924687576" lon="16.503213327777047"><ele>113.0</ele><time>2026-04-26T09:05:53.939Z</time></trkpt><trkpt lat="40.39822206767351" lon="16.503293170979937"><ele>111.80000000000001</ele><time>2026-04-26T09:05:54.939Z</time></trkpt><trkpt lat="40.39830905484142" lon="16.50333838685033"><ele>110.60000000000001</ele><time>2026-04-26T09:05:55.939Z</time></trkpt><trkpt lat="40.39842277619754" lon="16.50336487868599"><ele>109.39999999999999</ele><time>2026-04-26T09:05:56.939Z</time></trkpt><trkpt lat="40.398529501153035" lon="16.503387485427176"><ele>108.19999999999999</ele><time>2026-04-26T09:05:57.939Z</time></trkpt><trkpt lat="40.39860158798826" lon="16.503440118124242"><ele>107.0</ele><time>2026-04-26T09:05:58.939Z</time></trkpt><trkpt lat="40.39864357549057" lon="16.50351674933677"><ele>107.0</ele><time>2026-04-26T09:05:59.939Z</time></trkpt><trkpt lat="40.39867113147423" lon="16.503617916561836"><ele>106.99999999999999</ele><time>2026-04-26T09:06:00.939Z</time></trkpt><trkpt lat="40.39863810631373" lon="16.503756649392066"><ele>106.99999999999999</ele><time>2026-04-26T09:06:01.939Z</time></trkpt><trkpt lat="40.39859563609042" lon="16.5038930062198"><ele>107.0</ele><time>2026-04-26T09:06:02.939Z</time></trkpt><trkpt lat="40.39856047364794" lon="16.504072028818612"><ele>107.0</ele><time>2026-04-26T09:06:03.939Z</time></trkpt><trkpt lat="40.398514078478485" lon="16.504249045785848"><ele>106.8</ele><time>2026-04-26T09:06:04.939Z</time></trkpt><trkpt lat="40.39846674053855" lon="16.504405031331135"><ele>106.6</ele><time>2026-04-26T09:06:05.939Z</time></trkpt><trkpt lat="40.39840202389801" lon="16.504507926721057"><ele>106.39999999999999</ele><time>2026-04-26T09:06:06.939Z</time></trkpt><trkpt lat="40.39832010439985" lon="16.50457407953116"><ele>106.19999999999999</ele><time>2026-04-26T09:06:07.939Z</time></trkpt><trkpt lat="40.3982182635045" lon="16.504558985753896"><ele>106.0</ele><time>2026-04-26T09:06:08.939Z</time></trkpt><trkpt lat="40.39810165625949" lon="16.50455515890538"><ele>106.16666666666667</ele><time>2026-04-26T09:06:09.939Z</time></trkpt><trkpt lat="40.39798672282972" lon="16.504584574708932"><ele>106.33333333333334</ele><time>2026-04-26T09:06:10.939Z</time></trkpt><trkpt lat="40.397897580734345" lon="16.504602728649715"><ele>106.5</ele><time>2026-04-26T09:06:11.939Z</time></trkpt><trkpt lat="40.39783704868378" lon="16.504674627542077"><ele>106.66666666666666</ele><time>2026-04-26T09:06:12.939Z</time></trkpt><trkpt lat="40.397801542384485" lon="16.504773805921324"><ele>106.83333333333333</ele><time>2026-04-26T09:06:13.939Z</time></trkpt><trkpt lat="40.39780931640282" lon="16.504873826025225"><ele>107.0</ele><time>2026-04-26T09:06:14.939Z</time></trkpt><trkpt lat="40.397857788326434" lon="16.504960872117714"><ele>107.0</ele><time>2026-04-26T09:06:15.939Z</time></trkpt><trkpt lat="40.397927806811374" lon="16.505035026396264"><ele>106.99999999999999</ele><time>2026-04-26T09:06:16.939Z</time></trkpt><trkpt lat="40.39802481919364" lon="16.505110056081165"><ele>106.99999999999999</ele><time>2026-04-26T09:06:17.939Z</time></trkpt><trkpt lat="40.398115157861355" lon="16.505194885382103"><ele>107.0</ele><time>2026-04-26T09:06:18.939Z</time></trkpt><trkpt lat="40.39815503744514" lon="16.505299359572938"><ele>107.0</ele><time>2026-04-26T09:06:19.939Z</time></trkpt><trkpt lat="40.39815670838641" lon="16.505411281294958"><ele>107.0</ele><time>2026-04-26T09:06:20.939Z</time></trkpt><trkpt lat="40.39811623968629" lon="16.5055209633719"><ele>106.99999999999999</ele><time>2026-04-26T09:06:21.939Z</time></trkpt><trkpt lat="40.39810700495067" lon="16.505661885789078"><ele>106.99999999999999</ele><time>2026-04-26T09:06:22.939Z</time></trkpt><trkpt lat="40.39808431777162" lon="16.505800284088824"><ele>107.0</ele><time>2026-04-26T09:06:23.939Z</time></trkpt><trkpt lat="40.398081636498326" lon="16.505918810354743"><ele>107.0</ele><time>2026-04-26T09:06:24.939Z</time></trkpt><trkpt lat="40.3981072580829" lon="16.50600273813093"><ele>106.99999999999999</ele><time>2026-04-26T09:06:25.939Z</time></trkpt><trkpt lat="40.39816820454803" lon="16.50605510402017"><ele>107.0</ele><time>2026-04-26T09:06:26.939Z</time></trkpt><trkpt lat="40.398225144945975" lon="16.5061123489195"><ele>107.0</ele><time>2026-04-26T09:06:27.939Z</time></trkpt><trkpt lat="40.39832142354725" lon="16.506113422794765"><ele>107.0</ele><time>2026-04-26T09:06:28.939Z</time></trkpt><trkpt lat="40.39840539374567" lon="16.506088561763917"><ele>106.99999999999999</ele><time>2026-04-26T09:06:29.939Z</time></trkpt><trkpt lat="40.39848118857469" lon="16.50614096766363"><ele>107.0</ele><time>2026-04-26T09:06:31.939Z</time></trkpt><trkpt lat="40.39848062767933" lon="16.506294232928308"><ele>105.19999999999999</ele><time>2026-04-26T09:06:33.939Z</time></trkpt><trkpt lat="40.398434717662795" lon="16.506371218740423"><ele>103.39999999999999</ele><time>2026-04-26T09:06:34.939Z</time></trkpt><trkpt lat="40.39834486168466" lon="16.506412736609512"><ele>101.6</ele><time>2026-04-26T09:06:35.939Z</time></trkpt><trkpt lat="40.39825731654635" lon="16.506497749910707"><ele>99.80000000000001</ele><time>2026-04-26T09:06:36.939Z</time></trkpt><trkpt lat="40.39815059559008" lon="16.50659120638655"><ele>98.0</ele><time>2026-04-26T09:06:37.939Z</time></trkpt><trkpt lat="40.39806409894643" lon="16.506674130545974"><ele>97.60000000000001</ele><time>2026-04-26T09:06:38.939Z</time></trkpt><trkpt lat="40.39794241715379" lon="16.50668280751016"><ele>97.2</ele><time>2026-04-26T09:06:39.939Z</time></trkpt><trkpt lat="40.39783267938497" lon="16.506730360390602"><ele>96.8</ele><time>2026-04-26T09:06:40.939Z</time></trkpt><trkpt lat="40.397749106553434" lon="16.506793922940922"><ele>96.4</ele><time>2026-04-26T09:06:41.939Z</time></trkpt><trkpt lat="40.39767661210144" lon="16.50684345179751"><ele>96.0</ele><time>2026-04-26T09:06:42.939Z</time></trkpt><trkpt lat="40.397625941017694" lon="16.50693986961671"><ele>96.0</ele><time>2026-04-26T09:06:43.939Z</time></trkpt><trkpt lat="40.39759591122384" lon="16.5070736235765"><ele>96.0</ele><time>2026-04-26T09:06:44.939Z</time></trkpt><trkpt lat="40.39758138817847" lon="16.507227502901916"><ele>96.0</ele><time>2026-04-26T09:06:45.939Z</time></trkpt><trkpt lat="40.39758466217226" lon="16.507396274899413"><ele>96.0</ele><time>2026-04-26T09:06:46.939Z</time></trkpt><trkpt lat="40.397584282542184" lon="16.50757314486056"><ele>96.25</ele><time>2026-04-26T09:06:47.939Z</time></trkpt><trkpt lat="40.39755535088278" lon="16.507747939923814"><ele>96.5</ele><time>2026-04-26T09:06:48.939Z</time></trkpt><trkpt lat="40.39750901438414" lon="16.507925621179588"><ele>96.75</ele><time>2026-04-26T09:06:49.939Z</time></trkpt><trkpt lat="40.39744170453877" lon="16.50810710217169"><ele>97.0</ele><time>2026-04-26T09:06:50.939Z</time></trkpt><trkpt lat="40.397366483574146" lon="16.508290000898995"><ele>97.0</ele><time>2026-04-26T09:06:51.938Z</time></trkpt><trkpt lat="40.39730617437093" lon="16.508441027774815"><ele>97.0</ele><time>2026-04-26T09:06:52.938Z</time></trkpt><trkpt lat="40.39727861285117" lon="16.508586181717813"><ele>97.0</ele><time>2026-04-26T09:06:53.939Z</time></trkpt><trkpt lat="40.39726403594364" lon="16.508737691846676"><ele>97.0</ele><time>2026-04-26T09:06:54.938Z</time></trkpt><trkpt lat="40.3972504525783" lon="16.508896872081614"><ele>96.5</ele><time>2026-04-26T09:06:55.938Z</time></trkpt><trkpt lat="40.39718223727097" lon="16.50900471658777"><ele>96.0</ele><time>2026-04-26T09:06:56.939Z</time></trkpt><trkpt lat="40.397111572936275" lon="16.509127813346485"><ele>95.5</ele><time>2026-04-26T09:06:57.938Z</time></trkpt><trkpt lat="40.39703747668172" lon="16.509260314674986"><ele>95.0</ele><time>2026-04-26T09:06:58.938Z</time></trkpt><trkpt lat="40.396970975510534" lon="16.509372417845015"><ele>95.0</ele><time>2026-04-26T09:06:59.938Z</time></trkpt><trkpt lat="40.39692261705078" lon="16.509448208408635"><ele>95.0</ele><time>2026-04-26T09:07:00.938Z</time></trkpt><trkpt lat="40.39688159883612" lon="16.509514597254437"><ele>95.0</ele><time>2026-04-26T09:07:02.938Z</time></trkpt><trkpt lat="40.39683798782221" lon="16.509645447131277"><ele>95.0</ele><time>2026-04-26T09:08:59.938Z</time></trkpt><trkpt lat="40.39680654254419" lon="16.509778787014568"><ele>95.0</ele><time>2026-04-26T09:09:01.937Z</time></trkpt><trkpt lat="40.3968118698618" lon="16.509928263250256"><ele>95.0</ele><time>2026-04-26T09:09:03.937Z</time></trkpt><trkpt lat="40.39687077135706" lon="16.510044527404126"><ele>95.0</ele><time>2026-04-26T09:09:05.937Z</time></trkpt><trkpt lat="40.39693190636148" lon="16.510090925080384"><ele>95.0</ele><time>2026-04-26T09:09:06.937Z</time></trkpt><trkpt lat="40.39700483764601" lon="16.510125477171563"><ele>95.0</ele><time>2026-04-26T09:09:07.937Z</time></trkpt><trkpt lat="40.397077719536526" lon="16.51017761045556"><ele>95.0</ele><time>2026-04-26T09:09:08.937Z</time></trkpt><trkpt lat="40.39715137979329" lon="16.51024574296646"><ele>95.0</ele><time>2026-04-26T09:09:09.938Z</time></trkpt><trkpt lat="40.397207470715024" lon="16.51032817532711"><ele>95.4</ele><time>2026-04-26T09:09:10.938Z</time></trkpt><trkpt lat="40.39724899328527" lon="16.510417761890228"><ele>95.8</ele><time>2026-04-26T09:09:11.938Z</time></trkpt><trkpt lat="40.39726363298397" lon="16.510548764927645"><ele>96.19999999999999</ele><time>2026-04-26T09:09:12.938Z</time></trkpt><trkpt lat="40.397246469267024" lon="16.510673924738743"><ele>96.6</ele><time>2026-04-26T09:09:14.938Z</time></trkpt><trkpt lat="40.39716613204376" lon="16.510731156248003"><ele>97.0</ele><time>2026-04-26T09:09:15.938Z</time></trkpt><trkpt lat="40.39711866876867" lon="16.510823256413452"><ele>96.16666666666667</ele><time>2026-04-26T09:09:16.938Z</time></trkpt><trkpt lat="40.397092422805166" lon="16.51092377466043"><ele>95.33333333333334</ele><time>2026-04-26T09:09:17.938Z</time></trkpt><trkpt lat="40.39705644598265" lon="16.51101601987396"><ele>94.5</ele><time>2026-04-26T09:09:18.938Z</time></trkpt><trkpt lat="40.39703462403403" lon="16.511116777385354"><ele>93.66666666666667</ele><time>2026-04-26T09:09:19.938Z</time></trkpt><trkpt lat="40.397014059205816" lon="16.511233528489893"><ele>92.83333333333334</ele><time>2026-04-26T09:09:20.938Z</time></trkpt><trkpt lat="40.3969977012699" lon="16.511335165080457"><ele>92.0</ele><time>2026-04-26T09:09:21.938Z</time></trkpt><trkpt lat="40.39700777366222" lon="16.51144458068486"><ele>92.0</ele><time>2026-04-26T09:09:22.938Z</time></trkpt><trkpt lat="40.39701641599932" lon="16.511545887571945"><ele>92.0</ele><time>2026-04-26T09:09:23.938Z</time></trkpt><trkpt lat="40.397020835163694" lon="16.511665114932715"><ele>92.0</ele><time>2026-04-26T09:09:24.938Z</time></trkpt><trkpt lat="40.39699869384091" lon="16.511775006650804"><ele>92.0</ele><time>2026-04-26T09:09:25.938Z</time></trkpt><trkpt lat="40.396963441526125" lon="16.51188172587074"><ele>92.0</ele><time>2026-04-26T09:09:26.938Z</time></trkpt><trkpt lat="40.39687550996932" lon="16.511939262805175"><ele>92.0</ele><time>2026-04-26T09:09:27.938Z</time></trkpt><trkpt lat="40.396785575708435" lon="16.511998719206236"><ele>92.0</ele><time>2026-04-26T09:09:28.938Z</time></trkpt><trkpt lat="40.39668612986027" lon="16.512058966765533"><ele>92.0</ele><time>2026-04-26T09:09:29.938Z</time></trkpt><trkpt lat="40.39659948673561" lon="16.512146860299836"><ele>92.0</ele><time>2026-04-26T09:09:30.938Z</time></trkpt><trkpt lat="40.39651187761066" lon="16.512234600552443"><ele>92.0</ele><time>2026-04-26T09:09:31.938Z</time></trkpt><trkpt lat="40.39643584583957" lon="16.51234034084271"><ele>92.0</ele><time>2026-04-26T09:09:32.938Z</time></trkpt><trkpt lat="40.39635031173765" lon="16.51244829964042"><ele>92.8</ele><time>2026-04-26T09:09:33.938Z</time></trkpt><trkpt lat="40.39626214807781" lon="16.512541881752558"><ele>93.6</ele><time>2026-04-26T09:09:34.938Z</time></trkpt><trkpt lat="40.39618426020802" lon="16.512641773192843"><ele>94.39999999999999</ele><time>2026-04-26T09:09:35.938Z</time></trkpt><trkpt lat="40.39610633476624" lon="16.512745173552577"><ele>95.19999999999999</ele><time>2026-04-26T09:09:36.938Z</time></trkpt><trkpt lat="40.396040282105716" lon="16.51284388120851"><ele>96.0</ele><time>2026-04-26T09:09:37.938Z</time></trkpt><trkpt lat="40.39597604942725" lon="16.512946191966186"><ele>96.8</ele><time>2026-04-26T09:09:38.938Z</time></trkpt><trkpt lat="40.39592709468733" lon="16.51303669017637"><ele>97.6</ele><time>2026-04-26T09:09:39.938Z</time></trkpt><trkpt lat="40.395887481583244" lon="16.513145163396864"><ele>98.4</ele><time>2026-04-26T09:09:40.938Z</time></trkpt><trkpt lat="40.395865212538745" lon="16.513268479290012"><ele>99.2</ele><time>2026-04-26T09:09:41.938Z</time></trkpt><trkpt lat="40.39583583270442" lon="16.513401543924374"><ele>100.0</ele><time>2026-04-26T09:09:42.938Z</time></trkpt><trkpt lat="40.395796376289965" lon="16.513532391606894"><ele>100.0</ele><time>2026-04-26T09:09:43.938Z</time></trkpt><trkpt lat="40.39575440184257" lon="16.513663786933233"><ele>100.0</ele><time>2026-04-26T09:09:44.937Z</time></trkpt><trkpt lat="40.39570779918073" lon="16.51379219478819"><ele>100.0</ele><time>2026-04-26T09:09:45.937Z</time></trkpt><trkpt lat="40.39566100019173" lon="16.51391735840213"><ele>100.0</ele><time>2026-04-26T09:09:46.937Z</time></trkpt><trkpt lat="40.39561378467742" lon="16.514043953080673"><ele>100.0</ele><time>2026-04-26T09:09:47.937Z</time></trkpt><trkpt lat="40.395562855872754" lon="16.514166415499854"><ele>100.2</ele><time>2026-04-26T09:09:48.937Z</time></trkpt><trkpt lat="40.395518700935874" lon="16.514268349747983"><ele>100.4</ele><time>2026-04-26T09:09:49.937Z</time></trkpt><trkpt lat="40.395488188794616" lon="16.514346499122833"><ele>100.6</ele><time>2026-04-26T09:09:50.937Z</time></trkpt><trkpt lat="40.39544118688971" lon="16.514450692757492"><ele>100.8</ele><time>2026-04-26T09:09:52.937Z</time></trkpt><trkpt lat="40.39541877943904" lon="16.514577904433562"><ele>101.0</ele><time>2026-04-26T09:13:09.934Z</time></trkpt><trkpt lat="40.39537458847045" lon="16.514750210663262"><ele>101.0</ele><time>2026-04-26T09:13:11.935Z</time></trkpt><trkpt lat="40.39536696579776" lon="16.51487835003343"><ele>101.0</ele><time>2026-04-26T09:13:12.935Z</time></trkpt><trkpt lat="40.39535648297373" lon="16.51506125963726"><ele>101.0</ele><time>2026-04-26T09:13:13.935Z</time></trkpt><trkpt lat="40.39534492586073" lon="16.515292552427905"><ele>101.0</ele><time>2026-04-26T09:13:14.935Z</time></trkpt><trkpt lat="40.39532868891235" lon="16.515531016854528"><ele>100.66666666666666</ele><time>2026-04-26T09:13:15.935Z</time></trkpt><trkpt lat="40.39531241088779" lon="16.515755952340793"><ele>100.33333333333334</ele><time>2026-04-26T09:13:16.935Z</time></trkpt><trkpt lat="40.395297890176295" lon="16.51594523610692"><ele>100.0</ele><time>2026-04-26T09:13:17.935Z</time></trkpt><trkpt lat="40.39528135460144" lon="16.516137212955517"><ele>98.33333333333334</ele><time>2026-04-26T09:13:18.935Z</time></trkpt><trkpt lat="40.395244267669526" lon="16.516338969178904"><ele>96.66666666666667</ele><time>2026-04-26T09:13:19.935Z</time></trkpt><trkpt lat="40.39517477540076" lon="16.516521620977304"><ele>95.0</ele><time>2026-04-26T09:13:20.934Z</time></trkpt><trkpt lat="40.3951260476561" lon="16.516728879140267"><ele>95.0</ele><time>2026-04-26T09:13:21.934Z</time></trkpt><trkpt lat="40.39506147754489" lon="16.516910824335053"><ele>95.0</ele><time>2026-04-26T09:13:22.934Z</time></trkpt><trkpt lat="40.39499544237859" lon="16.51712324047138"><ele>95.0</ele><time>2026-04-26T09:13:23.934Z</time></trkpt><trkpt lat="40.39492753334967" lon="16.51732070799912"><ele>94.25</ele><time>2026-04-26T09:13:24.934Z</time></trkpt><trkpt lat="40.39486339426425" lon="16.5174935491376"><ele>93.5</ele><time>2026-04-26T09:13:25.934Z</time></trkpt><trkpt lat="40.39478411337215" lon="16.517658698267237"><ele>92.75</ele><time>2026-04-26T09:13:26.934Z</time></trkpt><trkpt lat="40.39468679706274" lon="16.517790000186178"><ele>92.0</ele><time>2026-04-26T09:13:27.934Z</time></trkpt><trkpt lat="40.39459626980697" lon="16.517918420022262"><ele>91.75</ele><time>2026-04-26T09:13:28.934Z</time></trkpt><trkpt lat="40.394524466403304" lon="16.518054013228742"><ele>91.5</ele><time>2026-04-26T09:13:29.934Z</time></trkpt><trkpt lat="40.39444986755404" lon="16.518189033843786"><ele>91.25</ele><time>2026-04-26T09:13:30.934Z</time></trkpt><trkpt lat="40.39441384914481" lon="16.518360517228167"><ele>91.0</ele><time>2026-04-26T09:13:31.934Z</time></trkpt><trkpt lat="40.39441246769736" lon="16.518548570045834"><ele>91.0</ele><time>2026-04-26T09:13:32.934Z</time></trkpt><trkpt lat="40.39443519229352" lon="16.51873110703591"><ele>91.0</ele><time>2026-04-26T09:13:33.934Z</time></trkpt><trkpt lat="40.39447126884532" lon="16.51892492524047"><ele>91.0</ele><time>2026-04-26T09:13:34.934Z</time></trkpt><trkpt lat="40.394518448960426" lon="16.51914676934117"><ele>91.33333333333333</ele><time>2026-04-26T09:13:35.934Z</time></trkpt><trkpt lat="40.394554213204536" lon="16.519356638521668"><ele>91.66666666666667</ele><time>2026-04-26T09:13:36.934Z</time></trkpt><trkpt lat="40.394582296583884" lon="16.51956048933613"><ele>92.0</ele><time>2026-04-26T09:13:37.934Z</time></trkpt><trkpt lat="40.3946064159876" lon="16.519732654622935"><ele>92.25</ele><time>2026-04-26T09:13:38.934Z</time></trkpt><trkpt lat="40.39463552534789" lon="16.519897915376557"><ele>92.5</ele><time>2026-04-26T09:13:39.934Z</time></trkpt><trkpt lat="40.39466568204001" lon="16.520051417716036"><ele>92.75</ele><time>2026-04-26T09:13:40.934Z</time></trkpt><trkpt lat="40.39467532423862" lon="16.520204828829854"><ele>93.0</ele><time>2026-04-26T09:13:41.934Z</time></trkpt><trkpt lat="40.39466929252868" lon="16.520347447518326"><ele>91.80000000000001</ele><time>2026-04-26T09:13:42.934Z</time></trkpt><trkpt lat="40.39462935006814" lon="16.52047615435268"><ele>90.6</ele><time>2026-04-26T09:13:43.934Z</time></trkpt><trkpt lat="40.39457988132" lon="16.52058270871822"><ele>89.4</ele><time>2026-04-26T09:13:44.934Z</time></trkpt><trkpt lat="40.39450849082736" lon="16.520689463250264"><ele>88.19999999999999</ele><time>2026-04-26T09:13:45.934Z</time></trkpt><trkpt lat="40.39443555774073" lon="16.52079482563913"><ele>87.0</ele><time>2026-04-26T09:13:46.934Z</time></trkpt><trkpt lat="40.39437181264653" lon="16.520907843861004"><ele>87.0</ele><time>2026-04-26T09:13:47.934Z</time></trkpt><trkpt lat="40.39431511214477" lon="16.52103839131267"><ele>87.0</ele><time>2026-04-26T09:13:48.934Z</time></trkpt><trkpt lat="40.39427233750662" lon="16.52118832116035"><ele>87.0</ele><time>2026-04-26T09:13:49.934Z</time></trkpt><trkpt lat="40.39424860736362" lon="16.521353083211732"><ele>87.0</ele><time>2026-04-26T09:13:50.934Z</time></trkpt><trkpt lat="40.39424802385665" lon="16.521531800344405"><ele>85.33333333333333</ele><time>2026-04-26T09:13:51.934Z</time></trkpt><trkpt lat="40.39427434031614" lon="16.521727701403897"><ele>83.66666666666666</ele><time>2026-04-26T09:13:52.934Z</time></trkpt><trkpt lat="40.394322326166225" lon="16.521929846962433"><ele>82.0</ele><time>2026-04-26T09:13:53.934Z</time></trkpt><trkpt lat="40.394350173499035" lon="16.52212632454094"><ele>80.5</ele><time>2026-04-26T09:13:54.934Z</time></trkpt><trkpt lat="40.39435408907522" lon="16.52231881186551"><ele>79.0</ele><time>2026-04-26T09:13:55.934Z</time></trkpt><trkpt lat="40.39434096990712" lon="16.52250084766192"><ele>77.5</ele><time>2026-04-26T09:13:56.934Z</time></trkpt><trkpt lat="40.394338048459126" lon="16.522678064268618"><ele>76.0</ele><time>2026-04-26T09:13:57.934Z</time></trkpt><trkpt lat="40.3943381504205" lon="16.52285534750635"><ele>76.33333333333333</ele><time>2026-04-26T09:13:58.934Z</time></trkpt><trkpt lat="40.39433349362305" lon="16.52305143853854"><ele>76.66666666666667</ele><time>2026-04-26T09:13:59.934Z</time></trkpt><trkpt lat="40.394332502470974" lon="16.52325301669867"><ele>77.0</ele><time>2026-04-26T09:14:00.934Z</time></trkpt><trkpt lat="40.394330347223104" lon="16.523451147399115"><ele>77.0</ele><time>2026-04-26T09:14:01.934Z</time></trkpt><trkpt lat="40.3943280320818" lon="16.52364044320169"><ele>77.0</ele><time>2026-04-26T09:14:02.934Z</time></trkpt><trkpt lat="40.39431808664235" lon="16.523821109348994"><ele>77.0</ele><time>2026-04-26T09:14:03.934Z</time></trkpt><trkpt lat="40.39427391739902" lon="16.523999308341406"><ele>77.0</ele><time>2026-04-26T09:14:04.934Z</time></trkpt><trkpt lat="40.39418361806078" lon="16.524119475231938"><ele>79.66666666666667</ele><time>2026-04-26T09:14:05.934Z</time></trkpt><trkpt lat="40.394081987101586" lon="16.52422736701758"><ele>82.33333333333333</ele><time>2026-04-26T09:14:06.934Z</time></trkpt><trkpt lat="40.39396274677952" lon="16.52435793531329"><ele>85.0</ele><time>2026-04-26T09:14:07.934Z</time></trkpt><trkpt lat="40.393839159543674" lon="16.52452694510008"><ele>86.0</ele><time>2026-04-26T09:14:08.934Z</time></trkpt><trkpt lat="40.39370319540638" lon="16.52468259356787"><ele>87.0</ele><time>2026-04-26T09:14:09.934Z</time></trkpt><trkpt lat="40.39357730855624" lon="16.524839541430424"><ele>88.0</ele><time>2026-04-26T09:14:10.934Z</time></trkpt><trkpt lat="40.39349049804433" lon="16.524973352584105"><ele>88.0</ele><time>2026-04-26T09:14:11.934Z</time></trkpt><trkpt lat="40.39341427507704" lon="16.52512981603133"><ele>88.0</ele><time>2026-04-26T09:14:12.934Z</time></trkpt><trkpt lat="40.39335938901415" lon="16.525303628071025"><ele>88.0</ele><time>2026-04-26T09:14:13.934Z</time></trkpt><trkpt lat="40.39330606342404" lon="16.525449498834597"><ele>88.0</ele><time>2026-04-26T09:14:14.934Z</time></trkpt><trkpt lat="40.39325321572852" lon="16.525576633556625"><ele>88.60000000000001</ele><time>2026-04-26T09:14:15.934Z</time></trkpt><trkpt lat="40.393226324253106" lon="16.52570272988137"><ele>89.2</ele><time>2026-04-26T09:14:16.934Z</time></trkpt><trkpt lat="40.393219931635066" lon="16.5258404675847"><ele>89.8</ele><time>2026-04-26T09:14:17.934Z</time></trkpt><trkpt lat="40.393234084839875" lon="16.52598044697837"><ele>90.4</ele><time>2026-04-26T09:14:18.934Z</time></trkpt><trkpt lat="40.39324924308005" lon="16.526110981115135"><ele>91.0</ele><time>2026-04-26T09:14:19.934Z</time></trkpt><trkpt lat="40.39325635955852" lon="16.526233589381274"><ele>91.0</ele><time>2026-04-26T09:14:20.934Z</time></trkpt><trkpt lat="40.39326102590452" lon="16.526343782292123"><ele>91.0</ele><time>2026-04-26T09:14:21.934Z</time></trkpt><trkpt lat="40.393257651169094" lon="16.526437974490133"><ele>91.0</ele><time>2026-04-26T09:14:22.934Z</time></trkpt><trkpt lat="40.39322544110853" lon="16.52658415340107"><ele>91.0</ele><time>2026-04-26T09:14:24.934Z</time></trkpt><trkpt lat="40.39315845766819" lon="16.526626869767334"><ele>91.0</ele><time>2026-04-26T09:14:27.934Z</time></trkpt><trkpt lat="40.393030455766784" lon="16.526415139730254"><ele>88.5</ele><time>2026-04-26T09:14:32.934Z</time></trkpt><trkpt lat="40.39298002792157" lon="16.526278683067673"><ele>86.0</ele><time>2026-04-26T09:14:33.934Z</time></trkpt><trkpt lat="40.39292225737031" lon="16.526117847360048"><ele>83.5</ele><time>2026-04-26T09:14:34.934Z</time></trkpt><trkpt lat="40.39286244380656" lon="16.52595185391457"><ele>81.0</ele><time>2026-04-26T09:14:35.934Z</time></trkpt><trkpt lat="40.3927999292148" lon="16.525773914527264"><ele>81.0</ele><time>2026-04-26T09:14:36.934Z</time></trkpt><trkpt lat="40.39273482914364" lon="16.525597986681294"><ele>81.0</ele><time>2026-04-26T09:14:37.934Z</time></trkpt><trkpt lat="40.39267223234969" lon="16.525419165985795"><ele>81.0</ele><time>2026-04-26T09:14:38.934Z</time></trkpt><trkpt lat="40.3926144600932" lon="16.525251820927767"><ele>81.0</ele><time>2026-04-26T09:14:39.934Z</time></trkpt><trkpt lat="40.39255269073325" lon="16.52508562087722"><ele>81.25</ele><time>2026-04-26T09:14:40.934Z</time></trkpt><trkpt lat="40.392485005786384" lon="16.52492471005952"><ele>81.5</ele><time>2026-04-26T09:14:41.933Z</time></trkpt><trkpt lat="40.39241149179469" lon="16.524767453117377"><ele>81.75</ele><time>2026-04-26T09:14:42.933Z</time></trkpt><trkpt lat="40.39231393082957" lon="16.524637780204447"><ele>82.0</ele><time>2026-04-26T09:14:43.933Z</time></trkpt><trkpt lat="40.39219405834005" lon="16.52453010832032"><ele>80.66666666666666</ele><time>2026-04-26T09:14:44.933Z</time></trkpt><trkpt lat="40.39206169387474" lon="16.524442911810944"><ele>79.33333333333333</ele><time>2026-04-26T09:14:45.933Z</time></trkpt><trkpt lat="40.3919192373834" lon="16.524368379055847"><ele>78.0</ele><time>2026-04-26T09:14:46.933Z</time></trkpt><trkpt lat="40.39177214753252" lon="16.52430536145642"><ele>78.0</ele><time>2026-04-26T09:14:47.933Z</time></trkpt><trkpt lat="40.39162079516936" lon="16.524256934189975"><ele>78.0</ele><time>2026-04-26T09:14:48.933Z</time></trkpt><trkpt lat="40.391459325220055" lon="16.52421809009299"><ele>78.0</ele><time>2026-04-26T09:14:49.933Z</time></trkpt><trkpt lat="40.391309678454455" lon="16.524200713869448"><ele>76.66666666666667</ele><time>2026-04-26T09:14:50.933Z</time></trkpt><trkpt lat="40.391154752618434" lon="16.524196630435544"><ele>75.33333333333334</ele><time>2026-04-26T09:14:51.933Z</time></trkpt><trkpt lat="40.3910022887065" lon="16.524203705521135"><ele>74.0</ele><time>2026-04-26T09:14:52.933Z</time></trkpt><trkpt lat="40.39085509422675" lon="16.52421486485228"><ele>74.0</ele><time>2026-04-26T09:14:53.933Z</time></trkpt><trkpt lat="40.39071619753039" lon="16.52422525991091"><ele>74.0</ele><time>2026-04-26T09:14:54.933Z</time></trkpt><trkpt lat="40.39058705329528" lon="16.524226204552786"><ele>74.0</ele><time>2026-04-26T09:14:55.933Z</time></trkpt><trkpt lat="40.390465616242906" lon="16.524229844401535"><ele>74.0</ele><time>2026-04-26T09:14:56.933Z</time></trkpt><trkpt lat="40.390355666946675" lon="16.524232126287945"><ele>74.83333333333334</ele><time>2026-04-26T09:14:57.933Z</time></trkpt><trkpt lat="40.39024965299439" lon="16.5242332511218"><ele>75.66666666666667</ele><time>2026-04-26T09:14:58.933Z</time></trkpt><trkpt lat="40.39015429647719" lon="16.52423450233502"><ele>76.5</ele><time>2026-04-26T09:14:59.933Z</time></trkpt><trkpt lat="40.390066095391944" lon="16.52424020632114"><ele>77.33333333333333</ele><time>2026-04-26T09:15:00.933Z</time></trkpt><trkpt lat="40.389987268721626" lon="16.52423059015218"><ele>78.16666666666666</ele><time>2026-04-26T09:15:01.933Z</time></trkpt><trkpt lat="40.38992136308895" lon="16.52424354408009"><ele>79.0</ele><time>2026-04-26T09:15:03.933Z</time></trkpt><trkpt lat="40.38994477720012" lon="16.52442241212013"><ele>79.0</ele><time>2026-04-26T09:15:04.933Z</time></trkpt><trkpt lat="40.38999642828099" lon="16.52448127671927"><ele>79.0</ele><time>2026-04-26T09:15:05.933Z</time></trkpt><trkpt lat="40.39007326684708" lon="16.524540342340174"><ele>79.0</ele><time>2026-04-26T09:15:06.933Z</time></trkpt><trkpt lat="40.39013440514596" lon="16.524598229747376"><ele>79.0</ele><time>2026-04-26T09:15:07.933Z</time></trkpt><trkpt lat="40.390211705749785" lon="16.524666149558573"><ele>79.0</ele><time>2026-04-26T09:15:08.933Z</time></trkpt><trkpt lat="40.39028503493842" lon="16.52473760397905"><ele>79.0</ele><time>2026-04-26T09:15:09.933Z</time></trkpt><trkpt lat="40.39036240468172" lon="16.52482381347977"><ele>78.8</ele><time>2026-04-26T09:15:10.933Z</time></trkpt><trkpt lat="40.39043433006953" lon="16.52488937579879"><ele>78.60000000000001</ele><time>2026-04-26T09:15:11.933Z</time></trkpt><trkpt lat="40.39051396359688" lon="16.524976510224178"><ele>78.4</ele><time>2026-04-26T09:15:12.933Z</time></trkpt><trkpt lat="40.390592449441534" lon="16.52505541466094"><ele>78.2</ele><time>2026-04-26T09:15:13.933Z</time></trkpt><trkpt lat="40.3906643708292" lon="16.52513738198482"><ele>78.0</ele><time>2026-04-26T09:15:14.933Z</time></trkpt><trkpt lat="40.39073248252839" lon="16.525233017233347"><ele>78.0</ele><time>2026-04-26T09:15:15.933Z</time></trkpt><trkpt lat="40.39077811793325" lon="16.525336736955214"><ele>78.0</ele><time>2026-04-26T09:15:16.933Z</time></trkpt><trkpt lat="40.39080178129289" lon="16.525439019272813"><ele>78.0</ele><time>2026-04-26T09:15:17.933Z</time></trkpt><trkpt lat="40.39080582346513" lon="16.525551814924285"><ele>78.0</ele><time>2026-04-26T09:15:18.933Z</time></trkpt><trkpt lat="40.39081119013988" lon="16.52568328019705"><ele>78.0</ele><time>2026-04-26T09:15:19.933Z</time></trkpt><trkpt lat="40.390801597834084" lon="16.525829431079128"><ele>79.2</ele><time>2026-04-26T09:15:20.933Z</time></trkpt><trkpt lat="40.390792363688774" lon="16.52597882874457"><ele>80.4</ele><time>2026-04-26T09:15:21.932Z</time></trkpt><trkpt lat="40.390765170177836" lon="16.52613330899382"><ele>81.60000000000001</ele><time>2026-04-26T09:15:22.932Z</time></trkpt><trkpt lat="40.39073378202877" lon="16.526266436612158"><ele>82.8</ele><time>2026-04-26T09:15:23.933Z</time></trkpt><trkpt lat="40.390688766803486" lon="16.526380407536283"><ele>84.0</ele><time>2026-04-26T09:15:24.932Z</time></trkpt><trkpt lat="40.39063656303652" lon="16.5265120650053"><ele>84.5</ele><time>2026-04-26T09:15:25.933Z</time></trkpt><trkpt lat="40.39057799396587" lon="16.526649842941257"><ele>85.0</ele><time>2026-04-26T09:15:26.935Z</time></trkpt><trkpt lat="40.390511266271794" lon="16.526784051735603"><ele>85.5</ele><time>2026-04-26T09:15:27.936Z</time></trkpt><trkpt lat="40.390438434924185" lon="16.5269074571282"><ele>86.0</ele><time>2026-04-26T09:15:28.937Z</time></trkpt><trkpt lat="40.390368259354695" lon="16.527004159517155"><ele>86.8</ele><time>2026-04-26T09:15:29.938Z</time></trkpt><trkpt lat="40.39030238701471" lon="16.527078941253688"><ele>87.6</ele><time>2026-04-26T09:15:30.938Z</time></trkpt><trkpt lat="40.39024270912154" lon="16.527164506936057"><ele>88.4</ele><time>2026-04-26T09:15:31.939Z</time></trkpt><trkpt lat="40.390181962395225" lon="16.527254826308763"><ele>89.2</ele><time>2026-04-26T09:15:32.94Z</time></trkpt><trkpt lat="40.39011914867362" lon="16.527348343819185"><ele>90.0</ele><time>2026-04-26T09:15:33.941Z</time></trkpt><trkpt lat="40.39004682185446" lon="16.52746099955434"><ele>90.0</ele><time>2026-04-26T09:15:34.941Z</time></trkpt><trkpt lat="40.38997371132598" lon="16.52757943879896"><ele>90.0</ele><time>2026-04-26T09:15:35.942Z</time></trkpt><trkpt lat="40.389902813739305" lon="16.527706215600148"><ele>90.0</ele><time>2026-04-26T09:15:36.942Z</time></trkpt><trkpt lat="40.389832997800134" lon="16.52784294985993"><ele>90.0</ele><time>2026-04-26T09:15:37.943Z</time></trkpt><trkpt lat="40.389764220962086" lon="16.52797521806511"><ele>89.5</ele><time>2026-04-26T09:15:38.943Z</time></trkpt><trkpt lat="40.389691058493625" lon="16.528094667835767"><ele>89.0</ele><time>2026-04-26T09:15:39.944Z</time></trkpt><trkpt lat="40.38962126314493" lon="16.528223032989064"><ele>88.5</ele><time>2026-04-26T09:15:40.944Z</time></trkpt><trkpt lat="40.38955971246822" lon="16.528347633280127"><ele>88.0</ele><time>2026-04-26T09:15:41.944Z</time></trkpt><trkpt lat="40.38950893326138" lon="16.528469394494607"><ele>89.0</ele><time>2026-04-26T09:15:42.945Z</time></trkpt><trkpt lat="40.38944790302752" lon="16.52858293300623"><ele>90.0</ele><time>2026-04-26T09:15:43.945Z</time></trkpt><trkpt lat="40.3893849816009" lon="16.528676910726677"><ele>91.0</ele><time>2026-04-26T09:15:44.945Z</time></trkpt><trkpt lat="40.389290923304465" lon="16.52872865210484"><ele>92.0</ele><time>2026-04-26T09:15:45.946Z</time></trkpt><trkpt lat="40.38919323866338" lon="16.528784947144256"><ele>93.0</ele><time>2026-04-26T09:15:46.946Z</time></trkpt><trkpt lat="40.38910019052754" lon="16.528855558666425"><ele>93.60000000000001</ele><time>2026-04-26T09:15:47.946Z</time></trkpt><trkpt lat="40.38899795045222" lon="16.528901860417644"><ele>94.2</ele><time>2026-04-26T09:15:48.946Z</time></trkpt><trkpt lat="40.3888986542906" lon="16.528965742698258"><ele>94.8</ele><time>2026-04-26T09:15:49.947Z</time></trkpt><trkpt lat="40.38881114350694" lon="16.529047406699114"><ele>95.4</ele><time>2026-04-26T09:15:50.947Z</time></trkpt><trkpt lat="40.38874545233143" lon="16.52915964198312"><ele>96.0</ele><time>2026-04-26T09:15:51.947Z</time></trkpt><trkpt lat="40.38870290414951" lon="16.529302938959034"><ele>98.25</ele><time>2026-04-26T09:15:52.947Z</time></trkpt><trkpt lat="40.38868425958506" lon="16.529463381984463"><ele>100.5</ele><time>2026-04-26T09:15:53.947Z</time></trkpt><trkpt lat="40.38866937561432" lon="16.52960526988756"><ele>102.75</ele><time>2026-04-26T09:15:54.948Z</time></trkpt><trkpt lat="40.38864303579445" lon="16.529751780873738"><ele>105.0</ele><time>2026-04-26T09:15:55.948Z</time></trkpt><trkpt lat="40.388609989423024" lon="16.529894195597674"><ele>105.2</ele><time>2026-04-26T09:15:56.948Z</time></trkpt><trkpt lat="40.38855938848995" lon="16.530011061066844"><ele>105.4</ele><time>2026-04-26T09:15:57.948Z</time></trkpt><trkpt lat="40.388483841979514" lon="16.53011668731081"><ele>105.6</ele><time>2026-04-26T09:15:58.948Z</time></trkpt><trkpt lat="40.38840093885986" lon="16.530216818819053"><ele>105.8</ele><time>2026-04-26T09:15:59.948Z</time></trkpt><trkpt lat="40.38833332391054" lon="16.53033143127778"><ele>106.0</ele><time>2026-04-26T09:16:00.948Z</time></trkpt><trkpt lat="40.38828365981536" lon="16.530434002824634"><ele>106.00000000000001</ele><time>2026-04-26T09:16:01.948Z</time></trkpt><trkpt lat="40.388241279813954" lon="16.530532958513987"><ele>106.0</ele><time>2026-04-26T09:16:02.949Z</time></trkpt><trkpt lat="40.38820073663246" lon="16.53063477410796"><ele>106.0</ele><time>2026-04-26T09:16:03.949Z</time></trkpt><trkpt lat="40.388130960556396" lon="16.530705052683455"><ele>106.0</ele><time>2026-04-26T09:16:04.949Z</time></trkpt><trkpt lat="40.38805777592709" lon="16.530773555464677"><ele>106.00000000000001</ele><time>2026-04-26T09:16:05.949Z</time></trkpt><trkpt lat="40.387975300086495" lon="16.53083238282363"><ele>106.0</ele><time>2026-04-26T09:16:06.949Z</time></trkpt><trkpt lat="40.387898984062105" lon="16.5308815104139"><ele>105.16666666666667</ele><time>2026-04-26T09:16:07.949Z</time></trkpt><trkpt lat="40.38782809374612" lon="16.53094613604794"><ele>104.33333333333334</ele><time>2026-04-26T09:16:08.949Z</time></trkpt><trkpt lat="40.38773498237394" lon="16.53097496540044"><ele>103.5</ele><time>2026-04-26T09:16:09.949Z</time></trkpt><trkpt lat="40.38765383725314" lon="16.53101544480772"><ele>102.66666666666666</ele><time>2026-04-26T09:16:10.949Z</time></trkpt><trkpt lat="40.38758078092405" lon="16.531049765646145"><ele>101.83333333333333</ele><time>2026-04-26T09:16:11.949Z</time></trkpt><trkpt lat="40.387508988849504" lon="16.53109468575704"><ele>101.0</ele><time>2026-04-26T09:16:12.949Z</time></trkpt><trkpt lat="40.387441613881855" lon="16.53113161782944"><ele>100.99999999999999</ele><time>2026-04-26T09:16:13.949Z</time></trkpt><trkpt lat="40.387376152881174" lon="16.5311660593726"><ele>101.0</ele><time>2026-04-26T09:16:14.949Z</time></trkpt><trkpt lat="40.387309042977755" lon="16.531205890230513"><ele>101.0</ele><time>2026-04-26T09:16:15.949Z</time></trkpt><trkpt lat="40.38724448126573" lon="16.53124742187814"><ele>101.0</ele><time>2026-04-26T09:16:16.949Z</time></trkpt><trkpt lat="40.387173508034024" lon="16.53129181381027"><ele>100.99999999999999</ele><time>2026-04-26T09:16:17.949Z</time></trkpt><trkpt lat="40.38709201401094" lon="16.531355472087572"><ele>101.0</ele><time>2026-04-26T09:16:18.949Z</time></trkpt><trkpt lat="40.38700756518949" lon="16.531428766573793"><ele>100.5</ele><time>2026-04-26T09:16:19.949Z</time></trkpt><trkpt lat="40.38692342897383" lon="16.53150052996268"><ele>100.0</ele><time>2026-04-26T09:16:20.949Z</time></trkpt><trkpt lat="40.38682826739315" lon="16.53159339889819"><ele>99.5</ele><time>2026-04-26T09:16:21.949Z</time></trkpt><trkpt lat="40.386729488751115" lon="16.531685463562948"><ele>99.0</ele><time>2026-04-26T09:16:22.95Z</time></trkpt><trkpt lat="40.386623763641" lon="16.531787856914836"><ele>99.0</ele><time>2026-04-26T09:16:23.95Z</time></trkpt><trkpt lat="40.38652271882957" lon="16.531899467904843"><ele>99.0</ele><time>2026-04-26T09:16:24.95Z</time></trkpt><trkpt lat="40.386433855517495" lon="16.532021934676106"><ele>99.0</ele><time>2026-04-26T09:16:25.95Z</time></trkpt><trkpt lat="40.38635811838192" lon="16.53217056183084"><ele>99.0</ele><time>2026-04-26T09:16:26.95Z</time></trkpt><trkpt lat="40.38627895788243" lon="16.53230791778824"><ele>98.75</ele><time>2026-04-26T09:16:27.95Z</time></trkpt><trkpt lat="40.38619447603539" lon="16.532426018742655"><ele>98.5</ele><time>2026-04-26T09:16:28.95Z</time></trkpt><trkpt lat="40.3861117230187" lon="16.532532254438532"><ele>98.25</ele><time>2026-04-26T09:16:29.95Z</time></trkpt><trkpt lat="40.38602570860377" lon="16.532629330042276"><ele>98.0</ele><time>2026-04-26T09:16:30.95Z</time></trkpt><trkpt lat="40.38594561476362" lon="16.5327226451265"><ele>98.0</ele><time>2026-04-26T09:16:31.95Z</time></trkpt><trkpt lat="40.38586728789312" lon="16.532815015097103"><ele>98.0</ele><time>2026-04-26T09:16:32.95Z</time></trkpt><trkpt lat="40.38579470133151" lon="16.532894758725174"><ele>98.0</ele><time>2026-04-26T09:16:33.95Z</time></trkpt><trkpt lat="40.38573107587377" lon="16.532964164235732"><ele>98.0</ele><time>2026-04-26T09:16:34.95Z</time></trkpt><trkpt lat="40.3856450206273" lon="16.532986183479878"><ele>98.0</ele><time>2026-04-26T09:16:36.95Z</time></trkpt><trkpt lat="40.38556424923113" lon="16.533105771411655"><ele>97.60000000000001</ele><time>2026-04-26T09:16:39.95Z</time></trkpt><trkpt lat="40.38565730134016" lon="16.53323337756739"><ele>97.2</ele><time>2026-04-26T09:16:40.95Z</time></trkpt><trkpt lat="40.385731825808044" lon="16.533333254556926"><ele>96.8</ele><time>2026-04-26T09:16:42.95Z</time></trkpt><trkpt lat="40.38579195052663" lon="16.533383750433867"><ele>96.4</ele><time>2026-04-26T09:16:43.95Z</time></trkpt><trkpt lat="40.38585853622011" lon="16.533439382159607"><ele>96.0</ele><time>2026-04-26T09:16:44.95Z</time></trkpt><trkpt lat="40.38590446020092" lon="16.53351460663636"><ele>96.0</ele><time>2026-04-26T09:16:45.95Z</time></trkpt><trkpt lat="40.38595317358111" lon="16.53357979631857"><ele>96.0</ele><time>2026-04-26T09:16:46.95Z</time></trkpt><trkpt lat="40.38601546762053" lon="16.533692075022778"><ele>96.0</ele><time>2026-04-26T09:16:48.95Z</time></trkpt><trkpt lat="40.38606826005292" lon="16.53379269936004"><ele>96.0</ele><time>2026-04-26T09:16:50.95Z</time></trkpt><trkpt lat="40.3861548483233" lon="16.533767622738704"><ele>96.0</ele><time>2026-04-26T09:20:07.947Z</time></trkpt><trkpt lat="40.38610354081402" lon="16.53383107625001"><ele>96.0</ele><time>2026-04-26T09:20:10.947Z</time></trkpt><trkpt lat="40.38604191422944" lon="16.5337589721997"><ele>96.0</ele><time>2026-04-26T09:20:12.947Z</time></trkpt><trkpt lat="40.38600997148896" lon="16.533657451175706"><ele>96.0</ele><time>2026-04-26T09:20:14.947Z</time></trkpt><trkpt lat="40.385939231951916" lon="16.533530366002815"><ele>96.0</ele><time>2026-04-26T09:20:16.947Z</time></trkpt><trkpt lat="40.38588663197745" lon="16.53345437403379"><ele>96.0</ele><time>2026-04-26T09:20:17.947Z</time></trkpt><trkpt lat="40.38582769415033" lon="16.533388102387395"><ele>96.0</ele><time>2026-04-26T09:20:18.947Z</time></trkpt><trkpt lat="40.385769382058264" lon="16.533326409131394"><ele>96.0</ele><time>2026-04-26T09:20:19.947Z</time></trkpt><trkpt lat="40.38571672113054" lon="16.533238121619647"><ele>96.0</ele><time>2026-04-26T09:20:20.947Z</time></trkpt><trkpt lat="40.38565269751183" lon="16.53318895875819"><ele>96.0</ele><time>2026-04-26T09:20:21.947Z</time></trkpt><trkpt lat="40.385571860746325" lon="16.533068404506025"><ele>96.0</ele><time>2026-04-26T09:20:23.947Z</time></trkpt><trkpt lat="40.38546239284108" lon="16.532991614974232"><ele>96.0</ele><time>2026-04-26T09:20:25.947Z</time></trkpt><trkpt lat="40.3853829154679" lon="16.532945022235822"><ele>96.0</ele><time>2026-04-26T09:20:26.947Z</time></trkpt><trkpt lat="40.38529277069011" lon="16.532905063960154"><ele>95.5</ele><time>2026-04-26T09:20:27.947Z</time></trkpt><trkpt lat="40.38519113829964" lon="16.5328718996933"><ele>95.0</ele><time>2026-04-26T09:20:28.947Z</time></trkpt><trkpt lat="40.38507347098076" lon="16.532842767220636"><ele>94.5</ele><time>2026-04-26T09:20:29.947Z</time></trkpt><trkpt lat="40.38496110073335" lon="16.532808494627915"><ele>94.0</ele><time>2026-04-26T09:20:30.947Z</time></trkpt><trkpt lat="40.38483965969738" lon="16.53278136797168"><ele>94.0</ele><time>2026-04-26T09:20:31.947Z</time></trkpt><trkpt lat="40.38471377864648" lon="16.532753591109177"><ele>94.0</ele><time>2026-04-26T09:20:32.947Z</time></trkpt><trkpt lat="40.38458583177321" lon="16.53274043625684"><ele>94.0</ele><time>2026-04-26T09:20:33.947Z</time></trkpt><trkpt lat="40.38445929060101" lon="16.532745468496888"><ele>94.0</ele><time>2026-04-26T09:20:34.947Z</time></trkpt><trkpt lat="40.384326519002585" lon="16.5327555557008"><ele>94.0</ele><time>2026-04-26T09:20:35.947Z</time></trkpt><trkpt lat="40.384206710428515" lon="16.53277634086334"><ele>94.0</ele><time>2026-04-26T09:20:36.947Z</time></trkpt><trkpt lat="40.384097914047366" lon="16.532807321328647"><ele>94.0</ele><time>2026-04-26T09:20:37.947Z</time></trkpt><trkpt lat="40.3839860498021" lon="16.532861933222943"><ele>94.0</ele><time>2026-04-26T09:20:38.947Z</time></trkpt><trkpt lat="40.38388063247422" lon="16.53293545710191"><ele>93.75</ele><time>2026-04-26T09:20:39.947Z</time></trkpt><trkpt lat="40.38377953757797" lon="16.533042550068387"><ele>93.5</ele><time>2026-04-26T09:20:40.947Z</time></trkpt><trkpt lat="40.38367809095238" lon="16.53316896807469"><ele>93.25</ele><time>2026-04-26T09:20:41.947Z</time></trkpt><trkpt lat="40.38357981907225" lon="16.53329740752234"><ele>93.0</ele><time>2026-04-26T09:20:42.947Z</time></trkpt><trkpt lat="40.38348277625371" lon="16.533423958678373"><ele>93.0</ele><time>2026-04-26T09:20:43.947Z</time></trkpt><trkpt lat="40.38339448749433" lon="16.53355911926237"><ele>93.0</ele><time>2026-04-26T09:20:44.947Z</time></trkpt><trkpt lat="40.38332566170161" lon="16.533694671277757"><ele>93.0</ele><time>2026-04-26T09:20:45.947Z</time></trkpt><trkpt lat="40.38326845409227" lon="16.533831824319847"><ele>93.0</ele><time>2026-04-26T09:20:46.947Z</time></trkpt><trkpt lat="40.38322234295363" lon="16.533986773506534"><ele>93.2</ele><time>2026-04-26T09:20:47.947Z</time></trkpt><trkpt lat="40.38318505800755" lon="16.534132775204696"><ele>93.4</ele><time>2026-04-26T09:20:48.947Z</time></trkpt><trkpt lat="40.38314643340866" lon="16.53425682834279"><ele>93.60000000000001</ele><time>2026-04-26T09:20:49.947Z</time></trkpt><trkpt lat="40.383103332594146" lon="16.53432633622637"><ele>93.80000000000001</ele><time>2026-04-26T09:20:50.947Z</time></trkpt><trkpt lat="40.382977822780646" lon="16.534298813825295"><ele>94.0</ele><time>2026-04-26T09:20:52.947Z</time></trkpt><trkpt lat="40.3828948926904" lon="16.534237032224905"><ele>94.0</ele><time>2026-04-26T09:20:53.947Z</time></trkpt><trkpt lat="40.38278884214171" lon="16.534201744743303"><ele>94.0</ele><time>2026-04-26T09:20:54.947Z</time></trkpt><trkpt lat="40.38265288865405" lon="16.534224944403512"><ele>94.0</ele><time>2026-04-26T09:20:55.947Z</time></trkpt><trkpt lat="40.382516059865125" lon="16.534230920273185"><ele>94.0</ele><time>2026-04-26T09:20:56.947Z</time></trkpt><trkpt lat="40.38237718603401" lon="16.534215201111277"><ele>94.0</ele><time>2026-04-26T09:20:57.947Z</time></trkpt><trkpt lat="40.38222835983034" lon="16.534210398921214"><ele>94.0</ele><time>2026-04-26T09:20:58.947Z</time></trkpt><trkpt lat="40.3820861485701" lon="16.534185924707092"><ele>94.0</ele><time>2026-04-26T09:20:59.947Z</time></trkpt><trkpt lat="40.3819384696031" lon="16.534135341080734"><ele>94.0</ele><time>2026-04-26T09:21:00.947Z</time></trkpt><trkpt lat="40.38179283351469" lon="16.534079300235447"><ele>93.66666666666666</ele><time>2026-04-26T09:21:01.947Z</time></trkpt><trkpt lat="40.3816513839895" lon="16.534019827862117"><ele>93.33333333333333</ele><time>2026-04-26T09:21:02.947Z</time></trkpt><trkpt lat="40.381498565817985" lon="16.5339498191385"><ele>93.0</ele><time>2026-04-26T09:21:03.947Z</time></trkpt><trkpt lat="40.381345160585454" lon="16.533865490713975"><ele>93.0</ele><time>2026-04-26T09:21:04.946Z</time></trkpt><trkpt lat="40.38118675637734" lon="16.533759981368913"><ele>93.0</ele><time>2026-04-26T09:21:05.946Z</time></trkpt><trkpt lat="40.38102960866451" lon="16.533652901152664"><ele>93.0</ele><time>2026-04-26T09:21:06.946Z</time></trkpt><trkpt lat="40.38086231675304" lon="16.533541583655012"><ele>92.33333333333333</ele><time>2026-04-26T09:21:07.946Z</time></trkpt><trkpt lat="40.38070502145047" lon="16.53343691804553"><ele>91.66666666666666</ele><time>2026-04-26T09:21:08.946Z</time></trkpt><trkpt lat="40.380558390713375" lon="16.53336498367081"><ele>91.0</ele><time>2026-04-26T09:21:09.946Z</time></trkpt><trkpt lat="40.38042768818592" lon="16.533263734154716"><ele>91.0</ele><time>2026-04-26T09:21:10.946Z</time></trkpt><trkpt lat="40.380298714051165" lon="16.533173215228864"><ele>91.0</ele><time>2026-04-26T09:21:11.946Z</time></trkpt><trkpt lat="40.380182773420835" lon="16.53306840878548"><ele>91.0</ele><time>2026-04-26T09:21:12.946Z</time></trkpt><trkpt lat="40.38007716664613" lon="16.532942957732672"><ele>91.0</ele><time>2026-04-26T09:21:13.946Z</time></trkpt><trkpt lat="40.37996611233778" lon="16.532859968877553"><ele>89.75</ele><time>2026-04-26T09:21:14.946Z</time></trkpt><trkpt lat="40.37986053124145" lon="16.532797828459923"><ele>88.5</ele><time>2026-04-26T09:21:15.946Z</time></trkpt><trkpt lat="40.37974878577658" lon="16.53277469739933"><ele>87.25</ele><time>2026-04-26T09:21:16.946Z</time></trkpt><trkpt lat="40.379632842908606" lon="16.532791686383963"><ele>86.0</ele><time>2026-04-26T09:21:17.946Z</time></trkpt><trkpt lat="40.379503865244125" lon="16.532832072462863"><ele>85.25</ele><time>2026-04-26T09:21:18.946Z</time></trkpt><trkpt lat="40.3793662219088" lon="16.532861179778298"><ele>84.5</ele><time>2026-04-26T09:21:19.946Z</time></trkpt><trkpt lat="40.37921892561611" lon="16.532903298473375"><ele>83.75</ele><time>2026-04-26T09:21:20.946Z</time></trkpt><trkpt lat="40.379069652894785" lon="16.53294549441609"><ele>83.0</ele><time>2026-04-26T09:21:21.946Z</time></trkpt><trkpt lat="40.378909247410284" lon="16.53298564252148"><ele>83.25</ele><time>2026-04-26T09:21:22.946Z</time></trkpt><trkpt lat="40.378759489130466" lon="16.53303776657797"><ele>83.5</ele><time>2026-04-26T09:21:23.946Z</time></trkpt><trkpt lat="40.378636410864075" lon="16.533090871957434"><ele>83.75</ele><time>2026-04-26T09:21:24.946Z</time></trkpt><trkpt lat="40.378518401417026" lon="16.533155107485953"><ele>84.0</ele><time>2026-04-26T09:21:25.946Z</time></trkpt><trkpt lat="40.378412785405324" lon="16.533205361718966"><ele>84.0</ele><time>2026-04-26T09:21:26.946Z</time></trkpt><trkpt lat="40.37831531499485" lon="16.533180365698392"><ele>84.0</ele><time>2026-04-26T09:21:27.946Z</time></trkpt><trkpt lat="40.378241995685116" lon="16.533132054740992"><ele>84.0</ele><time>2026-04-26T09:21:28.946Z</time></trkpt><trkpt lat="40.37816321844314" lon="16.533065411155768"><ele>84.0</ele><time>2026-04-26T09:21:29.946Z</time></trkpt><trkpt lat="40.378064030098315" lon="16.532995384150933"><ele>84.0</ele><time>2026-04-26T09:21:30.946Z</time></trkpt><trkpt lat="40.37796350765518" lon="16.53292441524688"><ele>83.75</ele><time>2026-04-26T09:21:31.946Z</time></trkpt><trkpt lat="40.377851969519334" lon="16.532868579420754"><ele>83.5</ele><time>2026-04-26T09:21:32.946Z</time></trkpt><trkpt lat="40.377749133555746" lon="16.532776165244314"><ele>83.25</ele><time>2026-04-26T09:21:33.946Z</time></trkpt><trkpt lat="40.37762903327605" lon="16.532710298403615"><ele>83.0</ele><time>2026-04-26T09:21:34.946Z</time></trkpt><trkpt lat="40.377499308070504" lon="16.532658924278323"><ele>83.0</ele><time>2026-04-26T09:21:35.946Z</time></trkpt><trkpt lat="40.37737774041891" lon="16.53263027245612"><ele>83.0</ele><time>2026-04-26T09:21:36.946Z</time></trkpt><trkpt lat="40.37726434473496" lon="16.532623015380224"><ele>83.0</ele><time>2026-04-26T09:21:37.946Z</time></trkpt><trkpt lat="40.37715127812128" lon="16.53264863272872"><ele>83.0</ele><time>2026-04-26T09:21:38.946Z</time></trkpt><trkpt lat="40.37703429596055" lon="16.532699995760588"><ele>82.75</ele><time>2026-04-26T09:21:39.946Z</time></trkpt><trkpt lat="40.37693405864032" lon="16.532788142795308"><ele>82.5</ele><time>2026-04-26T09:21:40.946Z</time></trkpt><trkpt lat="40.37683779915543" lon="16.53290365001771"><ele>82.25</ele><time>2026-04-26T09:21:41.946Z</time></trkpt><trkpt lat="40.376739915778835" lon="16.53303577422058"><ele>82.0</ele><time>2026-04-26T09:21:42.946Z</time></trkpt><trkpt lat="40.376648635167165" lon="16.533157265299096"><ele>83.25</ele><time>2026-04-26T09:21:43.946Z</time></trkpt><trkpt lat="40.37657587824068" lon="16.53326289674032"><ele>84.5</ele><time>2026-04-26T09:21:44.946Z</time></trkpt><trkpt lat="40.37652821366505" lon="16.533381022851003"><ele>85.75</ele><time>2026-04-26T09:21:45.946Z</time></trkpt><trkpt lat="40.37649794088446" lon="16.53353121665856"><ele>87.0</ele><time>2026-04-26T09:21:46.946Z</time></trkpt><trkpt lat="40.37648107269331" lon="16.533712779882418"><ele>87.5</ele><time>2026-04-26T09:21:47.946Z</time></trkpt><trkpt lat="40.376476328686486" lon="16.53390039842608"><ele>88.0</ele><time>2026-04-26T09:21:48.946Z</time></trkpt><trkpt lat="40.37647993706501" lon="16.53409140163921"><ele>88.5</ele><time>2026-04-26T09:21:49.946Z</time></trkpt><trkpt lat="40.37648304807799" lon="16.534286749502396"><ele>89.0</ele><time>2026-04-26T09:21:50.946Z</time></trkpt><trkpt lat="40.376480401606834" lon="16.5344883485733"><ele>90.66666666666667</ele><time>2026-04-26T09:21:51.946Z</time></trkpt><trkpt lat="40.376476328253226" lon="16.534700831515558"><ele>92.33333333333333</ele><time>2026-04-26T09:21:52.946Z</time></trkpt><trkpt lat="40.37647164704613" lon="16.534907251519385"><ele>94.0</ele><time>2026-04-26T09:21:53.945Z</time></trkpt><trkpt lat="40.376466366601385" lon="16.535110512442717"><ele>94.0</ele><time>2026-04-26T09:21:54.945Z</time></trkpt><trkpt lat="40.37645487720001" lon="16.535305877193775"><ele>94.0</ele><time>2026-04-26T09:21:55.945Z</time></trkpt><trkpt lat="40.37639216727613" lon="16.53546104147732"><ele>94.0</ele><time>2026-04-26T09:21:56.945Z</time></trkpt><trkpt lat="40.376315811587084" lon="16.535605431954952"><ele>94.0</ele><time>2026-04-26T09:21:57.945Z</time></trkpt><trkpt lat="40.37623387408982" lon="16.535733500670098"><ele>94.75</ele><time>2026-04-26T09:21:58.945Z</time></trkpt><trkpt lat="40.376143022781775" lon="16.53587317945578"><ele>95.5</ele><time>2026-04-26T09:21:59.945Z</time></trkpt><trkpt lat="40.376052645713344" lon="16.535990967485038"><ele>96.25</ele><time>2026-04-26T09:22:00.945Z</time></trkpt><trkpt lat="40.3759731873639" lon="16.536111230560195"><ele>97.0</ele><time>2026-04-26T09:22:01.945Z</time></trkpt><trkpt lat="40.375921482977226" lon="16.53622924644181"><ele>97.8</ele><time>2026-04-26T09:22:02.945Z</time></trkpt><trkpt lat="40.3758987495795" lon="16.53635863238086"><ele>98.6</ele><time>2026-04-26T09:22:03.945Z</time></trkpt><trkpt lat="40.37590727622877" lon="16.536504622129137"><ele>99.39999999999999</ele><time>2026-04-26T09:22:04.945Z</time></trkpt><trkpt lat="40.37593551520072" lon="16.536640811368702"><ele>100.19999999999999</ele><time>2026-04-26T09:22:05.945Z</time></trkpt><trkpt lat="40.375978970237114" lon="16.53676767089308"><ele>101.0</ele><time>2026-04-26T09:22:06.945Z</time></trkpt><trkpt lat="40.37602264807791" lon="16.536893811432556"><ele>101.0</ele><time>2026-04-26T09:22:07.945Z</time></trkpt><trkpt lat="40.37604146262212" lon="16.53701149897102"><ele>101.0</ele><time>2026-04-26T09:22:08.945Z</time></trkpt><trkpt lat="40.37604234401006" lon="16.53714407341656"><ele>101.0</ele><time>2026-04-26T09:22:09.945Z</time></trkpt><trkpt lat="40.37600563304597" lon="16.537263077120585"><ele>101.0</ele><time>2026-04-26T09:22:10.945Z</time></trkpt><trkpt lat="40.37595168735451" lon="16.537370843841327"><ele>101.0</ele><time>2026-04-26T09:22:11.945Z</time></trkpt><trkpt lat="40.375890913480845" lon="16.537484990069935"><ele>101.19999999999999</ele><time>2026-04-26T09:22:12.945Z</time></trkpt><trkpt lat="40.37583670147705" lon="16.53761132914135"><ele>101.39999999999999</ele><time>2026-04-26T09:22:13.945Z</time></trkpt><trkpt lat="40.37577338799119" lon="16.537731671090203"><ele>101.6</ele><time>2026-04-26T09:22:14.945Z</time></trkpt><trkpt lat="40.37571689704193" lon="16.537863826318468"><ele>101.8</ele><time>2026-04-26T09:22:15.945Z</time></trkpt><trkpt lat="40.37566440443062" lon="16.537979418503944"><ele>102.0</ele><time>2026-04-26T09:22:16.945Z</time></trkpt><trkpt lat="40.375617149448054" lon="16.538086728156685"><ele>101.6</ele><time>2026-04-26T09:22:17.945Z</time></trkpt><trkpt lat="40.37556642515691" lon="16.538199351039005"><ele>101.19999999999999</ele><time>2026-04-26T09:22:18.945Z</time></trkpt><trkpt lat="40.37553421017671" lon="16.53831959645264"><ele>100.8</ele><time>2026-04-26T09:22:19.945Z</time></trkpt><trkpt lat="40.375518008108536" lon="16.538441169521224"><ele>100.4</ele><time>2026-04-26T09:22:20.945Z</time></trkpt><trkpt lat="40.375521052933195" lon="16.538582123919465"><ele>100.0</ele><time>2026-04-26T09:22:21.945Z</time></trkpt><trkpt lat="40.375528472044934" lon="16.538740877883498"><ele>100.0</ele><time>2026-04-26T09:22:22.945Z</time></trkpt><trkpt lat="40.37553877081914" lon="16.538907938714217"><ele>100.0</ele><time>2026-04-26T09:22:23.945Z</time></trkpt><trkpt lat="40.37555049251197" lon="16.53903836053549"><ele>100.0</ele><time>2026-04-26T09:22:24.945Z</time></trkpt><trkpt lat="40.37556104159681" lon="16.539172290149764"><ele>100.0</ele><time>2026-04-26T09:22:25.945Z</time></trkpt><trkpt lat="40.375565256665055" lon="16.539312058538076"><ele>100.0</ele><time>2026-04-26T09:22:26.945Z</time></trkpt><trkpt lat="40.3755545105222" lon="16.53944035119534"><ele>97.8</ele><time>2026-04-26T09:22:27.945Z</time></trkpt><trkpt lat="40.37551707875753" lon="16.539564231653088"><ele>95.6</ele><time>2026-04-26T09:22:28.945Z</time></trkpt><trkpt lat="40.37549415955732" lon="16.53969853886238"><ele>93.4</ele><time>2026-04-26T09:22:29.945Z</time></trkpt><trkpt lat="40.37545475863989" lon="16.53982605552429"><ele>91.2</ele><time>2026-04-26T09:22:30.945Z</time></trkpt><trkpt lat="40.3753995598613" lon="16.539955311923077"><ele>89.0</ele><time>2026-04-26T09:22:31.945Z</time></trkpt><trkpt lat="40.375340044777246" lon="16.540094092035332"><ele>89.0</ele><time>2026-04-26T09:22:32.945Z</time></trkpt><trkpt lat="40.37528695477121" lon="16.540224394930927"><ele>89.0</ele><time>2026-04-26T09:22:33.945Z</time></trkpt><trkpt lat="40.37524574956558" lon="16.54035128032144"><ele>89.0</ele><time>2026-04-26T09:22:34.945Z</time></trkpt><trkpt lat="40.37521254233103" lon="16.540451119149136"><ele>89.0</ele><time>2026-04-26T09:22:35.945Z</time></trkpt><trkpt lat="40.3751741935719" lon="16.540559619901007"><ele>89.0</ele><time>2026-04-26T09:22:36.945Z</time></trkpt><trkpt lat="40.375107234738834" lon="16.54062288715508"><ele>89.4</ele><time>2026-04-26T09:22:37.945Z</time></trkpt><trkpt lat="40.37501392497831" lon="16.540637758512073"><ele>89.80000000000001</ele><time>2026-04-26T09:22:38.945Z</time></trkpt><trkpt lat="40.37493552946584" lon="16.540699216617085"><ele>90.19999999999999</ele><time>2026-04-26T09:22:39.945Z</time></trkpt><trkpt lat="40.374866147988016" lon="16.540793985141363"><ele>90.6</ele><time>2026-04-26T09:22:40.945Z</time></trkpt><trkpt lat="40.37479206384665" lon="16.54090684961797"><ele>91.0</ele><time>2026-04-26T09:22:41.945Z</time></trkpt><trkpt lat="40.374722948164155" lon="16.541032715027683"><ele>90.0</ele><time>2026-04-26T09:22:42.945Z</time></trkpt><trkpt lat="40.374656212013726" lon="16.541133600906786"><ele>89.0</ele><time>2026-04-26T09:22:43.945Z</time></trkpt><trkpt lat="40.37456831647079" lon="16.54117446489359"><ele>88.0</ele><time>2026-04-26T09:22:44.945Z</time></trkpt><trkpt lat="40.374482521716565" lon="16.5411909461719"><ele>87.0</ele><time>2026-04-26T09:22:45.945Z</time></trkpt><trkpt lat="40.37439041490271" lon="16.54120654265953"><ele>86.0</ele><time>2026-04-26T09:22:46.945Z</time></trkpt><trkpt lat="40.37429215811364" lon="16.54119629991408"><ele>86.0</ele><time>2026-04-26T09:22:47.945Z</time></trkpt><trkpt lat="40.37419071159913" lon="16.54118330391201"><ele>86.0</ele><time>2026-04-26T09:22:48.945Z</time></trkpt><trkpt lat="40.374103243022944" lon="16.541163166598135"><ele>86.0</ele><time>2026-04-26T09:22:49.945Z</time></trkpt><trkpt lat="40.37399522049999" lon="16.541138144924638"><ele>86.0</ele><time>2026-04-26T09:22:50.945Z</time></trkpt><trkpt lat="40.373902809474885" lon="16.54112488999944"><ele>86.0</ele><time>2026-04-26T09:22:51.945Z</time></trkpt><trkpt lat="40.3738182428707" lon="16.54115423520216"><ele>85.4</ele><time>2026-04-26T09:22:52.945Z</time></trkpt><trkpt lat="40.373733953950676" lon="16.54118082298175"><ele>84.8</ele><time>2026-04-26T09:22:53.945Z</time></trkpt><trkpt lat="40.37367321201132" lon="16.54128779962361"><ele>84.2</ele><time>2026-04-26T09:22:54.945Z</time></trkpt><trkpt lat="40.373613434472865" lon="16.541383116953345"><ele>83.60000000000001</ele><time>2026-04-26T09:22:55.945Z</time></trkpt><trkpt lat="40.373540904626694" lon="16.54150622391568"><ele>83.0</ele><time>2026-04-26T09:22:56.945Z</time></trkpt><trkpt lat="40.373470495503014" lon="16.541628151484865"><ele>83.0</ele><time>2026-04-26T09:22:57.945Z</time></trkpt><trkpt lat="40.373412456315876" lon="16.541741215230555"><ele>83.0</ele><time>2026-04-26T09:22:58.945Z</time></trkpt><trkpt lat="40.373340958842014" lon="16.541862652827866"><ele>83.0</ele><time>2026-04-26T09:22:59.945Z</time></trkpt><trkpt lat="40.37326957114291" lon="16.541974440545864"><ele>83.0</ele><time>2026-04-26T09:23:00.945Z</time></trkpt><trkpt lat="40.37320344288359" lon="16.542083013374786"><ele>83.0</ele><time>2026-04-26T09:23:01.945Z</time></trkpt><trkpt lat="40.37313027827471" lon="16.542171885857737"><ele>83.4</ele><time>2026-04-26T09:23:02.945Z</time></trkpt><trkpt lat="40.37303614801346" lon="16.542240324153322"><ele>83.80000000000001</ele><time>2026-04-26T09:23:03.945Z</time></trkpt><trkpt lat="40.37295592790704" lon="16.54232213087228"><ele>84.2</ele><time>2026-04-26T09:23:04.945Z</time></trkpt><trkpt lat="40.372864592612764" lon="16.542403053807167"><ele>84.6</ele><time>2026-04-26T09:23:05.945Z</time></trkpt><trkpt lat="40.3727629325628" lon="16.542483138991365"><ele>85.0</ele><time>2026-04-26T09:23:06.945Z</time></trkpt><trkpt lat="40.37267465021658" lon="16.542563826989454"><ele>85.75</ele><time>2026-04-26T09:23:07.945Z</time></trkpt><trkpt lat="40.37259862688533" lon="16.542658433410047"><ele>86.5</ele><time>2026-04-26T09:23:08.945Z</time></trkpt><trkpt lat="40.37253488248025" lon="16.542779798381336"><ele>87.25</ele><time>2026-04-26T09:23:09.945Z</time></trkpt><trkpt lat="40.37246644068621" lon="16.542911760569634"><ele>88.0</ele><time>2026-04-26T09:23:10.945Z</time></trkpt><trkpt lat="40.37240442718012" lon="16.543041436530576"><ele>88.0</ele><time>2026-04-26T09:23:11.945Z</time></trkpt><trkpt lat="40.37233919158511" lon="16.54316773374509"><ele>88.0</ele><time>2026-04-26T09:23:12.945Z</time></trkpt><trkpt lat="40.37226955503786" lon="16.543301888535826"><ele>88.0</ele><time>2026-04-26T09:23:13.945Z</time></trkpt><trkpt lat="40.372201320261" lon="16.543440354344018"><ele>88.0</ele><time>2026-04-26T09:23:14.945Z</time></trkpt><trkpt lat="40.37213661273527" lon="16.543582769856982"><ele>86.60000000000001</ele><time>2026-04-26T09:23:15.945Z</time></trkpt><trkpt lat="40.3720692417506" lon="16.543721866791373"><ele>85.2</ele><time>2026-04-26T09:23:16.945Z</time></trkpt><trkpt lat="40.37200443586407" lon="16.543846016681307"><ele>83.8</ele><time>2026-04-26T09:23:17.945Z</time></trkpt><trkpt lat="40.371948014117685" lon="16.5439624314629"><ele>82.4</ele><time>2026-04-26T09:23:18.945Z</time></trkpt><trkpt lat="40.371906094717346" lon="16.54408751412356"><ele>81.0</ele><time>2026-04-26T09:23:19.945Z</time></trkpt><trkpt lat="40.3718677997608" lon="16.544227514627895"><ele>81.0</ele><time>2026-04-26T09:23:20.945Z</time></trkpt><trkpt lat="40.37183371960999" lon="16.544364933215693"><ele>81.0</ele><time>2026-04-26T09:23:21.945Z</time></trkpt><trkpt lat="40.37180419390512" lon="16.544484843922564"><ele>81.0</ele><time>2026-04-26T09:23:22.945Z</time></trkpt><trkpt lat="40.371754077132586" lon="16.544562544575264"><ele>81.0</ele><time>2026-04-26T09:23:23.945Z</time></trkpt><trkpt lat="40.37162396197734" lon="16.544600444614442"><ele>81.0</ele><time>2026-04-26T09:23:25.945Z</time></trkpt><trkpt lat="40.3715167653514" lon="16.544599892862344"><ele>81.19999999999999</ele><time>2026-04-26T09:23:26.945Z</time></trkpt><trkpt lat="40.37141685260134" lon="16.54464452973566"><ele>81.39999999999999</ele><time>2026-04-26T09:23:27.945Z</time></trkpt><trkpt lat="40.37130793970831" lon="16.544672802494425"><ele>81.6</ele><time>2026-04-26T09:23:28.945Z</time></trkpt><trkpt lat="40.3712056016216" lon="16.544737776848162"><ele>81.8</ele><time>2026-04-26T09:23:29.945Z</time></trkpt><trkpt lat="40.37111727443498" lon="16.54479942574989"><ele>82.0</ele><time>2026-04-26T09:23:30.945Z</time></trkpt><trkpt lat="40.37101967508914" lon="16.544862541110426"><ele>80.6</ele><time>2026-04-26T09:23:31.945Z</time></trkpt><trkpt lat="40.3709163220567" lon="16.54492798312029"><ele>79.19999999999999</ele><time>2026-04-26T09:23:32.945Z</time></trkpt><trkpt lat="40.370824367647025" lon="16.544995596916507"><ele>77.8</ele><time>2026-04-26T09:23:33.945Z</time></trkpt><trkpt lat="40.3707223495011" lon="16.545055981433336"><ele>76.4</ele><time>2026-04-26T09:23:34.945Z</time></trkpt><trkpt lat="40.37062714548132" lon="16.54513511470417"><ele>75.0</ele><time>2026-04-26T09:23:35.945Z</time></trkpt><trkpt lat="40.370528554068905" lon="16.54522998527525"><ele>73.5</ele><time>2026-04-26T09:23:36.945Z</time></trkpt><trkpt lat="40.3704301853149" lon="16.54534184757081"><ele>72.0</ele><time>2026-04-26T09:23:37.945Z</time></trkpt><trkpt lat="40.37034002376682" lon="16.545432616855354"><ele>70.5</ele><time>2026-04-26T09:23:38.945Z</time></trkpt><trkpt lat="40.3702540334588" lon="16.54550102968264"><ele>69.0</ele><time>2026-04-26T09:23:39.945Z</time></trkpt><trkpt lat="40.370146711960984" lon="16.54556168519184"><ele>68.8</ele><time>2026-04-26T09:23:40.945Z</time></trkpt><trkpt lat="40.37004775181481" lon="16.545606904074447"><ele>68.60000000000001</ele><time>2026-04-26T09:23:41.945Z</time></trkpt><trkpt lat="40.36994837945795" lon="16.54564197290681"><ele>68.4</ele><time>2026-04-26T09:23:42.945Z</time></trkpt><trkpt lat="40.36984158459179" lon="16.545656142519523"><ele>68.2</ele><time>2026-04-26T09:23:43.945Z</time></trkpt><trkpt lat="40.36973863059368" lon="16.545663229266236"><ele>68.0</ele><time>2026-04-26T09:23:44.944Z</time></trkpt><trkpt lat="40.369641885945654" lon="16.545678462278488"><ele>68.0</ele><time>2026-04-26T09:23:45.944Z</time></trkpt><trkpt lat="40.369544294987186" lon="16.545712082861353"><ele>68.0</ele><time>2026-04-26T09:23:46.944Z</time></trkpt><trkpt lat="40.369472920846555" lon="16.54577139204064"><ele>68.0</ele><time>2026-04-26T09:23:47.945Z</time></trkpt><trkpt lat="40.36942306149683" lon="16.545856256123898"><ele>68.0</ele><time>2026-04-26T09:23:48.944Z</time></trkpt><trkpt lat="40.369385049370024" lon="16.545957856490304"><ele>68.0</ele><time>2026-04-26T09:23:49.944Z</time></trkpt><trkpt lat="40.36933920776625" lon="16.54604622852587"><ele>68.0</ele><time>2026-04-26T09:23:50.944Z</time></trkpt><trkpt lat="40.369267555081244" lon="16.54610902932542"><ele>68.0</ele><time>2026-04-26T09:23:51.944Z</time></trkpt><trkpt lat="40.3691787795444" lon="16.546109571830403"><ele>68.0</ele><time>2026-04-26T09:23:52.944Z</time></trkpt><trkpt lat="40.3690786847974" lon="16.546137814124542"><ele>68.0</ele><time>2026-04-26T09:23:53.944Z</time></trkpt><trkpt lat="40.368985423481476" lon="16.546207405009234"><ele>68.0</ele><time>2026-04-26T09:23:54.944Z</time></trkpt><trkpt lat="40.36887030938411" lon="16.54625573858363"><ele>68.0</ele><time>2026-04-26T09:23:55.944Z</time></trkpt><trkpt lat="40.368762029910066" lon="16.546326315477238"><ele>69.25</ele><time>2026-04-26T09:23:56.944Z</time></trkpt><trkpt lat="40.36865127662361" lon="16.546391066605803"><ele>70.5</ele><time>2026-04-26T09:23:57.944Z</time></trkpt><trkpt lat="40.3685436663632" lon="16.54644726982526"><ele>71.75</ele><time>2026-04-26T09:23:58.944Z</time></trkpt><trkpt lat="40.36844678811229" lon="16.546505074694178"><ele>73.0</ele><time>2026-04-26T09:23:59.944Z</time></trkpt><trkpt lat="40.36835106948149" lon="16.546579017247385"><ele>73.0</ele><time>2026-04-26T09:24:00.944Z</time></trkpt><trkpt lat="40.36826441694869" lon="16.546681419800073"><ele>73.0</ele><time>2026-04-26T09:24:01.944Z</time></trkpt><trkpt lat="40.36818258113837" lon="16.54679640623418"><ele>73.0</ele><time>2026-04-26T09:24:02.944Z</time></trkpt><trkpt lat="40.368107282223136" lon="16.546909716653126"><ele>73.0</ele><time>2026-04-26T09:24:03.944Z</time></trkpt><trkpt lat="40.36802472343387" lon="16.547021287440835"><ele>73.4</ele><time>2026-04-26T09:24:04.944Z</time></trkpt><trkpt lat="40.36795546394102" lon="16.547134922080687"><ele>73.8</ele><time>2026-04-26T09:24:05.944Z</time></trkpt><trkpt lat="40.367904193030334" lon="16.54724926972386"><ele>74.2</ele><time>2026-04-26T09:24:06.944Z</time></trkpt><trkpt lat="40.36787123944557" lon="16.547378203151"><ele>74.6</ele><time>2026-04-26T09:24:07.944Z</time></trkpt><trkpt lat="40.36784747976249" lon="16.547526716320416"><ele>75.0</ele><time>2026-04-26T09:24:08.944Z</time></trkpt><trkpt lat="40.36783243388668" lon="16.547679365927138"><ele>75.0</ele><time>2026-04-26T09:24:09.944Z</time></trkpt><trkpt lat="40.36781779935221" lon="16.5478368309786"><ele>75.0</ele><time>2026-04-26T09:24:10.944Z</time></trkpt><trkpt lat="40.367800188014485" lon="16.548005208188982"><ele>75.0</ele><time>2026-04-26T09:24:11.944Z</time></trkpt><trkpt lat="40.36777906420684" lon="16.548169751863167"><ele>75.0</ele><time>2026-04-26T09:24:12.944Z</time></trkpt><trkpt lat="40.36775072625109" lon="16.54833070364583"><ele>74.8</ele><time>2026-04-26T09:24:13.944Z</time></trkpt><trkpt lat="40.36772186293471" lon="16.548491524659028"><ele>74.6</ele><time>2026-04-26T09:24:14.944Z</time></trkpt><trkpt lat="40.36769670323878" lon="16.548638108669337"><ele>74.4</ele><time>2026-04-26T09:24:15.944Z</time></trkpt><trkpt lat="40.367682741526345" lon="16.548772186750824"><ele>74.2</ele><time>2026-04-26T09:24:16.944Z</time></trkpt><trkpt lat="40.36768166429401" lon="16.54889411911123"><ele>74.0</ele><time>2026-04-26T09:24:17.944Z</time></trkpt><trkpt lat="40.36769003659025" lon="16.549037214281192"><ele>74.5</ele><time>2026-04-26T09:24:18.944Z</time></trkpt><trkpt lat="40.36772206763994" lon="16.549183540390604"><ele>75.0</ele><time>2026-04-26T09:24:19.944Z</time></trkpt><trkpt lat="40.36775703811737" lon="16.54933845642644"><ele>75.5</ele><time>2026-04-26T09:24:20.944Z</time></trkpt><trkpt lat="40.36778016993802" lon="16.549495624663066"><ele>76.0</ele><time>2026-04-26T09:24:21.944Z</time></trkpt><trkpt lat="40.36778780231752" lon="16.549661952419992"><ele>76.0</ele><time>2026-04-26T09:24:22.944Z</time></trkpt><trkpt lat="40.367791500585334" lon="16.549835920144865"><ele>76.0</ele><time>2026-04-26T09:24:23.944Z</time></trkpt><trkpt lat="40.36778141561764" lon="16.550001815791056"><ele>76.0</ele><time>2026-04-26T09:24:24.944Z</time></trkpt><trkpt lat="40.367775684198385" lon="16.55016735520043"><ele>76.0</ele><time>2026-04-26T09:24:25.944Z</time></trkpt><trkpt lat="40.36776516048444" lon="16.550338134601827"><ele>75.5</ele><time>2026-04-26T09:24:26.944Z</time></trkpt><trkpt lat="40.367746375916845" lon="16.55050560070088"><ele>75.0</ele><time>2026-04-26T09:24:27.944Z</time></trkpt><trkpt lat="40.36772786099739" lon="16.550682136045836"><ele>74.5</ele><time>2026-04-26T09:24:28.944Z</time></trkpt><trkpt lat="40.367714590024896" lon="16.550862646708026"><ele>74.0</ele><time>2026-04-26T09:24:29.944Z</time></trkpt><trkpt lat="40.367700462533215" lon="16.551028274146194"><ele>74.0</ele><time>2026-04-26T09:24:30.944Z</time></trkpt><trkpt lat="40.36768927775676" lon="16.55118774942779"><ele>74.0</ele><time>2026-04-26T09:24:31.944Z</time></trkpt><trkpt lat="40.36769339543084" lon="16.5513493903891"><ele>74.0</ele><time>2026-04-26T09:24:32.944Z</time></trkpt><trkpt lat="40.36770785218013" lon="16.551522279063057"><ele>74.0</ele><time>2026-04-26T09:24:33.944Z</time></trkpt><trkpt lat="40.367720660019664" lon="16.551688040007537"><ele>74.0</ele><time>2026-04-26T09:24:34.944Z</time></trkpt><trkpt lat="40.367737346203334" lon="16.551829808613288"><ele>74.0</ele><time>2026-04-26T09:24:35.944Z</time></trkpt><trkpt lat="40.36776664254072" lon="16.551980817879386"><ele>74.0</ele><time>2026-04-26T09:24:36.944Z</time></trkpt><trkpt lat="40.36781019586748" lon="16.552128648652268"><ele>74.0</ele><time>2026-04-26T09:24:37.944Z</time></trkpt><trkpt lat="40.36786491196186" lon="16.552273691364455"><ele>74.25</ele><time>2026-04-26T09:24:38.944Z</time></trkpt><trkpt lat="40.36792259027035" lon="16.552425562804604"><ele>74.5</ele><time>2026-04-26T09:24:39.944Z</time></trkpt><trkpt lat="40.36797720130652" lon="16.552571138368066"><ele>74.75</ele><time>2026-04-26T09:24:40.944Z</time></trkpt><trkpt lat="40.368033602525124" lon="16.552729444122896"><ele>75.0</ele><time>2026-04-26T09:24:41.944Z</time></trkpt><trkpt lat="40.36807693271191" lon="16.552886831679416"><ele>77.25</ele><time>2026-04-26T09:24:42.944Z</time></trkpt><trkpt lat="40.36810488723049" lon="16.55305146263022"><ele>79.5</ele><time>2026-04-26T09:24:43.944Z</time></trkpt><trkpt lat="40.36812837681516" lon="16.55322654135825"><ele>81.75</ele><time>2026-04-26T09:24:44.944Z</time></trkpt><trkpt lat="40.36813681667061" lon="16.553388800412684"><ele>84.0</ele><time>2026-04-26T09:24:45.944Z</time></trkpt><trkpt lat="40.36809940521093" lon="16.553548579570485"><ele>84.0</ele><time>2026-04-26T09:24:46.944Z</time></trkpt><trkpt lat="40.368078383150305" lon="16.553728310962672"><ele>84.0</ele><time>2026-04-26T09:24:47.944Z</time></trkpt><trkpt lat="40.368047635810086" lon="16.553895557279137"><ele>84.0</ele><time>2026-04-26T09:24:48.944Z</time></trkpt><trkpt lat="40.36802805725895" lon="16.55408688366205"><ele>84.0</ele><time>2026-04-26T09:24:49.944Z</time></trkpt><trkpt lat="40.36801453043738" lon="16.554282444160826"><ele>81.25</ele><time>2026-04-26T09:24:50.944Z</time></trkpt><trkpt lat="40.367999342590245" lon="16.554470603983106"><ele>78.5</ele><time>2026-04-26T09:24:51.944Z</time></trkpt><trkpt lat="40.36798915533717" lon="16.554651774734833"><ele>75.75</ele><time>2026-04-26T09:24:52.944Z</time></trkpt><trkpt lat="40.367990303217375" lon="16.55481541585303"><ele>73.0</ele><time>2026-04-26T09:24:53.944Z</time></trkpt><trkpt lat="40.36800336766845" lon="16.55496686040974"><ele>73.75</ele><time>2026-04-26T09:24:54.944Z</time></trkpt><trkpt lat="40.36804084267639" lon="16.55511079542172"><ele>74.5</ele><time>2026-04-26T09:24:55.943Z</time></trkpt><trkpt lat="40.36810508467298" lon="16.555244536280647"><ele>75.25</ele><time>2026-04-26T09:24:56.943Z</time></trkpt><trkpt lat="40.368189385672885" lon="16.555362303945753"><ele>76.0</ele><time>2026-04-26T09:24:57.943Z</time></trkpt><trkpt lat="40.36828457799824" lon="16.555456433310408"><ele>76.0</ele><time>2026-04-26T09:24:58.943Z</time></trkpt><trkpt lat="40.368373453472365" lon="16.555535775717523"><ele>76.0</ele><time>2026-04-26T09:24:59.943Z</time></trkpt><trkpt lat="40.368450970035234" lon="16.555595290662588"><ele>76.0</ele><time>2026-04-26T09:25:00.943Z</time></trkpt><trkpt lat="40.36851443666538" lon="16.5556707344157"><ele>76.0</ele><time>2026-04-26T09:25:01.943Z</time></trkpt><trkpt lat="40.36855880937278" lon="16.555758482754953"><ele>76.0</ele><time>2026-04-26T09:25:02.943Z</time></trkpt><trkpt lat="40.368602737686444" lon="16.555863598682112"><ele>76.0</ele><time>2026-04-26T09:25:03.943Z</time></trkpt><trkpt lat="40.368636221161665" lon="16.55597271997873"><ele>76.0</ele><time>2026-04-26T09:25:04.943Z</time></trkpt><trkpt lat="40.36867327072451" lon="16.55606839930493"><ele>76.0</ele><time>2026-04-26T09:25:05.943Z</time></trkpt><trkpt lat="40.36870724686382" lon="16.55617427582656"><ele>76.0</ele><time>2026-04-26T09:25:06.943Z</time></trkpt><trkpt lat="40.368743466862234" lon="16.55627798558398"><ele>76.0</ele><time>2026-04-26T09:25:07.943Z</time></trkpt><trkpt lat="40.368782898447385" lon="16.556385659240448"><ele>76.0</ele><time>2026-04-26T09:25:08.943Z</time></trkpt><trkpt lat="40.36882656200473" lon="16.556504493272747"><ele>77.19999999999999</ele><time>2026-04-26T09:25:09.943Z</time></trkpt><trkpt lat="40.36887439533036" lon="16.556613229071694"><ele>78.39999999999999</ele><time>2026-04-26T09:25:10.943Z</time></trkpt><trkpt lat="40.36891060569189" lon="16.556720527158415"><ele>79.6</ele><time>2026-04-26T09:25:11.943Z</time></trkpt><trkpt lat="40.36892246188775" lon="16.55684516662591"><ele>80.8</ele><time>2026-04-26T09:25:12.943Z</time></trkpt><trkpt lat="40.368908961860896" lon="16.556978889853017"><ele>82.0</ele><time>2026-04-26T09:25:13.943Z</time></trkpt><trkpt lat="40.36888610994437" lon="16.55710244898872"><ele>82.0</ele><time>2026-04-26T09:25:14.943Z</time></trkpt><trkpt lat="40.36887938708356" lon="16.557217662464744"><ele>82.0</ele><time>2026-04-26T09:25:15.943Z</time></trkpt><trkpt lat="40.36889877070807" lon="16.557335615625814"><ele>82.0</ele><time>2026-04-26T09:25:16.943Z</time></trkpt><trkpt lat="40.368942464198625" lon="16.557439997000564"><ele>82.0</ele><time>2026-04-26T09:25:17.943Z</time></trkpt><trkpt lat="40.368996941295464" lon="16.557518434801096"><ele>82.0</ele><time>2026-04-26T09:25:18.943Z</time></trkpt><trkpt lat="40.3690683081602" lon="16.557589188440268"><ele>82.0</ele><time>2026-04-26T09:25:19.943Z</time></trkpt><trkpt lat="40.369151991661504" lon="16.557655615949134"><ele>82.0</ele><time>2026-04-26T09:25:20.943Z</time></trkpt><trkpt lat="40.36924481887813" lon="16.557708127752043"><ele>82.0</ele><time>2026-04-26T09:25:21.943Z</time></trkpt><trkpt lat="40.36934889769338" lon="16.557752201093834"><ele>82.0</ele><time>2026-04-26T09:25:22.943Z</time></trkpt><trkpt lat="40.36946842113702" lon="16.557781584956942"><ele>82.0</ele><time>2026-04-26T09:25:23.943Z</time></trkpt><trkpt lat="40.36958892677859" lon="16.557798109053095"><ele>82.39999999999999</ele><time>2026-04-26T09:25:24.943Z</time></trkpt><trkpt lat="40.369695423925506" lon="16.557805346787447"><ele>82.8</ele><time>2026-04-26T09:25:25.943Z</time></trkpt><trkpt lat="40.36979029072923" lon="16.55781506673608"><ele>83.2</ele><time>2026-04-26T09:25:26.943Z</time></trkpt><trkpt lat="40.369879312906434" lon="16.55783705427804"><ele>83.6</ele><time>2026-04-26T09:25:27.943Z</time></trkpt><trkpt lat="40.369961614571594" lon="16.557884997656092"><ele>84.0</ele><time>2026-04-26T09:25:28.943Z</time></trkpt><trkpt lat="40.37003416201518" lon="16.55796497546765"><ele>83.0</ele><time>2026-04-26T09:25:29.943Z</time></trkpt><trkpt lat="40.37010419475844" lon="16.558064245140436"><ele>82.0</ele><time>2026-04-26T09:25:30.943Z</time></trkpt><trkpt lat="40.37016812787368" lon="16.558176025566514"><ele>81.0</ele><time>2026-04-26T09:25:31.943Z</time></trkpt><trkpt lat="40.37023655262381" lon="16.558289618275538"><ele>80.0</ele><time>2026-04-26T09:25:32.943Z</time></trkpt><trkpt lat="40.370307543791334" lon="16.558404243975573"><ele>79.0</ele><time>2026-04-26T09:25:33.943Z</time></trkpt><trkpt lat="40.37037700143659" lon="16.558525075878904"><ele>79.0</ele><time>2026-04-26T09:25:34.943Z</time></trkpt><trkpt lat="40.37044464145318" lon="16.558639949488228"><ele>79.0</ele><time>2026-04-26T09:25:35.943Z</time></trkpt><trkpt lat="40.37050642660773" lon="16.55874889017787"><ele>79.0</ele><time>2026-04-26T09:25:36.943Z</time></trkpt><trkpt lat="40.37056481397863" lon="16.55885054686851"><ele>79.0</ele><time>2026-04-26T09:25:37.943Z</time></trkpt><trkpt lat="40.370622103283864" lon="16.55895488201576"><ele>79.0</ele><time>2026-04-26T09:25:38.943Z</time></trkpt><trkpt lat="40.37067504681411" lon="16.559069220017538"><ele>79.2</ele><time>2026-04-26T09:25:39.943Z</time></trkpt><trkpt lat="40.370711803254146" lon="16.55918459446119"><ele>79.4</ele><time>2026-04-26T09:25:40.943Z</time></trkpt><trkpt lat="40.37073737474283" lon="16.55930671800227"><ele>79.6</ele><time>2026-04-26T09:25:41.943Z</time></trkpt><trkpt lat="40.3707490895635" lon="16.559437434758376"><ele>79.8</ele><time>2026-04-26T09:25:42.943Z</time></trkpt><trkpt lat="40.37075295794897" lon="16.559573557729546"><ele>80.0</ele><time>2026-04-26T09:25:43.943Z</time></trkpt><trkpt lat="40.3707544424108" lon="16.55971120258831"><ele>80.33333333333334</ele><time>2026-04-26T09:25:44.943Z</time></trkpt><trkpt lat="40.370758012802625" lon="16.559835851424598"><ele>80.66666666666667</ele><time>2026-04-26T09:25:45.943Z</time></trkpt><trkpt lat="40.370763759567545" lon="16.55994840132918"><ele>81.0</ele><time>2026-04-26T09:25:46.943Z</time></trkpt><trkpt lat="40.370771529405125" lon="16.56004835981599"><ele>81.33333333333333</ele><time>2026-04-26T09:25:47.943Z</time></trkpt><trkpt lat="40.370782407057725" lon="16.560135481372594"><ele>81.66666666666666</ele><time>2026-04-26T09:25:48.943Z</time></trkpt><trkpt lat="40.37079269117601" lon="16.5602453875246"><ele>82.0</ele><time>2026-04-26T09:25:50.943Z</time></trkpt><trkpt lat="40.37101966016738" lon="16.560242410546657"><ele>82.0</ele><time>2026-04-26T09:25:55.943Z</time></trkpt><trkpt lat="40.37108568487661" lon="16.560209498673466"><ele>82.0</ele><time>2026-04-26T09:25:56.943Z</time></trkpt><trkpt lat="40.37115567591561" lon="16.560185863020155"><ele>82.0</ele><time>2026-04-26T09:25:57.942Z</time></trkpt><trkpt lat="40.37123264592432" lon="16.560158955828438"><ele>82.0</ele><time>2026-04-26T09:25:58.942Z</time></trkpt><trkpt lat="40.3713000106536" lon="16.560137731288542"><ele>82.0</ele><time>2026-04-26T09:25:59.942Z</time></trkpt><trkpt lat="40.37141591204723" lon="16.560131833093102"><ele>82.0</ele><time>2026-04-26T09:26:01.942Z</time></trkpt><trkpt lat="40.371495526067825" lon="16.560145608782197"><ele>82.66666666666666</ele><time>2026-04-26T09:26:03.942Z</time></trkpt><trkpt lat="40.37157616380888" lon="16.560165289008566"><ele>83.33333333333333</ele><time>2026-04-26T09:26:06.942Z</time></trkpt><trkpt lat="40.37163973140654" lon="16.560165820432406"><ele>84.0</ele><time>2026-04-26T09:26:10.942Z</time></trkpt><trkpt lat="40.37172339907844" lon="16.560154626604998"><ele>84.66666666666667</ele><time>2026-04-26T09:26:21.942Z</time></trkpt><trkpt lat="40.371822225381585" lon="16.56015039004677"><ele>85.33333333333334</ele><time>2026-04-26T09:26:23.942Z</time></trkpt><trkpt lat="40.37192855430034" lon="16.56015365912961"><ele>86.0</ele><time>2026-04-26T09:26:25.942Z</time></trkpt><trkpt lat="40.37203111912041" lon="16.56016067078931"><ele>86.0</ele><time>2026-04-26T09:26:27.942Z</time></trkpt><trkpt lat="40.372100041239946" lon="16.560151743789152"><ele>86.0</ele><time>2026-04-26T09:26:29.942Z</time></trkpt><trkpt lat="40.37218893667273" lon="16.560152618635634"><ele>86.0</ele><time>2026-04-26T09:26:32.942Z</time></trkpt><trkpt lat="40.3722500099741" lon="16.560207460565426"><ele>86.0</ele><time>2026-04-26T09:26:34.942Z</time></trkpt><trkpt lat="40.37232188927308" lon="16.56026607998467"><ele>86.0</ele><time>2026-04-26T09:26:36.942Z</time></trkpt><trkpt lat="40.3723876695032" lon="16.560274773238753"><ele>86.0</ele><time>2026-04-26T09:26:37.942Z</time></trkpt><trkpt lat="40.372454668088864" lon="16.560242152381083"><ele>86.83333333333334</ele><time>2026-04-26T09:26:38.942Z</time></trkpt><trkpt lat="40.37252215080968" lon="16.56021575517968"><ele>87.66666666666667</ele><time>2026-04-26T09:26:39.942Z</time></trkpt><trkpt lat="40.372589269679644" lon="16.560192445151078"><ele>88.5</ele><time>2026-04-26T09:26:40.942Z</time></trkpt><trkpt lat="40.37265704603617" lon="16.5601693625921"><ele>89.33333333333333</ele><time>2026-04-26T09:26:41.942Z</time></trkpt><trkpt lat="40.372729760992456" lon="16.560142938985845"><ele>90.16666666666666</ele><time>2026-04-26T09:26:42.942Z</time></trkpt><trkpt lat="40.372806698822295" lon="16.560109119932243"><ele>91.0</ele><time>2026-04-26T09:26:43.942Z</time></trkpt><trkpt lat="40.37289250398237" lon="16.56007411140722"><ele>91.0</ele><time>2026-04-26T09:26:44.942Z</time></trkpt><trkpt lat="40.37296209241499" lon="16.560064195118876"><ele>91.0</ele><time>2026-04-26T09:26:45.942Z</time></trkpt><trkpt lat="40.373036776139365" lon="16.56006588574548"><ele>91.0</ele><time>2026-04-26T09:26:46.942Z</time></trkpt><trkpt lat="40.37311257545289" lon="16.56005846545866"><ele>91.0</ele><time>2026-04-26T09:26:47.942Z</time></trkpt><trkpt lat="40.3731822970235" lon="16.560047963826456"><ele>91.0</ele><time>2026-04-26T09:26:48.942Z</time></trkpt><trkpt lat="40.37325023245077" lon="16.56004767179444"><ele>91.0</ele><time>2026-04-26T09:26:49.942Z</time></trkpt><trkpt lat="40.37336745894148" lon="16.56002990855393"><ele>91.66666666666666</ele><time>2026-04-26T09:26:51.942Z</time></trkpt><trkpt lat="40.3734325673785" lon="16.56000467127748"><ele>92.33333333333333</ele><time>2026-04-26T09:26:52.942Z</time></trkpt><trkpt lat="40.373492418618504" lon="16.559970031854974"><ele>93.0</ele><time>2026-04-26T09:26:53.942Z</time></trkpt><trkpt lat="40.373593796627006" lon="16.559858818217716"><ele>93.66666666666667</ele><time>2026-04-26T09:26:55.942Z</time></trkpt><trkpt lat="40.37365646046565" lon="16.55981869231038"><ele>94.33333333333334</ele><time>2026-04-26T09:26:56.942Z</time></trkpt><trkpt lat="40.37372026571664" lon="16.559785206263196"><ele>95.0</ele><time>2026-04-26T09:26:57.942Z</time></trkpt><trkpt lat="40.37378710660462" lon="16.5597613366708"><ele>95.83333333333334</ele><time>2026-04-26T09:26:58.942Z</time></trkpt><trkpt lat="40.37386640292389" lon="16.559752007860016"><ele>96.66666666666667</ele><time>2026-04-26T09:26:59.942Z</time></trkpt><trkpt lat="40.37394489747205" lon="16.559762018249952"><ele>97.5</ele><time>2026-04-26T09:27:00.942Z</time></trkpt><trkpt lat="40.374035598032805" lon="16.559782702404846"><ele>98.33333333333334</ele><time>2026-04-26T09:27:01.942Z</time></trkpt><trkpt lat="40.37411778736406" lon="16.559837945503762"><ele>99.16666666666667</ele><time>2026-04-26T09:27:02.942Z</time></trkpt><trkpt lat="40.37419820432514" lon="16.559890031127868"><ele>100.0</ele><time>2026-04-26T09:27:03.942Z</time></trkpt><trkpt lat="40.37425044108134" lon="16.559945975080048"><ele>100.00000000000001</ele><time>2026-04-26T09:27:04.942Z</time></trkpt><trkpt lat="40.37431184868816" lon="16.55999232959879"><ele>100.0</ele><time>2026-04-26T09:27:05.942Z</time></trkpt><trkpt lat="40.37439098946316" lon="16.560012672677143"><ele>100.0</ele><time>2026-04-26T09:27:06.942Z</time></trkpt><trkpt lat="40.37446136533497" lon="16.560020897293725"><ele>100.0</ele><time>2026-04-26T09:27:07.942Z</time></trkpt><trkpt lat="40.374531131983076" lon="16.560041156465218"><ele>100.00000000000001</ele><time>2026-04-26T09:27:08.942Z</time></trkpt><trkpt lat="40.37459786134435" lon="16.56006389065336"><ele>100.0</ele><time>2026-04-26T09:27:09.942Z</time></trkpt><trkpt lat="40.37468316126753" lon="16.56008649064623"><ele>101.0</ele><time>2026-04-26T09:27:10.942Z</time></trkpt><trkpt lat="40.37480186129387" lon="16.560101179034437"><ele>102.0</ele><time>2026-04-26T09:27:12.942Z</time></trkpt><trkpt lat="40.37488295227372" lon="16.560088583566344"><ele>103.0</ele><time>2026-04-26T09:27:14.942Z</time></trkpt><trkpt lat="40.37495659312235" lon="16.560036320325967"><ele>104.0</ele><time>2026-04-26T09:27:17.942Z</time></trkpt><trkpt lat="40.37502104436168" lon="16.56000223245057"><ele>105.0</ele><time>2026-04-26T09:27:19.942Z</time></trkpt><trkpt lat="40.375143941648204" lon="16.559965048426704"><ele>105.0</ele><time>2026-04-26T09:27:21.942Z</time></trkpt><trkpt lat="40.375253074142535" lon="16.55994594928679"><ele>105.0</ele><time>2026-04-26T09:27:23.942Z</time></trkpt><trkpt lat="40.375312656479586" lon="16.559917133957022"><ele>105.0</ele><time>2026-04-26T09:27:28.942Z</time></trkpt><trkpt lat="40.37537915056182" lon="16.55990461097837"><ele>105.0</ele><time>2026-04-26T09:27:33.942Z</time></trkpt><trkpt lat="40.37544572662163" lon="16.559916705410302"><ele>105.0</ele><time>2026-04-26T09:27:48.941Z</time></trkpt><trkpt lat="40.37552068491756" lon="16.55988052255749"><ele>105.0</ele><time>2026-04-26T09:27:52.941Z</time></trkpt><trkpt lat="40.37560288039761" lon="16.559845044271082"><ele>105.33333333333333</ele><time>2026-04-26T09:27:55.941Z</time></trkpt><trkpt lat="40.375670719993046" lon="16.55981473737172"><ele>105.66666666666666</ele><time>2026-04-26T09:27:57.942Z</time></trkpt><trkpt lat="40.375733688360135" lon="16.55978062734711"><ele>106.0</ele><time>2026-04-26T09:27:59.942Z</time></trkpt><trkpt lat="40.375810802647976" lon="16.55974836319617"><ele>106.33333333333333</ele><time>2026-04-26T09:28:02.941Z</time></trkpt><trkpt lat="40.3758860588558" lon="16.559727281529344"><ele>106.66666666666666</ele><time>2026-04-26T09:28:07.941Z</time></trkpt><trkpt lat="40.375975048852666" lon="16.559738078654313"><ele>107.0</ele><time>2026-04-26T09:28:11.941Z</time></trkpt><trkpt lat="40.37605895475869" lon="16.559731268543015"><ele>106.99999999999999</ele><time>2026-04-26T09:28:14.941Z</time></trkpt><trkpt lat="40.37614260542115" lon="16.55969929760447"><ele>107.0</ele><time>2026-04-26T09:28:17.941Z</time></trkpt><trkpt lat="40.37621827836186" lon="16.559650289033083"><ele>107.0</ele><time>2026-04-26T09:28:20.941Z</time></trkpt><trkpt lat="40.376299578419804" lon="16.55961822437232"><ele>107.0</ele><time>2026-04-26T09:28:24.941Z</time></trkpt><trkpt lat="40.37637876841303" lon="16.559579856849183"><ele>106.99999999999999</ele><time>2026-04-26T09:28:27.941Z</time></trkpt><trkpt lat="40.376447357768164" lon="16.559563986815736"><ele>107.0</ele><time>2026-04-26T09:28:29.941Z</time></trkpt><trkpt lat="40.376524736007816" lon="16.55955223242589"><ele>108.71428571428572</ele><time>2026-04-26T09:28:32.941Z</time></trkpt><trkpt lat="40.376600110044045" lon="16.559522802176623"><ele>110.42857142857143</ele><time>2026-04-26T09:28:34.941Z</time></trkpt><trkpt lat="40.37667419248726" lon="16.559516264728803"><ele>112.14285714285714</ele><time>2026-04-26T09:28:37.941Z</time></trkpt><trkpt lat="40.37672996713774" lon="16.559477103314332"><ele>113.85714285714286</ele><time>2026-04-26T09:28:39.941Z</time></trkpt><trkpt lat="40.37679688407841" lon="16.55945463673597"><ele>115.57142857142857</ele><time>2026-04-26T09:28:41.941Z</time></trkpt><trkpt lat="40.37686409508095" lon="16.559427424017645"><ele>117.28571428571429</ele><time>2026-04-26T09:28:43.941Z</time></trkpt><trkpt lat="40.376946923040684" lon="16.55943089933167"><ele>119.0</ele><time>2026-04-26T09:29:13.94Z</time></trkpt><trkpt lat="40.37705622319458" lon="16.559434153102195"><ele>118.5</ele><time>2026-04-26T09:29:42.94Z</time></trkpt><trkpt lat="40.37722328657435" lon="16.559458493759045"><ele>118.0</ele><time>2026-04-26T09:29:47.94Z</time></trkpt><trkpt lat="40.37731759608971" lon="16.55950593439523"><ele>117.5</ele><time>2026-04-26T09:29:51.94Z</time></trkpt><trkpt lat="40.377422755287874" lon="16.559523291450045"><ele>117.0</ele><time>2026-04-26T09:29:53.94Z</time></trkpt><trkpt lat="40.37756913417281" lon="16.559545246971727"><ele>117.0</ele><time>2026-04-26T09:29:55.94Z</time></trkpt><trkpt lat="40.37763934658701" lon="16.559542294744674"><ele>117.0</ele><time>2026-04-26T09:29:56.94Z</time></trkpt><trkpt lat="40.377747753595635" lon="16.55949398001507"><ele>117.0</ele><time>2026-04-26T09:29:58.939Z</time></trkpt><trkpt lat="40.377801135122404" lon="16.559437916053064"><ele>117.0</ele><time>2026-04-26T09:29:59.94Z</time></trkpt><trkpt lat="40.37785800088762" lon="16.559389832659843"><ele>117.0</ele><time>2026-04-26T09:30:00.94Z</time></trkpt><trkpt lat="40.377925430233994" lon="16.559326650537724"><ele>117.0</ele><time>2026-04-26T09:30:01.94Z</time></trkpt><trkpt lat="40.37798805661363" lon="16.55925081669828"><ele>118.33333333333333</ele><time>2026-04-26T09:30:02.94Z</time></trkpt><trkpt lat="40.37804180069461" lon="16.559170918016097"><ele>119.66666666666666</ele><time>2026-04-26T09:30:03.94Z</time></trkpt><trkpt lat="40.37809782934708" lon="16.559132886570655"><ele>121.0</ele><time>2026-04-26T09:30:06.94Z</time></trkpt><trkpt lat="40.378130361817746" lon="16.559024921318535"><ele>122.33333333333333</ele><time>2026-04-26T09:30:18.939Z</time></trkpt><trkpt lat="40.378154916930725" lon="16.55894882769556"><ele>123.66666666666666</ele><time>2026-04-26T09:30:21.939Z</time></trkpt><trkpt lat="40.37823681248948" lon="16.55893655946215"><ele>125.0</ele><time>2026-04-26T09:30:24.939Z</time></trkpt><trkpt lat="40.37834528605255" lon="16.5589306169781"><ele>125.0</ele><time>2026-04-26T09:30:26.939Z</time></trkpt><trkpt lat="40.378446319740874" lon="16.558887646292693"><ele>125.0</ele><time>2026-04-26T09:30:28.939Z</time></trkpt><trkpt lat="40.3785147298301" lon="16.558847775430717"><ele>125.0</ele><time>2026-04-26T09:30:29.939Z</time></trkpt><trkpt lat="40.37861946031769" lon="16.558799997526567"><ele>125.0</ele><time>2026-04-26T09:30:31.939Z</time></trkpt><trkpt lat="40.37871367518408" lon="16.558742829340755"><ele>125.0</ele><time>2026-04-26T09:30:33.939Z</time></trkpt><trkpt lat="40.378812103661126" lon="16.558655783587696"><ele>128.2</ele><time>2026-04-26T09:30:35.94Z</time></trkpt><trkpt lat="40.378881543398016" lon="16.55852251521578"><ele>131.4</ele><time>2026-04-26T09:30:37.941Z</time></trkpt><trkpt lat="40.37893448658123" lon="16.55836737700815"><ele>134.6</ele><time>2026-04-26T09:30:39.942Z</time></trkpt><trkpt lat="40.37896299430003" lon="16.558271329371976"><ele>137.8</ele><time>2026-04-26T09:30:40.943Z</time></trkpt><trkpt lat="40.378985651566566" lon="16.558175118916306"><ele>141.0</ele><time>2026-04-26T09:30:42.944Z</time></trkpt><trkpt lat="40.378889174931395" lon="16.558230416230764"><ele>142.16666666666666</ele><time>2026-04-26T09:30:45.945Z</time></trkpt><trkpt lat="40.37878945586262" lon="16.558328528297373"><ele>143.33333333333334</ele><time>2026-04-26T09:30:47.946Z</time></trkpt><trkpt lat="40.37871711233784" lon="16.558313051858693"><ele>144.5</ele><time>2026-04-26T09:30:49.946Z</time></trkpt><trkpt lat="40.37872941068659" lon="16.558205613602784"><ele>145.66666666666669</ele><time>2026-04-26T09:30:51.947Z</time></trkpt><trkpt lat="40.37873923498005" lon="16.558111219091906"><ele>146.83333333333334</ele><time>2026-04-26T09:30:52.947Z</time></trkpt><trkpt lat="40.378759122070214" lon="16.55802743628498"><ele>148.0</ele><time>2026-04-26T09:30:53.947Z</time></trkpt><trkpt lat="40.37877008252343" lon="16.557915180011356"><ele>148.0</ele><time>2026-04-26T09:30:54.948Z</time></trkpt><trkpt lat="40.37878009207641" lon="16.55782463648214"><ele>148.0</ele><time>2026-04-26T09:30:55.948Z</time></trkpt><trkpt lat="40.37870600128403" lon="16.557795198443596"><ele>148.0</ele><time>2026-04-26T09:30:57.948Z</time></trkpt><trkpt lat="40.37864599693227" lon="16.557900602303402"><ele>148.0</ele><time>2026-04-26T09:30:59.948Z</time></trkpt><trkpt lat="40.3785431544003" lon="16.557923597457187"><ele>148.0</ele><time>2026-04-26T09:31:03.949Z</time></trkpt><trkpt lat="40.378470379527336" lon="16.557886757010635"><ele>148.0</ele><time>2026-04-26T09:31:05.949Z</time></trkpt><trkpt lat="40.37844878966758" lon="16.55777430866246"><ele>151.5</ele><time>2026-04-26T09:31:08.949Z</time></trkpt><trkpt lat="40.37850253369229" lon="16.55765414669183"><ele>155.0</ele><time>2026-04-26T09:31:10.949Z</time></trkpt><trkpt lat="40.37851136559815" lon="16.55754922284483"><ele>158.5</ele><time>2026-04-26T09:31:12.95Z</time></trkpt><trkpt lat="40.378445278555695" lon="16.55751068745439"><ele>162.0</ele><time>2026-04-26T09:31:14.95Z</time></trkpt><trkpt lat="40.37837872840334" lon="16.557521402767865"><ele>165.5</ele><time>2026-04-26T09:31:15.95Z</time></trkpt><trkpt lat="40.37830558342864" lon="16.557525491723467"><ele>169.0</ele><time>2026-04-26T09:31:16.95Z</time></trkpt><trkpt lat="40.37822907922723" lon="16.557516394153787"><ele>169.0</ele><time>2026-04-26T09:31:17.95Z</time></trkpt><trkpt lat="40.37815598920111" lon="16.557495803141716"><ele>169.0</ele><time>2026-04-26T09:31:18.95Z</time></trkpt><trkpt lat="40.37808340634408" lon="16.55745817804088"><ele>169.0</ele><time>2026-04-26T09:31:19.95Z</time></trkpt><trkpt lat="40.37801491255661" lon="16.55742624650996"><ele>169.0</ele><time>2026-04-26T09:31:20.95Z</time></trkpt><trkpt lat="40.3779439464312" lon="16.557390343693505"><ele>169.0</ele><time>2026-04-26T09:31:21.95Z</time></trkpt><trkpt lat="40.377891248560616" lon="16.557341723466916"><ele>169.0</ele><time>2026-04-26T09:31:28.95Z</time></trkpt><trkpt lat="40.37783031656089" lon="16.557286149506126"><ele>169.0</ele><time>2026-04-26T09:34:12.949Z</time></trkpt><trkpt lat="40.377859488083004" lon="16.557172930774904"><ele>169.33333333333334</ele><time>2026-04-26T09:34:16.95Z</time></trkpt><trkpt lat="40.377937457814596" lon="16.557074078264495"><ele>169.66666666666669</ele><time>2026-04-26T09:34:18.949Z</time></trkpt><trkpt lat="40.37801383539168" lon="16.556947481263112"><ele>170.0</ele><time>2026-04-26T09:34:20.949Z</time></trkpt><trkpt lat="40.37805449173411" lon="16.556868419142713"><ele>170.33333333333334</ele><time>2026-04-26T09:34:21.949Z</time></trkpt><trkpt lat="40.37809673674816" lon="16.556796636305165"><ele>170.66666666666666</ele><time>2026-04-26T09:34:22.949Z</time></trkpt><trkpt lat="40.3781422260458" lon="16.556728713600176"><ele>171.0</ele><time>2026-04-26T09:34:23.949Z</time></trkpt><trkpt lat="40.37818817382046" lon="16.5566545846864"><ele>173.20000000000002</ele><time>2026-04-26T09:34:24.949Z</time></trkpt><trkpt lat="40.378258506499776" lon="16.556551053812523"><ele>175.4</ele><time>2026-04-26T09:34:26.949Z</time></trkpt><trkpt lat="40.37830883766931" lon="16.556494163062844"><ele>177.6</ele><time>2026-04-26T09:34:27.949Z</time></trkpt><trkpt lat="40.3784109698197" lon="16.556423466129143"><ele>179.8</ele><time>2026-04-26T09:34:29.949Z</time></trkpt><trkpt lat="40.37853391509459" lon="16.5563788955997"><ele>182.0</ele><time>2026-04-26T09:34:31.949Z</time></trkpt><trkpt lat="40.37859733443766" lon="16.556360491884053"><ele>182.0</ele><time>2026-04-26T09:34:32.949Z</time></trkpt><trkpt lat="40.378691141228884" lon="16.55629883369164"><ele>182.0</ele><time>2026-04-26T09:34:34.949Z</time></trkpt><trkpt lat="40.37879297283019" lon="16.556234075842372"><ele>182.0</ele><time>2026-04-26T09:34:36.949Z</time></trkpt><trkpt lat="40.37889595434757" lon="16.55616251499608"><ele>182.0</ele><time>2026-04-26T09:34:38.949Z</time></trkpt><trkpt lat="40.378992651160495" lon="16.55607798685839"><ele>183.16666666666666</ele><time>2026-04-26T09:34:41.949Z</time></trkpt><trkpt lat="40.37909534626407" lon="16.556056889977196"><ele>184.33333333333331</ele><time>2026-04-26T09:34:43.949Z</time></trkpt><trkpt lat="40.37917190317729" lon="16.55606392945136"><ele>185.5</ele><time>2026-04-26T09:34:44.949Z</time></trkpt><trkpt lat="40.37924646057597" lon="16.556064642744072"><ele>186.66666666666666</ele><time>2026-04-26T09:34:45.949Z</time></trkpt><trkpt lat="40.379334043812335" lon="16.556069588653315"><ele>187.83333333333334</ele><time>2026-04-26T09:34:46.949Z</time></trkpt><trkpt lat="40.37942312257918" lon="16.556073174176156"><ele>189.0</ele><time>2026-04-26T09:34:47.949Z</time></trkpt><trkpt lat="40.37951280610024" lon="16.556087473966663"><ele>189.0</ele><time>2026-04-26T09:34:48.949Z</time></trkpt><trkpt lat="40.37959980348495" lon="16.55609972396409"><ele>189.0</ele><time>2026-04-26T09:34:49.949Z</time></trkpt><trkpt lat="40.37968623878138" lon="16.556129949936633"><ele>189.0</ele><time>2026-04-26T09:34:50.949Z</time></trkpt><trkpt lat="40.37976193668799" lon="16.556150095808082"><ele>189.0</ele><time>2026-04-26T09:34:51.949Z</time></trkpt><trkpt lat="40.379829812487415" lon="16.55614910359987"><ele>189.0</ele><time>2026-04-26T09:34:52.949Z</time></trkpt><trkpt lat="40.37989425065535" lon="16.556131221698596"><ele>189.0</ele><time>2026-04-26T09:34:53.949Z</time></trkpt><trkpt lat="40.37995012620164" lon="16.556088790790604"><ele>189.16666666666666</ele><time>2026-04-26T09:34:54.949Z</time></trkpt><trkpt lat="40.38000346909202" lon="16.556033507770927"><ele>189.33333333333334</ele><time>2026-04-26T09:34:55.949Z</time></trkpt><trkpt lat="40.38006158818357" lon="16.555992732553072"><ele>189.5</ele><time>2026-04-26T09:34:56.949Z</time></trkpt><trkpt lat="40.38013604972234" lon="16.555969398371246"><ele>189.66666666666669</ele><time>2026-04-26T09:34:57.949Z</time></trkpt><trkpt lat="40.380212530595976" lon="16.555947293246053"><ele>189.83333333333334</ele><time>2026-04-26T09:34:58.949Z</time></trkpt><trkpt lat="40.380293877328874" lon="16.555912547763835"><ele>190.0</ele><time>2026-04-26T09:34:59.949Z</time></trkpt><trkpt lat="40.3803680201772" lon="16.555859034107367"><ele>190.0</ele><time>2026-04-26T09:35:00.949Z</time></trkpt><trkpt lat="40.38044384930671" lon="16.55582894282791"><ele>190.0</ele><time>2026-04-26T09:35:01.949Z</time></trkpt><trkpt lat="40.38054425117548" lon="16.555825672464312"><ele>190.0</ele><time>2026-04-26T09:35:02.949Z</time></trkpt><trkpt lat="40.38066901250175" lon="16.555832999645688"><ele>190.0</ele><time>2026-04-26T09:35:03.949Z</time></trkpt><trkpt lat="40.38079116851283" lon="16.55585258594916"><ele>190.0</ele><time>2026-04-26T09:35:04.949Z</time></trkpt><trkpt lat="40.380922517427294" lon="16.55587322026451"><ele>192.0</ele><time>2026-04-26T09:35:05.949Z</time></trkpt><trkpt lat="40.38106046884971" lon="16.555889401263833"><ele>194.0</ele><time>2026-04-26T09:35:06.949Z</time></trkpt><trkpt lat="40.38121813830201" lon="16.555904332329757"><ele>196.0</ele><time>2026-04-26T09:35:07.949Z</time></trkpt><trkpt lat="40.381557063555775" lon="16.55591969344085"><ele>196.0</ele><time>2026-04-26T09:35:09.949Z</time></trkpt><trkpt lat="40.38176365697041" lon="16.55592894893062"><ele>196.0</ele><time>2026-04-26T09:35:10.949Z</time></trkpt><trkpt lat="40.3819890268885" lon="16.555939686413215"><ele>196.0</ele><time>2026-04-26T09:35:11.949Z</time></trkpt><trkpt lat="40.38222004573559" lon="16.55597217011545"><ele>193.0</ele><time>2026-04-26T09:35:12.949Z</time></trkpt><trkpt lat="40.382448461827025" lon="16.556053758940426"><ele>190.0</ele><time>2026-04-26T09:35:13.949Z</time></trkpt><trkpt lat="40.382663147113824" lon="16.556135406735784"><ele>191.0</ele><time>2026-04-26T09:35:14.949Z</time></trkpt><trkpt lat="40.38287178804378" lon="16.55622328123207"><ele>192.0</ele><time>2026-04-26T09:35:15.949Z</time></trkpt><trkpt lat="40.383058259145116" lon="16.55629062958624"><ele>193.0</ele><time>2026-04-26T09:35:16.949Z</time></trkpt><trkpt lat="40.38320557231475" lon="16.55637048345055"><ele>198.5</ele><time>2026-04-26T09:35:17.949Z</time></trkpt><trkpt lat="40.38332446960387" lon="16.556417487518214"><ele>204.0</ele><time>2026-04-26T09:35:18.949Z</time></trkpt><trkpt lat="40.38345507507827" lon="16.55645465665746"><ele>209.5</ele><time>2026-04-26T09:35:19.949Z</time></trkpt><trkpt lat="40.383577219542204" lon="16.55645215032744"><ele>215.0</ele><time>2026-04-26T09:35:20.949Z</time></trkpt><trkpt lat="40.38370341773713" lon="16.55640739707835"><ele>215.0</ele><time>2026-04-26T09:35:21.949Z</time></trkpt><trkpt lat="40.3838393779524" lon="16.556338321816217"><ele>215.0</ele><time>2026-04-26T09:35:22.949Z</time></trkpt><trkpt lat="40.383991991152165" lon="16.5562697549481"><ele>215.0</ele><time>2026-04-26T09:35:23.949Z</time></trkpt><trkpt lat="40.38416924874926" lon="16.556195968729334"><ele>216.0</ele><time>2026-04-26T09:35:24.949Z</time></trkpt><trkpt lat="40.38432673716566" lon="16.556152327241605"><ele>217.0</ele><time>2026-04-26T09:35:25.949Z</time></trkpt><trkpt lat="40.384453944701875" lon="16.55612156646245"><ele>218.0</ele><time>2026-04-26T09:35:26.949Z</time></trkpt><trkpt lat="40.384570176563244" lon="16.55610939709565"><ele>219.0</ele><time>2026-04-26T09:35:27.949Z</time></trkpt><trkpt lat="40.38465926480986" lon="16.556161505434023"><ele>228.25</ele><time>2026-04-26T09:35:28.949Z</time></trkpt><trkpt lat="40.384765127888784" lon="16.55624332614011"><ele>237.5</ele><time>2026-04-26T09:35:29.949Z</time></trkpt><trkpt lat="40.384907466268054" lon="16.556305655464413"><ele>246.75</ele><time>2026-04-26T09:35:30.949Z</time></trkpt><trkpt lat="40.38505986074086" lon="16.55631497971962"><ele>256.0</ele><time>2026-04-26T09:35:31.949Z</time></trkpt><trkpt lat="40.385206474222514" lon="16.55630591143196"><ele>256.0</ele><time>2026-04-26T09:35:32.949Z</time></trkpt><trkpt lat="40.38534578744024" lon="16.55630746155498"><ele>256.0</ele><time>2026-04-26T09:35:33.949Z</time></trkpt><trkpt lat="40.38549076687584" lon="16.55632829754301"><ele>256.0</ele><time>2026-04-26T09:35:34.949Z</time></trkpt><trkpt lat="40.38562439616039" lon="16.556402832087766"><ele>256.0</ele><time>2026-04-26T09:35:35.949Z</time></trkpt><trkpt lat="40.38576543446002" lon="16.556446743979066"><ele>262.66666666666663</ele><time>2026-04-26T09:35:36.949Z</time></trkpt><trkpt lat="40.38589728790516" lon="16.556525361490245"><ele>269.3333333333333</ele><time>2026-04-26T09:35:37.949Z</time></trkpt><trkpt lat="40.38606992003067" lon="16.5565921467638"><ele>276.0</ele><time>2026-04-26T09:35:38.949Z</time></trkpt><trkpt lat="40.38624129613421" lon="16.556643633594263"><ele>281.0</ele><time>2026-04-26T09:35:39.949Z</time></trkpt><trkpt lat="40.386413658821915" lon="16.556669677671092"><ele>286.0</ele><time>2026-04-26T09:35:40.949Z</time></trkpt><trkpt lat="40.386578404360094" lon="16.556735148827975"><ele>291.0</ele><time>2026-04-26T09:35:41.949Z</time></trkpt><trkpt lat="40.38674137695605" lon="16.556826967884074"><ele>291.0</ele><time>2026-04-26T09:35:42.949Z</time></trkpt><trkpt lat="40.38690383798129" lon="16.556910333986195"><ele>291.0</ele><time>2026-04-26T09:35:43.949Z</time></trkpt><trkpt lat="40.3870650007712" lon="16.55696889790538"><ele>291.0</ele><time>2026-04-26T09:35:44.949Z</time></trkpt><trkpt lat="40.38718572567784" lon="16.556995198229544"><ele>295.5</ele><time>2026-04-26T09:35:45.949Z</time></trkpt><trkpt lat="40.38730218486041" lon="16.556946716471913"><ele>300.0</ele><time>2026-04-26T09:35:46.949Z</time></trkpt><trkpt lat="40.38742913644375" lon="16.556870803653464"><ele>304.5</ele><time>2026-04-26T09:35:47.949Z</time></trkpt><trkpt lat="40.38755664351009" lon="16.55677548194003"><ele>309.0</ele><time>2026-04-26T09:35:48.949Z</time></trkpt><trkpt lat="40.38769006176544" lon="16.556686667506426"><ele>309.0</ele><time>2026-04-26T09:35:49.949Z</time></trkpt><trkpt lat="40.387833895269274" lon="16.55663359921209"><ele>309.0</ele><time>2026-04-26T09:35:50.949Z</time></trkpt><trkpt lat="40.38796957495951" lon="16.55655603910367"><ele>309.0</ele><time>2026-04-26T09:35:51.949Z</time></trkpt><trkpt lat="40.388117208887756" lon="16.556502209411995"><ele>314.75</ele><time>2026-04-26T09:35:52.949Z</time></trkpt><trkpt lat="40.38825243196182" lon="16.556437264995296"><ele>320.5</ele><time>2026-04-26T09:35:53.948Z</time></trkpt><trkpt lat="40.38837720184502" lon="16.556352710399814"><ele>326.25</ele><time>2026-04-26T09:35:54.948Z</time></trkpt><trkpt lat="40.38847900621544" lon="16.556277885055493"><ele>332.0</ele><time>2026-04-26T09:35:55.948Z</time></trkpt><trkpt lat="40.388565981312816" lon="16.556203892769833"><ele>332.0</ele><time>2026-04-26T09:35:56.948Z</time></trkpt><trkpt lat="40.38862217836741" lon="16.556153741219937"><ele>332.0</ele><time>2026-04-26T09:35:57.948Z</time></trkpt><trkpt lat="40.388555096588476" lon="16.55632653253337"><ele>332.0</ele><time>2026-04-26T09:36:03.948Z</time></trkpt><trkpt lat="40.38849417620551" lon="16.55642773591797"><ele>332.0</ele><time>2026-04-26T09:36:04.948Z</time></trkpt><trkpt lat="40.38841417544181" lon="16.556538608265015"><ele>332.0</ele><time>2026-04-26T09:36:05.948Z</time></trkpt><trkpt lat="40.388341230337204" lon="16.556664875083673"><ele>332.0</ele><time>2026-04-26T09:36:06.948Z</time></trkpt><trkpt lat="40.38827190675294" lon="16.55681565862403"><ele>332.0</ele><time>2026-04-26T09:36:07.948Z</time></trkpt><trkpt lat="40.388187042070115" lon="16.556992539867444"><ele>332.0</ele><time>2026-04-26T09:36:08.948Z</time></trkpt><trkpt lat="40.38811458627467" lon="16.55716972774065"><ele>332.0</ele><time>2026-04-26T09:36:09.948Z</time></trkpt><trkpt lat="40.38803399488568" lon="16.557348153546037"><ele>331.33333333333337</ele><time>2026-04-26T09:36:10.948Z</time></trkpt><trkpt lat="40.387956680271195" lon="16.55753071631292"><ele>330.6666666666667</ele><time>2026-04-26T09:36:11.948Z</time></trkpt><trkpt lat="40.38787338151064" lon="16.557718761441336"><ele>330.0</ele><time>2026-04-26T09:36:12.948Z</time></trkpt><trkpt lat="40.38778927878859" lon="16.5579223757728"><ele>330.0</ele><time>2026-04-26T09:36:13.948Z</time></trkpt><trkpt lat="40.38771409473259" lon="16.55809830361087"><ele>330.0</ele><time>2026-04-26T09:36:14.948Z</time></trkpt><trkpt lat="40.38764710795082" lon="16.558297033417826"><ele>330.0</ele><time>2026-04-26T09:36:15.948Z</time></trkpt><trkpt lat="40.38757934425819" lon="16.55850497090062"><ele>330.0</ele><time>2026-04-26T09:36:16.948Z</time></trkpt><trkpt lat="40.38751695863057" lon="16.55869682718983"><ele>330.0</ele><time>2026-04-26T09:36:17.948Z</time></trkpt><trkpt lat="40.38746341048997" lon="16.558869088160886"><ele>330.0</ele><time>2026-04-26T09:36:18.948Z</time></trkpt><trkpt lat="40.38742215518886" lon="16.559005785191033"><ele>330.0</ele><time>2026-04-26T09:36:19.948Z</time></trkpt><trkpt lat="40.38739132726311" lon="16.55913056035358"><ele>330.8</ele><time>2026-04-26T09:36:20.947Z</time></trkpt><trkpt lat="40.38738268554247" lon="16.559242707751498"><ele>331.6</ele><time>2026-04-26T09:36:21.947Z</time></trkpt><trkpt lat="40.387408296200654" lon="16.55936854018606"><ele>332.4</ele><time>2026-04-26T09:36:22.948Z</time></trkpt><trkpt lat="40.38746504609386" lon="16.559504160484202"><ele>333.2</ele><time>2026-04-26T09:36:23.948Z</time></trkpt><trkpt lat="40.387560134948025" lon="16.559622663620104"><ele>334.0</ele><time>2026-04-26T09:36:24.948Z</time></trkpt><trkpt lat="40.38767243384505" lon="16.55973145756376"><ele>334.0</ele><time>2026-04-26T09:36:25.948Z</time></trkpt><trkpt lat="40.3877470710987" lon="16.559850108674635"><ele>334.0</ele><time>2026-04-26T09:36:26.948Z</time></trkpt><trkpt lat="40.38781729126465" lon="16.559977849254263"><ele>334.0</ele><time>2026-04-26T09:36:27.948Z</time></trkpt><trkpt lat="40.387874681789846" lon="16.56011765518456"><ele>334.0</ele><time>2026-04-26T09:36:28.948Z</time></trkpt><trkpt lat="40.38785364537504" lon="16.560284405185936"><ele>334.66666666666663</ele><time>2026-04-26T09:36:29.948Z</time></trkpt><trkpt lat="40.38788092080359" lon="16.560478481485788"><ele>335.3333333333333</ele><time>2026-04-26T09:36:30.948Z</time></trkpt><trkpt lat="40.38795449947853" lon="16.56064111903619"><ele>336.0</ele><time>2026-04-26T09:36:31.948Z</time></trkpt><trkpt lat="40.38801815172701" lon="16.560828535890874"><ele>336.0</ele><time>2026-04-26T09:36:32.948Z</time></trkpt><trkpt lat="40.388094871109274" lon="16.561012744570224"><ele>336.0</ele><time>2026-04-26T09:36:33.948Z</time></trkpt><trkpt lat="40.388169621311725" lon="16.561190367670115"><ele>336.0</ele><time>2026-04-26T09:36:34.948Z</time></trkpt><trkpt lat="40.38824072567775" lon="16.561375586655277"><ele>334.25</ele><time>2026-04-26T09:36:35.948Z</time></trkpt><trkpt lat="40.38830416140487" lon="16.561550967779688"><ele>332.5</ele><time>2026-04-26T09:36:36.948Z</time></trkpt><trkpt lat="40.38837136833164" lon="16.5617226832188"><ele>330.75</ele><time>2026-04-26T09:36:37.948Z</time></trkpt><trkpt lat="40.38845374599765" lon="16.561893458816428"><ele>329.0</ele><time>2026-04-26T09:36:38.948Z</time></trkpt><trkpt lat="40.388515932966605" lon="16.56205697885251"><ele>328.2</ele><time>2026-04-26T09:36:39.948Z</time></trkpt><trkpt lat="40.388572597378904" lon="16.56221528235606"><ele>327.4</ele><time>2026-04-26T09:36:40.948Z</time></trkpt><trkpt lat="40.38862621677731" lon="16.56233906424988"><ele>326.6</ele><time>2026-04-26T09:36:41.948Z</time></trkpt><trkpt lat="40.3886833030594" lon="16.562441336276578"><ele>325.8</ele><time>2026-04-26T09:36:42.948Z</time></trkpt><trkpt lat="40.38875939002258" lon="16.562504302722246"><ele>325.0</ele><time>2026-04-26T09:36:43.948Z</time></trkpt><trkpt lat="40.388849785686425" lon="16.562541132232298"><ele>328.8</ele><time>2026-04-26T09:36:44.948Z</time></trkpt><trkpt lat="40.38892769165051" lon="16.562580082852953"><ele>332.6</ele><time>2026-04-26T09:36:45.948Z</time></trkpt><trkpt lat="40.38900338595672" lon="16.562622965028776"><ele>336.4</ele><time>2026-04-26T09:36:46.948Z</time></trkpt><trkpt lat="40.38908204611208" lon="16.562651166137858"><ele>340.2</ele><time>2026-04-26T09:36:47.948Z</time></trkpt><trkpt lat="40.38914608206887" lon="16.562693099328822"><ele>344.0</ele><time>2026-04-26T09:36:49.948Z</time></trkpt><trkpt lat="40.38923205604612" lon="16.56255019730112"><ele>344.0</ele><time>2026-04-26T09:36:56.947Z</time></trkpt><trkpt lat="40.38926588262475" lon="16.56247543100155"><ele>344.0</ele><time>2026-04-26T09:36:57.947Z</time></trkpt><trkpt lat="40.389299430448595" lon="16.56239783207881"><ele>344.0</ele><time>2026-04-26T09:36:58.947Z</time></trkpt><trkpt lat="40.38934142520974" lon="16.56231864768481"><ele>344.0</ele><time>2026-04-26T09:36:59.947Z</time></trkpt><trkpt lat="40.38940244543852" lon="16.562176639939327"><ele>344.0</ele><time>2026-04-26T09:37:01.947Z</time></trkpt><trkpt lat="40.389445792730854" lon="16.562055627969155"><ele>344.0</ele><time>2026-04-26T09:37:03.947Z</time></trkpt><trkpt lat="40.38947823291759" lon="16.561982790986917"><ele>346.0</ele><time>2026-04-26T09:37:10.947Z</time></trkpt><trkpt lat="40.389530019683555" lon="16.56192003231224"><ele>346.0</ele><time>2026-04-26T09:37:33.947Z</time></trkpt></trkseg></trk></gpx>